<?xml version="1.0" encoding="UTF-8" standalone="no" ?>
<gpx xmlns="http://www.topografix.com/GPX/1/1" xmlns:xsi="http://www.w3.org/2001/XMLSchema-instance" xsi:schemaLocation="http://www.topografix.com/GPX/1/1 http://www.topografix.com/GPX/1/1/gpx.xsd" version="1.1" creator="VisuGPX - https://www.visugpx.com">
  <metadata>
    <name>Millau - Mont Seigne I</name>
    <desc><![CDATA[De gros pneus en tubeless seront les bienvenus !]]></desc>
  </metadata>
  <trk>
    <name><![CDATA[Millau - Mont Seigne I_1]]></name>
    <desc><![CDATA[]]></desc>
    <trkseg>
      <trkpt lat="44.0972" lon="3.07099">
        <ele>105.2</ele>
        <time>2025-08-31T09:14:01.000Z</time>
      </trkpt>
      <trkpt lat="44.0973" lon="3.07107">
        <ele>105.2</ele>
        <time>2025-08-31T09:14:04.000Z</time>
      </trkpt>
      <trkpt lat="44.0974" lon="3.07112">
        <ele>104.2</ele>
        <time>2025-08-31T09:15:06.000Z</time>
      </trkpt>
      <trkpt lat="44.09748" lon="3.07118">
        <ele>104.2</ele>
        <time>2025-08-31T09:15:08.000Z</time>
      </trkpt>
      <trkpt lat="44.09758" lon="3.07125">
        <ele>104.2</ele>
        <time>2025-08-31T09:15:10.000Z</time>
      </trkpt>
      <trkpt lat="44.09768" lon="3.07132">
        <ele>104.3</ele>
        <time>2025-08-31T09:15:12.000Z</time>
      </trkpt>
      <trkpt lat="44.09778" lon="3.07138">
        <ele>104.4</ele>
        <time>2025-08-31T09:15:14.000Z</time>
      </trkpt>
      <trkpt lat="44.09787" lon="3.07145">
        <ele>104.5</ele>
        <time>2025-08-31T09:15:16.000Z</time>
      </trkpt>
      <trkpt lat="44.09797" lon="3.07152">
        <ele>104.7</ele>
        <time>2025-08-31T09:15:18.000Z</time>
      </trkpt>
      <trkpt lat="44.09806" lon="3.07158">
        <ele>104.9</ele>
        <time>2025-08-31T09:15:20.000Z</time>
      </trkpt>
      <trkpt lat="44.09815" lon="3.07163">
        <ele>105.2</ele>
        <time>2025-08-31T09:15:22.000Z</time>
      </trkpt>
      <trkpt lat="44.09827" lon="3.07171">
        <ele>105.8</ele>
        <time>2025-08-31T09:15:25.000Z</time>
      </trkpt>
      <trkpt lat="44.09835" lon="3.07177">
        <ele>106.1</ele>
        <time>2025-08-31T09:15:27.000Z</time>
      </trkpt>
      <trkpt lat="44.09845" lon="3.07183">
        <ele>106.5</ele>
        <time>2025-08-31T09:15:29.000Z</time>
      </trkpt>
      <trkpt lat="44.09855" lon="3.0719">
        <ele>106.8</ele>
        <time>2025-08-31T09:15:31.000Z</time>
      </trkpt>
      <trkpt lat="44.09865" lon="3.07197">
        <ele>107.1</ele>
        <time>2025-08-31T09:15:33.000Z</time>
      </trkpt>
      <trkpt lat="44.09876" lon="3.07204">
        <ele>107.5</ele>
        <time>2025-08-31T09:15:35.000Z</time>
      </trkpt>
      <trkpt lat="44.09889" lon="3.07209">
        <ele>107.8</ele>
        <time>2025-08-31T09:15:37.000Z</time>
      </trkpt>
      <trkpt lat="44.09899" lon="3.07216">
        <ele>108.2</ele>
        <time>2025-08-31T09:15:39.000Z</time>
      </trkpt>
      <trkpt lat="44.0991" lon="3.07222">
        <ele>108.5</ele>
        <time>2025-08-31T09:15:41.000Z</time>
      </trkpt>
      <trkpt lat="44.0992" lon="3.07227">
        <ele>108.7</ele>
        <time>2025-08-31T09:15:43.000Z</time>
      </trkpt>
      <trkpt lat="44.0993" lon="3.07233">
        <ele>108.9</ele>
        <time>2025-08-31T09:15:45.000Z</time>
      </trkpt>
      <trkpt lat="44.09939" lon="3.0724">
        <ele>109.1</ele>
        <time>2025-08-31T09:15:47.000Z</time>
      </trkpt>
      <trkpt lat="44.09949" lon="3.07246">
        <ele>109.3</ele>
        <time>2025-08-31T09:15:49.000Z</time>
      </trkpt>
      <trkpt lat="44.09958" lon="3.07251">
        <ele>109.5</ele>
        <time>2025-08-31T09:15:51.000Z</time>
      </trkpt>
      <trkpt lat="44.09972" lon="3.07251">
        <ele>109.8</ele>
        <time>2025-08-31T09:15:54.000Z</time>
      </trkpt>
      <trkpt lat="44.09982" lon="3.07251">
        <ele>110</ele>
        <time>2025-08-31T09:15:56.000Z</time>
      </trkpt>
      <trkpt lat="44.09993" lon="3.0725">
        <ele>110.2</ele>
        <time>2025-08-31T09:15:58.000Z</time>
      </trkpt>
      <trkpt lat="44.10001" lon="3.07241">
        <ele>110.3</ele>
        <time>2025-08-31T09:16:00.000Z</time>
      </trkpt>
      <trkpt lat="44.10004" lon="3.07229">
        <ele>110.5</ele>
        <time>2025-08-31T09:16:02.000Z</time>
      </trkpt>
      <trkpt lat="44.10007" lon="3.07212">
        <ele>110.9</ele>
        <time>2025-08-31T09:16:05.000Z</time>
      </trkpt>
      <trkpt lat="44.10006" lon="3.07195">
        <ele>111.4</ele>
        <time>2025-08-31T09:16:08.000Z</time>
      </trkpt>
      <trkpt lat="44.10006" lon="3.07182">
        <ele>111.9</ele>
        <time>2025-08-31T09:16:11.000Z</time>
      </trkpt>
      <trkpt lat="44.10007" lon="3.07168">
        <ele>112.5</ele>
        <time>2025-08-31T09:16:14.000Z</time>
      </trkpt>
      <trkpt lat="44.10007" lon="3.07154">
        <ele>113.1</ele>
        <time>2025-08-31T09:16:17.000Z</time>
      </trkpt>
      <trkpt lat="44.10011" lon="3.07138">
        <ele>114</ele>
        <time>2025-08-31T09:16:21.000Z</time>
      </trkpt>
      <trkpt lat="44.10014" lon="3.07122">
        <ele>114.9</ele>
        <time>2025-08-31T09:16:25.000Z</time>
      </trkpt>
      <trkpt lat="44.10017" lon="3.07106">
        <ele>115.9</ele>
        <time>2025-08-31T09:16:29.000Z</time>
      </trkpt>
      <trkpt lat="44.10019" lon="3.07093">
        <ele>116.6</ele>
        <time>2025-08-31T09:16:32.000Z</time>
      </trkpt>
      <trkpt lat="44.10022" lon="3.0708">
        <ele>117.2</ele>
        <time>2025-08-31T09:16:35.000Z</time>
      </trkpt>
      <trkpt lat="44.10026" lon="3.07067">
        <ele>117.9</ele>
        <time>2025-08-31T09:16:38.000Z</time>
      </trkpt>
      <trkpt lat="44.10029" lon="3.07054">
        <ele>118.5</ele>
        <time>2025-08-31T09:16:41.000Z</time>
      </trkpt>
      <trkpt lat="44.10032" lon="3.07041">
        <ele>119.2</ele>
        <time>2025-08-31T09:16:44.000Z</time>
      </trkpt>
      <trkpt lat="44.10035" lon="3.07029">
        <ele>119.8</ele>
        <time>2025-08-31T09:16:47.000Z</time>
      </trkpt>
      <trkpt lat="44.10039" lon="3.07016">
        <ele>120.4</ele>
        <time>2025-08-31T09:16:50.000Z</time>
      </trkpt>
      <trkpt lat="44.10042" lon="3.07003">
        <ele>120.9</ele>
        <time>2025-08-31T09:16:53.000Z</time>
      </trkpt>
      <trkpt lat="44.10045" lon="3.0699">
        <ele>121.6</ele>
        <time>2025-08-31T09:16:56.000Z</time>
      </trkpt>
      <trkpt lat="44.10049" lon="3.06976">
        <ele>122.2</ele>
        <time>2025-08-31T09:16:59.000Z</time>
      </trkpt>
      <trkpt lat="44.10051" lon="3.06964">
        <ele>122.8</ele>
        <time>2025-08-31T09:17:02.000Z</time>
      </trkpt>
      <trkpt lat="44.10055" lon="3.06952">
        <ele>123.4</ele>
        <time>2025-08-31T09:17:05.000Z</time>
      </trkpt>
      <trkpt lat="44.10059" lon="3.0694">
        <ele>124.1</ele>
        <time>2025-08-31T09:17:08.000Z</time>
      </trkpt>
      <trkpt lat="44.10063" lon="3.06927">
        <ele>124.7</ele>
        <time>2025-08-31T09:17:11.000Z</time>
      </trkpt>
      <trkpt lat="44.10067" lon="3.06914">
        <ele>125.3</ele>
        <time>2025-08-31T09:17:14.000Z</time>
      </trkpt>
      <trkpt lat="44.10071" lon="3.069">
        <ele>126</ele>
        <time>2025-08-31T09:17:17.000Z</time>
      </trkpt>
      <trkpt lat="44.10075" lon="3.06887">
        <ele>126.5</ele>
        <time>2025-08-31T09:17:20.000Z</time>
      </trkpt>
      <trkpt lat="44.1008" lon="3.06874">
        <ele>127.1</ele>
        <time>2025-08-31T09:17:23.000Z</time>
      </trkpt>
      <trkpt lat="44.10085" lon="3.06861">
        <ele>127.7</ele>
        <time>2025-08-31T09:17:26.000Z</time>
      </trkpt>
      <trkpt lat="44.1009" lon="3.06848">
        <ele>128.3</ele>
        <time>2025-08-31T09:17:29.000Z</time>
      </trkpt>
      <trkpt lat="44.10094" lon="3.06835">
        <ele>128.9</ele>
        <time>2025-08-31T09:17:32.000Z</time>
      </trkpt>
      <trkpt lat="44.10099" lon="3.06822">
        <ele>129.6</ele>
        <time>2025-08-31T09:17:35.000Z</time>
      </trkpt>
      <trkpt lat="44.10104" lon="3.06811">
        <ele>130.2</ele>
        <time>2025-08-31T09:17:38.000Z</time>
      </trkpt>
      <trkpt lat="44.1011" lon="3.068">
        <ele>130.8</ele>
        <time>2025-08-31T09:17:41.000Z</time>
      </trkpt>
      <trkpt lat="44.10115" lon="3.06788">
        <ele>131.3</ele>
        <time>2025-08-31T09:17:44.000Z</time>
      </trkpt>
      <trkpt lat="44.1012" lon="3.06775">
        <ele>131.9</ele>
        <time>2025-08-31T09:17:47.000Z</time>
      </trkpt>
      <trkpt lat="44.10125" lon="3.06763">
        <ele>132.4</ele>
        <time>2025-08-31T09:17:50.000Z</time>
      </trkpt>
      <trkpt lat="44.10129" lon="3.06752">
        <ele>133</ele>
        <time>2025-08-31T09:17:53.000Z</time>
      </trkpt>
      <trkpt lat="44.10139" lon="3.06743">
        <ele>133.9</ele>
        <time>2025-08-31T09:17:57.000Z</time>
      </trkpt>
      <trkpt lat="44.10145" lon="3.06734">
        <ele>134.5</ele>
        <time>2025-08-31T09:18:00.000Z</time>
      </trkpt>
      <trkpt lat="44.10146" lon="3.0672">
        <ele>135.1</ele>
        <time>2025-08-31T09:18:03.000Z</time>
      </trkpt>
      <trkpt lat="44.10149" lon="3.06708">
        <ele>135.7</ele>
        <time>2025-08-31T09:18:06.000Z</time>
      </trkpt>
      <trkpt lat="44.10154" lon="3.06698">
        <ele>136.5</ele>
        <time>2025-08-31T09:18:09.000Z</time>
      </trkpt>
      <trkpt lat="44.10159" lon="3.06687">
        <ele>137.2</ele>
        <time>2025-08-31T09:18:12.000Z</time>
      </trkpt>
      <trkpt lat="44.10166" lon="3.06673">
        <ele>138</ele>
        <time>2025-08-31T09:18:16.000Z</time>
      </trkpt>
      <trkpt lat="44.10172" lon="3.06663">
        <ele>138.8</ele>
        <time>2025-08-31T09:18:19.000Z</time>
      </trkpt>
      <trkpt lat="44.1018" lon="3.06651">
        <ele>139.7</ele>
        <time>2025-08-31T09:18:23.000Z</time>
      </trkpt>
      <trkpt lat="44.10187" lon="3.06638">
        <ele>140.7</ele>
        <time>2025-08-31T09:18:27.000Z</time>
      </trkpt>
      <trkpt lat="44.10193" lon="3.06626">
        <ele>141.8</ele>
        <time>2025-08-31T09:18:31.000Z</time>
      </trkpt>
      <trkpt lat="44.102" lon="3.06614">
        <ele>142.8</ele>
        <time>2025-08-31T09:18:35.000Z</time>
      </trkpt>
      <trkpt lat="44.10207" lon="3.06604">
        <ele>143.9</ele>
        <time>2025-08-31T09:18:39.000Z</time>
      </trkpt>
      <trkpt lat="44.10217" lon="3.06594">
        <ele>145</ele>
        <time>2025-08-31T09:18:43.000Z</time>
      </trkpt>
      <trkpt lat="44.10225" lon="3.06582">
        <ele>146.1</ele>
        <time>2025-08-31T09:18:47.000Z</time>
      </trkpt>
      <trkpt lat="44.10234" lon="3.06571">
        <ele>147.3</ele>
        <time>2025-08-31T09:18:51.000Z</time>
      </trkpt>
      <trkpt lat="44.1024" lon="3.06562">
        <ele>148.1</ele>
        <time>2025-08-31T09:18:54.000Z</time>
      </trkpt>
      <trkpt lat="44.10249" lon="3.0655">
        <ele>149.2</ele>
        <time>2025-08-31T09:18:58.000Z</time>
      </trkpt>
      <trkpt lat="44.10256" lon="3.06542">
        <ele>150.1</ele>
        <time>2025-08-31T09:19:01.000Z</time>
      </trkpt>
      <trkpt lat="44.10265" lon="3.06532">
        <ele>151.3</ele>
        <time>2025-08-31T09:19:05.000Z</time>
      </trkpt>
      <trkpt lat="44.10274" lon="3.06523">
        <ele>152.4</ele>
        <time>2025-08-31T09:19:09.000Z</time>
      </trkpt>
      <trkpt lat="44.10282" lon="3.06517">
        <ele>153.2</ele>
        <time>2025-08-31T09:19:12.000Z</time>
      </trkpt>
      <trkpt lat="44.1029" lon="3.06508">
        <ele>154.1</ele>
        <time>2025-08-31T09:19:15.000Z</time>
      </trkpt>
      <trkpt lat="44.10299" lon="3.06499">
        <ele>155.2</ele>
        <time>2025-08-31T09:19:19.000Z</time>
      </trkpt>
      <trkpt lat="44.10308" lon="3.0649">
        <ele>156.3</ele>
        <time>2025-08-31T09:19:23.000Z</time>
      </trkpt>
      <trkpt lat="44.10316" lon="3.0648">
        <ele>157.4</ele>
        <time>2025-08-31T09:19:27.000Z</time>
      </trkpt>
      <trkpt lat="44.10324" lon="3.0647">
        <ele>158.4</ele>
        <time>2025-08-31T09:19:31.000Z</time>
      </trkpt>
      <trkpt lat="44.10331" lon="3.0646">
        <ele>159.4</ele>
        <time>2025-08-31T09:19:35.000Z</time>
      </trkpt>
      <trkpt lat="44.10339" lon="3.0645">
        <ele>160.5</ele>
        <time>2025-08-31T09:19:39.000Z</time>
      </trkpt>
      <trkpt lat="44.10347" lon="3.0644">
        <ele>161.5</ele>
        <time>2025-08-31T09:19:43.000Z</time>
      </trkpt>
      <trkpt lat="44.10354" lon="3.06431">
        <ele>162.5</ele>
        <time>2025-08-31T09:19:47.000Z</time>
      </trkpt>
      <trkpt lat="44.10362" lon="3.06422">
        <ele>163.4</ele>
        <time>2025-08-31T09:19:51.000Z</time>
      </trkpt>
      <trkpt lat="44.10369" lon="3.06413">
        <ele>164.3</ele>
        <time>2025-08-31T09:19:55.000Z</time>
      </trkpt>
      <trkpt lat="44.10376" lon="3.06404">
        <ele>165.2</ele>
        <time>2025-08-31T09:19:59.000Z</time>
      </trkpt>
      <trkpt lat="44.10384" lon="3.06396">
        <ele>166.1</ele>
        <time>2025-08-31T09:20:03.000Z</time>
      </trkpt>
      <trkpt lat="44.10392" lon="3.06388">
        <ele>167</ele>
        <time>2025-08-31T09:20:07.000Z</time>
      </trkpt>
      <trkpt lat="44.10399" lon="3.06379">
        <ele>167.9</ele>
        <time>2025-08-31T09:20:11.000Z</time>
      </trkpt>
      <trkpt lat="44.10407" lon="3.06371">
        <ele>168.8</ele>
        <time>2025-08-31T09:20:15.000Z</time>
      </trkpt>
      <trkpt lat="44.10414" lon="3.06361">
        <ele>169.7</ele>
        <time>2025-08-31T09:20:19.000Z</time>
      </trkpt>
      <trkpt lat="44.10422" lon="3.0635">
        <ele>170.6</ele>
        <time>2025-08-31T09:20:23.000Z</time>
      </trkpt>
      <trkpt lat="44.1043" lon="3.06339">
        <ele>171.4</ele>
        <time>2025-08-31T09:20:27.000Z</time>
      </trkpt>
      <trkpt lat="44.10438" lon="3.06329">
        <ele>172.3</ele>
        <time>2025-08-31T09:20:31.000Z</time>
      </trkpt>
      <trkpt lat="44.10446" lon="3.06319">
        <ele>173.3</ele>
        <time>2025-08-31T09:20:35.000Z</time>
      </trkpt>
      <trkpt lat="44.10453" lon="3.06308">
        <ele>174.2</ele>
        <time>2025-08-31T09:20:39.000Z</time>
      </trkpt>
      <trkpt lat="44.10462" lon="3.06296">
        <ele>175.1</ele>
        <time>2025-08-31T09:20:43.000Z</time>
      </trkpt>
      <trkpt lat="44.10469" lon="3.06284">
        <ele>176</ele>
        <time>2025-08-31T09:20:47.000Z</time>
      </trkpt>
      <trkpt lat="44.10476" lon="3.06273">
        <ele>176.9</ele>
        <time>2025-08-31T09:20:51.000Z</time>
      </trkpt>
      <trkpt lat="44.10484" lon="3.06262">
        <ele>177.8</ele>
        <time>2025-08-31T09:20:55.000Z</time>
      </trkpt>
      <trkpt lat="44.1049" lon="3.06252">
        <ele>178.5</ele>
        <time>2025-08-31T09:20:59.000Z</time>
      </trkpt>
      <trkpt lat="44.10498" lon="3.0624">
        <ele>179.2</ele>
        <time>2025-08-31T09:21:03.000Z</time>
      </trkpt>
      <trkpt lat="44.10506" lon="3.06228">
        <ele>179.9</ele>
        <time>2025-08-31T09:21:07.000Z</time>
      </trkpt>
      <trkpt lat="44.10513" lon="3.06216">
        <ele>180.6</ele>
        <time>2025-08-31T09:21:11.000Z</time>
      </trkpt>
      <trkpt lat="44.10522" lon="3.06205">
        <ele>181.3</ele>
        <time>2025-08-31T09:21:15.000Z</time>
      </trkpt>
      <trkpt lat="44.1053" lon="3.06196">
        <ele>181.9</ele>
        <time>2025-08-31T09:21:18.000Z</time>
      </trkpt>
      <trkpt lat="44.10538" lon="3.06187">
        <ele>182.4</ele>
        <time>2025-08-31T09:21:21.000Z</time>
      </trkpt>
      <trkpt lat="44.10544" lon="3.06177">
        <ele>183</ele>
        <time>2025-08-31T09:21:24.000Z</time>
      </trkpt>
      <trkpt lat="44.1055" lon="3.06168">
        <ele>183.5</ele>
        <time>2025-08-31T09:21:27.000Z</time>
      </trkpt>
      <trkpt lat="44.10556" lon="3.06158">
        <ele>184.1</ele>
        <time>2025-08-31T09:21:30.000Z</time>
      </trkpt>
      <trkpt lat="44.10562" lon="3.06148">
        <ele>184.7</ele>
        <time>2025-08-31T09:21:33.000Z</time>
      </trkpt>
      <trkpt lat="44.10568" lon="3.06138">
        <ele>185.4</ele>
        <time>2025-08-31T09:21:36.000Z</time>
      </trkpt>
      <trkpt lat="44.10573" lon="3.06128">
        <ele>186.1</ele>
        <time>2025-08-31T09:21:39.000Z</time>
      </trkpt>
      <trkpt lat="44.1058" lon="3.06115">
        <ele>186.9</ele>
        <time>2025-08-31T09:21:43.000Z</time>
      </trkpt>
      <trkpt lat="44.10586" lon="3.06104">
        <ele>187.6</ele>
        <time>2025-08-31T09:21:46.000Z</time>
      </trkpt>
      <trkpt lat="44.10592" lon="3.06092">
        <ele>188.3</ele>
        <time>2025-08-31T09:21:49.000Z</time>
      </trkpt>
      <trkpt lat="44.10598" lon="3.06082">
        <ele>188.9</ele>
        <time>2025-08-31T09:21:52.000Z</time>
      </trkpt>
      <trkpt lat="44.10605" lon="3.06073">
        <ele>189.5</ele>
        <time>2025-08-31T09:21:55.000Z</time>
      </trkpt>
      <trkpt lat="44.10613" lon="3.0606">
        <ele>190.5</ele>
        <time>2025-08-31T09:21:59.000Z</time>
      </trkpt>
      <trkpt lat="44.10619" lon="3.06051">
        <ele>191.2</ele>
        <time>2025-08-31T09:22:02.000Z</time>
      </trkpt>
      <trkpt lat="44.10625" lon="3.06041">
        <ele>191.8</ele>
        <time>2025-08-31T09:22:05.000Z</time>
      </trkpt>
      <trkpt lat="44.10633" lon="3.06029">
        <ele>192.7</ele>
        <time>2025-08-31T09:22:09.000Z</time>
      </trkpt>
      <trkpt lat="44.1064" lon="3.06016">
        <ele>193.6</ele>
        <time>2025-08-31T09:22:13.000Z</time>
      </trkpt>
      <trkpt lat="44.10648" lon="3.06003">
        <ele>194.6</ele>
        <time>2025-08-31T09:22:17.000Z</time>
      </trkpt>
      <trkpt lat="44.10654" lon="3.05991">
        <ele>195.3</ele>
        <time>2025-08-31T09:22:20.000Z</time>
      </trkpt>
      <trkpt lat="44.1066" lon="3.05978">
        <ele>196</ele>
        <time>2025-08-31T09:22:23.000Z</time>
      </trkpt>
      <trkpt lat="44.10666" lon="3.05964">
        <ele>196.8</ele>
        <time>2025-08-31T09:22:26.000Z</time>
      </trkpt>
      <trkpt lat="44.10671" lon="3.0595">
        <ele>197.5</ele>
        <time>2025-08-31T09:22:29.000Z</time>
      </trkpt>
      <trkpt lat="44.10677" lon="3.05936">
        <ele>198.2</ele>
        <time>2025-08-31T09:22:32.000Z</time>
      </trkpt>
      <trkpt lat="44.10683" lon="3.05922">
        <ele>198.9</ele>
        <time>2025-08-31T09:22:35.000Z</time>
      </trkpt>
      <trkpt lat="44.10688" lon="3.05908">
        <ele>199.6</ele>
        <time>2025-08-31T09:22:38.000Z</time>
      </trkpt>
      <trkpt lat="44.10694" lon="3.05895">
        <ele>200.3</ele>
        <time>2025-08-31T09:22:41.000Z</time>
      </trkpt>
      <trkpt lat="44.10699" lon="3.05883">
        <ele>200.9</ele>
        <time>2025-08-31T09:22:44.000Z</time>
      </trkpt>
      <trkpt lat="44.10703" lon="3.0587">
        <ele>201.6</ele>
        <time>2025-08-31T09:22:47.000Z</time>
      </trkpt>
      <trkpt lat="44.10707" lon="3.05858">
        <ele>202.2</ele>
        <time>2025-08-31T09:22:50.000Z</time>
      </trkpt>
      <trkpt lat="44.10709" lon="3.05845">
        <ele>202.9</ele>
        <time>2025-08-31T09:22:53.000Z</time>
      </trkpt>
      <trkpt lat="44.10712" lon="3.05831">
        <ele>203.5</ele>
        <time>2025-08-31T09:22:56.000Z</time>
      </trkpt>
      <trkpt lat="44.10714" lon="3.05817">
        <ele>204.1</ele>
        <time>2025-08-31T09:22:59.000Z</time>
      </trkpt>
      <trkpt lat="44.10717" lon="3.05803">
        <ele>204.7</ele>
        <time>2025-08-31T09:23:02.000Z</time>
      </trkpt>
      <trkpt lat="44.10719" lon="3.05788">
        <ele>205.2</ele>
        <time>2025-08-31T09:23:05.000Z</time>
      </trkpt>
      <trkpt lat="44.10721" lon="3.05773">
        <ele>205.7</ele>
        <time>2025-08-31T09:23:08.000Z</time>
      </trkpt>
      <trkpt lat="44.10723" lon="3.05758">
        <ele>206</ele>
        <time>2025-08-31T09:23:11.000Z</time>
      </trkpt>
      <trkpt lat="44.10726" lon="3.05743">
        <ele>206.4</ele>
        <time>2025-08-31T09:23:14.000Z</time>
      </trkpt>
      <trkpt lat="44.10729" lon="3.05728">
        <ele>206.7</ele>
        <time>2025-08-31T09:23:17.000Z</time>
      </trkpt>
      <trkpt lat="44.10731" lon="3.05711">
        <ele>207</ele>
        <time>2025-08-31T09:23:20.000Z</time>
      </trkpt>
      <trkpt lat="44.10733" lon="3.05694">
        <ele>207.4</ele>
        <time>2025-08-31T09:23:23.000Z</time>
      </trkpt>
      <trkpt lat="44.10736" lon="3.05677">
        <ele>207.8</ele>
        <time>2025-08-31T09:23:26.000Z</time>
      </trkpt>
      <trkpt lat="44.10739" lon="3.05661">
        <ele>208.1</ele>
        <time>2025-08-31T09:23:29.000Z</time>
      </trkpt>
      <trkpt lat="44.10741" lon="3.05645">
        <ele>208.5</ele>
        <time>2025-08-31T09:23:32.000Z</time>
      </trkpt>
      <trkpt lat="44.10743" lon="3.05629">
        <ele>208.9</ele>
        <time>2025-08-31T09:23:35.000Z</time>
      </trkpt>
      <trkpt lat="44.10745" lon="3.05614">
        <ele>209.4</ele>
        <time>2025-08-31T09:23:38.000Z</time>
      </trkpt>
      <trkpt lat="44.10745" lon="3.05599">
        <ele>209.8</ele>
        <time>2025-08-31T09:23:41.000Z</time>
      </trkpt>
      <trkpt lat="44.10745" lon="3.05585">
        <ele>210.3</ele>
        <time>2025-08-31T09:23:44.000Z</time>
      </trkpt>
      <trkpt lat="44.10745" lon="3.05571">
        <ele>210.8</ele>
        <time>2025-08-31T09:23:47.000Z</time>
      </trkpt>
      <trkpt lat="44.10745" lon="3.05558">
        <ele>211.3</ele>
        <time>2025-08-31T09:23:50.000Z</time>
      </trkpt>
      <trkpt lat="44.10745" lon="3.05543">
        <ele>211.9</ele>
        <time>2025-08-31T09:23:53.000Z</time>
      </trkpt>
      <trkpt lat="44.10745" lon="3.05529">
        <ele>212.5</ele>
        <time>2025-08-31T09:23:56.000Z</time>
      </trkpt>
      <trkpt lat="44.10745" lon="3.05515">
        <ele>213.2</ele>
        <time>2025-08-31T09:23:59.000Z</time>
      </trkpt>
      <trkpt lat="44.10745" lon="3.05502">
        <ele>214</ele>
        <time>2025-08-31T09:24:02.000Z</time>
      </trkpt>
      <trkpt lat="44.10748" lon="3.05486">
        <ele>214.9</ele>
        <time>2025-08-31T09:24:06.000Z</time>
      </trkpt>
      <trkpt lat="44.10751" lon="3.05474">
        <ele>215.7</ele>
        <time>2025-08-31T09:24:09.000Z</time>
      </trkpt>
      <trkpt lat="44.10754" lon="3.05462">
        <ele>216.4</ele>
        <time>2025-08-31T09:24:12.000Z</time>
      </trkpt>
      <trkpt lat="44.10759" lon="3.05448">
        <ele>217.4</ele>
        <time>2025-08-31T09:24:16.000Z</time>
      </trkpt>
      <trkpt lat="44.10764" lon="3.05433">
        <ele>218.4</ele>
        <time>2025-08-31T09:24:20.000Z</time>
      </trkpt>
      <trkpt lat="44.10768" lon="3.05418">
        <ele>219.3</ele>
        <time>2025-08-31T09:24:24.000Z</time>
      </trkpt>
      <trkpt lat="44.10772" lon="3.05407">
        <ele>220.1</ele>
        <time>2025-08-31T09:24:27.000Z</time>
      </trkpt>
      <trkpt lat="44.10778" lon="3.05392">
        <ele>221</ele>
        <time>2025-08-31T09:24:31.000Z</time>
      </trkpt>
      <trkpt lat="44.10783" lon="3.05378">
        <ele>221.9</ele>
        <time>2025-08-31T09:24:35.000Z</time>
      </trkpt>
      <trkpt lat="44.10789" lon="3.05363">
        <ele>222.7</ele>
        <time>2025-08-31T09:24:39.000Z</time>
      </trkpt>
      <trkpt lat="44.10794" lon="3.05349">
        <ele>223.6</ele>
        <time>2025-08-31T09:24:43.000Z</time>
      </trkpt>
      <trkpt lat="44.10799" lon="3.05337">
        <ele>224.2</ele>
        <time>2025-08-31T09:24:46.000Z</time>
      </trkpt>
      <trkpt lat="44.10803" lon="3.05325">
        <ele>224.7</ele>
        <time>2025-08-31T09:24:49.000Z</time>
      </trkpt>
      <trkpt lat="44.10808" lon="3.05313">
        <ele>225.3</ele>
        <time>2025-08-31T09:24:52.000Z</time>
      </trkpt>
      <trkpt lat="44.10812" lon="3.053">
        <ele>225.9</ele>
        <time>2025-08-31T09:24:55.000Z</time>
      </trkpt>
      <trkpt lat="44.10817" lon="3.05289">
        <ele>226.6</ele>
        <time>2025-08-31T09:24:58.000Z</time>
      </trkpt>
      <trkpt lat="44.10821" lon="3.05277">
        <ele>227.2</ele>
        <time>2025-08-31T09:25:01.000Z</time>
      </trkpt>
      <trkpt lat="44.10826" lon="3.05265">
        <ele>227.7</ele>
        <time>2025-08-31T09:25:04.000Z</time>
      </trkpt>
      <trkpt lat="44.10832" lon="3.05254">
        <ele>228.4</ele>
        <time>2025-08-31T09:25:07.000Z</time>
      </trkpt>
      <trkpt lat="44.10837" lon="3.05241">
        <ele>229.1</ele>
        <time>2025-08-31T09:25:10.000Z</time>
      </trkpt>
      <trkpt lat="44.10842" lon="3.05229">
        <ele>229.7</ele>
        <time>2025-08-31T09:25:13.000Z</time>
      </trkpt>
      <trkpt lat="44.10848" lon="3.05218">
        <ele>230.5</ele>
        <time>2025-08-31T09:25:16.000Z</time>
      </trkpt>
      <trkpt lat="44.10853" lon="3.05207">
        <ele>231.1</ele>
        <time>2025-08-31T09:25:19.000Z</time>
      </trkpt>
      <trkpt lat="44.10859" lon="3.05196">
        <ele>231.8</ele>
        <time>2025-08-31T09:25:22.000Z</time>
      </trkpt>
      <trkpt lat="44.10864" lon="3.05186">
        <ele>232.7</ele>
        <time>2025-08-31T09:25:25.000Z</time>
      </trkpt>
      <trkpt lat="44.10871" lon="3.05177">
        <ele>233.5</ele>
        <time>2025-08-31T09:25:28.000Z</time>
      </trkpt>
      <trkpt lat="44.10878" lon="3.05165">
        <ele>234.8</ele>
        <time>2025-08-31T09:25:32.000Z</time>
      </trkpt>
      <trkpt lat="44.10885" lon="3.05153">
        <ele>235.8</ele>
        <time>2025-08-31T09:25:36.000Z</time>
      </trkpt>
      <trkpt lat="44.10891" lon="3.05141">
        <ele>236.9</ele>
        <time>2025-08-31T09:25:40.000Z</time>
      </trkpt>
      <trkpt lat="44.10896" lon="3.05129">
        <ele>238</ele>
        <time>2025-08-31T09:25:44.000Z</time>
      </trkpt>
      <trkpt lat="44.10901" lon="3.05116">
        <ele>239.1</ele>
        <time>2025-08-31T09:25:48.000Z</time>
      </trkpt>
      <trkpt lat="44.10905" lon="3.05102">
        <ele>240.2</ele>
        <time>2025-08-31T09:25:52.000Z</time>
      </trkpt>
      <trkpt lat="44.10909" lon="3.05088">
        <ele>241.3</ele>
        <time>2025-08-31T09:25:56.000Z</time>
      </trkpt>
      <trkpt lat="44.10913" lon="3.05073">
        <ele>242.4</ele>
        <time>2025-08-31T09:26:00.000Z</time>
      </trkpt>
      <trkpt lat="44.10917" lon="3.05058">
        <ele>243.5</ele>
        <time>2025-08-31T09:26:04.000Z</time>
      </trkpt>
      <trkpt lat="44.10919" lon="3.05045">
        <ele>244.4</ele>
        <time>2025-08-31T09:26:07.000Z</time>
      </trkpt>
      <trkpt lat="44.10921" lon="3.05029">
        <ele>245.5</ele>
        <time>2025-08-31T09:26:11.000Z</time>
      </trkpt>
      <trkpt lat="44.10923" lon="3.05013">
        <ele>246.5</ele>
        <time>2025-08-31T09:26:15.000Z</time>
      </trkpt>
      <trkpt lat="44.10925" lon="3.04997">
        <ele>247.4</ele>
        <time>2025-08-31T09:26:19.000Z</time>
      </trkpt>
      <trkpt lat="44.10928" lon="3.04982">
        <ele>248.2</ele>
        <time>2025-08-31T09:26:23.000Z</time>
      </trkpt>
      <trkpt lat="44.10933" lon="3.04968">
        <ele>249.1</ele>
        <time>2025-08-31T09:26:27.000Z</time>
      </trkpt>
      <trkpt lat="44.10938" lon="3.04954">
        <ele>249.8</ele>
        <time>2025-08-31T09:26:31.000Z</time>
      </trkpt>
      <trkpt lat="44.10944" lon="3.0494">
        <ele>250.7</ele>
        <time>2025-08-31T09:26:35.000Z</time>
      </trkpt>
      <trkpt lat="44.1095" lon="3.04926">
        <ele>251.6</ele>
        <time>2025-08-31T09:26:39.000Z</time>
      </trkpt>
      <trkpt lat="44.10956" lon="3.04912">
        <ele>252.4</ele>
        <time>2025-08-31T09:26:43.000Z</time>
      </trkpt>
      <trkpt lat="44.10961" lon="3.04897">
        <ele>253.2</ele>
        <time>2025-08-31T09:26:47.000Z</time>
      </trkpt>
      <trkpt lat="44.10965" lon="3.04883">
        <ele>254.2</ele>
        <time>2025-08-31T09:26:51.000Z</time>
      </trkpt>
      <trkpt lat="44.10969" lon="3.04868">
        <ele>255</ele>
        <time>2025-08-31T09:26:55.000Z</time>
      </trkpt>
      <trkpt lat="44.1097" lon="3.04853">
        <ele>255.8</ele>
        <time>2025-08-31T09:26:59.000Z</time>
      </trkpt>
      <trkpt lat="44.10971" lon="3.04838">
        <ele>256.6</ele>
        <time>2025-08-31T09:27:03.000Z</time>
      </trkpt>
      <trkpt lat="44.10971" lon="3.04823">
        <ele>257.5</ele>
        <time>2025-08-31T09:27:07.000Z</time>
      </trkpt>
      <trkpt lat="44.10971" lon="3.04807">
        <ele>258.5</ele>
        <time>2025-08-31T09:27:11.000Z</time>
      </trkpt>
      <trkpt lat="44.10971" lon="3.04794">
        <ele>259.1</ele>
        <time>2025-08-31T09:27:14.000Z</time>
      </trkpt>
      <trkpt lat="44.10971" lon="3.04777">
        <ele>260</ele>
        <time>2025-08-31T09:27:18.000Z</time>
      </trkpt>
      <trkpt lat="44.10971" lon="3.04761">
        <ele>261</ele>
        <time>2025-08-31T09:27:22.000Z</time>
      </trkpt>
      <trkpt lat="44.10972" lon="3.04745">
        <ele>261.9</ele>
        <time>2025-08-31T09:27:26.000Z</time>
      </trkpt>
      <trkpt lat="44.10976" lon="3.04729">
        <ele>263</ele>
        <time>2025-08-31T09:27:30.000Z</time>
      </trkpt>
      <trkpt lat="44.1098" lon="3.04716">
        <ele>263.8</ele>
        <time>2025-08-31T09:27:33.000Z</time>
      </trkpt>
      <trkpt lat="44.10983" lon="3.04702">
        <ele>264.5</ele>
        <time>2025-08-31T09:27:36.000Z</time>
      </trkpt>
      <trkpt lat="44.1099" lon="3.04689">
        <ele>265.2</ele>
        <time>2025-08-31T09:27:39.000Z</time>
      </trkpt>
      <trkpt lat="44.10997" lon="3.04677">
        <ele>265.8</ele>
        <time>2025-08-31T09:27:42.000Z</time>
      </trkpt>
      <trkpt lat="44.11002" lon="3.04665">
        <ele>266.5</ele>
        <time>2025-08-31T09:27:45.000Z</time>
      </trkpt>
      <trkpt lat="44.11007" lon="3.0465">
        <ele>267.4</ele>
        <time>2025-08-31T09:27:49.000Z</time>
      </trkpt>
      <trkpt lat="44.11011" lon="3.04636">
        <ele>268.4</ele>
        <time>2025-08-31T09:27:53.000Z</time>
      </trkpt>
      <trkpt lat="44.11016" lon="3.04623">
        <ele>269.4</ele>
        <time>2025-08-31T09:27:57.000Z</time>
      </trkpt>
      <trkpt lat="44.11019" lon="3.0461">
        <ele>270.3</ele>
        <time>2025-08-31T09:28:01.000Z</time>
      </trkpt>
      <trkpt lat="44.11024" lon="3.04598">
        <ele>271.2</ele>
        <time>2025-08-31T09:28:05.000Z</time>
      </trkpt>
      <trkpt lat="44.11028" lon="3.04585">
        <ele>272.2</ele>
        <time>2025-08-31T09:28:09.000Z</time>
      </trkpt>
      <trkpt lat="44.11032" lon="3.04571">
        <ele>273.2</ele>
        <time>2025-08-31T09:28:13.000Z</time>
      </trkpt>
      <trkpt lat="44.11035" lon="3.04556">
        <ele>274.2</ele>
        <time>2025-08-31T09:28:17.000Z</time>
      </trkpt>
      <trkpt lat="44.1104" lon="3.04542">
        <ele>275</ele>
        <time>2025-08-31T09:28:21.000Z</time>
      </trkpt>
      <trkpt lat="44.11043" lon="3.04529">
        <ele>275.9</ele>
        <time>2025-08-31T09:28:25.000Z</time>
      </trkpt>
      <trkpt lat="44.11046" lon="3.04514">
        <ele>276.8</ele>
        <time>2025-08-31T09:28:29.000Z</time>
      </trkpt>
      <trkpt lat="44.11051" lon="3.045">
        <ele>277.6</ele>
        <time>2025-08-31T09:28:33.000Z</time>
      </trkpt>
      <trkpt lat="44.11054" lon="3.04487">
        <ele>278.6</ele>
        <time>2025-08-31T09:28:37.000Z</time>
      </trkpt>
      <trkpt lat="44.11058" lon="3.04474">
        <ele>279.4</ele>
        <time>2025-08-31T09:28:41.000Z</time>
      </trkpt>
      <trkpt lat="44.11062" lon="3.0446">
        <ele>280.3</ele>
        <time>2025-08-31T09:28:45.000Z</time>
      </trkpt>
      <trkpt lat="44.11066" lon="3.04445">
        <ele>281.3</ele>
        <time>2025-08-31T09:28:49.000Z</time>
      </trkpt>
      <trkpt lat="44.1107" lon="3.04431">
        <ele>282.1</ele>
        <time>2025-08-31T09:28:53.000Z</time>
      </trkpt>
      <trkpt lat="44.11074" lon="3.04416">
        <ele>282.9</ele>
        <time>2025-08-31T09:28:57.000Z</time>
      </trkpt>
      <trkpt lat="44.11078" lon="3.04403">
        <ele>283.9</ele>
        <time>2025-08-31T09:29:01.000Z</time>
      </trkpt>
      <trkpt lat="44.11083" lon="3.04389">
        <ele>284.9</ele>
        <time>2025-08-31T09:29:05.000Z</time>
      </trkpt>
      <trkpt lat="44.11088" lon="3.04376">
        <ele>285.9</ele>
        <time>2025-08-31T09:29:09.000Z</time>
      </trkpt>
      <trkpt lat="44.11094" lon="3.04362">
        <ele>286.8</ele>
        <time>2025-08-31T09:29:13.000Z</time>
      </trkpt>
      <trkpt lat="44.111" lon="3.04349">
        <ele>287.7</ele>
        <time>2025-08-31T09:29:17.000Z</time>
      </trkpt>
      <trkpt lat="44.11107" lon="3.04337">
        <ele>288.5</ele>
        <time>2025-08-31T09:29:21.000Z</time>
      </trkpt>
      <trkpt lat="44.11114" lon="3.04325">
        <ele>289.4</ele>
        <time>2025-08-31T09:29:25.000Z</time>
      </trkpt>
      <trkpt lat="44.1112" lon="3.04313">
        <ele>290.2</ele>
        <time>2025-08-31T09:29:29.000Z</time>
      </trkpt>
      <trkpt lat="44.11128" lon="3.04302">
        <ele>290.9</ele>
        <time>2025-08-31T09:29:33.000Z</time>
      </trkpt>
      <trkpt lat="44.11135" lon="3.0429">
        <ele>291.7</ele>
        <time>2025-08-31T09:29:37.000Z</time>
      </trkpt>
      <trkpt lat="44.11144" lon="3.04281">
        <ele>292.4</ele>
        <time>2025-08-31T09:29:41.000Z</time>
      </trkpt>
      <trkpt lat="44.11152" lon="3.04274">
        <ele>293</ele>
        <time>2025-08-31T09:29:44.000Z</time>
      </trkpt>
      <trkpt lat="44.1116" lon="3.04266">
        <ele>293.6</ele>
        <time>2025-08-31T09:29:47.000Z</time>
      </trkpt>
      <trkpt lat="44.11167" lon="3.04258">
        <ele>294.2</ele>
        <time>2025-08-31T09:29:50.000Z</time>
      </trkpt>
      <trkpt lat="44.11173" lon="3.04249">
        <ele>294.8</ele>
        <time>2025-08-31T09:29:53.000Z</time>
      </trkpt>
      <trkpt lat="44.11179" lon="3.04238">
        <ele>295.3</ele>
        <time>2025-08-31T09:29:56.000Z</time>
      </trkpt>
      <trkpt lat="44.11183" lon="3.04227">
        <ele>295.9</ele>
        <time>2025-08-31T09:29:59.000Z</time>
      </trkpt>
      <trkpt lat="44.11188" lon="3.04215">
        <ele>296.6</ele>
        <time>2025-08-31T09:30:02.000Z</time>
      </trkpt>
      <trkpt lat="44.11191" lon="3.04202">
        <ele>297.2</ele>
        <time>2025-08-31T09:30:05.000Z</time>
      </trkpt>
      <trkpt lat="44.11196" lon="3.0419">
        <ele>297.8</ele>
        <time>2025-08-31T09:30:08.000Z</time>
      </trkpt>
      <trkpt lat="44.11201" lon="3.04178">
        <ele>298.2</ele>
        <time>2025-08-31T09:30:11.000Z</time>
      </trkpt>
      <trkpt lat="44.11205" lon="3.04167">
        <ele>298.7</ele>
        <time>2025-08-31T09:30:14.000Z</time>
      </trkpt>
      <trkpt lat="44.11212" lon="3.04155">
        <ele>299.3</ele>
        <time>2025-08-31T09:30:17.000Z</time>
      </trkpt>
      <trkpt lat="44.11219" lon="3.04144">
        <ele>299.8</ele>
        <time>2025-08-31T09:30:20.000Z</time>
      </trkpt>
      <trkpt lat="44.11226" lon="3.04132">
        <ele>300.3</ele>
        <time>2025-08-31T09:30:23.000Z</time>
      </trkpt>
      <trkpt lat="44.11234" lon="3.04122">
        <ele>300.9</ele>
        <time>2025-08-31T09:30:26.000Z</time>
      </trkpt>
      <trkpt lat="44.11241" lon="3.04113">
        <ele>301.5</ele>
        <time>2025-08-31T09:30:29.000Z</time>
      </trkpt>
      <trkpt lat="44.11249" lon="3.04104">
        <ele>302.1</ele>
        <time>2025-08-31T09:30:32.000Z</time>
      </trkpt>
      <trkpt lat="44.11256" lon="3.04095">
        <ele>302.7</ele>
        <time>2025-08-31T09:30:35.000Z</time>
      </trkpt>
      <trkpt lat="44.11264" lon="3.04087">
        <ele>303.4</ele>
        <time>2025-08-31T09:30:38.000Z</time>
      </trkpt>
      <trkpt lat="44.11272" lon="3.04079">
        <ele>304.1</ele>
        <time>2025-08-31T09:30:41.000Z</time>
      </trkpt>
      <trkpt lat="44.1128" lon="3.0407">
        <ele>304.8</ele>
        <time>2025-08-31T09:30:44.000Z</time>
      </trkpt>
      <trkpt lat="44.11288" lon="3.04061">
        <ele>305.5</ele>
        <time>2025-08-31T09:30:47.000Z</time>
      </trkpt>
      <trkpt lat="44.11297" lon="3.04052">
        <ele>306.1</ele>
        <time>2025-08-31T09:30:50.000Z</time>
      </trkpt>
      <trkpt lat="44.11307" lon="3.04043">
        <ele>306.8</ele>
        <time>2025-08-31T09:30:53.000Z</time>
      </trkpt>
      <trkpt lat="44.11318" lon="3.04039">
        <ele>307.5</ele>
        <time>2025-08-31T09:30:56.000Z</time>
      </trkpt>
      <trkpt lat="44.11331" lon="3.04039">
        <ele>308.1</ele>
        <time>2025-08-31T09:30:59.000Z</time>
      </trkpt>
      <trkpt lat="44.11342" lon="3.0403">
        <ele>308.6</ele>
        <time>2025-08-31T09:31:02.000Z</time>
      </trkpt>
      <trkpt lat="44.11353" lon="3.0402">
        <ele>309.1</ele>
        <time>2025-08-31T09:31:05.000Z</time>
      </trkpt>
      <trkpt lat="44.11366" lon="3.04018">
        <ele>309.6</ele>
        <time>2025-08-31T09:31:08.000Z</time>
      </trkpt>
      <trkpt lat="44.11378" lon="3.04019">
        <ele>310.1</ele>
        <time>2025-08-31T09:31:11.000Z</time>
      </trkpt>
      <trkpt lat="44.1139" lon="3.04019">
        <ele>310.6</ele>
        <time>2025-08-31T09:31:14.000Z</time>
      </trkpt>
      <trkpt lat="44.11402" lon="3.0402">
        <ele>311.1</ele>
        <time>2025-08-31T09:31:17.000Z</time>
      </trkpt>
      <trkpt lat="44.11414" lon="3.0402">
        <ele>311.5</ele>
        <time>2025-08-31T09:31:20.000Z</time>
      </trkpt>
      <trkpt lat="44.11425" lon="3.04016">
        <ele>311.9</ele>
        <time>2025-08-31T09:31:23.000Z</time>
      </trkpt>
      <trkpt lat="44.11435" lon="3.04008">
        <ele>312.4</ele>
        <time>2025-08-31T09:31:26.000Z</time>
      </trkpt>
      <trkpt lat="44.11443" lon="3.03997">
        <ele>312.8</ele>
        <time>2025-08-31T09:31:29.000Z</time>
      </trkpt>
      <trkpt lat="44.1145" lon="3.03984">
        <ele>313.3</ele>
        <time>2025-08-31T09:31:32.000Z</time>
      </trkpt>
      <trkpt lat="44.11456" lon="3.03969">
        <ele>313.6</ele>
        <time>2025-08-31T09:31:35.000Z</time>
      </trkpt>
      <trkpt lat="44.1146" lon="3.03952">
        <ele>314</ele>
        <time>2025-08-31T09:31:38.000Z</time>
      </trkpt>
      <trkpt lat="44.11465" lon="3.03936">
        <ele>314.4</ele>
        <time>2025-08-31T09:31:41.000Z</time>
      </trkpt>
      <trkpt lat="44.11471" lon="3.03919">
        <ele>314.8</ele>
        <time>2025-08-31T09:31:44.000Z</time>
      </trkpt>
      <trkpt lat="44.11476" lon="3.03902">
        <ele>315.1</ele>
        <time>2025-08-31T09:31:47.000Z</time>
      </trkpt>
      <trkpt lat="44.11482" lon="3.03885">
        <ele>315.5</ele>
        <time>2025-08-31T09:31:50.000Z</time>
      </trkpt>
      <trkpt lat="44.11485" lon="3.03873">
        <ele>315.8</ele>
        <time>2025-08-31T09:31:52.000Z</time>
      </trkpt>
      <trkpt lat="44.11489" lon="3.03861">
        <ele>316.1</ele>
        <time>2025-08-31T09:31:54.000Z</time>
      </trkpt>
      <trkpt lat="44.11493" lon="3.03849">
        <ele>316.3</ele>
        <time>2025-08-31T09:31:56.000Z</time>
      </trkpt>
      <trkpt lat="44.11496" lon="3.03837">
        <ele>316.6</ele>
        <time>2025-08-31T09:31:58.000Z</time>
      </trkpt>
      <trkpt lat="44.115" lon="3.03826">
        <ele>316.8</ele>
        <time>2025-08-31T09:32:00.000Z</time>
      </trkpt>
      <trkpt lat="44.11504" lon="3.03814">
        <ele>317</ele>
        <time>2025-08-31T09:32:02.000Z</time>
      </trkpt>
      <trkpt lat="44.11508" lon="3.03802">
        <ele>317.2</ele>
        <time>2025-08-31T09:32:04.000Z</time>
      </trkpt>
      <trkpt lat="44.11511" lon="3.03791">
        <ele>317.5</ele>
        <time>2025-08-31T09:32:06.000Z</time>
      </trkpt>
      <trkpt lat="44.11515" lon="3.03778">
        <ele>317.7</ele>
        <time>2025-08-31T09:32:08.000Z</time>
      </trkpt>
      <trkpt lat="44.11519" lon="3.03766">
        <ele>317.9</ele>
        <time>2025-08-31T09:32:10.000Z</time>
      </trkpt>
      <trkpt lat="44.11523" lon="3.03754">
        <ele>318.1</ele>
        <time>2025-08-31T09:32:12.000Z</time>
      </trkpt>
      <trkpt lat="44.11527" lon="3.03742">
        <ele>318.4</ele>
        <time>2025-08-31T09:32:14.000Z</time>
      </trkpt>
      <trkpt lat="44.11531" lon="3.03729">
        <ele>318.6</ele>
        <time>2025-08-31T09:32:16.000Z</time>
      </trkpt>
      <trkpt lat="44.11535" lon="3.03717">
        <ele>318.8</ele>
        <time>2025-08-31T09:32:18.000Z</time>
      </trkpt>
      <trkpt lat="44.1154" lon="3.03705">
        <ele>319.1</ele>
        <time>2025-08-31T09:32:20.000Z</time>
      </trkpt>
      <trkpt lat="44.11545" lon="3.03695">
        <ele>319.3</ele>
        <time>2025-08-31T09:32:22.000Z</time>
      </trkpt>
      <trkpt lat="44.11553" lon="3.03685">
        <ele>319.5</ele>
        <time>2025-08-31T09:32:24.000Z</time>
      </trkpt>
      <trkpt lat="44.11562" lon="3.03679">
        <ele>319.7</ele>
        <time>2025-08-31T09:32:26.000Z</time>
      </trkpt>
      <trkpt lat="44.11571" lon="3.03674">
        <ele>319.9</ele>
        <time>2025-08-31T09:32:28.000Z</time>
      </trkpt>
      <trkpt lat="44.11581" lon="3.03671">
        <ele>320.2</ele>
        <time>2025-08-31T09:32:30.000Z</time>
      </trkpt>
      <trkpt lat="44.11591" lon="3.03671">
        <ele>320.4</ele>
        <time>2025-08-31T09:32:32.000Z</time>
      </trkpt>
      <trkpt lat="44.11601" lon="3.03673">
        <ele>320.6</ele>
        <time>2025-08-31T09:32:34.000Z</time>
      </trkpt>
      <trkpt lat="44.1161" lon="3.03677">
        <ele>320.8</ele>
        <time>2025-08-31T09:32:36.000Z</time>
      </trkpt>
      <trkpt lat="44.11619" lon="3.03683">
        <ele>321.1</ele>
        <time>2025-08-31T09:32:38.000Z</time>
      </trkpt>
      <trkpt lat="44.11627" lon="3.03692">
        <ele>321.2</ele>
        <time>2025-08-31T09:32:40.000Z</time>
      </trkpt>
      <trkpt lat="44.11633" lon="3.03702">
        <ele>321.5</ele>
        <time>2025-08-31T09:32:42.000Z</time>
      </trkpt>
      <trkpt lat="44.11638" lon="3.03713">
        <ele>321.7</ele>
        <time>2025-08-31T09:32:44.000Z</time>
      </trkpt>
      <trkpt lat="44.11642" lon="3.03726">
        <ele>322</ele>
        <time>2025-08-31T09:32:46.000Z</time>
      </trkpt>
      <trkpt lat="44.11644" lon="3.03739">
        <ele>322.2</ele>
        <time>2025-08-31T09:32:48.000Z</time>
      </trkpt>
      <trkpt lat="44.11645" lon="3.03752">
        <ele>322.5</ele>
        <time>2025-08-31T09:32:50.000Z</time>
      </trkpt>
      <trkpt lat="44.11645" lon="3.03766">
        <ele>322.7</ele>
        <time>2025-08-31T09:32:52.000Z</time>
      </trkpt>
      <trkpt lat="44.11644" lon="3.03781">
        <ele>322.9</ele>
        <time>2025-08-31T09:32:54.000Z</time>
      </trkpt>
      <trkpt lat="44.11644" lon="3.03796">
        <ele>323.2</ele>
        <time>2025-08-31T09:32:56.000Z</time>
      </trkpt>
      <trkpt lat="44.11644" lon="3.03811">
        <ele>323.5</ele>
        <time>2025-08-31T09:32:58.000Z</time>
      </trkpt>
      <trkpt lat="44.11644" lon="3.03825">
        <ele>323.8</ele>
        <time>2025-08-31T09:33:00.000Z</time>
      </trkpt>
      <trkpt lat="44.11644" lon="3.0384">
        <ele>324</ele>
        <time>2025-08-31T09:33:02.000Z</time>
      </trkpt>
      <trkpt lat="44.11644" lon="3.03855">
        <ele>324.3</ele>
        <time>2025-08-31T09:33:04.000Z</time>
      </trkpt>
      <trkpt lat="44.11644" lon="3.03869">
        <ele>324.5</ele>
        <time>2025-08-31T09:33:06.000Z</time>
      </trkpt>
      <trkpt lat="44.11644" lon="3.03884">
        <ele>324.8</ele>
        <time>2025-08-31T09:33:08.000Z</time>
      </trkpt>
      <trkpt lat="44.11644" lon="3.03899">
        <ele>325</ele>
        <time>2025-08-31T09:33:10.000Z</time>
      </trkpt>
      <trkpt lat="44.11644" lon="3.03914">
        <ele>325.2</ele>
        <time>2025-08-31T09:33:12.000Z</time>
      </trkpt>
      <trkpt lat="44.11644" lon="3.03928">
        <ele>325.4</ele>
        <time>2025-08-31T09:33:14.000Z</time>
      </trkpt>
      <trkpt lat="44.11644" lon="3.03942">
        <ele>325.6</ele>
        <time>2025-08-31T09:33:16.000Z</time>
      </trkpt>
      <trkpt lat="44.11644" lon="3.03956">
        <ele>325.8</ele>
        <time>2025-08-31T09:33:18.000Z</time>
      </trkpt>
      <trkpt lat="44.11644" lon="3.0397">
        <ele>326.1</ele>
        <time>2025-08-31T09:33:20.000Z</time>
      </trkpt>
      <trkpt lat="44.11644" lon="3.03984">
        <ele>326.4</ele>
        <time>2025-08-31T09:33:22.000Z</time>
      </trkpt>
      <trkpt lat="44.11644" lon="3.03997">
        <ele>326.7</ele>
        <time>2025-08-31T09:33:24.000Z</time>
      </trkpt>
      <trkpt lat="44.11645" lon="3.04011">
        <ele>326.9</ele>
        <time>2025-08-31T09:33:26.000Z</time>
      </trkpt>
      <trkpt lat="44.11645" lon="3.04024">
        <ele>327.2</ele>
        <time>2025-08-31T09:33:28.000Z</time>
      </trkpt>
      <trkpt lat="44.11645" lon="3.04037">
        <ele>327.5</ele>
        <time>2025-08-31T09:33:30.000Z</time>
      </trkpt>
      <trkpt lat="44.11646" lon="3.04049">
        <ele>327.8</ele>
        <time>2025-08-31T09:33:32.000Z</time>
      </trkpt>
      <trkpt lat="44.1165" lon="3.04061">
        <ele>328.1</ele>
        <time>2025-08-31T09:33:34.000Z</time>
      </trkpt>
      <trkpt lat="44.11655" lon="3.04073">
        <ele>328.3</ele>
        <time>2025-08-31T09:33:36.000Z</time>
      </trkpt>
      <trkpt lat="44.11661" lon="3.04083">
        <ele>328.6</ele>
        <time>2025-08-31T09:33:38.000Z</time>
      </trkpt>
      <trkpt lat="44.11669" lon="3.04091">
        <ele>328.8</ele>
        <time>2025-08-31T09:33:40.000Z</time>
      </trkpt>
      <trkpt lat="44.11678" lon="3.04097">
        <ele>329</ele>
        <time>2025-08-31T09:33:42.000Z</time>
      </trkpt>
      <trkpt lat="44.11687" lon="3.04103">
        <ele>329.3</ele>
        <time>2025-08-31T09:33:44.000Z</time>
      </trkpt>
      <trkpt lat="44.11696" lon="3.04109">
        <ele>329.6</ele>
        <time>2025-08-31T09:33:46.000Z</time>
      </trkpt>
      <trkpt lat="44.11705" lon="3.04114">
        <ele>329.8</ele>
        <time>2025-08-31T09:33:48.000Z</time>
      </trkpt>
      <trkpt lat="44.11714" lon="3.0412">
        <ele>330</ele>
        <time>2025-08-31T09:33:50.000Z</time>
      </trkpt>
      <trkpt lat="44.11723" lon="3.04126">
        <ele>330.2</ele>
        <time>2025-08-31T09:33:52.000Z</time>
      </trkpt>
      <trkpt lat="44.11731" lon="3.04132">
        <ele>330.4</ele>
        <time>2025-08-31T09:33:54.000Z</time>
      </trkpt>
      <trkpt lat="44.1174" lon="3.04138">
        <ele>330.6</ele>
        <time>2025-08-31T09:33:56.000Z</time>
      </trkpt>
      <trkpt lat="44.11748" lon="3.04144">
        <ele>330.9</ele>
        <time>2025-08-31T09:33:58.000Z</time>
      </trkpt>
      <trkpt lat="44.11757" lon="3.0415">
        <ele>331.1</ele>
        <time>2025-08-31T09:34:00.000Z</time>
      </trkpt>
      <trkpt lat="44.11766" lon="3.04156">
        <ele>331.3</ele>
        <time>2025-08-31T09:34:02.000Z</time>
      </trkpt>
      <trkpt lat="44.11774" lon="3.04161">
        <ele>331.6</ele>
        <time>2025-08-31T09:34:04.000Z</time>
      </trkpt>
      <trkpt lat="44.11782" lon="3.04167">
        <ele>331.9</ele>
        <time>2025-08-31T09:34:06.000Z</time>
      </trkpt>
      <trkpt lat="44.1179" lon="3.04173">
        <ele>332.1</ele>
        <time>2025-08-31T09:34:08.000Z</time>
      </trkpt>
      <trkpt lat="44.11799" lon="3.04179">
        <ele>332.4</ele>
        <time>2025-08-31T09:34:10.000Z</time>
      </trkpt>
      <trkpt lat="44.11807" lon="3.04185">
        <ele>332.6</ele>
        <time>2025-08-31T09:34:12.000Z</time>
      </trkpt>
      <trkpt lat="44.11815" lon="3.04192">
        <ele>332.8</ele>
        <time>2025-08-31T09:34:14.000Z</time>
      </trkpt>
      <trkpt lat="44.11823" lon="3.04198">
        <ele>333.1</ele>
        <time>2025-08-31T09:34:16.000Z</time>
      </trkpt>
      <trkpt lat="44.11833" lon="3.04204">
        <ele>333.3</ele>
        <time>2025-08-31T09:34:18.000Z</time>
      </trkpt>
      <trkpt lat="44.11842" lon="3.0421">
        <ele>333.6</ele>
        <time>2025-08-31T09:34:20.000Z</time>
      </trkpt>
      <trkpt lat="44.11852" lon="3.04216">
        <ele>333.9</ele>
        <time>2025-08-31T09:34:22.000Z</time>
      </trkpt>
      <trkpt lat="44.11862" lon="3.04222">
        <ele>334.2</ele>
        <time>2025-08-31T09:34:24.000Z</time>
      </trkpt>
      <trkpt lat="44.11872" lon="3.04227">
        <ele>334.4</ele>
        <time>2025-08-31T09:34:26.000Z</time>
      </trkpt>
      <trkpt lat="44.11882" lon="3.04231">
        <ele>334.6</ele>
        <time>2025-08-31T09:34:28.000Z</time>
      </trkpt>
      <trkpt lat="44.11893" lon="3.04234">
        <ele>334.8</ele>
        <time>2025-08-31T09:34:30.000Z</time>
      </trkpt>
      <trkpt lat="44.11903" lon="3.04235">
        <ele>335.1</ele>
        <time>2025-08-31T09:34:32.000Z</time>
      </trkpt>
      <trkpt lat="44.11914" lon="3.04236">
        <ele>335.3</ele>
        <time>2025-08-31T09:34:34.000Z</time>
      </trkpt>
      <trkpt lat="44.11924" lon="3.04235">
        <ele>335.6</ele>
        <time>2025-08-31T09:34:36.000Z</time>
      </trkpt>
      <trkpt lat="44.11935" lon="3.04234">
        <ele>335.8</ele>
        <time>2025-08-31T09:34:38.000Z</time>
      </trkpt>
      <trkpt lat="44.11945" lon="3.0423">
        <ele>336</ele>
        <time>2025-08-31T09:34:40.000Z</time>
      </trkpt>
      <trkpt lat="44.11955" lon="3.04226">
        <ele>336.3</ele>
        <time>2025-08-31T09:34:42.000Z</time>
      </trkpt>
      <trkpt lat="44.11965" lon="3.0422">
        <ele>336.6</ele>
        <time>2025-08-31T09:34:44.000Z</time>
      </trkpt>
      <trkpt lat="44.11975" lon="3.04214">
        <ele>336.9</ele>
        <time>2025-08-31T09:34:46.000Z</time>
      </trkpt>
      <trkpt lat="44.11984" lon="3.04206">
        <ele>337.1</ele>
        <time>2025-08-31T09:34:48.000Z</time>
      </trkpt>
      <trkpt lat="44.11992" lon="3.04197">
        <ele>337.4</ele>
        <time>2025-08-31T09:34:50.000Z</time>
      </trkpt>
      <trkpt lat="44.12" lon="3.04187">
        <ele>337.6</ele>
        <time>2025-08-31T09:34:52.000Z</time>
      </trkpt>
      <trkpt lat="44.12007" lon="3.04176">
        <ele>337.9</ele>
        <time>2025-08-31T09:34:54.000Z</time>
      </trkpt>
      <trkpt lat="44.12013" lon="3.04165">
        <ele>338.1</ele>
        <time>2025-08-31T09:34:56.000Z</time>
      </trkpt>
      <trkpt lat="44.1202" lon="3.04154">
        <ele>338.4</ele>
        <time>2025-08-31T09:34:58.000Z</time>
      </trkpt>
      <trkpt lat="44.12026" lon="3.04142">
        <ele>338.6</ele>
        <time>2025-08-31T09:35:00.000Z</time>
      </trkpt>
      <trkpt lat="44.12031" lon="3.04129">
        <ele>338.8</ele>
        <time>2025-08-31T09:35:02.000Z</time>
      </trkpt>
      <trkpt lat="44.12037" lon="3.04117">
        <ele>339.1</ele>
        <time>2025-08-31T09:35:04.000Z</time>
      </trkpt>
      <trkpt lat="44.12042" lon="3.04104">
        <ele>339.4</ele>
        <time>2025-08-31T09:35:06.000Z</time>
      </trkpt>
      <trkpt lat="44.12047" lon="3.04092">
        <ele>339.8</ele>
        <time>2025-08-31T09:35:08.000Z</time>
      </trkpt>
      <trkpt lat="44.12053" lon="3.04081">
        <ele>340.1</ele>
        <time>2025-08-31T09:35:10.000Z</time>
      </trkpt>
      <trkpt lat="44.12058" lon="3.0407">
        <ele>340.4</ele>
        <time>2025-08-31T09:35:12.000Z</time>
      </trkpt>
      <trkpt lat="44.12064" lon="3.04055">
        <ele>340.9</ele>
        <time>2025-08-31T09:35:15.000Z</time>
      </trkpt>
      <trkpt lat="44.12071" lon="3.0404">
        <ele>341.5</ele>
        <time>2025-08-31T09:35:18.000Z</time>
      </trkpt>
      <trkpt lat="44.12078" lon="3.04026">
        <ele>342.1</ele>
        <time>2025-08-31T09:35:21.000Z</time>
      </trkpt>
      <trkpt lat="44.12084" lon="3.04012">
        <ele>342.7</ele>
        <time>2025-08-31T09:35:24.000Z</time>
      </trkpt>
      <trkpt lat="44.1209" lon="3.03999">
        <ele>343.4</ele>
        <time>2025-08-31T09:35:27.000Z</time>
      </trkpt>
      <trkpt lat="44.12097" lon="3.03986">
        <ele>344</ele>
        <time>2025-08-31T09:35:30.000Z</time>
      </trkpt>
      <trkpt lat="44.12106" lon="3.03976">
        <ele>344.7</ele>
        <time>2025-08-31T09:35:33.000Z</time>
      </trkpt>
      <trkpt lat="44.12116" lon="3.03969">
        <ele>345.4</ele>
        <time>2025-08-31T09:35:36.000Z</time>
      </trkpt>
      <trkpt lat="44.12127" lon="3.03966">
        <ele>346.1</ele>
        <time>2025-08-31T09:35:39.000Z</time>
      </trkpt>
      <trkpt lat="44.12138" lon="3.03967">
        <ele>346.8</ele>
        <time>2025-08-31T09:35:42.000Z</time>
      </trkpt>
      <trkpt lat="44.1215" lon="3.03972">
        <ele>347.6</ele>
        <time>2025-08-31T09:35:45.000Z</time>
      </trkpt>
      <trkpt lat="44.12162" lon="3.0398">
        <ele>348.3</ele>
        <time>2025-08-31T09:35:48.000Z</time>
      </trkpt>
      <trkpt lat="44.12173" lon="3.03989">
        <ele>348.9</ele>
        <time>2025-08-31T09:35:51.000Z</time>
      </trkpt>
      <trkpt lat="44.12184" lon="3.03997">
        <ele>349.5</ele>
        <time>2025-08-31T09:35:54.000Z</time>
      </trkpt>
      <trkpt lat="44.12196" lon="3.04005">
        <ele>350</ele>
        <time>2025-08-31T09:35:57.000Z</time>
      </trkpt>
      <trkpt lat="44.12208" lon="3.04014">
        <ele>350.5</ele>
        <time>2025-08-31T09:36:00.000Z</time>
      </trkpt>
      <trkpt lat="44.12219" lon="3.04023">
        <ele>350.9</ele>
        <time>2025-08-31T09:36:03.000Z</time>
      </trkpt>
      <trkpt lat="44.12227" lon="3.0403">
        <ele>351.2</ele>
        <time>2025-08-31T09:36:05.000Z</time>
      </trkpt>
      <trkpt lat="44.12236" lon="3.04036">
        <ele>351.4</ele>
        <time>2025-08-31T09:36:07.000Z</time>
      </trkpt>
      <trkpt lat="44.12245" lon="3.04042">
        <ele>351.7</ele>
        <time>2025-08-31T09:36:09.000Z</time>
      </trkpt>
      <trkpt lat="44.12253" lon="3.04049">
        <ele>351.9</ele>
        <time>2025-08-31T09:36:11.000Z</time>
      </trkpt>
      <trkpt lat="44.12262" lon="3.04055">
        <ele>352.1</ele>
        <time>2025-08-31T09:36:13.000Z</time>
      </trkpt>
      <trkpt lat="44.1227" lon="3.04061">
        <ele>352.3</ele>
        <time>2025-08-31T09:36:15.000Z</time>
      </trkpt>
      <trkpt lat="44.12279" lon="3.04067">
        <ele>352.5</ele>
        <time>2025-08-31T09:36:17.000Z</time>
      </trkpt>
      <trkpt lat="44.12288" lon="3.04073">
        <ele>352.7</ele>
        <time>2025-08-31T09:36:19.000Z</time>
      </trkpt>
      <trkpt lat="44.12296" lon="3.04079">
        <ele>352.9</ele>
        <time>2025-08-31T09:36:21.000Z</time>
      </trkpt>
      <trkpt lat="44.12304" lon="3.04086">
        <ele>353.1</ele>
        <time>2025-08-31T09:36:23.000Z</time>
      </trkpt>
      <trkpt lat="44.12313" lon="3.04092">
        <ele>353.3</ele>
        <time>2025-08-31T09:36:25.000Z</time>
      </trkpt>
      <trkpt lat="44.12322" lon="3.04098">
        <ele>353.6</ele>
        <time>2025-08-31T09:36:27.000Z</time>
      </trkpt>
      <trkpt lat="44.1233" lon="3.04105">
        <ele>353.8</ele>
        <time>2025-08-31T09:36:29.000Z</time>
      </trkpt>
      <trkpt lat="44.12339" lon="3.04111">
        <ele>354</ele>
        <time>2025-08-31T09:36:31.000Z</time>
      </trkpt>
      <trkpt lat="44.12348" lon="3.04118">
        <ele>354.2</ele>
        <time>2025-08-31T09:36:33.000Z</time>
      </trkpt>
      <trkpt lat="44.12357" lon="3.04124">
        <ele>354.4</ele>
        <time>2025-08-31T09:36:35.000Z</time>
      </trkpt>
      <trkpt lat="44.12366" lon="3.0413">
        <ele>354.6</ele>
        <time>2025-08-31T09:36:37.000Z</time>
      </trkpt>
      <trkpt lat="44.12374" lon="3.04137">
        <ele>354.7</ele>
        <time>2025-08-31T09:36:39.000Z</time>
      </trkpt>
      <trkpt lat="44.12383" lon="3.04143">
        <ele>354.9</ele>
        <time>2025-08-31T09:36:41.000Z</time>
      </trkpt>
      <trkpt lat="44.12392" lon="3.0415">
        <ele>355</ele>
        <time>2025-08-31T09:36:43.000Z</time>
      </trkpt>
      <trkpt lat="44.12401" lon="3.04156">
        <ele>355.2</ele>
        <time>2025-08-31T09:36:45.000Z</time>
      </trkpt>
      <trkpt lat="44.1241" lon="3.04162">
        <ele>355.3</ele>
        <time>2025-08-31T09:36:47.000Z</time>
      </trkpt>
      <trkpt lat="44.12419" lon="3.04167">
        <ele>355.5</ele>
        <time>2025-08-31T09:36:49.000Z</time>
      </trkpt>
      <trkpt lat="44.12428" lon="3.04173">
        <ele>355.7</ele>
        <time>2025-08-31T09:36:51.000Z</time>
      </trkpt>
      <trkpt lat="44.12438" lon="3.04176">
        <ele>355.8</ele>
        <time>2025-08-31T09:36:53.000Z</time>
      </trkpt>
      <trkpt lat="44.12448" lon="3.04178">
        <ele>355.9</ele>
        <time>2025-08-31T09:36:55.000Z</time>
      </trkpt>
      <trkpt lat="44.12458" lon="3.04177">
        <ele>356.1</ele>
        <time>2025-08-31T09:36:57.000Z</time>
      </trkpt>
      <trkpt lat="44.12467" lon="3.04174">
        <ele>356.3</ele>
        <time>2025-08-31T09:36:59.000Z</time>
      </trkpt>
      <trkpt lat="44.12476" lon="3.04169">
        <ele>356.4</ele>
        <time>2025-08-31T09:37:01.000Z</time>
      </trkpt>
      <trkpt lat="44.12485" lon="3.04163">
        <ele>356.6</ele>
        <time>2025-08-31T09:37:03.000Z</time>
      </trkpt>
      <trkpt lat="44.12493" lon="3.04156">
        <ele>356.7</ele>
        <time>2025-08-31T09:37:05.000Z</time>
      </trkpt>
      <trkpt lat="44.12501" lon="3.04147">
        <ele>356.9</ele>
        <time>2025-08-31T09:37:07.000Z</time>
      </trkpt>
      <trkpt lat="44.12508" lon="3.04136">
        <ele>357</ele>
        <time>2025-08-31T09:37:09.000Z</time>
      </trkpt>
      <trkpt lat="44.12514" lon="3.04124">
        <ele>357.1</ele>
        <time>2025-08-31T09:37:11.000Z</time>
      </trkpt>
      <trkpt lat="44.1252" lon="3.04113">
        <ele>357.2</ele>
        <time>2025-08-31T09:37:13.000Z</time>
      </trkpt>
      <trkpt lat="44.12526" lon="3.04101">
        <ele>357.3</ele>
        <time>2025-08-31T09:37:15.000Z</time>
      </trkpt>
      <trkpt lat="44.12532" lon="3.04089">
        <ele>357.5</ele>
        <time>2025-08-31T09:37:17.000Z</time>
      </trkpt>
      <trkpt lat="44.12538" lon="3.04076">
        <ele>357.7</ele>
        <time>2025-08-31T09:37:19.000Z</time>
      </trkpt>
      <trkpt lat="44.12545" lon="3.04064">
        <ele>357.9</ele>
        <time>2025-08-31T09:37:21.000Z</time>
      </trkpt>
      <trkpt lat="44.12551" lon="3.04051">
        <ele>358</ele>
        <time>2025-08-31T09:37:23.000Z</time>
      </trkpt>
      <trkpt lat="44.12558" lon="3.04039">
        <ele>358.2</ele>
        <time>2025-08-31T09:37:25.000Z</time>
      </trkpt>
      <trkpt lat="44.12565" lon="3.04027">
        <ele>358.3</ele>
        <time>2025-08-31T09:37:27.000Z</time>
      </trkpt>
      <trkpt lat="44.12571" lon="3.04016">
        <ele>358.4</ele>
        <time>2025-08-31T09:37:29.000Z</time>
      </trkpt>
      <trkpt lat="44.12577" lon="3.04003">
        <ele>358.5</ele>
        <time>2025-08-31T09:37:31.000Z</time>
      </trkpt>
      <trkpt lat="44.12584" lon="3.03991">
        <ele>358.6</ele>
        <time>2025-08-31T09:37:33.000Z</time>
      </trkpt>
      <trkpt lat="44.1259" lon="3.0398">
        <ele>358.8</ele>
        <time>2025-08-31T09:37:35.000Z</time>
      </trkpt>
      <trkpt lat="44.12597" lon="3.03968">
        <ele>358.9</ele>
        <time>2025-08-31T09:37:37.000Z</time>
      </trkpt>
      <trkpt lat="44.12603" lon="3.03956">
        <ele>359.1</ele>
        <time>2025-08-31T09:37:39.000Z</time>
      </trkpt>
      <trkpt lat="44.1261" lon="3.03943">
        <ele>359.2</ele>
        <time>2025-08-31T09:37:41.000Z</time>
      </trkpt>
      <trkpt lat="44.12617" lon="3.0393">
        <ele>359.4</ele>
        <time>2025-08-31T09:37:43.000Z</time>
      </trkpt>
      <trkpt lat="44.12624" lon="3.03917">
        <ele>359.5</ele>
        <time>2025-08-31T09:37:45.000Z</time>
      </trkpt>
      <trkpt lat="44.12631" lon="3.03904">
        <ele>359.7</ele>
        <time>2025-08-31T09:37:47.000Z</time>
      </trkpt>
      <trkpt lat="44.12638" lon="3.03892">
        <ele>359.9</ele>
        <time>2025-08-31T09:37:49.000Z</time>
      </trkpt>
      <trkpt lat="44.12645" lon="3.03879">
        <ele>360.1</ele>
        <time>2025-08-31T09:37:51.000Z</time>
      </trkpt>
      <trkpt lat="44.12652" lon="3.03866">
        <ele>360.3</ele>
        <time>2025-08-31T09:37:53.000Z</time>
      </trkpt>
      <trkpt lat="44.12659" lon="3.03852">
        <ele>360.4</ele>
        <time>2025-08-31T09:37:55.000Z</time>
      </trkpt>
      <trkpt lat="44.12666" lon="3.03839">
        <ele>360.6</ele>
        <time>2025-08-31T09:37:57.000Z</time>
      </trkpt>
      <trkpt lat="44.12673" lon="3.03826">
        <ele>360.7</ele>
        <time>2025-08-31T09:37:59.000Z</time>
      </trkpt>
      <trkpt lat="44.1268" lon="3.03813">
        <ele>360.9</ele>
        <time>2025-08-31T09:38:01.000Z</time>
      </trkpt>
      <trkpt lat="44.12687" lon="3.038">
        <ele>361</ele>
        <time>2025-08-31T09:38:03.000Z</time>
      </trkpt>
      <trkpt lat="44.12694" lon="3.03788">
        <ele>361.2</ele>
        <time>2025-08-31T09:38:05.000Z</time>
      </trkpt>
      <trkpt lat="44.127" lon="3.03775">
        <ele>361.4</ele>
        <time>2025-08-31T09:38:07.000Z</time>
      </trkpt>
      <trkpt lat="44.12707" lon="3.03763">
        <ele>361.5</ele>
        <time>2025-08-31T09:38:09.000Z</time>
      </trkpt>
      <trkpt lat="44.12713" lon="3.0375">
        <ele>361.7</ele>
        <time>2025-08-31T09:38:11.000Z</time>
      </trkpt>
      <trkpt lat="44.1272" lon="3.03738">
        <ele>361.9</ele>
        <time>2025-08-31T09:38:13.000Z</time>
      </trkpt>
      <trkpt lat="44.12727" lon="3.03726">
        <ele>362</ele>
        <time>2025-08-31T09:38:15.000Z</time>
      </trkpt>
      <trkpt lat="44.12733" lon="3.03714">
        <ele>362.2</ele>
        <time>2025-08-31T09:38:17.000Z</time>
      </trkpt>
      <trkpt lat="44.1274" lon="3.03702">
        <ele>362.3</ele>
        <time>2025-08-31T09:38:19.000Z</time>
      </trkpt>
      <trkpt lat="44.12747" lon="3.0369">
        <ele>362.5</ele>
        <time>2025-08-31T09:38:21.000Z</time>
      </trkpt>
      <trkpt lat="44.12753" lon="3.03677">
        <ele>362.6</ele>
        <time>2025-08-31T09:38:23.000Z</time>
      </trkpt>
      <trkpt lat="44.1276" lon="3.03664">
        <ele>362.7</ele>
        <time>2025-08-31T09:38:25.000Z</time>
      </trkpt>
      <trkpt lat="44.12767" lon="3.03651">
        <ele>362.8</ele>
        <time>2025-08-31T09:38:27.000Z</time>
      </trkpt>
      <trkpt lat="44.12774" lon="3.03638">
        <ele>362.9</ele>
        <time>2025-08-31T09:38:29.000Z</time>
      </trkpt>
      <trkpt lat="44.12782" lon="3.03625">
        <ele>363</ele>
        <time>2025-08-31T09:38:31.000Z</time>
      </trkpt>
      <trkpt lat="44.12789" lon="3.03611">
        <ele>363.1</ele>
        <time>2025-08-31T09:38:33.000Z</time>
      </trkpt>
      <trkpt lat="44.12797" lon="3.03597">
        <ele>363.2</ele>
        <time>2025-08-31T09:38:35.000Z</time>
      </trkpt>
      <trkpt lat="44.12807" lon="3.03584">
        <ele>363.3</ele>
        <time>2025-08-31T09:38:37.000Z</time>
      </trkpt>
      <trkpt lat="44.12816" lon="3.03572">
        <ele>363.4</ele>
        <time>2025-08-31T09:38:39.000Z</time>
      </trkpt>
      <trkpt lat="44.12827" lon="3.0356">
        <ele>363.5</ele>
        <time>2025-08-31T09:38:41.000Z</time>
      </trkpt>
      <trkpt lat="44.12839" lon="3.0355">
        <ele>363.6</ele>
        <time>2025-08-31T09:38:43.000Z</time>
      </trkpt>
      <trkpt lat="44.12851" lon="3.03541">
        <ele>363.6</ele>
        <time>2025-08-31T09:38:45.000Z</time>
      </trkpt>
      <trkpt lat="44.12865" lon="3.03532">
        <ele>363.6</ele>
        <time>2025-08-31T09:38:47.000Z</time>
      </trkpt>
      <trkpt lat="44.12878" lon="3.03524">
        <ele>363.6</ele>
        <time>2025-08-31T09:38:49.000Z</time>
      </trkpt>
      <trkpt lat="44.12892" lon="3.03513">
        <ele>363.7</ele>
        <time>2025-08-31T09:38:51.000Z</time>
      </trkpt>
      <trkpt lat="44.12905" lon="3.03502">
        <ele>363.6</ele>
        <time>2025-08-31T09:38:53.000Z</time>
      </trkpt>
      <trkpt lat="44.12917" lon="3.03489">
        <ele>363.5</ele>
        <time>2025-08-31T09:38:55.000Z</time>
      </trkpt>
      <trkpt lat="44.12927" lon="3.03473">
        <ele>363.3</ele>
        <time>2025-08-31T09:38:57.000Z</time>
      </trkpt>
      <trkpt lat="44.12937" lon="3.03456">
        <ele>363.1</ele>
        <time>2025-08-31T09:38:59.000Z</time>
      </trkpt>
      <trkpt lat="44.12945" lon="3.03437">
        <ele>362.9</ele>
        <time>2025-08-31T09:39:01.000Z</time>
      </trkpt>
      <trkpt lat="44.12951" lon="3.03416">
        <ele>362.6</ele>
        <time>2025-08-31T09:39:03.000Z</time>
      </trkpt>
      <trkpt lat="44.12956" lon="3.03396">
        <ele>362.4</ele>
        <time>2025-08-31T09:39:05.000Z</time>
      </trkpt>
      <trkpt lat="44.1296" lon="3.03375">
        <ele>362.1</ele>
        <time>2025-08-31T09:39:07.000Z</time>
      </trkpt>
      <trkpt lat="44.12964" lon="3.03354">
        <ele>361.9</ele>
        <time>2025-08-31T09:39:09.000Z</time>
      </trkpt>
      <trkpt lat="44.12967" lon="3.03333">
        <ele>361.7</ele>
        <time>2025-08-31T09:39:11.000Z</time>
      </trkpt>
      <trkpt lat="44.1297" lon="3.03313">
        <ele>361.5</ele>
        <time>2025-08-31T09:39:13.000Z</time>
      </trkpt>
      <trkpt lat="44.12974" lon="3.03293">
        <ele>361.3</ele>
        <time>2025-08-31T09:39:15.000Z</time>
      </trkpt>
      <trkpt lat="44.12979" lon="3.03274">
        <ele>361.1</ele>
        <time>2025-08-31T09:39:17.000Z</time>
      </trkpt>
      <trkpt lat="44.12986" lon="3.03257">
        <ele>361</ele>
        <time>2025-08-31T09:39:19.000Z</time>
      </trkpt>
      <trkpt lat="44.12994" lon="3.03241">
        <ele>360.9</ele>
        <time>2025-08-31T09:39:21.000Z</time>
      </trkpt>
      <trkpt lat="44.13004" lon="3.03226">
        <ele>360.8</ele>
        <time>2025-08-31T09:39:23.000Z</time>
      </trkpt>
      <trkpt lat="44.13014" lon="3.03213">
        <ele>360.7</ele>
        <time>2025-08-31T09:39:25.000Z</time>
      </trkpt>
      <trkpt lat="44.13025" lon="3.03202">
        <ele>360.6</ele>
        <time>2025-08-31T09:39:27.000Z</time>
      </trkpt>
      <trkpt lat="44.13037" lon="3.03193">
        <ele>360.5</ele>
        <time>2025-08-31T09:39:29.000Z</time>
      </trkpt>
      <trkpt lat="44.13049" lon="3.03185">
        <ele>360.5</ele>
        <time>2025-08-31T09:39:31.000Z</time>
      </trkpt>
      <trkpt lat="44.13061" lon="3.0318">
        <ele>360.5</ele>
        <time>2025-08-31T09:39:33.000Z</time>
      </trkpt>
      <trkpt lat="44.13074" lon="3.03177">
        <ele>360.5</ele>
        <time>2025-08-31T09:39:35.000Z</time>
      </trkpt>
      <trkpt lat="44.13088" lon="3.03175">
        <ele>360.6</ele>
        <time>2025-08-31T09:39:37.000Z</time>
      </trkpt>
      <trkpt lat="44.131" lon="3.03174">
        <ele>360.7</ele>
        <time>2025-08-31T09:39:39.000Z</time>
      </trkpt>
      <trkpt lat="44.13113" lon="3.03173">
        <ele>360.7</ele>
        <time>2025-08-31T09:39:41.000Z</time>
      </trkpt>
      <trkpt lat="44.13126" lon="3.03172">
        <ele>360.8</ele>
        <time>2025-08-31T09:39:43.000Z</time>
      </trkpt>
      <trkpt lat="44.13138" lon="3.03171">
        <ele>360.9</ele>
        <time>2025-08-31T09:39:45.000Z</time>
      </trkpt>
      <trkpt lat="44.1315" lon="3.03171">
        <ele>361.1</ele>
        <time>2025-08-31T09:39:47.000Z</time>
      </trkpt>
      <trkpt lat="44.13162" lon="3.0317">
        <ele>361.3</ele>
        <time>2025-08-31T09:39:49.000Z</time>
      </trkpt>
      <trkpt lat="44.13174" lon="3.03169">
        <ele>361.4</ele>
        <time>2025-08-31T09:39:51.000Z</time>
      </trkpt>
      <trkpt lat="44.13186" lon="3.03169">
        <ele>361.5</ele>
        <time>2025-08-31T09:39:53.000Z</time>
      </trkpt>
      <trkpt lat="44.13197" lon="3.03169">
        <ele>361.7</ele>
        <time>2025-08-31T09:39:55.000Z</time>
      </trkpt>
      <trkpt lat="44.13208" lon="3.03168">
        <ele>361.9</ele>
        <time>2025-08-31T09:39:57.000Z</time>
      </trkpt>
      <trkpt lat="44.13218" lon="3.03166">
        <ele>362.1</ele>
        <time>2025-08-31T09:39:59.000Z</time>
      </trkpt>
      <trkpt lat="44.13228" lon="3.03162">
        <ele>362.3</ele>
        <time>2025-08-31T09:40:01.000Z</time>
      </trkpt>
      <trkpt lat="44.13232" lon="3.03151">
        <ele>362.6</ele>
        <time>2025-08-31T09:40:03.000Z</time>
      </trkpt>
      <trkpt lat="44.13232" lon="3.03137">
        <ele>362.9</ele>
        <time>2025-08-31T09:40:05.000Z</time>
      </trkpt>
      <trkpt lat="44.13232" lon="3.03124">
        <ele>363.1</ele>
        <time>2025-08-31T09:40:07.000Z</time>
      </trkpt>
      <trkpt lat="44.13232" lon="3.0311">
        <ele>363.3</ele>
        <time>2025-08-31T09:40:09.000Z</time>
      </trkpt>
      <trkpt lat="44.13232" lon="3.03096">
        <ele>363.5</ele>
        <time>2025-08-31T09:40:11.000Z</time>
      </trkpt>
      <trkpt lat="44.13232" lon="3.03082">
        <ele>363.7</ele>
        <time>2025-08-31T09:40:13.000Z</time>
      </trkpt>
      <trkpt lat="44.13232" lon="3.03069">
        <ele>363.8</ele>
        <time>2025-08-31T09:40:15.000Z</time>
      </trkpt>
      <trkpt lat="44.13232" lon="3.03056">
        <ele>364</ele>
        <time>2025-08-31T09:40:17.000Z</time>
      </trkpt>
      <trkpt lat="44.13232" lon="3.03042">
        <ele>364.1</ele>
        <time>2025-08-31T09:40:19.000Z</time>
      </trkpt>
      <trkpt lat="44.13232" lon="3.03028">
        <ele>364.2</ele>
        <time>2025-08-31T09:40:21.000Z</time>
      </trkpt>
      <trkpt lat="44.13232" lon="3.03014">
        <ele>364.3</ele>
        <time>2025-08-31T09:40:23.000Z</time>
      </trkpt>
      <trkpt lat="44.13232" lon="3.02999">
        <ele>364.4</ele>
        <time>2025-08-31T09:40:25.000Z</time>
      </trkpt>
      <trkpt lat="44.13232" lon="3.02984">
        <ele>364.5</ele>
        <time>2025-08-31T09:40:27.000Z</time>
      </trkpt>
      <trkpt lat="44.13232" lon="3.0297">
        <ele>364.7</ele>
        <time>2025-08-31T09:40:29.000Z</time>
      </trkpt>
      <trkpt lat="44.13233" lon="3.02955">
        <ele>364.9</ele>
        <time>2025-08-31T09:40:31.000Z</time>
      </trkpt>
      <trkpt lat="44.13233" lon="3.02941">
        <ele>365</ele>
        <time>2025-08-31T09:40:33.000Z</time>
      </trkpt>
      <trkpt lat="44.13232" lon="3.02926">
        <ele>365.1</ele>
        <time>2025-08-31T09:40:35.000Z</time>
      </trkpt>
      <trkpt lat="44.1323" lon="3.02912">
        <ele>365.2</ele>
        <time>2025-08-31T09:40:37.000Z</time>
      </trkpt>
      <trkpt lat="44.13224" lon="3.029">
        <ele>365.4</ele>
        <time>2025-08-31T09:40:39.000Z</time>
      </trkpt>
      <trkpt lat="44.13218" lon="3.02889">
        <ele>365.5</ele>
        <time>2025-08-31T09:40:41.000Z</time>
      </trkpt>
      <trkpt lat="44.13212" lon="3.02878">
        <ele>365.6</ele>
        <time>2025-08-31T09:40:43.000Z</time>
      </trkpt>
      <trkpt lat="44.13205" lon="3.02867">
        <ele>365.7</ele>
        <time>2025-08-31T09:40:45.000Z</time>
      </trkpt>
      <trkpt lat="44.132" lon="3.02856">
        <ele>365.8</ele>
        <time>2025-08-31T09:40:47.000Z</time>
      </trkpt>
      <trkpt lat="44.13197" lon="3.02844">
        <ele>366</ele>
        <time>2025-08-31T09:40:49.000Z</time>
      </trkpt>
      <trkpt lat="44.13191" lon="3.02835">
        <ele>366.1</ele>
        <time>2025-08-31T09:40:51.000Z</time>
      </trkpt>
      <trkpt lat="44.13185" lon="3.02824">
        <ele>366.5</ele>
        <time>2025-08-31T09:40:53.000Z</time>
      </trkpt>
      <trkpt lat="44.13179" lon="3.02814">
        <ele>366.8</ele>
        <time>2025-08-31T09:40:55.000Z</time>
      </trkpt>
      <trkpt lat="44.1317" lon="3.02804">
        <ele>367.1</ele>
        <time>2025-08-31T09:40:57.000Z</time>
      </trkpt>
      <trkpt lat="44.13163" lon="3.02789">
        <ele>367.6</ele>
        <time>2025-08-31T09:41:00.000Z</time>
      </trkpt>
      <trkpt lat="44.1316" lon="3.02771">
        <ele>368.2</ele>
        <time>2025-08-31T09:41:03.000Z</time>
      </trkpt>
      <trkpt lat="44.13162" lon="3.02758">
        <ele>368.7</ele>
        <time>2025-08-31T09:41:05.000Z</time>
      </trkpt>
      <trkpt lat="44.13167" lon="3.02741">
        <ele>369.4</ele>
        <time>2025-08-31T09:41:08.000Z</time>
      </trkpt>
      <trkpt lat="44.13173" lon="3.02726">
        <ele>370</ele>
        <time>2025-08-31T09:41:11.000Z</time>
      </trkpt>
      <trkpt lat="44.13177" lon="3.0271">
        <ele>370.7</ele>
        <time>2025-08-31T09:41:14.000Z</time>
      </trkpt>
      <trkpt lat="44.13182" lon="3.02695">
        <ele>371.4</ele>
        <time>2025-08-31T09:41:17.000Z</time>
      </trkpt>
      <trkpt lat="44.13187" lon="3.0268">
        <ele>372</ele>
        <time>2025-08-31T09:41:20.000Z</time>
      </trkpt>
      <trkpt lat="44.13191" lon="3.02667">
        <ele>372.6</ele>
        <time>2025-08-31T09:41:23.000Z</time>
      </trkpt>
      <trkpt lat="44.13196" lon="3.02652">
        <ele>373.1</ele>
        <time>2025-08-31T09:41:26.000Z</time>
      </trkpt>
      <trkpt lat="44.13201" lon="3.02638">
        <ele>373.5</ele>
        <time>2025-08-31T09:41:29.000Z</time>
      </trkpt>
      <trkpt lat="44.13207" lon="3.02623">
        <ele>374</ele>
        <time>2025-08-31T09:41:32.000Z</time>
      </trkpt>
      <trkpt lat="44.13212" lon="3.02608">
        <ele>374.3</ele>
        <time>2025-08-31T09:41:35.000Z</time>
      </trkpt>
      <trkpt lat="44.13217" lon="3.02592">
        <ele>374.7</ele>
        <time>2025-08-31T09:41:38.000Z</time>
      </trkpt>
      <trkpt lat="44.13223" lon="3.02575">
        <ele>374.9</ele>
        <time>2025-08-31T09:41:41.000Z</time>
      </trkpt>
      <trkpt lat="44.13227" lon="3.02563">
        <ele>375.1</ele>
        <time>2025-08-31T09:41:43.000Z</time>
      </trkpt>
      <trkpt lat="44.13231" lon="3.02549">
        <ele>375.2</ele>
        <time>2025-08-31T09:41:45.000Z</time>
      </trkpt>
      <trkpt lat="44.13236" lon="3.02533">
        <ele>375.3</ele>
        <time>2025-08-31T09:41:47.000Z</time>
      </trkpt>
      <trkpt lat="44.13242" lon="3.02516">
        <ele>375.4</ele>
        <time>2025-08-31T09:41:49.000Z</time>
      </trkpt>
      <trkpt lat="44.13251" lon="3.02498">
        <ele>375.4</ele>
        <time>2025-08-31T09:41:51.000Z</time>
      </trkpt>
      <trkpt lat="44.13265" lon="3.02483">
        <ele>375.2</ele>
        <time>2025-08-31T09:41:53.000Z</time>
      </trkpt>
      <trkpt lat="44.13274" lon="3.02479">
        <ele>375.1</ele>
        <time>2025-08-31T09:41:54.000Z</time>
      </trkpt>
      <trkpt lat="44.13284" lon="3.02475">
        <ele>374.9</ele>
        <time>2025-08-31T09:41:55.000Z</time>
      </trkpt>
      <trkpt lat="44.13293" lon="3.0247">
        <ele>374.7</ele>
        <time>2025-08-31T09:41:56.000Z</time>
      </trkpt>
      <trkpt lat="44.13302" lon="3.02464">
        <ele>374.5</ele>
        <time>2025-08-31T09:41:57.000Z</time>
      </trkpt>
      <trkpt lat="44.13311" lon="3.02456">
        <ele>374.2</ele>
        <time>2025-08-31T09:41:58.000Z</time>
      </trkpt>
      <trkpt lat="44.13319" lon="3.02446">
        <ele>373.9</ele>
        <time>2025-08-31T09:41:59.000Z</time>
      </trkpt>
      <trkpt lat="44.13328" lon="3.02436">
        <ele>373.7</ele>
        <time>2025-08-31T09:42:00.000Z</time>
      </trkpt>
      <trkpt lat="44.13337" lon="3.02426">
        <ele>373.4</ele>
        <time>2025-08-31T09:42:01.000Z</time>
      </trkpt>
      <trkpt lat="44.13345" lon="3.02415">
        <ele>373.1</ele>
        <time>2025-08-31T09:42:02.000Z</time>
      </trkpt>
      <trkpt lat="44.13354" lon="3.02405">
        <ele>372.8</ele>
        <time>2025-08-31T09:42:03.000Z</time>
      </trkpt>
      <trkpt lat="44.13362" lon="3.02395">
        <ele>372.4</ele>
        <time>2025-08-31T09:42:04.000Z</time>
      </trkpt>
      <trkpt lat="44.13371" lon="3.02385">
        <ele>372</ele>
        <time>2025-08-31T09:42:05.000Z</time>
      </trkpt>
      <trkpt lat="44.13379" lon="3.02375">
        <ele>371.6</ele>
        <time>2025-08-31T09:42:06.000Z</time>
      </trkpt>
      <trkpt lat="44.13387" lon="3.02366">
        <ele>371.2</ele>
        <time>2025-08-31T09:42:07.000Z</time>
      </trkpt>
      <trkpt lat="44.13396" lon="3.02357">
        <ele>370.7</ele>
        <time>2025-08-31T09:42:08.000Z</time>
      </trkpt>
      <trkpt lat="44.13404" lon="3.02348">
        <ele>370.3</ele>
        <time>2025-08-31T09:42:09.000Z</time>
      </trkpt>
      <trkpt lat="44.13412" lon="3.02339">
        <ele>369.8</ele>
        <time>2025-08-31T09:42:10.000Z</time>
      </trkpt>
      <trkpt lat="44.1342" lon="3.0233">
        <ele>369.3</ele>
        <time>2025-08-31T09:42:11.000Z</time>
      </trkpt>
      <trkpt lat="44.13428" lon="3.02321">
        <ele>368.9</ele>
        <time>2025-08-31T09:42:12.000Z</time>
      </trkpt>
      <trkpt lat="44.13436" lon="3.02311">
        <ele>368.4</ele>
        <time>2025-08-31T09:42:13.000Z</time>
      </trkpt>
      <trkpt lat="44.13444" lon="3.02302">
        <ele>367.9</ele>
        <time>2025-08-31T09:42:14.000Z</time>
      </trkpt>
      <trkpt lat="44.13453" lon="3.02292">
        <ele>367.4</ele>
        <time>2025-08-31T09:42:15.000Z</time>
      </trkpt>
      <trkpt lat="44.13462" lon="3.02284">
        <ele>366.9</ele>
        <time>2025-08-31T09:42:16.000Z</time>
      </trkpt>
      <trkpt lat="44.13471" lon="3.02276">
        <ele>366.4</ele>
        <time>2025-08-31T09:42:17.000Z</time>
      </trkpt>
      <trkpt lat="44.13482" lon="3.0227">
        <ele>365.8</ele>
        <time>2025-08-31T09:42:18.000Z</time>
      </trkpt>
      <trkpt lat="44.13492" lon="3.02264">
        <ele>365.3</ele>
        <time>2025-08-31T09:42:19.000Z</time>
      </trkpt>
      <trkpt lat="44.13502" lon="3.02257">
        <ele>364.8</ele>
        <time>2025-08-31T09:42:20.000Z</time>
      </trkpt>
      <trkpt lat="44.13512" lon="3.02249">
        <ele>364.3</ele>
        <time>2025-08-31T09:42:21.000Z</time>
      </trkpt>
      <trkpt lat="44.1352" lon="3.02239">
        <ele>363.8</ele>
        <time>2025-08-31T09:42:22.000Z</time>
      </trkpt>
      <trkpt lat="44.13528" lon="3.0223">
        <ele>363.4</ele>
        <time>2025-08-31T09:42:23.000Z</time>
      </trkpt>
      <trkpt lat="44.13535" lon="3.0222">
        <ele>363</ele>
        <time>2025-08-31T09:42:24.000Z</time>
      </trkpt>
      <trkpt lat="44.13543" lon="3.02211">
        <ele>362.6</ele>
        <time>2025-08-31T09:42:25.000Z</time>
      </trkpt>
      <trkpt lat="44.13549" lon="3.02202">
        <ele>362.2</ele>
        <time>2025-08-31T09:42:26.000Z</time>
      </trkpt>
      <trkpt lat="44.13562" lon="3.02185">
        <ele>361.4</ele>
        <time>2025-08-31T09:42:28.000Z</time>
      </trkpt>
      <trkpt lat="44.13575" lon="3.02171">
        <ele>360.6</ele>
        <time>2025-08-31T09:42:30.000Z</time>
      </trkpt>
      <trkpt lat="44.13589" lon="3.0216">
        <ele>359.9</ele>
        <time>2025-08-31T09:42:32.000Z</time>
      </trkpt>
      <trkpt lat="44.13604" lon="3.02151">
        <ele>359.2</ele>
        <time>2025-08-31T09:42:34.000Z</time>
      </trkpt>
      <trkpt lat="44.13619" lon="3.02142">
        <ele>358.6</ele>
        <time>2025-08-31T09:42:36.000Z</time>
      </trkpt>
      <trkpt lat="44.13631" lon="3.02127">
        <ele>358</ele>
        <time>2025-08-31T09:42:38.000Z</time>
      </trkpt>
      <trkpt lat="44.13637" lon="3.02109">
        <ele>357.4</ele>
        <time>2025-08-31T09:42:40.000Z</time>
      </trkpt>
      <trkpt lat="44.1364" lon="3.02091">
        <ele>356.9</ele>
        <time>2025-08-31T09:42:42.000Z</time>
      </trkpt>
      <trkpt lat="44.13638" lon="3.02076">
        <ele>356.5</ele>
        <time>2025-08-31T09:42:44.000Z</time>
      </trkpt>
      <trkpt lat="44.13634" lon="3.02063">
        <ele>356.2</ele>
        <time>2025-08-31T09:42:46.000Z</time>
      </trkpt>
      <trkpt lat="44.13633" lon="3.02045">
        <ele>355.9</ele>
        <time>2025-08-31T09:42:49.000Z</time>
      </trkpt>
      <trkpt lat="44.13637" lon="3.02028">
        <ele>355.6</ele>
        <time>2025-08-31T09:42:52.000Z</time>
      </trkpt>
      <trkpt lat="44.13642" lon="3.02014">
        <ele>355.5</ele>
        <time>2025-08-31T09:42:55.000Z</time>
      </trkpt>
      <trkpt lat="44.13647" lon="3.01999">
        <ele>355.6</ele>
        <time>2025-08-31T09:42:58.000Z</time>
      </trkpt>
      <trkpt lat="44.13653" lon="3.01985">
        <ele>355.7</ele>
        <time>2025-08-31T09:43:01.000Z</time>
      </trkpt>
      <trkpt lat="44.13659" lon="3.01971">
        <ele>355.9</ele>
        <time>2025-08-31T09:43:04.000Z</time>
      </trkpt>
      <trkpt lat="44.13666" lon="3.01957">
        <ele>356.1</ele>
        <time>2025-08-31T09:43:07.000Z</time>
      </trkpt>
      <trkpt lat="44.13671" lon="3.01944">
        <ele>356.4</ele>
        <time>2025-08-31T09:43:10.000Z</time>
      </trkpt>
      <trkpt lat="44.13676" lon="3.01931">
        <ele>356.6</ele>
        <time>2025-08-31T09:43:13.000Z</time>
      </trkpt>
      <trkpt lat="44.1368" lon="3.01918">
        <ele>357.2</ele>
        <time>2025-08-31T09:43:17.000Z</time>
      </trkpt>
      <trkpt lat="44.13686" lon="3.01906">
        <ele>358.3</ele>
        <time>2025-08-31T09:43:23.000Z</time>
      </trkpt>
      <trkpt lat="44.13693" lon="3.01897">
        <ele>359.8</ele>
        <time>2025-08-31T09:43:29.000Z</time>
      </trkpt>
      <trkpt lat="44.13698" lon="3.01887">
        <ele>361.2</ele>
        <time>2025-08-31T09:43:34.000Z</time>
      </trkpt>
      <trkpt lat="44.13704" lon="3.01876">
        <ele>362.9</ele>
        <time>2025-08-31T09:43:40.000Z</time>
      </trkpt>
      <trkpt lat="44.13709" lon="3.01865">
        <ele>364.9</ele>
        <time>2025-08-31T09:43:46.000Z</time>
      </trkpt>
      <trkpt lat="44.13717" lon="3.01854">
        <ele>367</ele>
        <time>2025-08-31T09:43:52.000Z</time>
      </trkpt>
      <trkpt lat="44.13722" lon="3.01842">
        <ele>368.5</ele>
        <time>2025-08-31T09:43:57.000Z</time>
      </trkpt>
      <trkpt lat="44.13727" lon="3.0183">
        <ele>369.8</ele>
        <time>2025-08-31T09:44:01.000Z</time>
      </trkpt>
      <trkpt lat="44.13732" lon="3.01819">
        <ele>371</ele>
        <time>2025-08-31T09:44:05.000Z</time>
      </trkpt>
      <trkpt lat="44.13737" lon="3.01809">
        <ele>372.1</ele>
        <time>2025-08-31T09:44:09.000Z</time>
      </trkpt>
      <trkpt lat="44.13741" lon="3.01797">
        <ele>373.3</ele>
        <time>2025-08-31T09:44:13.000Z</time>
      </trkpt>
      <trkpt lat="44.13747" lon="3.01785">
        <ele>374.5</ele>
        <time>2025-08-31T09:44:17.000Z</time>
      </trkpt>
      <trkpt lat="44.13753" lon="3.01774">
        <ele>375.8</ele>
        <time>2025-08-31T09:44:21.000Z</time>
      </trkpt>
      <trkpt lat="44.13759" lon="3.01765">
        <ele>377</ele>
        <time>2025-08-31T09:44:25.000Z</time>
      </trkpt>
      <trkpt lat="44.13766" lon="3.01757">
        <ele>378.2</ele>
        <time>2025-08-31T09:44:29.000Z</time>
      </trkpt>
      <trkpt lat="44.13774" lon="3.01748">
        <ele>379.3</ele>
        <time>2025-08-31T09:44:33.000Z</time>
      </trkpt>
      <trkpt lat="44.13782" lon="3.0174">
        <ele>380.6</ele>
        <time>2025-08-31T09:44:37.000Z</time>
      </trkpt>
      <trkpt lat="44.13792" lon="3.01733">
        <ele>381.9</ele>
        <time>2025-08-31T09:44:41.000Z</time>
      </trkpt>
      <trkpt lat="44.13801" lon="3.01727">
        <ele>383</ele>
        <time>2025-08-31T09:44:44.000Z</time>
      </trkpt>
      <trkpt lat="44.1381" lon="3.01721">
        <ele>384</ele>
        <time>2025-08-31T09:44:47.000Z</time>
      </trkpt>
      <trkpt lat="44.1382" lon="3.01715">
        <ele>385</ele>
        <time>2025-08-31T09:44:50.000Z</time>
      </trkpt>
      <trkpt lat="44.13828" lon="3.01709">
        <ele>386</ele>
        <time>2025-08-31T09:44:53.000Z</time>
      </trkpt>
      <trkpt lat="44.13838" lon="3.01701">
        <ele>387.3</ele>
        <time>2025-08-31T09:44:57.000Z</time>
      </trkpt>
      <trkpt lat="44.13845" lon="3.01693">
        <ele>388.2</ele>
        <time>2025-08-31T09:45:00.000Z</time>
      </trkpt>
      <trkpt lat="44.13854" lon="3.01684">
        <ele>389.1</ele>
        <time>2025-08-31T09:45:03.000Z</time>
      </trkpt>
      <trkpt lat="44.13861" lon="3.01672">
        <ele>390</ele>
        <time>2025-08-31T09:45:06.000Z</time>
      </trkpt>
      <trkpt lat="44.1387" lon="3.01662">
        <ele>390.8</ele>
        <time>2025-08-31T09:45:09.000Z</time>
      </trkpt>
      <trkpt lat="44.13879" lon="3.01654">
        <ele>391.7</ele>
        <time>2025-08-31T09:45:12.000Z</time>
      </trkpt>
      <trkpt lat="44.13887" lon="3.01647">
        <ele>392.5</ele>
        <time>2025-08-31T09:45:15.000Z</time>
      </trkpt>
      <trkpt lat="44.13895" lon="3.0164">
        <ele>393.3</ele>
        <time>2025-08-31T09:45:18.000Z</time>
      </trkpt>
      <trkpt lat="44.13904" lon="3.01633">
        <ele>394.1</ele>
        <time>2025-08-31T09:45:21.000Z</time>
      </trkpt>
      <trkpt lat="44.13912" lon="3.01624">
        <ele>394.9</ele>
        <time>2025-08-31T09:45:24.000Z</time>
      </trkpt>
      <trkpt lat="44.13919" lon="3.01614">
        <ele>395.8</ele>
        <time>2025-08-31T09:45:27.000Z</time>
      </trkpt>
      <trkpt lat="44.13926" lon="3.01603">
        <ele>396.5</ele>
        <time>2025-08-31T09:45:30.000Z</time>
      </trkpt>
      <trkpt lat="44.13933" lon="3.01593">
        <ele>397.4</ele>
        <time>2025-08-31T09:45:33.000Z</time>
      </trkpt>
      <trkpt lat="44.13942" lon="3.01586">
        <ele>398.2</ele>
        <time>2025-08-31T09:45:36.000Z</time>
      </trkpt>
      <trkpt lat="44.13953" lon="3.01582">
        <ele>399.4</ele>
        <time>2025-08-31T09:45:40.000Z</time>
      </trkpt>
      <trkpt lat="44.13965" lon="3.0158">
        <ele>400.8</ele>
        <time>2025-08-31T09:45:44.000Z</time>
      </trkpt>
      <trkpt lat="44.13977" lon="3.01579">
        <ele>401.8</ele>
        <time>2025-08-31T09:45:47.000Z</time>
      </trkpt>
      <trkpt lat="44.13988" lon="3.0158">
        <ele>402.8</ele>
        <time>2025-08-31T09:45:50.000Z</time>
      </trkpt>
      <trkpt lat="44.13999" lon="3.01581">
        <ele>403.8</ele>
        <time>2025-08-31T09:45:53.000Z</time>
      </trkpt>
      <trkpt lat="44.14008" lon="3.01584">
        <ele>404.9</ele>
        <time>2025-08-31T09:45:56.000Z</time>
      </trkpt>
      <trkpt lat="44.14018" lon="3.01587">
        <ele>406.3</ele>
        <time>2025-08-31T09:46:00.000Z</time>
      </trkpt>
      <trkpt lat="44.14027" lon="3.01586">
        <ele>407.4</ele>
        <time>2025-08-31T09:46:03.000Z</time>
      </trkpt>
      <trkpt lat="44.14036" lon="3.0158">
        <ele>408.5</ele>
        <time>2025-08-31T09:46:06.000Z</time>
      </trkpt>
      <trkpt lat="44.14043" lon="3.01571">
        <ele>410.1</ele>
        <time>2025-08-31T09:46:10.000Z</time>
      </trkpt>
      <trkpt lat="44.14046" lon="3.01559">
        <ele>412.5</ele>
        <time>2025-08-31T09:46:16.000Z</time>
      </trkpt>
      <trkpt lat="44.14044" lon="3.01546">
        <ele>414.3</ele>
        <time>2025-08-31T09:46:21.000Z</time>
      </trkpt>
      <trkpt lat="44.14043" lon="3.0153">
        <ele>415.9</ele>
        <time>2025-08-31T09:46:26.000Z</time>
      </trkpt>
      <trkpt lat="44.14045" lon="3.01515">
        <ele>417.2</ele>
        <time>2025-08-31T09:46:30.000Z</time>
      </trkpt>
      <trkpt lat="44.14046" lon="3.01501">
        <ele>418.1</ele>
        <time>2025-08-31T09:46:33.000Z</time>
      </trkpt>
      <trkpt lat="44.14047" lon="3.01484">
        <ele>418.9</ele>
        <time>2025-08-31T09:46:36.000Z</time>
      </trkpt>
      <trkpt lat="44.14052" lon="3.01467">
        <ele>419.6</ele>
        <time>2025-08-31T09:46:39.000Z</time>
      </trkpt>
      <trkpt lat="44.14055" lon="3.01455">
        <ele>420.2</ele>
        <time>2025-08-31T09:46:41.000Z</time>
      </trkpt>
      <trkpt lat="44.14058" lon="3.01443">
        <ele>420.7</ele>
        <time>2025-08-31T09:46:43.000Z</time>
      </trkpt>
      <trkpt lat="44.14063" lon="3.01426">
        <ele>421.4</ele>
        <time>2025-08-31T09:46:46.000Z</time>
      </trkpt>
      <trkpt lat="44.14065" lon="3.0141">
        <ele>421.8</ele>
        <time>2025-08-31T09:46:48.000Z</time>
      </trkpt>
      <trkpt lat="44.1407" lon="3.01396">
        <ele>422.3</ele>
        <time>2025-08-31T09:46:50.000Z</time>
      </trkpt>
      <trkpt lat="44.14075" lon="3.01385">
        <ele>422.7</ele>
        <time>2025-08-31T09:46:52.000Z</time>
      </trkpt>
      <trkpt lat="44.14079" lon="3.01374">
        <ele>423.2</ele>
        <time>2025-08-31T09:46:54.000Z</time>
      </trkpt>
      <trkpt lat="44.14085" lon="3.01363">
        <ele>423.6</ele>
        <time>2025-08-31T09:46:56.000Z</time>
      </trkpt>
      <trkpt lat="44.1409" lon="3.01352">
        <ele>424.1</ele>
        <time>2025-08-31T09:46:58.000Z</time>
      </trkpt>
      <trkpt lat="44.14095" lon="3.01341">
        <ele>424.6</ele>
        <time>2025-08-31T09:47:00.000Z</time>
      </trkpt>
      <trkpt lat="44.14101" lon="3.0133">
        <ele>425.1</ele>
        <time>2025-08-31T09:47:02.000Z</time>
      </trkpt>
      <trkpt lat="44.14106" lon="3.01319">
        <ele>425.7</ele>
        <time>2025-08-31T09:47:04.000Z</time>
      </trkpt>
      <trkpt lat="44.14111" lon="3.01308">
        <ele>426.2</ele>
        <time>2025-08-31T09:47:06.000Z</time>
      </trkpt>
      <trkpt lat="44.14118" lon="3.01291">
        <ele>427</ele>
        <time>2025-08-31T09:47:09.000Z</time>
      </trkpt>
      <trkpt lat="44.14124" lon="3.01275">
        <ele>427.9</ele>
        <time>2025-08-31T09:47:12.000Z</time>
      </trkpt>
      <trkpt lat="44.14131" lon="3.01259">
        <ele>428.7</ele>
        <time>2025-08-31T09:47:15.000Z</time>
      </trkpt>
      <trkpt lat="44.1414" lon="3.01245">
        <ele>429.6</ele>
        <time>2025-08-31T09:47:18.000Z</time>
      </trkpt>
      <trkpt lat="44.14146" lon="3.01235">
        <ele>430.1</ele>
        <time>2025-08-31T09:47:20.000Z</time>
      </trkpt>
      <trkpt lat="44.14154" lon="3.01226">
        <ele>430.7</ele>
        <time>2025-08-31T09:47:22.000Z</time>
      </trkpt>
      <trkpt lat="44.14165" lon="3.01216">
        <ele>431.7</ele>
        <time>2025-08-31T09:47:25.000Z</time>
      </trkpt>
      <trkpt lat="44.14176" lon="3.01208">
        <ele>432.7</ele>
        <time>2025-08-31T09:47:28.000Z</time>
      </trkpt>
      <trkpt lat="44.14185" lon="3.01199">
        <ele>433.8</ele>
        <time>2025-08-31T09:47:31.000Z</time>
      </trkpt>
      <trkpt lat="44.14195" lon="3.01191">
        <ele>434.9</ele>
        <time>2025-08-31T09:47:34.000Z</time>
      </trkpt>
      <trkpt lat="44.14203" lon="3.01182">
        <ele>436</ele>
        <time>2025-08-31T09:47:37.000Z</time>
      </trkpt>
      <trkpt lat="44.14211" lon="3.01174">
        <ele>437.1</ele>
        <time>2025-08-31T09:47:40.000Z</time>
      </trkpt>
      <trkpt lat="44.14218" lon="3.01165">
        <ele>438.1</ele>
        <time>2025-08-31T09:47:43.000Z</time>
      </trkpt>
      <trkpt lat="44.14225" lon="3.01156">
        <ele>439.2</ele>
        <time>2025-08-31T09:47:46.000Z</time>
      </trkpt>
      <trkpt lat="44.14234" lon="3.01145">
        <ele>440.6</ele>
        <time>2025-08-31T09:47:50.000Z</time>
      </trkpt>
      <trkpt lat="44.14231" lon="3.01132">
        <ele>441.6</ele>
        <time>2025-08-31T09:47:53.000Z</time>
      </trkpt>
      <trkpt lat="44.14222" lon="3.0112">
        <ele>442.5</ele>
        <time>2025-08-31T09:47:56.000Z</time>
      </trkpt>
      <trkpt lat="44.14215" lon="3.01112">
        <ele>443</ele>
        <time>2025-08-31T09:47:58.000Z</time>
      </trkpt>
      <trkpt lat="44.14208" lon="3.01103">
        <ele>443.6</ele>
        <time>2025-08-31T09:48:00.000Z</time>
      </trkpt>
      <trkpt lat="44.142" lon="3.01094">
        <ele>444.1</ele>
        <time>2025-08-31T09:48:02.000Z</time>
      </trkpt>
      <trkpt lat="44.14193" lon="3.01084">
        <ele>444.6</ele>
        <time>2025-08-31T09:48:04.000Z</time>
      </trkpt>
      <trkpt lat="44.14186" lon="3.01074">
        <ele>445.1</ele>
        <time>2025-08-31T09:48:06.000Z</time>
      </trkpt>
      <trkpt lat="44.14179" lon="3.01064">
        <ele>445.6</ele>
        <time>2025-08-31T09:48:08.000Z</time>
      </trkpt>
      <trkpt lat="44.14171" lon="3.01054">
        <ele>446</ele>
        <time>2025-08-31T09:48:10.000Z</time>
      </trkpt>
      <trkpt lat="44.14164" lon="3.01044">
        <ele>446.5</ele>
        <time>2025-08-31T09:48:12.000Z</time>
      </trkpt>
      <trkpt lat="44.14156" lon="3.01035">
        <ele>447</ele>
        <time>2025-08-31T09:48:14.000Z</time>
      </trkpt>
      <trkpt lat="44.14149" lon="3.01026">
        <ele>447.4</ele>
        <time>2025-08-31T09:48:16.000Z</time>
      </trkpt>
      <trkpt lat="44.14142" lon="3.01016">
        <ele>447.9</ele>
        <time>2025-08-31T09:48:18.000Z</time>
      </trkpt>
      <trkpt lat="44.14135" lon="3.01007">
        <ele>448.4</ele>
        <time>2025-08-31T09:48:20.000Z</time>
      </trkpt>
      <trkpt lat="44.14127" lon="3.00998">
        <ele>448.8</ele>
        <time>2025-08-31T09:48:22.000Z</time>
      </trkpt>
      <trkpt lat="44.14118" lon="3.00985">
        <ele>449.5</ele>
        <time>2025-08-31T09:48:25.000Z</time>
      </trkpt>
      <trkpt lat="44.14108" lon="3.00973">
        <ele>450.4</ele>
        <time>2025-08-31T09:48:28.000Z</time>
      </trkpt>
      <trkpt lat="44.14099" lon="3.0096">
        <ele>451.2</ele>
        <time>2025-08-31T09:48:31.000Z</time>
      </trkpt>
      <trkpt lat="44.14091" lon="3.00947">
        <ele>452</ele>
        <time>2025-08-31T09:48:34.000Z</time>
      </trkpt>
      <trkpt lat="44.14083" lon="3.00932">
        <ele>452.7</ele>
        <time>2025-08-31T09:48:37.000Z</time>
      </trkpt>
      <trkpt lat="44.14076" lon="3.00917">
        <ele>453.4</ele>
        <time>2025-08-31T09:48:40.000Z</time>
      </trkpt>
      <trkpt lat="44.14072" lon="3.00906">
        <ele>453.9</ele>
        <time>2025-08-31T09:48:42.000Z</time>
      </trkpt>
      <trkpt lat="44.14068" lon="3.00894">
        <ele>454.4</ele>
        <time>2025-08-31T09:48:44.000Z</time>
      </trkpt>
      <trkpt lat="44.14064" lon="3.00882">
        <ele>454.9</ele>
        <time>2025-08-31T09:48:46.000Z</time>
      </trkpt>
      <trkpt lat="44.14061" lon="3.00868">
        <ele>455.3</ele>
        <time>2025-08-31T09:48:48.000Z</time>
      </trkpt>
      <trkpt lat="44.14058" lon="3.00853">
        <ele>455.7</ele>
        <time>2025-08-31T09:48:50.000Z</time>
      </trkpt>
      <trkpt lat="44.14055" lon="3.00838">
        <ele>456.1</ele>
        <time>2025-08-31T09:48:52.000Z</time>
      </trkpt>
      <trkpt lat="44.14053" lon="3.00821">
        <ele>456.5</ele>
        <time>2025-08-31T09:48:54.000Z</time>
      </trkpt>
      <trkpt lat="44.14052" lon="3.00803">
        <ele>456.9</ele>
        <time>2025-08-31T09:48:56.000Z</time>
      </trkpt>
      <trkpt lat="44.14053" lon="3.00783">
        <ele>457.3</ele>
        <time>2025-08-31T09:48:58.000Z</time>
      </trkpt>
      <trkpt lat="44.14054" lon="3.00764">
        <ele>457.7</ele>
        <time>2025-08-31T09:49:00.000Z</time>
      </trkpt>
      <trkpt lat="44.14056" lon="3.00743">
        <ele>457.9</ele>
        <time>2025-08-31T09:49:02.000Z</time>
      </trkpt>
      <trkpt lat="44.1406" lon="3.00721">
        <ele>458</ele>
        <time>2025-08-31T09:49:04.000Z</time>
      </trkpt>
      <trkpt lat="44.14066" lon="3.00698">
        <ele>458.1</ele>
        <time>2025-08-31T09:49:06.000Z</time>
      </trkpt>
      <trkpt lat="44.14073" lon="3.00675">
        <ele>458</ele>
        <time>2025-08-31T09:49:08.000Z</time>
      </trkpt>
      <trkpt lat="44.14077" lon="3.00664">
        <ele>457.9</ele>
        <time>2025-08-31T09:49:09.000Z</time>
      </trkpt>
      <trkpt lat="44.14082" lon="3.00653">
        <ele>457.8</ele>
        <time>2025-08-31T09:49:10.000Z</time>
      </trkpt>
      <trkpt lat="44.14087" lon="3.00642">
        <ele>457.7</ele>
        <time>2025-08-31T09:49:11.000Z</time>
      </trkpt>
      <trkpt lat="44.14092" lon="3.00632">
        <ele>457.6</ele>
        <time>2025-08-31T09:49:12.000Z</time>
      </trkpt>
      <trkpt lat="44.14097" lon="3.00621">
        <ele>457.4</ele>
        <time>2025-08-31T09:49:13.000Z</time>
      </trkpt>
      <trkpt lat="44.14102" lon="3.00611">
        <ele>457.3</ele>
        <time>2025-08-31T09:49:14.000Z</time>
      </trkpt>
      <trkpt lat="44.14107" lon="3.006">
        <ele>457.2</ele>
        <time>2025-08-31T09:49:15.000Z</time>
      </trkpt>
      <trkpt lat="44.14118" lon="3.0058">
        <ele>456.8</ele>
        <time>2025-08-31T09:49:17.000Z</time>
      </trkpt>
      <trkpt lat="44.14128" lon="3.0056">
        <ele>456.6</ele>
        <time>2025-08-31T09:49:19.000Z</time>
      </trkpt>
      <trkpt lat="44.14139" lon="3.0054">
        <ele>456.3</ele>
        <time>2025-08-31T09:49:21.000Z</time>
      </trkpt>
      <trkpt lat="44.14145" lon="3.00531">
        <ele>456.1</ele>
        <time>2025-08-31T09:49:22.000Z</time>
      </trkpt>
      <trkpt lat="44.14151" lon="3.00521">
        <ele>455.9</ele>
        <time>2025-08-31T09:49:23.000Z</time>
      </trkpt>
      <trkpt lat="44.14157" lon="3.00512">
        <ele>455.7</ele>
        <time>2025-08-31T09:49:24.000Z</time>
      </trkpt>
      <trkpt lat="44.14164" lon="3.00502">
        <ele>455.5</ele>
        <time>2025-08-31T09:49:25.000Z</time>
      </trkpt>
      <trkpt lat="44.1417" lon="3.00492">
        <ele>455.3</ele>
        <time>2025-08-31T09:49:26.000Z</time>
      </trkpt>
      <trkpt lat="44.14176" lon="3.00482">
        <ele>455.1</ele>
        <time>2025-08-31T09:49:27.000Z</time>
      </trkpt>
      <trkpt lat="44.14183" lon="3.00472">
        <ele>454.9</ele>
        <time>2025-08-31T09:49:28.000Z</time>
      </trkpt>
      <trkpt lat="44.1419" lon="3.00462">
        <ele>454.7</ele>
        <time>2025-08-31T09:49:29.000Z</time>
      </trkpt>
      <trkpt lat="44.14196" lon="3.00451">
        <ele>454.5</ele>
        <time>2025-08-31T09:49:30.000Z</time>
      </trkpt>
      <trkpt lat="44.14203" lon="3.00441">
        <ele>454.2</ele>
        <time>2025-08-31T09:49:31.000Z</time>
      </trkpt>
      <trkpt lat="44.1421" lon="3.0043">
        <ele>454</ele>
        <time>2025-08-31T09:49:32.000Z</time>
      </trkpt>
      <trkpt lat="44.14216" lon="3.0042">
        <ele>453.7</ele>
        <time>2025-08-31T09:49:33.000Z</time>
      </trkpt>
      <trkpt lat="44.14223" lon="3.00409">
        <ele>453.5</ele>
        <time>2025-08-31T09:49:34.000Z</time>
      </trkpt>
      <trkpt lat="44.1423" lon="3.00398">
        <ele>453.2</ele>
        <time>2025-08-31T09:49:35.000Z</time>
      </trkpt>
      <trkpt lat="44.14237" lon="3.00387">
        <ele>453</ele>
        <time>2025-08-31T09:49:36.000Z</time>
      </trkpt>
      <trkpt lat="44.14244" lon="3.00376">
        <ele>452.9</ele>
        <time>2025-08-31T09:49:37.000Z</time>
      </trkpt>
      <trkpt lat="44.1425" lon="3.00365">
        <ele>452.7</ele>
        <time>2025-08-31T09:49:38.000Z</time>
      </trkpt>
      <trkpt lat="44.14256" lon="3.00354">
        <ele>452.5</ele>
        <time>2025-08-31T09:49:39.000Z</time>
      </trkpt>
      <trkpt lat="44.14262" lon="3.00343">
        <ele>452.3</ele>
        <time>2025-08-31T09:49:40.000Z</time>
      </trkpt>
      <trkpt lat="44.14267" lon="3.00332">
        <ele>452.1</ele>
        <time>2025-08-31T09:49:41.000Z</time>
      </trkpt>
      <trkpt lat="44.14272" lon="3.00321">
        <ele>451.9</ele>
        <time>2025-08-31T09:49:42.000Z</time>
      </trkpt>
      <trkpt lat="44.14277" lon="3.0031">
        <ele>451.7</ele>
        <time>2025-08-31T09:49:43.000Z</time>
      </trkpt>
      <trkpt lat="44.14281" lon="3.00299">
        <ele>451.6</ele>
        <time>2025-08-31T09:49:44.000Z</time>
      </trkpt>
      <trkpt lat="44.14288" lon="3.00277">
        <ele>451.2</ele>
        <time>2025-08-31T09:49:46.000Z</time>
      </trkpt>
      <trkpt lat="44.14294" lon="3.00255">
        <ele>450.9</ele>
        <time>2025-08-31T09:49:48.000Z</time>
      </trkpt>
      <trkpt lat="44.14299" lon="3.00234">
        <ele>450.7</ele>
        <time>2025-08-31T09:49:50.000Z</time>
      </trkpt>
      <trkpt lat="44.14302" lon="3.00215">
        <ele>450.6</ele>
        <time>2025-08-31T09:49:52.000Z</time>
      </trkpt>
      <trkpt lat="44.14305" lon="3.00195">
        <ele>450.5</ele>
        <time>2025-08-31T09:49:54.000Z</time>
      </trkpt>
      <trkpt lat="44.14307" lon="3.00177">
        <ele>450.5</ele>
        <time>2025-08-31T09:49:56.000Z</time>
      </trkpt>
      <trkpt lat="44.14308" lon="3.00158">
        <ele>450.5</ele>
        <time>2025-08-31T09:49:58.000Z</time>
      </trkpt>
      <trkpt lat="44.14308" lon="3.00142">
        <ele>450.5</ele>
        <time>2025-08-31T09:50:00.000Z</time>
      </trkpt>
      <trkpt lat="44.14308" lon="3.00125">
        <ele>450.7</ele>
        <time>2025-08-31T09:50:02.000Z</time>
      </trkpt>
      <trkpt lat="44.14308" lon="3.0011">
        <ele>450.9</ele>
        <time>2025-08-31T09:50:04.000Z</time>
      </trkpt>
      <trkpt lat="44.14307" lon="3.00096">
        <ele>451.3</ele>
        <time>2025-08-31T09:50:06.000Z</time>
      </trkpt>
      <trkpt lat="44.14305" lon="3.00082">
        <ele>451.7</ele>
        <time>2025-08-31T09:50:08.000Z</time>
      </trkpt>
      <trkpt lat="44.14304" lon="3.00069">
        <ele>452.1</ele>
        <time>2025-08-31T09:50:10.000Z</time>
      </trkpt>
      <trkpt lat="44.14301" lon="3.00052">
        <ele>452.8</ele>
        <time>2025-08-31T09:50:13.000Z</time>
      </trkpt>
      <trkpt lat="44.14297" lon="3.00037">
        <ele>453.7</ele>
        <time>2025-08-31T09:50:16.000Z</time>
      </trkpt>
      <trkpt lat="44.14294" lon="3.00021">
        <ele>454.6</ele>
        <time>2025-08-31T09:50:19.000Z</time>
      </trkpt>
      <trkpt lat="44.14291" lon="3.00006">
        <ele>455.6</ele>
        <time>2025-08-31T09:50:22.000Z</time>
      </trkpt>
      <trkpt lat="44.14287" lon="2.9999">
        <ele>456.5</ele>
        <time>2025-08-31T09:50:25.000Z</time>
      </trkpt>
      <trkpt lat="44.14283" lon="2.99975">
        <ele>457.5</ele>
        <time>2025-08-31T09:50:28.000Z</time>
      </trkpt>
      <trkpt lat="44.14279" lon="2.99959">
        <ele>458.5</ele>
        <time>2025-08-31T09:50:31.000Z</time>
      </trkpt>
      <trkpt lat="44.14275" lon="2.99944">
        <ele>459.5</ele>
        <time>2025-08-31T09:50:34.000Z</time>
      </trkpt>
      <trkpt lat="44.14271" lon="2.99929">
        <ele>460.4</ele>
        <time>2025-08-31T09:50:37.000Z</time>
      </trkpt>
      <trkpt lat="44.14268" lon="2.99915">
        <ele>461.3</ele>
        <time>2025-08-31T09:50:40.000Z</time>
      </trkpt>
      <trkpt lat="44.14265" lon="2.99899">
        <ele>462.2</ele>
        <time>2025-08-31T09:50:43.000Z</time>
      </trkpt>
      <trkpt lat="44.14261" lon="2.99884">
        <ele>463.1</ele>
        <time>2025-08-31T09:50:46.000Z</time>
      </trkpt>
      <trkpt lat="44.14258" lon="2.99869">
        <ele>463.9</ele>
        <time>2025-08-31T09:50:49.000Z</time>
      </trkpt>
      <trkpt lat="44.14254" lon="2.99852">
        <ele>464.7</ele>
        <time>2025-08-31T09:50:52.000Z</time>
      </trkpt>
      <trkpt lat="44.1425" lon="2.99835">
        <ele>465.5</ele>
        <time>2025-08-31T09:50:55.000Z</time>
      </trkpt>
      <trkpt lat="44.14245" lon="2.99819">
        <ele>466.3</ele>
        <time>2025-08-31T09:50:58.000Z</time>
      </trkpt>
      <trkpt lat="44.14241" lon="2.99803">
        <ele>467.1</ele>
        <time>2025-08-31T09:51:01.000Z</time>
      </trkpt>
      <trkpt lat="44.14237" lon="2.99787">
        <ele>467.7</ele>
        <time>2025-08-31T09:51:04.000Z</time>
      </trkpt>
      <trkpt lat="44.14234" lon="2.99769">
        <ele>468.3</ele>
        <time>2025-08-31T09:51:07.000Z</time>
      </trkpt>
      <trkpt lat="44.14234" lon="2.99756">
        <ele>468.7</ele>
        <time>2025-08-31T09:51:09.000Z</time>
      </trkpt>
      <trkpt lat="44.14235" lon="2.99742">
        <ele>469.1</ele>
        <time>2025-08-31T09:51:11.000Z</time>
      </trkpt>
      <trkpt lat="44.14237" lon="2.99728">
        <ele>469.4</ele>
        <time>2025-08-31T09:51:13.000Z</time>
      </trkpt>
      <trkpt lat="44.14239" lon="2.99712">
        <ele>469.8</ele>
        <time>2025-08-31T09:51:15.000Z</time>
      </trkpt>
      <trkpt lat="44.14242" lon="2.99698">
        <ele>470.1</ele>
        <time>2025-08-31T09:51:17.000Z</time>
      </trkpt>
      <trkpt lat="44.14245" lon="2.99682">
        <ele>470.4</ele>
        <time>2025-08-31T09:51:19.000Z</time>
      </trkpt>
      <trkpt lat="44.14249" lon="2.99666">
        <ele>470.6</ele>
        <time>2025-08-31T09:51:21.000Z</time>
      </trkpt>
      <trkpt lat="44.14252" lon="2.99651">
        <ele>470.9</ele>
        <time>2025-08-31T09:51:23.000Z</time>
      </trkpt>
      <trkpt lat="44.14257" lon="2.99635">
        <ele>471.2</ele>
        <time>2025-08-31T09:51:25.000Z</time>
      </trkpt>
      <trkpt lat="44.14262" lon="2.99621">
        <ele>471.5</ele>
        <time>2025-08-31T09:51:27.000Z</time>
      </trkpt>
      <trkpt lat="44.14267" lon="2.99607">
        <ele>471.8</ele>
        <time>2025-08-31T09:51:29.000Z</time>
      </trkpt>
      <trkpt lat="44.14273" lon="2.99595">
        <ele>472.1</ele>
        <time>2025-08-31T09:51:31.000Z</time>
      </trkpt>
      <trkpt lat="44.14278" lon="2.99583">
        <ele>472.3</ele>
        <time>2025-08-31T09:51:33.000Z</time>
      </trkpt>
      <trkpt lat="44.14283" lon="2.99572">
        <ele>472.6</ele>
        <time>2025-08-31T09:51:35.000Z</time>
      </trkpt>
      <trkpt lat="44.14287" lon="2.9956">
        <ele>472.9</ele>
        <time>2025-08-31T09:51:37.000Z</time>
      </trkpt>
      <trkpt lat="44.14294" lon="2.99544">
        <ele>473.6</ele>
        <time>2025-08-31T09:51:40.000Z</time>
      </trkpt>
      <trkpt lat="44.143" lon="2.99528">
        <ele>474.4</ele>
        <time>2025-08-31T09:51:43.000Z</time>
      </trkpt>
      <trkpt lat="44.14304" lon="2.99515">
        <ele>475.1</ele>
        <time>2025-08-31T09:51:46.000Z</time>
      </trkpt>
      <trkpt lat="44.14307" lon="2.99503">
        <ele>476.1</ele>
        <time>2025-08-31T09:51:50.000Z</time>
      </trkpt>
      <trkpt lat="44.14311" lon="2.9949">
        <ele>477</ele>
        <time>2025-08-31T09:51:54.000Z</time>
      </trkpt>
      <trkpt lat="44.14317" lon="2.99477">
        <ele>478.2</ele>
        <time>2025-08-31T09:52:00.000Z</time>
      </trkpt>
      <trkpt lat="44.14321" lon="2.99463">
        <ele>479</ele>
        <time>2025-08-31T09:52:04.000Z</time>
      </trkpt>
      <trkpt lat="44.14325" lon="2.99448">
        <ele>479.8</ele>
        <time>2025-08-31T09:52:08.000Z</time>
      </trkpt>
      <trkpt lat="44.14328" lon="2.99436">
        <ele>480.4</ele>
        <time>2025-08-31T09:52:11.000Z</time>
      </trkpt>
      <trkpt lat="44.14331" lon="2.99422">
        <ele>480.9</ele>
        <time>2025-08-31T09:52:14.000Z</time>
      </trkpt>
      <trkpt lat="44.14334" lon="2.99408">
        <ele>481.4</ele>
        <time>2025-08-31T09:52:17.000Z</time>
      </trkpt>
      <trkpt lat="44.14337" lon="2.99393">
        <ele>481.9</ele>
        <time>2025-08-31T09:52:20.000Z</time>
      </trkpt>
      <trkpt lat="44.14339" lon="2.99376">
        <ele>482.5</ele>
        <time>2025-08-31T09:52:23.000Z</time>
      </trkpt>
      <trkpt lat="44.14341" lon="2.99363">
        <ele>482.9</ele>
        <time>2025-08-31T09:52:25.000Z</time>
      </trkpt>
      <trkpt lat="44.14343" lon="2.99349">
        <ele>483.2</ele>
        <time>2025-08-31T09:52:27.000Z</time>
      </trkpt>
      <trkpt lat="44.14345" lon="2.99337">
        <ele>483.6</ele>
        <time>2025-08-31T09:52:29.000Z</time>
      </trkpt>
      <trkpt lat="44.14347" lon="2.99324">
        <ele>483.9</ele>
        <time>2025-08-31T09:52:31.000Z</time>
      </trkpt>
      <trkpt lat="44.14349" lon="2.9931">
        <ele>484.3</ele>
        <time>2025-08-31T09:52:33.000Z</time>
      </trkpt>
      <trkpt lat="44.14351" lon="2.99295">
        <ele>484.6</ele>
        <time>2025-08-31T09:52:35.000Z</time>
      </trkpt>
      <trkpt lat="44.14354" lon="2.99278">
        <ele>484.9</ele>
        <time>2025-08-31T09:52:37.000Z</time>
      </trkpt>
      <trkpt lat="44.14356" lon="2.9926">
        <ele>485.2</ele>
        <time>2025-08-31T09:52:39.000Z</time>
      </trkpt>
      <trkpt lat="44.14359" lon="2.9924">
        <ele>485.4</ele>
        <time>2025-08-31T09:52:41.000Z</time>
      </trkpt>
      <trkpt lat="44.1436" lon="2.99217">
        <ele>485.5</ele>
        <time>2025-08-31T09:52:43.000Z</time>
      </trkpt>
      <trkpt lat="44.1436" lon="2.99193">
        <ele>485.6</ele>
        <time>2025-08-31T09:52:45.000Z</time>
      </trkpt>
      <trkpt lat="44.1436" lon="2.99181">
        <ele>485.5</ele>
        <time>2025-08-31T09:52:46.000Z</time>
      </trkpt>
      <trkpt lat="44.14358" lon="2.99168">
        <ele>485.5</ele>
        <time>2025-08-31T09:52:47.000Z</time>
      </trkpt>
      <trkpt lat="44.14356" lon="2.99155">
        <ele>485.3</ele>
        <time>2025-08-31T09:52:48.000Z</time>
      </trkpt>
      <trkpt lat="44.14353" lon="2.99143">
        <ele>485.2</ele>
        <time>2025-08-31T09:52:49.000Z</time>
      </trkpt>
      <trkpt lat="44.1435" lon="2.9913">
        <ele>485.1</ele>
        <time>2025-08-31T09:52:50.000Z</time>
      </trkpt>
      <trkpt lat="44.14346" lon="2.99118">
        <ele>484.9</ele>
        <time>2025-08-31T09:52:51.000Z</time>
      </trkpt>
      <trkpt lat="44.14341" lon="2.99105">
        <ele>484.6</ele>
        <time>2025-08-31T09:52:52.000Z</time>
      </trkpt>
      <trkpt lat="44.14337" lon="2.99093">
        <ele>484.4</ele>
        <time>2025-08-31T09:52:53.000Z</time>
      </trkpt>
      <trkpt lat="44.14332" lon="2.99081">
        <ele>484.1</ele>
        <time>2025-08-31T09:52:54.000Z</time>
      </trkpt>
      <trkpt lat="44.14327" lon="2.99069">
        <ele>483.9</ele>
        <time>2025-08-31T09:52:55.000Z</time>
      </trkpt>
      <trkpt lat="44.14321" lon="2.99058">
        <ele>483.5</ele>
        <time>2025-08-31T09:52:56.000Z</time>
      </trkpt>
      <trkpt lat="44.14314" lon="2.99047">
        <ele>483.1</ele>
        <time>2025-08-31T09:52:57.000Z</time>
      </trkpt>
      <trkpt lat="44.14306" lon="2.99038">
        <ele>482.8</ele>
        <time>2025-08-31T09:52:58.000Z</time>
      </trkpt>
      <trkpt lat="44.14298" lon="2.99028">
        <ele>482.5</ele>
        <time>2025-08-31T09:52:59.000Z</time>
      </trkpt>
      <trkpt lat="44.1429" lon="2.99019">
        <ele>482.1</ele>
        <time>2025-08-31T09:53:00.000Z</time>
      </trkpt>
      <trkpt lat="44.14282" lon="2.99009">
        <ele>481.7</ele>
        <time>2025-08-31T09:53:01.000Z</time>
      </trkpt>
      <trkpt lat="44.14274" lon="2.98998">
        <ele>481.3</ele>
        <time>2025-08-31T09:53:02.000Z</time>
      </trkpt>
      <trkpt lat="44.14268" lon="2.98985">
        <ele>480.8</ele>
        <time>2025-08-31T09:53:03.000Z</time>
      </trkpt>
      <trkpt lat="44.14262" lon="2.98972">
        <ele>480.4</ele>
        <time>2025-08-31T09:53:04.000Z</time>
      </trkpt>
      <trkpt lat="44.14257" lon="2.98958">
        <ele>479.9</ele>
        <time>2025-08-31T09:53:05.000Z</time>
      </trkpt>
      <trkpt lat="44.14253" lon="2.98943">
        <ele>479.4</ele>
        <time>2025-08-31T09:53:06.000Z</time>
      </trkpt>
      <trkpt lat="44.14248" lon="2.98929">
        <ele>478.9</ele>
        <time>2025-08-31T09:53:07.000Z</time>
      </trkpt>
      <trkpt lat="44.14243" lon="2.98915">
        <ele>478.4</ele>
        <time>2025-08-31T09:53:08.000Z</time>
      </trkpt>
      <trkpt lat="44.14236" lon="2.98901">
        <ele>477.8</ele>
        <time>2025-08-31T09:53:09.000Z</time>
      </trkpt>
      <trkpt lat="44.14229" lon="2.98888">
        <ele>477.3</ele>
        <time>2025-08-31T09:53:10.000Z</time>
      </trkpt>
      <trkpt lat="44.14222" lon="2.98875">
        <ele>476.6</ele>
        <time>2025-08-31T09:53:11.000Z</time>
      </trkpt>
      <trkpt lat="44.14213" lon="2.98863">
        <ele>476</ele>
        <time>2025-08-31T09:53:12.000Z</time>
      </trkpt>
      <trkpt lat="44.14205" lon="2.9885">
        <ele>475.4</ele>
        <time>2025-08-31T09:53:13.000Z</time>
      </trkpt>
      <trkpt lat="44.14197" lon="2.98837">
        <ele>474.8</ele>
        <time>2025-08-31T09:53:14.000Z</time>
      </trkpt>
      <trkpt lat="44.14189" lon="2.98824">
        <ele>474.2</ele>
        <time>2025-08-31T09:53:15.000Z</time>
      </trkpt>
      <trkpt lat="44.14182" lon="2.98811">
        <ele>473.5</ele>
        <time>2025-08-31T09:53:16.000Z</time>
      </trkpt>
      <trkpt lat="44.14176" lon="2.98796">
        <ele>472.8</ele>
        <time>2025-08-31T09:53:17.000Z</time>
      </trkpt>
      <trkpt lat="44.14171" lon="2.98781">
        <ele>472.1</ele>
        <time>2025-08-31T09:53:18.000Z</time>
      </trkpt>
      <trkpt lat="44.14167" lon="2.98765">
        <ele>471.5</ele>
        <time>2025-08-31T09:53:19.000Z</time>
      </trkpt>
      <trkpt lat="44.14164" lon="2.98749">
        <ele>470.7</ele>
        <time>2025-08-31T09:53:20.000Z</time>
      </trkpt>
      <trkpt lat="44.14161" lon="2.98733">
        <ele>470</ele>
        <time>2025-08-31T09:53:21.000Z</time>
      </trkpt>
      <trkpt lat="44.14158" lon="2.98717">
        <ele>469.3</ele>
        <time>2025-08-31T09:53:22.000Z</time>
      </trkpt>
      <trkpt lat="44.14156" lon="2.98701">
        <ele>468.6</ele>
        <time>2025-08-31T09:53:23.000Z</time>
      </trkpt>
      <trkpt lat="44.14154" lon="2.98686">
        <ele>468</ele>
        <time>2025-08-31T09:53:24.000Z</time>
      </trkpt>
      <trkpt lat="44.14151" lon="2.98671">
        <ele>467.3</ele>
        <time>2025-08-31T09:53:25.000Z</time>
      </trkpt>
      <trkpt lat="44.14147" lon="2.98657">
        <ele>466.5</ele>
        <time>2025-08-31T09:53:26.000Z</time>
      </trkpt>
      <trkpt lat="44.14142" lon="2.98643">
        <ele>465.7</ele>
        <time>2025-08-31T09:53:27.000Z</time>
      </trkpt>
      <trkpt lat="44.14136" lon="2.98629">
        <ele>464.9</ele>
        <time>2025-08-31T09:53:28.000Z</time>
      </trkpt>
      <trkpt lat="44.14128" lon="2.98618">
        <ele>464.2</ele>
        <time>2025-08-31T09:53:29.000Z</time>
      </trkpt>
      <trkpt lat="44.14119" lon="2.98607">
        <ele>463.5</ele>
        <time>2025-08-31T09:53:30.000Z</time>
      </trkpt>
      <trkpt lat="44.14111" lon="2.98596">
        <ele>462.7</ele>
        <time>2025-08-31T09:53:31.000Z</time>
      </trkpt>
      <trkpt lat="44.14102" lon="2.98586">
        <ele>461.9</ele>
        <time>2025-08-31T09:53:32.000Z</time>
      </trkpt>
      <trkpt lat="44.14094" lon="2.98576">
        <ele>461.1</ele>
        <time>2025-08-31T09:53:33.000Z</time>
      </trkpt>
      <trkpt lat="44.14086" lon="2.98565">
        <ele>460.3</ele>
        <time>2025-08-31T09:53:34.000Z</time>
      </trkpt>
      <trkpt lat="44.14078" lon="2.98554">
        <ele>459.6</ele>
        <time>2025-08-31T09:53:35.000Z</time>
      </trkpt>
      <trkpt lat="44.14071" lon="2.98541">
        <ele>458.7</ele>
        <time>2025-08-31T09:53:36.000Z</time>
      </trkpt>
      <trkpt lat="44.14064" lon="2.98528">
        <ele>458</ele>
        <time>2025-08-31T09:53:37.000Z</time>
      </trkpt>
      <trkpt lat="44.14059" lon="2.98513">
        <ele>457.2</ele>
        <time>2025-08-31T09:53:38.000Z</time>
      </trkpt>
      <trkpt lat="44.14054" lon="2.98498">
        <ele>456.5</ele>
        <time>2025-08-31T09:53:39.000Z</time>
      </trkpt>
      <trkpt lat="44.14049" lon="2.98484">
        <ele>455.8</ele>
        <time>2025-08-31T09:53:40.000Z</time>
      </trkpt>
      <trkpt lat="44.14044" lon="2.9847">
        <ele>455</ele>
        <time>2025-08-31T09:53:41.000Z</time>
      </trkpt>
      <trkpt lat="44.14039" lon="2.98455">
        <ele>454.2</ele>
        <time>2025-08-31T09:53:42.000Z</time>
      </trkpt>
      <trkpt lat="44.14034" lon="2.98441">
        <ele>453.5</ele>
        <time>2025-08-31T09:53:43.000Z</time>
      </trkpt>
      <trkpt lat="44.1403" lon="2.98426">
        <ele>452.7</ele>
        <time>2025-08-31T09:53:44.000Z</time>
      </trkpt>
      <trkpt lat="44.14025" lon="2.98411">
        <ele>451.9</ele>
        <time>2025-08-31T09:53:45.000Z</time>
      </trkpt>
      <trkpt lat="44.14021" lon="2.98395">
        <ele>451.2</ele>
        <time>2025-08-31T09:53:46.000Z</time>
      </trkpt>
      <trkpt lat="44.14017" lon="2.98379">
        <ele>450.5</ele>
        <time>2025-08-31T09:53:47.000Z</time>
      </trkpt>
      <trkpt lat="44.14014" lon="2.98363">
        <ele>449.7</ele>
        <time>2025-08-31T09:53:48.000Z</time>
      </trkpt>
      <trkpt lat="44.14011" lon="2.98347">
        <ele>449</ele>
        <time>2025-08-31T09:53:49.000Z</time>
      </trkpt>
      <trkpt lat="44.1401" lon="2.9833">
        <ele>448.2</ele>
        <time>2025-08-31T09:53:50.000Z</time>
      </trkpt>
      <trkpt lat="44.14008" lon="2.98313">
        <ele>447.5</ele>
        <time>2025-08-31T09:53:51.000Z</time>
      </trkpt>
      <trkpt lat="44.14007" lon="2.98296">
        <ele>446.7</ele>
        <time>2025-08-31T09:53:52.000Z</time>
      </trkpt>
      <trkpt lat="44.14006" lon="2.9828">
        <ele>445.9</ele>
        <time>2025-08-31T09:53:53.000Z</time>
      </trkpt>
      <trkpt lat="44.14005" lon="2.98263">
        <ele>445.2</ele>
        <time>2025-08-31T09:53:54.000Z</time>
      </trkpt>
      <trkpt lat="44.14005" lon="2.98247">
        <ele>444.4</ele>
        <time>2025-08-31T09:53:55.000Z</time>
      </trkpt>
      <trkpt lat="44.14004" lon="2.98231">
        <ele>443.7</ele>
        <time>2025-08-31T09:53:56.000Z</time>
      </trkpt>
      <trkpt lat="44.14003" lon="2.98216">
        <ele>443.1</ele>
        <time>2025-08-31T09:53:57.000Z</time>
      </trkpt>
      <trkpt lat="44.14002" lon="2.98201">
        <ele>442.5</ele>
        <time>2025-08-31T09:53:58.000Z</time>
      </trkpt>
      <trkpt lat="44.14002" lon="2.98187">
        <ele>441.9</ele>
        <time>2025-08-31T09:53:59.000Z</time>
      </trkpt>
      <trkpt lat="44.14001" lon="2.98174">
        <ele>441.3</ele>
        <time>2025-08-31T09:54:00.000Z</time>
      </trkpt>
      <trkpt lat="44.14" lon="2.98161">
        <ele>440.8</ele>
        <time>2025-08-31T09:54:01.000Z</time>
      </trkpt>
      <trkpt lat="44.13999" lon="2.98137">
        <ele>439.7</ele>
        <time>2025-08-31T09:54:03.000Z</time>
      </trkpt>
      <trkpt lat="44.13997" lon="2.98113">
        <ele>438.7</ele>
        <time>2025-08-31T09:54:05.000Z</time>
      </trkpt>
      <trkpt lat="44.13995" lon="2.98089">
        <ele>437.9</ele>
        <time>2025-08-31T09:54:07.000Z</time>
      </trkpt>
      <trkpt lat="44.13994" lon="2.98066">
        <ele>437.1</ele>
        <time>2025-08-31T09:54:09.000Z</time>
      </trkpt>
      <trkpt lat="44.13992" lon="2.98042">
        <ele>436.4</ele>
        <time>2025-08-31T09:54:11.000Z</time>
      </trkpt>
      <trkpt lat="44.13991" lon="2.98017">
        <ele>435.8</ele>
        <time>2025-08-31T09:54:13.000Z</time>
      </trkpt>
      <trkpt lat="44.1399" lon="2.98004">
        <ele>435.5</ele>
        <time>2025-08-31T09:54:14.000Z</time>
      </trkpt>
      <trkpt lat="44.13989" lon="2.9798">
        <ele>434.9</ele>
        <time>2025-08-31T09:54:16.000Z</time>
      </trkpt>
      <trkpt lat="44.13987" lon="2.97956">
        <ele>434.4</ele>
        <time>2025-08-31T09:54:18.000Z</time>
      </trkpt>
      <trkpt lat="44.13986" lon="2.97932">
        <ele>433.7</ele>
        <time>2025-08-31T09:54:20.000Z</time>
      </trkpt>
      <trkpt lat="44.13984" lon="2.97909">
        <ele>433.1</ele>
        <time>2025-08-31T09:54:22.000Z</time>
      </trkpt>
      <trkpt lat="44.13983" lon="2.97885">
        <ele>432.4</ele>
        <time>2025-08-31T09:54:24.000Z</time>
      </trkpt>
      <trkpt lat="44.13981" lon="2.9786">
        <ele>431.9</ele>
        <time>2025-08-31T09:54:26.000Z</time>
      </trkpt>
      <trkpt lat="44.13979" lon="2.97836">
        <ele>431.3</ele>
        <time>2025-08-31T09:54:28.000Z</time>
      </trkpt>
      <trkpt lat="44.13978" lon="2.97812">
        <ele>430.7</ele>
        <time>2025-08-31T09:54:30.000Z</time>
      </trkpt>
      <trkpt lat="44.13976" lon="2.97788">
        <ele>430</ele>
        <time>2025-08-31T09:54:32.000Z</time>
      </trkpt>
      <trkpt lat="44.13975" lon="2.97763">
        <ele>429.4</ele>
        <time>2025-08-31T09:54:34.000Z</time>
      </trkpt>
      <trkpt lat="44.13975" lon="2.97738">
        <ele>428.9</ele>
        <time>2025-08-31T09:54:36.000Z</time>
      </trkpt>
      <trkpt lat="44.13976" lon="2.97714">
        <ele>428.4</ele>
        <time>2025-08-31T09:54:38.000Z</time>
      </trkpt>
      <trkpt lat="44.13977" lon="2.97691">
        <ele>428</ele>
        <time>2025-08-31T09:54:40.000Z</time>
      </trkpt>
      <trkpt lat="44.1398" lon="2.97669">
        <ele>427.5</ele>
        <time>2025-08-31T09:54:42.000Z</time>
      </trkpt>
      <trkpt lat="44.13983" lon="2.97646">
        <ele>427.1</ele>
        <time>2025-08-31T09:54:44.000Z</time>
      </trkpt>
      <trkpt lat="44.13986" lon="2.97624">
        <ele>426.7</ele>
        <time>2025-08-31T09:54:46.000Z</time>
      </trkpt>
      <trkpt lat="44.13989" lon="2.97602">
        <ele>426.3</ele>
        <time>2025-08-31T09:54:48.000Z</time>
      </trkpt>
      <trkpt lat="44.13991" lon="2.9758">
        <ele>425.9</ele>
        <time>2025-08-31T09:54:50.000Z</time>
      </trkpt>
      <trkpt lat="44.1399" lon="2.97559">
        <ele>425.5</ele>
        <time>2025-08-31T09:54:52.000Z</time>
      </trkpt>
      <trkpt lat="44.13988" lon="2.97539">
        <ele>425.2</ele>
        <time>2025-08-31T09:54:54.000Z</time>
      </trkpt>
      <trkpt lat="44.13983" lon="2.97519">
        <ele>424.9</ele>
        <time>2025-08-31T09:54:56.000Z</time>
      </trkpt>
      <trkpt lat="44.13977" lon="2.975">
        <ele>424.6</ele>
        <time>2025-08-31T09:54:58.000Z</time>
      </trkpt>
      <trkpt lat="44.13972" lon="2.9748">
        <ele>424.3</ele>
        <time>2025-08-31T09:55:00.000Z</time>
      </trkpt>
      <trkpt lat="44.13966" lon="2.97461">
        <ele>424.1</ele>
        <time>2025-08-31T09:55:02.000Z</time>
      </trkpt>
      <trkpt lat="44.1396" lon="2.97442">
        <ele>423.7</ele>
        <time>2025-08-31T09:55:04.000Z</time>
      </trkpt>
      <trkpt lat="44.13954" lon="2.97423">
        <ele>423.4</ele>
        <time>2025-08-31T09:55:06.000Z</time>
      </trkpt>
      <trkpt lat="44.1395" lon="2.97403">
        <ele>423.2</ele>
        <time>2025-08-31T09:55:08.000Z</time>
      </trkpt>
      <trkpt lat="44.13945" lon="2.97382">
        <ele>422.8</ele>
        <time>2025-08-31T09:55:10.000Z</time>
      </trkpt>
      <trkpt lat="44.13941" lon="2.97361">
        <ele>422.5</ele>
        <time>2025-08-31T09:55:12.000Z</time>
      </trkpt>
      <trkpt lat="44.13937" lon="2.97339">
        <ele>422.1</ele>
        <time>2025-08-31T09:55:14.000Z</time>
      </trkpt>
      <trkpt lat="44.13933" lon="2.97316">
        <ele>421.7</ele>
        <time>2025-08-31T09:55:16.000Z</time>
      </trkpt>
      <trkpt lat="44.1393" lon="2.97292">
        <ele>421.3</ele>
        <time>2025-08-31T09:55:18.000Z</time>
      </trkpt>
      <trkpt lat="44.13927" lon="2.9727">
        <ele>420.9</ele>
        <time>2025-08-31T09:55:20.000Z</time>
      </trkpt>
      <trkpt lat="44.13923" lon="2.97247">
        <ele>420.5</ele>
        <time>2025-08-31T09:55:22.000Z</time>
      </trkpt>
      <trkpt lat="44.13921" lon="2.97224">
        <ele>420.1</ele>
        <time>2025-08-31T09:55:24.000Z</time>
      </trkpt>
      <trkpt lat="44.13918" lon="2.97201">
        <ele>419.8</ele>
        <time>2025-08-31T09:55:26.000Z</time>
      </trkpt>
      <trkpt lat="44.13916" lon="2.97178">
        <ele>419.5</ele>
        <time>2025-08-31T09:55:28.000Z</time>
      </trkpt>
      <trkpt lat="44.13915" lon="2.97155">
        <ele>419.1</ele>
        <time>2025-08-31T09:55:30.000Z</time>
      </trkpt>
      <trkpt lat="44.13914" lon="2.97132">
        <ele>418.6</ele>
        <time>2025-08-31T09:55:32.000Z</time>
      </trkpt>
      <trkpt lat="44.13914" lon="2.97108">
        <ele>418.1</ele>
        <time>2025-08-31T09:55:34.000Z</time>
      </trkpt>
      <trkpt lat="44.13914" lon="2.97084">
        <ele>417.7</ele>
        <time>2025-08-31T09:55:36.000Z</time>
      </trkpt>
      <trkpt lat="44.13914" lon="2.97071">
        <ele>417.5</ele>
        <time>2025-08-31T09:55:37.000Z</time>
      </trkpt>
      <trkpt lat="44.13913" lon="2.97058">
        <ele>417.3</ele>
        <time>2025-08-31T09:55:38.000Z</time>
      </trkpt>
      <trkpt lat="44.13914" lon="2.97046">
        <ele>417.1</ele>
        <time>2025-08-31T09:55:39.000Z</time>
      </trkpt>
      <trkpt lat="44.13915" lon="2.9702">
        <ele>416.7</ele>
        <time>2025-08-31T09:55:41.000Z</time>
      </trkpt>
      <trkpt lat="44.13915" lon="2.97007">
        <ele>416.5</ele>
        <time>2025-08-31T09:55:42.000Z</time>
      </trkpt>
      <trkpt lat="44.13915" lon="2.96993">
        <ele>416.3</ele>
        <time>2025-08-31T09:55:43.000Z</time>
      </trkpt>
      <trkpt lat="44.13916" lon="2.9698">
        <ele>416</ele>
        <time>2025-08-31T09:55:44.000Z</time>
      </trkpt>
      <trkpt lat="44.13916" lon="2.96967">
        <ele>415.7</ele>
        <time>2025-08-31T09:55:45.000Z</time>
      </trkpt>
      <trkpt lat="44.13917" lon="2.96954">
        <ele>415.4</ele>
        <time>2025-08-31T09:55:46.000Z</time>
      </trkpt>
      <trkpt lat="44.13917" lon="2.9694">
        <ele>415.2</ele>
        <time>2025-08-31T09:55:47.000Z</time>
      </trkpt>
      <trkpt lat="44.13918" lon="2.96927">
        <ele>414.8</ele>
        <time>2025-08-31T09:55:48.000Z</time>
      </trkpt>
      <trkpt lat="44.13918" lon="2.96913">
        <ele>414.5</ele>
        <time>2025-08-31T09:55:49.000Z</time>
      </trkpt>
      <trkpt lat="44.13919" lon="2.96899">
        <ele>414.1</ele>
        <time>2025-08-31T09:55:50.000Z</time>
      </trkpt>
      <trkpt lat="44.13919" lon="2.96885">
        <ele>413.7</ele>
        <time>2025-08-31T09:55:51.000Z</time>
      </trkpt>
      <trkpt lat="44.1392" lon="2.96871">
        <ele>413.4</ele>
        <time>2025-08-31T09:55:52.000Z</time>
      </trkpt>
      <trkpt lat="44.13921" lon="2.96856">
        <ele>413</ele>
        <time>2025-08-31T09:55:53.000Z</time>
      </trkpt>
      <trkpt lat="44.13921" lon="2.9684">
        <ele>412.7</ele>
        <time>2025-08-31T09:55:54.000Z</time>
      </trkpt>
      <trkpt lat="44.13922" lon="2.96825">
        <ele>412.3</ele>
        <time>2025-08-31T09:55:55.000Z</time>
      </trkpt>
      <trkpt lat="44.13922" lon="2.96809">
        <ele>411.9</ele>
        <time>2025-08-31T09:55:56.000Z</time>
      </trkpt>
      <trkpt lat="44.13923" lon="2.96793">
        <ele>411.5</ele>
        <time>2025-08-31T09:55:57.000Z</time>
      </trkpt>
      <trkpt lat="44.13924" lon="2.96777">
        <ele>411</ele>
        <time>2025-08-31T09:55:58.000Z</time>
      </trkpt>
      <trkpt lat="44.13925" lon="2.96761">
        <ele>410.6</ele>
        <time>2025-08-31T09:55:59.000Z</time>
      </trkpt>
      <trkpt lat="44.13925" lon="2.96745">
        <ele>410.1</ele>
        <time>2025-08-31T09:56:00.000Z</time>
      </trkpt>
      <trkpt lat="44.13926" lon="2.96728">
        <ele>409.6</ele>
        <time>2025-08-31T09:56:01.000Z</time>
      </trkpt>
      <trkpt lat="44.13927" lon="2.96712">
        <ele>409.2</ele>
        <time>2025-08-31T09:56:02.000Z</time>
      </trkpt>
      <trkpt lat="44.13927" lon="2.96696">
        <ele>408.7</ele>
        <time>2025-08-31T09:56:03.000Z</time>
      </trkpt>
      <trkpt lat="44.13927" lon="2.9668">
        <ele>408.2</ele>
        <time>2025-08-31T09:56:04.000Z</time>
      </trkpt>
      <trkpt lat="44.13927" lon="2.96665">
        <ele>407.7</ele>
        <time>2025-08-31T09:56:05.000Z</time>
      </trkpt>
      <trkpt lat="44.13928" lon="2.96649">
        <ele>407.2</ele>
        <time>2025-08-31T09:56:06.000Z</time>
      </trkpt>
      <trkpt lat="44.13928" lon="2.96634">
        <ele>406.6</ele>
        <time>2025-08-31T09:56:07.000Z</time>
      </trkpt>
      <trkpt lat="44.13929" lon="2.96619">
        <ele>406.1</ele>
        <time>2025-08-31T09:56:08.000Z</time>
      </trkpt>
      <trkpt lat="44.1393" lon="2.96604">
        <ele>405.6</ele>
        <time>2025-08-31T09:56:09.000Z</time>
      </trkpt>
      <trkpt lat="44.13931" lon="2.96589">
        <ele>405</ele>
        <time>2025-08-31T09:56:10.000Z</time>
      </trkpt>
      <trkpt lat="44.13933" lon="2.96573">
        <ele>404.5</ele>
        <time>2025-08-31T09:56:11.000Z</time>
      </trkpt>
      <trkpt lat="44.13935" lon="2.96558">
        <ele>403.9</ele>
        <time>2025-08-31T09:56:12.000Z</time>
      </trkpt>
      <trkpt lat="44.13937" lon="2.96543">
        <ele>403.3</ele>
        <time>2025-08-31T09:56:13.000Z</time>
      </trkpt>
      <trkpt lat="44.13939" lon="2.96528">
        <ele>402.6</ele>
        <time>2025-08-31T09:56:14.000Z</time>
      </trkpt>
      <trkpt lat="44.13942" lon="2.96513">
        <ele>402</ele>
        <time>2025-08-31T09:56:15.000Z</time>
      </trkpt>
      <trkpt lat="44.13944" lon="2.96497">
        <ele>401.4</ele>
        <time>2025-08-31T09:56:16.000Z</time>
      </trkpt>
      <trkpt lat="44.13947" lon="2.96481">
        <ele>400.7</ele>
        <time>2025-08-31T09:56:17.000Z</time>
      </trkpt>
      <trkpt lat="44.13949" lon="2.96465">
        <ele>400.1</ele>
        <time>2025-08-31T09:56:18.000Z</time>
      </trkpt>
      <trkpt lat="44.13952" lon="2.96449">
        <ele>399.4</ele>
        <time>2025-08-31T09:56:19.000Z</time>
      </trkpt>
      <trkpt lat="44.13954" lon="2.96434">
        <ele>398.8</ele>
        <time>2025-08-31T09:56:20.000Z</time>
      </trkpt>
      <trkpt lat="44.13956" lon="2.96418">
        <ele>398.2</ele>
        <time>2025-08-31T09:56:21.000Z</time>
      </trkpt>
      <trkpt lat="44.13959" lon="2.96404">
        <ele>397.5</ele>
        <time>2025-08-31T09:56:22.000Z</time>
      </trkpt>
      <trkpt lat="44.13962" lon="2.96391">
        <ele>396.9</ele>
        <time>2025-08-31T09:56:23.000Z</time>
      </trkpt>
      <trkpt lat="44.13969" lon="2.9637">
        <ele>395.9</ele>
        <time>2025-08-31T09:56:25.000Z</time>
      </trkpt>
      <trkpt lat="44.13983" lon="2.96361">
        <ele>395</ele>
        <time>2025-08-31T09:56:27.000Z</time>
      </trkpt>
      <trkpt lat="44.13996" lon="2.96359">
        <ele>394.3</ele>
        <time>2025-08-31T09:56:29.000Z</time>
      </trkpt>
      <trkpt lat="44.14007" lon="2.96357">
        <ele>393.7</ele>
        <time>2025-08-31T09:56:31.000Z</time>
      </trkpt>
      <trkpt lat="44.14017" lon="2.96353">
        <ele>393.3</ele>
        <time>2025-08-31T09:56:33.000Z</time>
      </trkpt>
      <trkpt lat="44.14028" lon="2.96349">
        <ele>392.9</ele>
        <time>2025-08-31T09:56:36.000Z</time>
      </trkpt>
      <trkpt lat="44.1404" lon="2.96344">
        <ele>392.9</ele>
        <time>2025-08-31T09:56:39.000Z</time>
      </trkpt>
      <trkpt lat="44.14049" lon="2.9634">
        <ele>392.9</ele>
        <time>2025-08-31T09:56:41.000Z</time>
      </trkpt>
      <trkpt lat="44.1406" lon="2.96335">
        <ele>393.3</ele>
        <time>2025-08-31T09:56:44.000Z</time>
      </trkpt>
      <trkpt lat="44.14071" lon="2.96331">
        <ele>393.7</ele>
        <time>2025-08-31T09:56:47.000Z</time>
      </trkpt>
      <trkpt lat="44.14082" lon="2.96327">
        <ele>394.2</ele>
        <time>2025-08-31T09:56:50.000Z</time>
      </trkpt>
      <trkpt lat="44.14093" lon="2.96321">
        <ele>394.8</ele>
        <time>2025-08-31T09:56:53.000Z</time>
      </trkpt>
      <trkpt lat="44.14102" lon="2.96314">
        <ele>395.6</ele>
        <time>2025-08-31T09:56:56.000Z</time>
      </trkpt>
      <trkpt lat="44.14112" lon="2.96304">
        <ele>396.4</ele>
        <time>2025-08-31T09:56:59.000Z</time>
      </trkpt>
      <trkpt lat="44.1412" lon="2.96293">
        <ele>397.2</ele>
        <time>2025-08-31T09:57:02.000Z</time>
      </trkpt>
      <trkpt lat="44.14128" lon="2.96282">
        <ele>398</ele>
        <time>2025-08-31T09:57:05.000Z</time>
      </trkpt>
      <trkpt lat="44.14136" lon="2.96272">
        <ele>399</ele>
        <time>2025-08-31T09:57:08.000Z</time>
      </trkpt>
      <trkpt lat="44.14142" lon="2.96263">
        <ele>399.9</ele>
        <time>2025-08-31T09:57:11.000Z</time>
      </trkpt>
      <trkpt lat="44.14149" lon="2.96253">
        <ele>400.8</ele>
        <time>2025-08-31T09:57:14.000Z</time>
      </trkpt>
      <trkpt lat="44.14156" lon="2.96245">
        <ele>401.8</ele>
        <time>2025-08-31T09:57:17.000Z</time>
      </trkpt>
      <trkpt lat="44.14165" lon="2.96234">
        <ele>403.3</ele>
        <time>2025-08-31T09:57:21.000Z</time>
      </trkpt>
      <trkpt lat="44.14171" lon="2.96225">
        <ele>404.4</ele>
        <time>2025-08-31T09:57:24.000Z</time>
      </trkpt>
      <trkpt lat="44.14178" lon="2.96211">
        <ele>405.8</ele>
        <time>2025-08-31T09:57:28.000Z</time>
      </trkpt>
      <trkpt lat="44.14181" lon="2.96195">
        <ele>407.2</ele>
        <time>2025-08-31T09:57:32.000Z</time>
      </trkpt>
      <trkpt lat="44.14184" lon="2.96182">
        <ele>408.2</ele>
        <time>2025-08-31T09:57:35.000Z</time>
      </trkpt>
      <trkpt lat="44.14187" lon="2.96168">
        <ele>409.7</ele>
        <time>2025-08-31T09:57:39.000Z</time>
      </trkpt>
      <trkpt lat="44.14191" lon="2.96156">
        <ele>411</ele>
        <time>2025-08-31T09:57:43.000Z</time>
      </trkpt>
      <trkpt lat="44.14197" lon="2.96145">
        <ele>412</ele>
        <time>2025-08-31T09:57:46.000Z</time>
      </trkpt>
      <trkpt lat="44.14204" lon="2.96133">
        <ele>413</ele>
        <time>2025-08-31T09:57:49.000Z</time>
      </trkpt>
      <trkpt lat="44.14212" lon="2.96119">
        <ele>413.9</ele>
        <time>2025-08-31T09:57:52.000Z</time>
      </trkpt>
      <trkpt lat="44.1422" lon="2.96106">
        <ele>414.8</ele>
        <time>2025-08-31T09:57:55.000Z</time>
      </trkpt>
      <trkpt lat="44.14227" lon="2.96091">
        <ele>415.7</ele>
        <time>2025-08-31T09:57:58.000Z</time>
      </trkpt>
      <trkpt lat="44.14235" lon="2.96075">
        <ele>416.4</ele>
        <time>2025-08-31T09:58:01.000Z</time>
      </trkpt>
      <trkpt lat="44.14241" lon="2.9606">
        <ele>417.2</ele>
        <time>2025-08-31T09:58:04.000Z</time>
      </trkpt>
      <trkpt lat="44.14249" lon="2.96047">
        <ele>417.8</ele>
        <time>2025-08-31T09:58:07.000Z</time>
      </trkpt>
      <trkpt lat="44.14257" lon="2.96034">
        <ele>418.5</ele>
        <time>2025-08-31T09:58:10.000Z</time>
      </trkpt>
      <trkpt lat="44.14262" lon="2.96024">
        <ele>418.9</ele>
        <time>2025-08-31T09:58:12.000Z</time>
      </trkpt>
      <trkpt lat="44.14267" lon="2.96013">
        <ele>419.3</ele>
        <time>2025-08-31T09:58:14.000Z</time>
      </trkpt>
      <trkpt lat="44.14272" lon="2.96001">
        <ele>419.6</ele>
        <time>2025-08-31T09:58:16.000Z</time>
      </trkpt>
      <trkpt lat="44.14275" lon="2.95987">
        <ele>420</ele>
        <time>2025-08-31T09:58:18.000Z</time>
      </trkpt>
      <trkpt lat="44.14279" lon="2.95976">
        <ele>420.3</ele>
        <time>2025-08-31T09:58:20.000Z</time>
      </trkpt>
      <trkpt lat="44.14282" lon="2.95964">
        <ele>420.6</ele>
        <time>2025-08-31T09:58:22.000Z</time>
      </trkpt>
      <trkpt lat="44.14286" lon="2.95951">
        <ele>420.9</ele>
        <time>2025-08-31T09:58:24.000Z</time>
      </trkpt>
      <trkpt lat="44.14289" lon="2.95937">
        <ele>421.1</ele>
        <time>2025-08-31T09:58:26.000Z</time>
      </trkpt>
      <trkpt lat="44.14292" lon="2.95922">
        <ele>421.3</ele>
        <time>2025-08-31T09:58:28.000Z</time>
      </trkpt>
      <trkpt lat="44.14294" lon="2.95907">
        <ele>421.4</ele>
        <time>2025-08-31T09:58:30.000Z</time>
      </trkpt>
      <trkpt lat="44.14297" lon="2.95893">
        <ele>421.7</ele>
        <time>2025-08-31T09:58:32.000Z</time>
      </trkpt>
      <trkpt lat="44.14298" lon="2.9588">
        <ele>421.9</ele>
        <time>2025-08-31T09:58:34.000Z</time>
      </trkpt>
      <trkpt lat="44.14299" lon="2.95865">
        <ele>422.1</ele>
        <time>2025-08-31T09:58:36.000Z</time>
      </trkpt>
      <trkpt lat="44.143" lon="2.95851">
        <ele>422.3</ele>
        <time>2025-08-31T09:58:38.000Z</time>
      </trkpt>
      <trkpt lat="44.14303" lon="2.95834">
        <ele>422.6</ele>
        <time>2025-08-31T09:58:40.000Z</time>
      </trkpt>
      <trkpt lat="44.14305" lon="2.95817">
        <ele>422.7</ele>
        <time>2025-08-31T09:58:42.000Z</time>
      </trkpt>
      <trkpt lat="44.14308" lon="2.958">
        <ele>422.9</ele>
        <time>2025-08-31T09:58:44.000Z</time>
      </trkpt>
      <trkpt lat="44.14309" lon="2.95785">
        <ele>423.1</ele>
        <time>2025-08-31T09:58:46.000Z</time>
      </trkpt>
      <trkpt lat="44.14311" lon="2.95769">
        <ele>423.1</ele>
        <time>2025-08-31T09:58:48.000Z</time>
      </trkpt>
      <trkpt lat="44.14315" lon="2.95751">
        <ele>423.2</ele>
        <time>2025-08-31T09:58:50.000Z</time>
      </trkpt>
      <trkpt lat="44.14319" lon="2.95733">
        <ele>423.3</ele>
        <time>2025-08-31T09:58:52.000Z</time>
      </trkpt>
      <trkpt lat="44.14325" lon="2.95724">
        <ele>423.4</ele>
        <time>2025-08-31T09:58:53.000Z</time>
      </trkpt>
      <trkpt lat="44.14334" lon="2.95707">
        <ele>423.5</ele>
        <time>2025-08-31T09:58:55.000Z</time>
      </trkpt>
      <trkpt lat="44.14341" lon="2.95693">
        <ele>423.7</ele>
        <time>2025-08-31T09:58:57.000Z</time>
      </trkpt>
      <trkpt lat="44.1435" lon="2.95678">
        <ele>423.9</ele>
        <time>2025-08-31T09:58:59.000Z</time>
      </trkpt>
      <trkpt lat="44.14358" lon="2.95661">
        <ele>424.1</ele>
        <time>2025-08-31T09:59:01.000Z</time>
      </trkpt>
      <trkpt lat="44.14366" lon="2.95646">
        <ele>424.3</ele>
        <time>2025-08-31T09:59:03.000Z</time>
      </trkpt>
      <trkpt lat="44.14374" lon="2.95633">
        <ele>424.5</ele>
        <time>2025-08-31T09:59:05.000Z</time>
      </trkpt>
      <trkpt lat="44.14381" lon="2.95622">
        <ele>424.8</ele>
        <time>2025-08-31T09:59:07.000Z</time>
      </trkpt>
      <trkpt lat="44.14388" lon="2.9561">
        <ele>425.1</ele>
        <time>2025-08-31T09:59:09.000Z</time>
      </trkpt>
      <trkpt lat="44.14397" lon="2.95598">
        <ele>425.5</ele>
        <time>2025-08-31T09:59:11.000Z</time>
      </trkpt>
      <trkpt lat="44.14404" lon="2.95587">
        <ele>425.9</ele>
        <time>2025-08-31T09:59:13.000Z</time>
      </trkpt>
      <trkpt lat="44.14412" lon="2.95578">
        <ele>426.3</ele>
        <time>2025-08-31T09:59:15.000Z</time>
      </trkpt>
      <trkpt lat="44.1442" lon="2.95571">
        <ele>426.8</ele>
        <time>2025-08-31T09:59:17.000Z</time>
      </trkpt>
      <trkpt lat="44.14429" lon="2.95565">
        <ele>427.4</ele>
        <time>2025-08-31T09:59:19.000Z</time>
      </trkpt>
      <trkpt lat="44.14441" lon="2.95558">
        <ele>428.3</ele>
        <time>2025-08-31T09:59:22.000Z</time>
      </trkpt>
      <trkpt lat="44.14451" lon="2.9555">
        <ele>429.1</ele>
        <time>2025-08-31T09:59:25.000Z</time>
      </trkpt>
      <trkpt lat="44.1446" lon="2.95545">
        <ele>430</ele>
        <time>2025-08-31T09:59:28.000Z</time>
      </trkpt>
      <trkpt lat="44.14472" lon="2.95538">
        <ele>431</ele>
        <time>2025-08-31T09:59:31.000Z</time>
      </trkpt>
      <trkpt lat="44.14481" lon="2.95533">
        <ele>431.7</ele>
        <time>2025-08-31T09:59:33.000Z</time>
      </trkpt>
      <trkpt lat="44.1449" lon="2.95527">
        <ele>432.4</ele>
        <time>2025-08-31T09:59:35.000Z</time>
      </trkpt>
      <trkpt lat="44.145" lon="2.95517">
        <ele>433.4</ele>
        <time>2025-08-31T09:59:38.000Z</time>
      </trkpt>
      <trkpt lat="44.14511" lon="2.95508">
        <ele>434.4</ele>
        <time>2025-08-31T09:59:41.000Z</time>
      </trkpt>
      <trkpt lat="44.14521" lon="2.95499">
        <ele>435.4</ele>
        <time>2025-08-31T09:59:44.000Z</time>
      </trkpt>
      <trkpt lat="44.14529" lon="2.95491">
        <ele>436.4</ele>
        <time>2025-08-31T09:59:47.000Z</time>
      </trkpt>
      <trkpt lat="44.14537" lon="2.95484">
        <ele>437.4</ele>
        <time>2025-08-31T09:59:50.000Z</time>
      </trkpt>
      <trkpt lat="44.14546" lon="2.95478">
        <ele>438.5</ele>
        <time>2025-08-31T09:59:53.000Z</time>
      </trkpt>
      <trkpt lat="44.14556" lon="2.95473">
        <ele>439.6</ele>
        <time>2025-08-31T09:59:56.000Z</time>
      </trkpt>
      <trkpt lat="44.14565" lon="2.95468">
        <ele>440.6</ele>
        <time>2025-08-31T09:59:59.000Z</time>
      </trkpt>
      <trkpt lat="44.14576" lon="2.95463">
        <ele>441.9</ele>
        <time>2025-08-31T10:00:03.000Z</time>
      </trkpt>
      <trkpt lat="44.14586" lon="2.9546">
        <ele>442.8</ele>
        <time>2025-08-31T10:00:06.000Z</time>
      </trkpt>
      <trkpt lat="44.14595" lon="2.95456">
        <ele>443.7</ele>
        <time>2025-08-31T10:00:09.000Z</time>
      </trkpt>
      <trkpt lat="44.14604" lon="2.95453">
        <ele>444.7</ele>
        <time>2025-08-31T10:00:12.000Z</time>
      </trkpt>
      <trkpt lat="44.14613" lon="2.9545">
        <ele>445.7</ele>
        <time>2025-08-31T10:00:15.000Z</time>
      </trkpt>
      <trkpt lat="44.14623" lon="2.95446">
        <ele>446.6</ele>
        <time>2025-08-31T10:00:18.000Z</time>
      </trkpt>
      <trkpt lat="44.14635" lon="2.95442">
        <ele>447.9</ele>
        <time>2025-08-31T10:00:22.000Z</time>
      </trkpt>
      <trkpt lat="44.14643" lon="2.95439">
        <ele>448.8</ele>
        <time>2025-08-31T10:00:25.000Z</time>
      </trkpt>
      <trkpt lat="44.14653" lon="2.95435">
        <ele>449.8</ele>
        <time>2025-08-31T10:00:28.000Z</time>
      </trkpt>
      <trkpt lat="44.14663" lon="2.95433">
        <ele>450.7</ele>
        <time>2025-08-31T10:00:31.000Z</time>
      </trkpt>
      <trkpt lat="44.14674" lon="2.9543">
        <ele>451.7</ele>
        <time>2025-08-31T10:00:34.000Z</time>
      </trkpt>
      <trkpt lat="44.14684" lon="2.95428">
        <ele>452.7</ele>
        <time>2025-08-31T10:00:37.000Z</time>
      </trkpt>
      <trkpt lat="44.14695" lon="2.95423">
        <ele>453.7</ele>
        <time>2025-08-31T10:00:40.000Z</time>
      </trkpt>
      <trkpt lat="44.14705" lon="2.9542">
        <ele>454.6</ele>
        <time>2025-08-31T10:00:43.000Z</time>
      </trkpt>
      <trkpt lat="44.14715" lon="2.95416">
        <ele>455.6</ele>
        <time>2025-08-31T10:00:46.000Z</time>
      </trkpt>
      <trkpt lat="44.14725" lon="2.95412">
        <ele>456.6</ele>
        <time>2025-08-31T10:00:49.000Z</time>
      </trkpt>
      <trkpt lat="44.14735" lon="2.95409">
        <ele>457.6</ele>
        <time>2025-08-31T10:00:52.000Z</time>
      </trkpt>
      <trkpt lat="44.14745" lon="2.95406">
        <ele>458.6</ele>
        <time>2025-08-31T10:00:55.000Z</time>
      </trkpt>
      <trkpt lat="44.14755" lon="2.95405">
        <ele>459.6</ele>
        <time>2025-08-31T10:00:58.000Z</time>
      </trkpt>
      <trkpt lat="44.14765" lon="2.95403">
        <ele>460.6</ele>
        <time>2025-08-31T10:01:01.000Z</time>
      </trkpt>
      <trkpt lat="44.14775" lon="2.95401">
        <ele>461.6</ele>
        <time>2025-08-31T10:01:04.000Z</time>
      </trkpt>
      <trkpt lat="44.14787" lon="2.95401">
        <ele>462.6</ele>
        <time>2025-08-31T10:01:07.000Z</time>
      </trkpt>
      <trkpt lat="44.14796" lon="2.95399">
        <ele>463.6</ele>
        <time>2025-08-31T10:01:10.000Z</time>
      </trkpt>
      <trkpt lat="44.14806" lon="2.95396">
        <ele>464.6</ele>
        <time>2025-08-31T10:01:13.000Z</time>
      </trkpt>
      <trkpt lat="44.14817" lon="2.95394">
        <ele>465.6</ele>
        <time>2025-08-31T10:01:16.000Z</time>
      </trkpt>
      <trkpt lat="44.14828" lon="2.95392">
        <ele>466.6</ele>
        <time>2025-08-31T10:01:19.000Z</time>
      </trkpt>
      <trkpt lat="44.14838" lon="2.95392">
        <ele>467.5</ele>
        <time>2025-08-31T10:01:22.000Z</time>
      </trkpt>
      <trkpt lat="44.1485" lon="2.9539">
        <ele>468.7</ele>
        <time>2025-08-31T10:01:25.000Z</time>
      </trkpt>
      <trkpt lat="44.14861" lon="2.95389">
        <ele>469.7</ele>
        <time>2025-08-31T10:01:28.000Z</time>
      </trkpt>
      <trkpt lat="44.14872" lon="2.95389">
        <ele>470.8</ele>
        <time>2025-08-31T10:01:31.000Z</time>
      </trkpt>
      <trkpt lat="44.14883" lon="2.95389">
        <ele>471.8</ele>
        <time>2025-08-31T10:01:34.000Z</time>
      </trkpt>
      <trkpt lat="44.14894" lon="2.95389">
        <ele>472.8</ele>
        <time>2025-08-31T10:01:37.000Z</time>
      </trkpt>
      <trkpt lat="44.14904" lon="2.9539">
        <ele>473.8</ele>
        <time>2025-08-31T10:01:40.000Z</time>
      </trkpt>
      <trkpt lat="44.14913" lon="2.95389">
        <ele>474.8</ele>
        <time>2025-08-31T10:01:43.000Z</time>
      </trkpt>
      <trkpt lat="44.14923" lon="2.95388">
        <ele>475.9</ele>
        <time>2025-08-31T10:01:46.000Z</time>
      </trkpt>
      <trkpt lat="44.14933" lon="2.95383">
        <ele>476.9</ele>
        <time>2025-08-31T10:01:49.000Z</time>
      </trkpt>
      <trkpt lat="44.14943" lon="2.95376">
        <ele>477.8</ele>
        <time>2025-08-31T10:01:52.000Z</time>
      </trkpt>
      <trkpt lat="44.14951" lon="2.95366">
        <ele>478.8</ele>
        <time>2025-08-31T10:01:55.000Z</time>
      </trkpt>
      <trkpt lat="44.14957" lon="2.95354">
        <ele>479.7</ele>
        <time>2025-08-31T10:01:58.000Z</time>
      </trkpt>
      <trkpt lat="44.1496" lon="2.95339">
        <ele>480.6</ele>
        <time>2025-08-31T10:02:01.000Z</time>
      </trkpt>
      <trkpt lat="44.14961" lon="2.95324">
        <ele>481.4</ele>
        <time>2025-08-31T10:02:04.000Z</time>
      </trkpt>
      <trkpt lat="44.14962" lon="2.95307">
        <ele>482.2</ele>
        <time>2025-08-31T10:02:07.000Z</time>
      </trkpt>
      <trkpt lat="44.14965" lon="2.95295">
        <ele>482.7</ele>
        <time>2025-08-31T10:02:09.000Z</time>
      </trkpt>
      <trkpt lat="44.1497" lon="2.95284">
        <ele>483.2</ele>
        <time>2025-08-31T10:02:11.000Z</time>
      </trkpt>
      <trkpt lat="44.14977" lon="2.95274">
        <ele>483.7</ele>
        <time>2025-08-31T10:02:13.000Z</time>
      </trkpt>
      <trkpt lat="44.14985" lon="2.95267">
        <ele>484.2</ele>
        <time>2025-08-31T10:02:15.000Z</time>
      </trkpt>
      <trkpt lat="44.14994" lon="2.95264">
        <ele>484.7</ele>
        <time>2025-08-31T10:02:17.000Z</time>
      </trkpt>
      <trkpt lat="44.15007" lon="2.95261">
        <ele>485.5</ele>
        <time>2025-08-31T10:02:20.000Z</time>
      </trkpt>
      <trkpt lat="44.15017" lon="2.95259">
        <ele>486</ele>
        <time>2025-08-31T10:02:22.000Z</time>
      </trkpt>
      <trkpt lat="44.15027" lon="2.95257">
        <ele>486.4</ele>
        <time>2025-08-31T10:02:24.000Z</time>
      </trkpt>
      <trkpt lat="44.15036" lon="2.95253">
        <ele>486.9</ele>
        <time>2025-08-31T10:02:26.000Z</time>
      </trkpt>
      <trkpt lat="44.15045" lon="2.95249">
        <ele>487.3</ele>
        <time>2025-08-31T10:02:28.000Z</time>
      </trkpt>
      <trkpt lat="44.15055" lon="2.95243">
        <ele>487.7</ele>
        <time>2025-08-31T10:02:30.000Z</time>
      </trkpt>
      <trkpt lat="44.15064" lon="2.95238">
        <ele>488.2</ele>
        <time>2025-08-31T10:02:32.000Z</time>
      </trkpt>
      <trkpt lat="44.15073" lon="2.95233">
        <ele>488.6</ele>
        <time>2025-08-31T10:02:34.000Z</time>
      </trkpt>
      <trkpt lat="44.15082" lon="2.95229">
        <ele>489.1</ele>
        <time>2025-08-31T10:02:36.000Z</time>
      </trkpt>
      <trkpt lat="44.15091" lon="2.95224">
        <ele>489.6</ele>
        <time>2025-08-31T10:02:38.000Z</time>
      </trkpt>
      <trkpt lat="44.15101" lon="2.95221">
        <ele>490</ele>
        <time>2025-08-31T10:02:40.000Z</time>
      </trkpt>
      <trkpt lat="44.15112" lon="2.95223">
        <ele>490.5</ele>
        <time>2025-08-31T10:02:42.000Z</time>
      </trkpt>
      <trkpt lat="44.15121" lon="2.9523">
        <ele>491</ele>
        <time>2025-08-31T10:02:44.000Z</time>
      </trkpt>
      <trkpt lat="44.15125" lon="2.95242">
        <ele>491.6</ele>
        <time>2025-08-31T10:02:46.000Z</time>
      </trkpt>
      <trkpt lat="44.15127" lon="2.95255">
        <ele>492.1</ele>
        <time>2025-08-31T10:02:48.000Z</time>
      </trkpt>
      <trkpt lat="44.15129" lon="2.95272">
        <ele>493</ele>
        <time>2025-08-31T10:02:51.000Z</time>
      </trkpt>
      <trkpt lat="44.15134" lon="2.95288">
        <ele>493.7</ele>
        <time>2025-08-31T10:02:54.000Z</time>
      </trkpt>
      <trkpt lat="44.15143" lon="2.95302">
        <ele>494.4</ele>
        <time>2025-08-31T10:02:57.000Z</time>
      </trkpt>
      <trkpt lat="44.15153" lon="2.95314">
        <ele>495.1</ele>
        <time>2025-08-31T10:03:00.000Z</time>
      </trkpt>
      <trkpt lat="44.15161" lon="2.95323">
        <ele>495.8</ele>
        <time>2025-08-31T10:03:03.000Z</time>
      </trkpt>
      <trkpt lat="44.1517" lon="2.95331">
        <ele>496.6</ele>
        <time>2025-08-31T10:03:06.000Z</time>
      </trkpt>
      <trkpt lat="44.15181" lon="2.95341">
        <ele>497.4</ele>
        <time>2025-08-31T10:03:09.000Z</time>
      </trkpt>
      <trkpt lat="44.1519" lon="2.95345">
        <ele>497.9</ele>
        <time>2025-08-31T10:03:11.000Z</time>
      </trkpt>
      <trkpt lat="44.15203" lon="2.95345">
        <ele>498.7</ele>
        <time>2025-08-31T10:03:14.000Z</time>
      </trkpt>
      <trkpt lat="44.15214" lon="2.95343">
        <ele>499.3</ele>
        <time>2025-08-31T10:03:16.000Z</time>
      </trkpt>
      <trkpt lat="44.15224" lon="2.95339">
        <ele>499.9</ele>
        <time>2025-08-31T10:03:18.000Z</time>
      </trkpt>
      <trkpt lat="44.15234" lon="2.95335">
        <ele>500.5</ele>
        <time>2025-08-31T10:03:20.000Z</time>
      </trkpt>
      <trkpt lat="44.15243" lon="2.9533">
        <ele>501.1</ele>
        <time>2025-08-31T10:03:22.000Z</time>
      </trkpt>
      <trkpt lat="44.15252" lon="2.95325">
        <ele>501.7</ele>
        <time>2025-08-31T10:03:24.000Z</time>
      </trkpt>
      <trkpt lat="44.15261" lon="2.9532">
        <ele>502.3</ele>
        <time>2025-08-31T10:03:26.000Z</time>
      </trkpt>
      <trkpt lat="44.1527" lon="2.95315">
        <ele>502.9</ele>
        <time>2025-08-31T10:03:28.000Z</time>
      </trkpt>
      <trkpt lat="44.15279" lon="2.95311">
        <ele>503.5</ele>
        <time>2025-08-31T10:03:30.000Z</time>
      </trkpt>
      <trkpt lat="44.15292" lon="2.95309">
        <ele>504.4</ele>
        <time>2025-08-31T10:03:33.000Z</time>
      </trkpt>
      <trkpt lat="44.15303" lon="2.9531">
        <ele>505.2</ele>
        <time>2025-08-31T10:03:36.000Z</time>
      </trkpt>
      <trkpt lat="44.15314" lon="2.95313">
        <ele>506</ele>
        <time>2025-08-31T10:03:39.000Z</time>
      </trkpt>
      <trkpt lat="44.15323" lon="2.95315">
        <ele>506.5</ele>
        <time>2025-08-31T10:03:41.000Z</time>
      </trkpt>
      <trkpt lat="44.15335" lon="2.95316">
        <ele>507.3</ele>
        <time>2025-08-31T10:03:44.000Z</time>
      </trkpt>
      <trkpt lat="44.15347" lon="2.9532">
        <ele>508.2</ele>
        <time>2025-08-31T10:03:47.000Z</time>
      </trkpt>
      <trkpt lat="44.15359" lon="2.95326">
        <ele>509</ele>
        <time>2025-08-31T10:03:50.000Z</time>
      </trkpt>
      <trkpt lat="44.15367" lon="2.95333">
        <ele>509.6</ele>
        <time>2025-08-31T10:03:52.000Z</time>
      </trkpt>
      <trkpt lat="44.15374" lon="2.95342">
        <ele>510.2</ele>
        <time>2025-08-31T10:03:54.000Z</time>
      </trkpt>
      <trkpt lat="44.15381" lon="2.95357">
        <ele>510.9</ele>
        <time>2025-08-31T10:03:57.000Z</time>
      </trkpt>
      <trkpt lat="44.15388" lon="2.95373">
        <ele>511.7</ele>
        <time>2025-08-31T10:04:00.000Z</time>
      </trkpt>
      <trkpt lat="44.15395" lon="2.95387">
        <ele>512.4</ele>
        <time>2025-08-31T10:04:03.000Z</time>
      </trkpt>
      <trkpt lat="44.15403" lon="2.954">
        <ele>513.2</ele>
        <time>2025-08-31T10:04:06.000Z</time>
      </trkpt>
      <trkpt lat="44.15414" lon="2.95411">
        <ele>513.9</ele>
        <time>2025-08-31T10:04:09.000Z</time>
      </trkpt>
      <trkpt lat="44.15424" lon="2.9542">
        <ele>514.7</ele>
        <time>2025-08-31T10:04:12.000Z</time>
      </trkpt>
      <trkpt lat="44.15435" lon="2.9543">
        <ele>515.5</ele>
        <time>2025-08-31T10:04:15.000Z</time>
      </trkpt>
      <trkpt lat="44.15445" lon="2.95437">
        <ele>516.3</ele>
        <time>2025-08-31T10:04:18.000Z</time>
      </trkpt>
      <trkpt lat="44.15455" lon="2.95441">
        <ele>517.2</ele>
        <time>2025-08-31T10:04:21.000Z</time>
      </trkpt>
      <trkpt lat="44.15467" lon="2.95444">
        <ele>518.1</ele>
        <time>2025-08-31T10:04:24.000Z</time>
      </trkpt>
      <trkpt lat="44.15478" lon="2.95443">
        <ele>518.7</ele>
        <time>2025-08-31T10:04:26.000Z</time>
      </trkpt>
      <trkpt lat="44.15488" lon="2.95438">
        <ele>519.3</ele>
        <time>2025-08-31T10:04:28.000Z</time>
      </trkpt>
      <trkpt lat="44.15496" lon="2.95431">
        <ele>519.9</ele>
        <time>2025-08-31T10:04:30.000Z</time>
      </trkpt>
      <trkpt lat="44.15505" lon="2.95422">
        <ele>520.4</ele>
        <time>2025-08-31T10:04:32.000Z</time>
      </trkpt>
      <trkpt lat="44.15513" lon="2.95413">
        <ele>521</ele>
        <time>2025-08-31T10:04:34.000Z</time>
      </trkpt>
      <trkpt lat="44.15521" lon="2.95404">
        <ele>521.6</ele>
        <time>2025-08-31T10:04:36.000Z</time>
      </trkpt>
      <trkpt lat="44.15531" lon="2.95397">
        <ele>522.1</ele>
        <time>2025-08-31T10:04:38.000Z</time>
      </trkpt>
      <trkpt lat="44.15542" lon="2.95394">
        <ele>522.6</ele>
        <time>2025-08-31T10:04:40.000Z</time>
      </trkpt>
      <trkpt lat="44.15553" lon="2.95397">
        <ele>523</ele>
        <time>2025-08-31T10:04:42.000Z</time>
      </trkpt>
      <trkpt lat="44.15565" lon="2.95402">
        <ele>523.5</ele>
        <time>2025-08-31T10:04:44.000Z</time>
      </trkpt>
      <trkpt lat="44.15576" lon="2.9541">
        <ele>523.9</ele>
        <time>2025-08-31T10:04:46.000Z</time>
      </trkpt>
      <trkpt lat="44.15587" lon="2.95419">
        <ele>524.4</ele>
        <time>2025-08-31T10:04:48.000Z</time>
      </trkpt>
      <trkpt lat="44.15598" lon="2.95428">
        <ele>524.8</ele>
        <time>2025-08-31T10:04:50.000Z</time>
      </trkpt>
      <trkpt lat="44.15608" lon="2.95438">
        <ele>525.2</ele>
        <time>2025-08-31T10:04:52.000Z</time>
      </trkpt>
      <trkpt lat="44.15619" lon="2.95448">
        <ele>525.5</ele>
        <time>2025-08-31T10:04:54.000Z</time>
      </trkpt>
      <trkpt lat="44.1563" lon="2.95458">
        <ele>525.8</ele>
        <time>2025-08-31T10:04:56.000Z</time>
      </trkpt>
      <trkpt lat="44.15642" lon="2.95467">
        <ele>526</ele>
        <time>2025-08-31T10:04:58.000Z</time>
      </trkpt>
      <trkpt lat="44.15655" lon="2.95475">
        <ele>526.2</ele>
        <time>2025-08-31T10:05:00.000Z</time>
      </trkpt>
      <trkpt lat="44.15668" lon="2.95483">
        <ele>526.4</ele>
        <time>2025-08-31T10:05:02.000Z</time>
      </trkpt>
      <trkpt lat="44.15682" lon="2.9549">
        <ele>526.5</ele>
        <time>2025-08-31T10:05:04.000Z</time>
      </trkpt>
      <trkpt lat="44.15696" lon="2.95497">
        <ele>526.6</ele>
        <time>2025-08-31T10:05:06.000Z</time>
      </trkpt>
      <trkpt lat="44.1571" lon="2.95505">
        <ele>526.7</ele>
        <time>2025-08-31T10:05:08.000Z</time>
      </trkpt>
      <trkpt lat="44.15723" lon="2.95511">
        <ele>526.8</ele>
        <time>2025-08-31T10:05:10.000Z</time>
      </trkpt>
      <trkpt lat="44.15737" lon="2.95517">
        <ele>526.8</ele>
        <time>2025-08-31T10:05:12.000Z</time>
      </trkpt>
      <trkpt lat="44.15752" lon="2.95518">
        <ele>526.9</ele>
        <time>2025-08-31T10:05:14.000Z</time>
      </trkpt>
      <trkpt lat="44.15766" lon="2.95512">
        <ele>526.9</ele>
        <time>2025-08-31T10:05:16.000Z</time>
      </trkpt>
      <trkpt lat="44.1578" lon="2.955">
        <ele>526.9</ele>
        <time>2025-08-31T10:05:18.000Z</time>
      </trkpt>
      <trkpt lat="44.15793" lon="2.95486">
        <ele>526.8</ele>
        <time>2025-08-31T10:05:20.000Z</time>
      </trkpt>
      <trkpt lat="44.15805" lon="2.95472">
        <ele>526.9</ele>
        <time>2025-08-31T10:05:22.000Z</time>
      </trkpt>
      <trkpt lat="44.15817" lon="2.95459">
        <ele>526.9</ele>
        <time>2025-08-31T10:05:24.000Z</time>
      </trkpt>
      <trkpt lat="44.15827" lon="2.95444">
        <ele>527</ele>
        <time>2025-08-31T10:05:26.000Z</time>
      </trkpt>
      <trkpt lat="44.15836" lon="2.95428">
        <ele>527</ele>
        <time>2025-08-31T10:05:28.000Z</time>
      </trkpt>
      <trkpt lat="44.15843" lon="2.95411">
        <ele>527.1</ele>
        <time>2025-08-31T10:05:30.000Z</time>
      </trkpt>
      <trkpt lat="44.15852" lon="2.954">
        <ele>527.2</ele>
        <time>2025-08-31T10:05:32.000Z</time>
      </trkpt>
      <trkpt lat="44.15864" lon="2.95399">
        <ele>527.3</ele>
        <time>2025-08-31T10:05:34.000Z</time>
      </trkpt>
      <trkpt lat="44.15872" lon="2.9541">
        <ele>527.4</ele>
        <time>2025-08-31T10:05:36.000Z</time>
      </trkpt>
      <trkpt lat="44.15874" lon="2.95427">
        <ele>527.6</ele>
        <time>2025-08-31T10:05:38.000Z</time>
      </trkpt>
      <trkpt lat="44.15875" lon="2.95441">
        <ele>527.7</ele>
        <time>2025-08-31T10:05:40.000Z</time>
      </trkpt>
      <trkpt lat="44.15877" lon="2.95454">
        <ele>528</ele>
        <time>2025-08-31T10:05:42.000Z</time>
      </trkpt>
      <trkpt lat="44.15881" lon="2.95467">
        <ele>528.2</ele>
        <time>2025-08-31T10:05:44.000Z</time>
      </trkpt>
      <trkpt lat="44.15889" lon="2.95481">
        <ele>528.8</ele>
        <time>2025-08-31T10:05:47.000Z</time>
      </trkpt>
      <trkpt lat="44.15898" lon="2.9549">
        <ele>529.4</ele>
        <time>2025-08-31T10:05:50.000Z</time>
      </trkpt>
      <trkpt lat="44.15908" lon="2.95496">
        <ele>530.2</ele>
        <time>2025-08-31T10:05:53.000Z</time>
      </trkpt>
      <trkpt lat="44.15917" lon="2.95498">
        <ele>531.1</ele>
        <time>2025-08-31T10:05:56.000Z</time>
      </trkpt>
      <trkpt lat="44.15928" lon="2.95498">
        <ele>532.4</ele>
        <time>2025-08-31T10:06:00.000Z</time>
      </trkpt>
      <trkpt lat="44.15937" lon="2.95495">
        <ele>533.8</ele>
        <time>2025-08-31T10:06:04.000Z</time>
      </trkpt>
      <trkpt lat="44.15946" lon="2.95494">
        <ele>534.9</ele>
        <time>2025-08-31T10:06:07.000Z</time>
      </trkpt>
      <trkpt lat="44.15957" lon="2.95491">
        <ele>535.9</ele>
        <time>2025-08-31T10:06:10.000Z</time>
      </trkpt>
      <trkpt lat="44.15966" lon="2.95487">
        <ele>536.9</ele>
        <time>2025-08-31T10:06:13.000Z</time>
      </trkpt>
      <trkpt lat="44.15976" lon="2.95483">
        <ele>537.9</ele>
        <time>2025-08-31T10:06:16.000Z</time>
      </trkpt>
      <trkpt lat="44.15986" lon="2.9548">
        <ele>538.9</ele>
        <time>2025-08-31T10:06:19.000Z</time>
      </trkpt>
      <trkpt lat="44.15995" lon="2.95477">
        <ele>540</ele>
        <time>2025-08-31T10:06:22.000Z</time>
      </trkpt>
      <trkpt lat="44.16005" lon="2.95475">
        <ele>541</ele>
        <time>2025-08-31T10:06:25.000Z</time>
      </trkpt>
      <trkpt lat="44.16014" lon="2.95474">
        <ele>542.1</ele>
        <time>2025-08-31T10:06:28.000Z</time>
      </trkpt>
      <trkpt lat="44.16026" lon="2.95472">
        <ele>543.5</ele>
        <time>2025-08-31T10:06:32.000Z</time>
      </trkpt>
      <trkpt lat="44.16035" lon="2.95472">
        <ele>544.5</ele>
        <time>2025-08-31T10:06:35.000Z</time>
      </trkpt>
      <trkpt lat="44.16046" lon="2.9547">
        <ele>545.9</ele>
        <time>2025-08-31T10:06:39.000Z</time>
      </trkpt>
      <trkpt lat="44.16055" lon="2.9547">
        <ele>546.9</ele>
        <time>2025-08-31T10:06:42.000Z</time>
      </trkpt>
      <trkpt lat="44.16065" lon="2.95472">
        <ele>548</ele>
        <time>2025-08-31T10:06:45.000Z</time>
      </trkpt>
      <trkpt lat="44.16074" lon="2.95475">
        <ele>548.9</ele>
        <time>2025-08-31T10:06:48.000Z</time>
      </trkpt>
      <trkpt lat="44.16083" lon="2.95478">
        <ele>549.9</ele>
        <time>2025-08-31T10:06:51.000Z</time>
      </trkpt>
      <trkpt lat="44.16092" lon="2.95481">
        <ele>550.9</ele>
        <time>2025-08-31T10:06:54.000Z</time>
      </trkpt>
      <trkpt lat="44.16101" lon="2.95485">
        <ele>552</ele>
        <time>2025-08-31T10:06:57.000Z</time>
      </trkpt>
      <trkpt lat="44.1611" lon="2.9549">
        <ele>553</ele>
        <time>2025-08-31T10:07:00.000Z</time>
      </trkpt>
      <trkpt lat="44.16121" lon="2.95494">
        <ele>554.6</ele>
        <time>2025-08-31T10:07:04.000Z</time>
      </trkpt>
      <trkpt lat="44.16131" lon="2.95495">
        <ele>555.7</ele>
        <time>2025-08-31T10:07:07.000Z</time>
      </trkpt>
      <trkpt lat="44.16142" lon="2.95494">
        <ele>556.7</ele>
        <time>2025-08-31T10:07:10.000Z</time>
      </trkpt>
      <trkpt lat="44.16153" lon="2.95494">
        <ele>557.8</ele>
        <time>2025-08-31T10:07:13.000Z</time>
      </trkpt>
      <trkpt lat="44.16162" lon="2.95499">
        <ele>558.9</ele>
        <time>2025-08-31T10:07:16.000Z</time>
      </trkpt>
      <trkpt lat="44.1617" lon="2.95508">
        <ele>560.1</ele>
        <time>2025-08-31T10:07:19.000Z</time>
      </trkpt>
      <trkpt lat="44.16176" lon="2.95521">
        <ele>561.6</ele>
        <time>2025-08-31T10:07:23.000Z</time>
      </trkpt>
      <trkpt lat="44.16181" lon="2.95535">
        <ele>563.2</ele>
        <time>2025-08-31T10:07:27.000Z</time>
      </trkpt>
      <trkpt lat="44.16186" lon="2.9555">
        <ele>564.6</ele>
        <time>2025-08-31T10:07:31.000Z</time>
      </trkpt>
      <trkpt lat="44.16191" lon="2.95562">
        <ele>565.7</ele>
        <time>2025-08-31T10:07:34.000Z</time>
      </trkpt>
      <trkpt lat="44.16196" lon="2.95573">
        <ele>566.8</ele>
        <time>2025-08-31T10:07:37.000Z</time>
      </trkpt>
      <trkpt lat="44.16201" lon="2.95584">
        <ele>567.9</ele>
        <time>2025-08-31T10:07:40.000Z</time>
      </trkpt>
      <trkpt lat="44.16207" lon="2.95595">
        <ele>568.9</ele>
        <time>2025-08-31T10:07:43.000Z</time>
      </trkpt>
      <trkpt lat="44.16214" lon="2.95608">
        <ele>570.3</ele>
        <time>2025-08-31T10:07:47.000Z</time>
      </trkpt>
      <trkpt lat="44.1622" lon="2.9562">
        <ele>571.6</ele>
        <time>2025-08-31T10:07:51.000Z</time>
      </trkpt>
      <trkpt lat="44.16227" lon="2.95633">
        <ele>573</ele>
        <time>2025-08-31T10:07:55.000Z</time>
      </trkpt>
      <trkpt lat="44.16233" lon="2.95646">
        <ele>574.4</ele>
        <time>2025-08-31T10:07:59.000Z</time>
      </trkpt>
      <trkpt lat="44.1624" lon="2.95658">
        <ele>575.8</ele>
        <time>2025-08-31T10:08:03.000Z</time>
      </trkpt>
      <trkpt lat="44.16245" lon="2.95673">
        <ele>577.2</ele>
        <time>2025-08-31T10:08:07.000Z</time>
      </trkpt>
      <trkpt lat="44.16246" lon="2.95687">
        <ele>578.6</ele>
        <time>2025-08-31T10:08:11.000Z</time>
      </trkpt>
      <trkpt lat="44.1625" lon="2.95702">
        <ele>579.9</ele>
        <time>2025-08-31T10:08:15.000Z</time>
      </trkpt>
      <trkpt lat="44.16258" lon="2.9571">
        <ele>580.8</ele>
        <time>2025-08-31T10:08:18.000Z</time>
      </trkpt>
      <trkpt lat="44.16267" lon="2.95701">
        <ele>582.1</ele>
        <time>2025-08-31T10:08:22.000Z</time>
      </trkpt>
      <trkpt lat="44.16265" lon="2.95688">
        <ele>583.3</ele>
        <time>2025-08-31T10:08:25.000Z</time>
      </trkpt>
      <trkpt lat="44.16262" lon="2.95676">
        <ele>584.5</ele>
        <time>2025-08-31T10:08:28.000Z</time>
      </trkpt>
      <trkpt lat="44.16256" lon="2.95664">
        <ele>585.6</ele>
        <time>2025-08-31T10:08:31.000Z</time>
      </trkpt>
      <trkpt lat="44.16251" lon="2.95653">
        <ele>586.6</ele>
        <time>2025-08-31T10:08:34.000Z</time>
      </trkpt>
      <trkpt lat="44.16247" lon="2.95642">
        <ele>587.4</ele>
        <time>2025-08-31T10:08:37.000Z</time>
      </trkpt>
      <trkpt lat="44.16243" lon="2.95631">
        <ele>588.3</ele>
        <time>2025-08-31T10:08:40.000Z</time>
      </trkpt>
      <trkpt lat="44.16238" lon="2.9562">
        <ele>589.2</ele>
        <time>2025-08-31T10:08:43.000Z</time>
      </trkpt>
      <trkpt lat="44.16234" lon="2.95604">
        <ele>590.3</ele>
        <time>2025-08-31T10:08:47.000Z</time>
      </trkpt>
      <trkpt lat="44.1623" lon="2.95592">
        <ele>591.2</ele>
        <time>2025-08-31T10:08:50.000Z</time>
      </trkpt>
      <trkpt lat="44.16226" lon="2.95579">
        <ele>592.1</ele>
        <time>2025-08-31T10:08:53.000Z</time>
      </trkpt>
      <trkpt lat="44.16222" lon="2.95567">
        <ele>593</ele>
        <time>2025-08-31T10:08:56.000Z</time>
      </trkpt>
      <trkpt lat="44.16219" lon="2.95555">
        <ele>593.8</ele>
        <time>2025-08-31T10:08:59.000Z</time>
      </trkpt>
      <trkpt lat="44.16216" lon="2.95542">
        <ele>594.8</ele>
        <time>2025-08-31T10:09:02.000Z</time>
      </trkpt>
      <trkpt lat="44.16213" lon="2.95529">
        <ele>595.8</ele>
        <time>2025-08-31T10:09:05.000Z</time>
      </trkpt>
      <trkpt lat="44.16212" lon="2.95516">
        <ele>596.8</ele>
        <time>2025-08-31T10:09:08.000Z</time>
      </trkpt>
      <trkpt lat="44.1621" lon="2.95503">
        <ele>597.8</ele>
        <time>2025-08-31T10:09:11.000Z</time>
      </trkpt>
      <trkpt lat="44.16208" lon="2.9549">
        <ele>598.8</ele>
        <time>2025-08-31T10:09:14.000Z</time>
      </trkpt>
      <trkpt lat="44.16207" lon="2.95477">
        <ele>599.8</ele>
        <time>2025-08-31T10:09:17.000Z</time>
      </trkpt>
      <trkpt lat="44.16205" lon="2.95464">
        <ele>600.8</ele>
        <time>2025-08-31T10:09:20.000Z</time>
      </trkpt>
      <trkpt lat="44.16204" lon="2.95451">
        <ele>601.8</ele>
        <time>2025-08-31T10:09:23.000Z</time>
      </trkpt>
      <trkpt lat="44.16201" lon="2.95439">
        <ele>602.9</ele>
        <time>2025-08-31T10:09:26.000Z</time>
      </trkpt>
      <trkpt lat="44.16197" lon="2.95424">
        <ele>604.4</ele>
        <time>2025-08-31T10:09:30.000Z</time>
      </trkpt>
      <trkpt lat="44.16188" lon="2.95413">
        <ele>605.8</ele>
        <time>2025-08-31T10:09:34.000Z</time>
      </trkpt>
      <trkpt lat="44.16179" lon="2.95407">
        <ele>606.8</ele>
        <time>2025-08-31T10:09:37.000Z</time>
      </trkpt>
      <trkpt lat="44.16171" lon="2.95401">
        <ele>607.9</ele>
        <time>2025-08-31T10:09:40.000Z</time>
      </trkpt>
      <trkpt lat="44.16162" lon="2.95394">
        <ele>609.1</ele>
        <time>2025-08-31T10:09:43.000Z</time>
      </trkpt>
      <trkpt lat="44.16154" lon="2.95386">
        <ele>610.2</ele>
        <time>2025-08-31T10:09:46.000Z</time>
      </trkpt>
      <trkpt lat="44.16145" lon="2.95378">
        <ele>611.3</ele>
        <time>2025-08-31T10:09:49.000Z</time>
      </trkpt>
      <trkpt lat="44.16138" lon="2.9537">
        <ele>612.5</ele>
        <time>2025-08-31T10:09:52.000Z</time>
      </trkpt>
      <trkpt lat="44.16132" lon="2.9536">
        <ele>613.7</ele>
        <time>2025-08-31T10:09:55.000Z</time>
      </trkpt>
      <trkpt lat="44.16125" lon="2.9535">
        <ele>614.9</ele>
        <time>2025-08-31T10:09:58.000Z</time>
      </trkpt>
      <trkpt lat="44.16117" lon="2.95341">
        <ele>616</ele>
        <time>2025-08-31T10:10:01.000Z</time>
      </trkpt>
      <trkpt lat="44.16109" lon="2.95332">
        <ele>617</ele>
        <time>2025-08-31T10:10:04.000Z</time>
      </trkpt>
      <trkpt lat="44.16102" lon="2.95323">
        <ele>618.1</ele>
        <time>2025-08-31T10:10:07.000Z</time>
      </trkpt>
      <trkpt lat="44.16096" lon="2.95311">
        <ele>619.2</ele>
        <time>2025-08-31T10:10:10.000Z</time>
      </trkpt>
      <trkpt lat="44.16093" lon="2.95298">
        <ele>620.2</ele>
        <time>2025-08-31T10:10:13.000Z</time>
      </trkpt>
      <trkpt lat="44.16094" lon="2.95283">
        <ele>621.3</ele>
        <time>2025-08-31T10:10:16.000Z</time>
      </trkpt>
      <trkpt lat="44.16097" lon="2.9527">
        <ele>622.4</ele>
        <time>2025-08-31T10:10:19.000Z</time>
      </trkpt>
      <trkpt lat="44.16101" lon="2.95257">
        <ele>623.5</ele>
        <time>2025-08-31T10:10:22.000Z</time>
      </trkpt>
      <trkpt lat="44.16104" lon="2.95243">
        <ele>624.6</ele>
        <time>2025-08-31T10:10:25.000Z</time>
      </trkpt>
      <trkpt lat="44.16108" lon="2.95231">
        <ele>625.8</ele>
        <time>2025-08-31T10:10:28.000Z</time>
      </trkpt>
      <trkpt lat="44.16113" lon="2.95219">
        <ele>626.8</ele>
        <time>2025-08-31T10:10:31.000Z</time>
      </trkpt>
      <trkpt lat="44.16117" lon="2.95206">
        <ele>628</ele>
        <time>2025-08-31T10:10:34.000Z</time>
      </trkpt>
      <trkpt lat="44.16122" lon="2.95195">
        <ele>629.1</ele>
        <time>2025-08-31T10:10:37.000Z</time>
      </trkpt>
      <trkpt lat="44.16127" lon="2.95184">
        <ele>630.2</ele>
        <time>2025-08-31T10:10:40.000Z</time>
      </trkpt>
      <trkpt lat="44.16133" lon="2.9517">
        <ele>631.7</ele>
        <time>2025-08-31T10:10:44.000Z</time>
      </trkpt>
      <trkpt lat="44.1614" lon="2.95156">
        <ele>633.1</ele>
        <time>2025-08-31T10:10:48.000Z</time>
      </trkpt>
      <trkpt lat="44.16146" lon="2.95142">
        <ele>634.5</ele>
        <time>2025-08-31T10:10:52.000Z</time>
      </trkpt>
      <trkpt lat="44.16151" lon="2.95131">
        <ele>635.5</ele>
        <time>2025-08-31T10:10:55.000Z</time>
      </trkpt>
      <trkpt lat="44.16156" lon="2.9512">
        <ele>636.6</ele>
        <time>2025-08-31T10:10:58.000Z</time>
      </trkpt>
      <trkpt lat="44.16161" lon="2.95109">
        <ele>637.6</ele>
        <time>2025-08-31T10:11:01.000Z</time>
      </trkpt>
      <trkpt lat="44.16166" lon="2.95098">
        <ele>638.7</ele>
        <time>2025-08-31T10:11:04.000Z</time>
      </trkpt>
      <trkpt lat="44.16172" lon="2.95087">
        <ele>639.7</ele>
        <time>2025-08-31T10:11:07.000Z</time>
      </trkpt>
      <trkpt lat="44.16178" lon="2.95077">
        <ele>640.9</ele>
        <time>2025-08-31T10:11:10.000Z</time>
      </trkpt>
      <trkpt lat="44.16184" lon="2.95066">
        <ele>642</ele>
        <time>2025-08-31T10:11:13.000Z</time>
      </trkpt>
      <trkpt lat="44.1619" lon="2.95055">
        <ele>643.1</ele>
        <time>2025-08-31T10:11:16.000Z</time>
      </trkpt>
      <trkpt lat="44.16195" lon="2.95044">
        <ele>644.2</ele>
        <time>2025-08-31T10:11:19.000Z</time>
      </trkpt>
      <trkpt lat="44.162" lon="2.95034">
        <ele>645.3</ele>
        <time>2025-08-31T10:11:22.000Z</time>
      </trkpt>
      <trkpt lat="44.16205" lon="2.9502">
        <ele>646.7</ele>
        <time>2025-08-31T10:11:26.000Z</time>
      </trkpt>
      <trkpt lat="44.16211" lon="2.95007">
        <ele>648.1</ele>
        <time>2025-08-31T10:11:30.000Z</time>
      </trkpt>
      <trkpt lat="44.16214" lon="2.94995">
        <ele>649.1</ele>
        <time>2025-08-31T10:11:33.000Z</time>
      </trkpt>
      <trkpt lat="44.16218" lon="2.94981">
        <ele>650.2</ele>
        <time>2025-08-31T10:11:36.000Z</time>
      </trkpt>
      <trkpt lat="44.16221" lon="2.94969">
        <ele>651.3</ele>
        <time>2025-08-31T10:11:39.000Z</time>
      </trkpt>
      <trkpt lat="44.16224" lon="2.94956">
        <ele>652.4</ele>
        <time>2025-08-31T10:11:42.000Z</time>
      </trkpt>
      <trkpt lat="44.16228" lon="2.94943">
        <ele>653.6</ele>
        <time>2025-08-31T10:11:45.000Z</time>
      </trkpt>
      <trkpt lat="44.16231" lon="2.94931">
        <ele>654.8</ele>
        <time>2025-08-31T10:11:48.000Z</time>
      </trkpt>
      <trkpt lat="44.16235" lon="2.94919">
        <ele>656</ele>
        <time>2025-08-31T10:11:51.000Z</time>
      </trkpt>
      <trkpt lat="44.1624" lon="2.94907">
        <ele>657.1</ele>
        <time>2025-08-31T10:11:54.000Z</time>
      </trkpt>
      <trkpt lat="44.16245" lon="2.94894">
        <ele>658.2</ele>
        <time>2025-08-31T10:11:57.000Z</time>
      </trkpt>
      <trkpt lat="44.16249" lon="2.94882">
        <ele>659.3</ele>
        <time>2025-08-31T10:12:00.000Z</time>
      </trkpt>
      <trkpt lat="44.16255" lon="2.94871">
        <ele>660.3</ele>
        <time>2025-08-31T10:12:03.000Z</time>
      </trkpt>
      <trkpt lat="44.16262" lon="2.9486">
        <ele>661.3</ele>
        <time>2025-08-31T10:12:06.000Z</time>
      </trkpt>
      <trkpt lat="44.1627" lon="2.94851">
        <ele>662.4</ele>
        <time>2025-08-31T10:12:09.000Z</time>
      </trkpt>
      <trkpt lat="44.16279" lon="2.94848">
        <ele>663.4</ele>
        <time>2025-08-31T10:12:12.000Z</time>
      </trkpt>
      <trkpt lat="44.16288" lon="2.94845">
        <ele>664.5</ele>
        <time>2025-08-31T10:12:15.000Z</time>
      </trkpt>
      <trkpt lat="44.16297" lon="2.9484">
        <ele>666</ele>
        <time>2025-08-31T10:12:19.000Z</time>
      </trkpt>
      <trkpt lat="44.16307" lon="2.94837">
        <ele>667.7</ele>
        <time>2025-08-31T10:12:23.000Z</time>
      </trkpt>
      <trkpt lat="44.16317" lon="2.94835">
        <ele>669.5</ele>
        <time>2025-08-31T10:12:27.000Z</time>
      </trkpt>
      <trkpt lat="44.16327" lon="2.94834">
        <ele>671.7</ele>
        <time>2025-08-31T10:12:32.000Z</time>
      </trkpt>
      <trkpt lat="44.16338" lon="2.94833">
        <ele>674</ele>
        <time>2025-08-31T10:12:37.000Z</time>
      </trkpt>
      <trkpt lat="44.16348" lon="2.94832">
        <ele>676.1</ele>
        <time>2025-08-31T10:12:42.000Z</time>
      </trkpt>
      <trkpt lat="44.16358" lon="2.94831">
        <ele>678</ele>
        <time>2025-08-31T10:12:47.000Z</time>
      </trkpt>
      <trkpt lat="44.16367" lon="2.9483">
        <ele>680</ele>
        <time>2025-08-31T10:12:52.000Z</time>
      </trkpt>
      <trkpt lat="44.16376" lon="2.94827">
        <ele>681.8</ele>
        <time>2025-08-31T10:12:57.000Z</time>
      </trkpt>
      <trkpt lat="44.16386" lon="2.94827">
        <ele>683.9</ele>
        <time>2025-08-31T10:13:03.000Z</time>
      </trkpt>
      <trkpt lat="44.16395" lon="2.94825">
        <ele>685.2</ele>
        <time>2025-08-31T10:13:07.000Z</time>
      </trkpt>
      <trkpt lat="44.16406" lon="2.9482">
        <ele>686.9</ele>
        <time>2025-08-31T10:13:12.000Z</time>
      </trkpt>
      <trkpt lat="44.16416" lon="2.94814">
        <ele>688.4</ele>
        <time>2025-08-31T10:13:17.000Z</time>
      </trkpt>
      <trkpt lat="44.16424" lon="2.94807">
        <ele>690.1</ele>
        <time>2025-08-31T10:13:22.000Z</time>
      </trkpt>
      <trkpt lat="44.16433" lon="2.948">
        <ele>692.1</ele>
        <time>2025-08-31T10:13:28.000Z</time>
      </trkpt>
      <trkpt lat="44.16441" lon="2.94793">
        <ele>693.1</ele>
        <time>2025-08-31T10:13:31.000Z</time>
      </trkpt>
      <trkpt lat="44.16451" lon="2.94786">
        <ele>694.8</ele>
        <time>2025-08-31T10:13:36.000Z</time>
      </trkpt>
      <trkpt lat="44.16461" lon="2.9478">
        <ele>696.3</ele>
        <time>2025-08-31T10:13:41.000Z</time>
      </trkpt>
      <trkpt lat="44.16469" lon="2.94774">
        <ele>697.5</ele>
        <time>2025-08-31T10:13:46.000Z</time>
      </trkpt>
      <trkpt lat="44.16478" lon="2.94768">
        <ele>698.7</ele>
        <time>2025-08-31T10:13:51.000Z</time>
      </trkpt>
      <trkpt lat="44.16487" lon="2.9476">
        <ele>699.9</ele>
        <time>2025-08-31T10:13:56.000Z</time>
      </trkpt>
      <trkpt lat="44.16496" lon="2.94751">
        <ele>700.9</ele>
        <time>2025-08-31T10:14:00.000Z</time>
      </trkpt>
      <trkpt lat="44.16505" lon="2.94742">
        <ele>701.8</ele>
        <time>2025-08-31T10:14:04.000Z</time>
      </trkpt>
      <trkpt lat="44.16513" lon="2.94734">
        <ele>702.6</ele>
        <time>2025-08-31T10:14:08.000Z</time>
      </trkpt>
      <trkpt lat="44.16522" lon="2.94726">
        <ele>703.7</ele>
        <time>2025-08-31T10:14:13.000Z</time>
      </trkpt>
      <trkpt lat="44.1653" lon="2.94719">
        <ele>704.4</ele>
        <time>2025-08-31T10:14:17.000Z</time>
      </trkpt>
      <trkpt lat="44.16536" lon="2.94708">
        <ele>705.3</ele>
        <time>2025-08-31T10:14:22.000Z</time>
      </trkpt>
      <trkpt lat="44.16534" lon="2.94695">
        <ele>706.5</ele>
        <time>2025-08-31T10:14:29.000Z</time>
      </trkpt>
      <trkpt lat="44.1652" lon="2.94688">
        <ele>709.5</ele>
        <time>2025-08-31T10:14:47.000Z</time>
      </trkpt>
      <trkpt lat="44.1651" lon="2.94684">
        <ele>710.6</ele>
        <time>2025-08-31T10:14:53.000Z</time>
      </trkpt>
      <trkpt lat="44.16499" lon="2.9468">
        <ele>711.4</ele>
        <time>2025-08-31T10:14:57.000Z</time>
      </trkpt>
      <trkpt lat="44.16488" lon="2.9468">
        <ele>711.7</ele>
        <time>2025-08-31T10:14:59.000Z</time>
      </trkpt>
      <trkpt lat="44.16474" lon="2.9468">
        <ele>712.3</ele>
        <time>2025-08-31T10:15:02.000Z</time>
      </trkpt>
      <trkpt lat="44.16465" lon="2.94674">
        <ele>712.8</ele>
        <time>2025-08-31T10:15:05.000Z</time>
      </trkpt>
      <trkpt lat="44.16454" lon="2.9467">
        <ele>713.3</ele>
        <time>2025-08-31T10:15:08.000Z</time>
      </trkpt>
      <trkpt lat="44.16445" lon="2.94662">
        <ele>714</ele>
        <time>2025-08-31T10:15:12.000Z</time>
      </trkpt>
      <trkpt lat="44.16438" lon="2.94655">
        <ele>714.8</ele>
        <time>2025-08-31T10:15:16.000Z</time>
      </trkpt>
      <trkpt lat="44.16426" lon="2.9465">
        <ele>715.6</ele>
        <time>2025-08-31T10:15:20.000Z</time>
      </trkpt>
      <trkpt lat="44.16417" lon="2.94645">
        <ele>716.4</ele>
        <time>2025-08-31T10:15:24.000Z</time>
      </trkpt>
      <trkpt lat="44.16405" lon="2.94642">
        <ele>717.1</ele>
        <time>2025-08-31T10:15:28.000Z</time>
      </trkpt>
      <trkpt lat="44.16396" lon="2.94641">
        <ele>718</ele>
        <time>2025-08-31T10:15:32.000Z</time>
      </trkpt>
      <trkpt lat="44.16387" lon="2.94638">
        <ele>718.6</ele>
        <time>2025-08-31T10:15:35.000Z</time>
      </trkpt>
      <trkpt lat="44.16376" lon="2.94635">
        <ele>719.4</ele>
        <time>2025-08-31T10:15:39.000Z</time>
      </trkpt>
      <trkpt lat="44.16367" lon="2.94632">
        <ele>720.3</ele>
        <time>2025-08-31T10:15:43.000Z</time>
      </trkpt>
      <trkpt lat="44.16357" lon="2.94629">
        <ele>721.2</ele>
        <time>2025-08-31T10:15:47.000Z</time>
      </trkpt>
      <trkpt lat="44.16347" lon="2.94626">
        <ele>722.1</ele>
        <time>2025-08-31T10:15:51.000Z</time>
      </trkpt>
      <trkpt lat="44.16337" lon="2.94619">
        <ele>722.8</ele>
        <time>2025-08-31T10:15:54.000Z</time>
      </trkpt>
      <trkpt lat="44.1633" lon="2.9461">
        <ele>723.5</ele>
        <time>2025-08-31T10:15:57.000Z</time>
      </trkpt>
      <trkpt lat="44.16322" lon="2.94597">
        <ele>724.6</ele>
        <time>2025-08-31T10:16:01.000Z</time>
      </trkpt>
      <trkpt lat="44.16315" lon="2.94588">
        <ele>725.6</ele>
        <time>2025-08-31T10:16:05.000Z</time>
      </trkpt>
      <trkpt lat="44.1631" lon="2.94577">
        <ele>726.6</ele>
        <time>2025-08-31T10:16:09.000Z</time>
      </trkpt>
      <trkpt lat="44.1631" lon="2.94562">
        <ele>727.6</ele>
        <time>2025-08-31T10:16:14.000Z</time>
      </trkpt>
      <trkpt lat="44.16313" lon="2.94548">
        <ele>728.8</ele>
        <time>2025-08-31T10:16:19.000Z</time>
      </trkpt>
      <trkpt lat="44.16316" lon="2.94535">
        <ele>729.8</ele>
        <time>2025-08-31T10:16:24.000Z</time>
      </trkpt>
      <trkpt lat="44.1632" lon="2.9452">
        <ele>730.9</ele>
        <time>2025-08-31T10:16:29.000Z</time>
      </trkpt>
      <trkpt lat="44.16321" lon="2.94505">
        <ele>731.8</ele>
        <time>2025-08-31T10:16:34.000Z</time>
      </trkpt>
      <trkpt lat="44.16319" lon="2.9449">
        <ele>732.6</ele>
        <time>2025-08-31T10:16:38.000Z</time>
      </trkpt>
      <trkpt lat="44.1632" lon="2.94475">
        <ele>733.3</ele>
        <time>2025-08-31T10:16:42.000Z</time>
      </trkpt>
      <trkpt lat="44.1632" lon="2.94461">
        <ele>734</ele>
        <time>2025-08-31T10:16:46.000Z</time>
      </trkpt>
      <trkpt lat="44.16317" lon="2.94448">
        <ele>734.8</ele>
        <time>2025-08-31T10:16:50.000Z</time>
      </trkpt>
      <trkpt lat="44.16314" lon="2.94434">
        <ele>735.5</ele>
        <time>2025-08-31T10:16:54.000Z</time>
      </trkpt>
      <trkpt lat="44.16311" lon="2.94421">
        <ele>736.7</ele>
        <time>2025-08-31T10:16:59.000Z</time>
      </trkpt>
      <trkpt lat="44.16305" lon="2.94406">
        <ele>738.1</ele>
        <time>2025-08-31T10:17:06.000Z</time>
      </trkpt>
      <trkpt lat="44.16303" lon="2.94394">
        <ele>739.2</ele>
        <time>2025-08-31T10:17:12.000Z</time>
      </trkpt>
      <trkpt lat="44.16302" lon="2.9438">
        <ele>740.2</ele>
        <time>2025-08-31T10:17:17.000Z</time>
      </trkpt>
      <trkpt lat="44.16301" lon="2.94367">
        <ele>741.4</ele>
        <time>2025-08-31T10:17:22.000Z</time>
      </trkpt>
      <trkpt lat="44.16301" lon="2.94353">
        <ele>742.2</ele>
        <time>2025-08-31T10:17:26.000Z</time>
      </trkpt>
      <trkpt lat="44.163" lon="2.94338">
        <ele>743.1</ele>
        <time>2025-08-31T10:17:30.000Z</time>
      </trkpt>
      <trkpt lat="44.16302" lon="2.94324">
        <ele>744.1</ele>
        <time>2025-08-31T10:17:34.000Z</time>
      </trkpt>
      <trkpt lat="44.16302" lon="2.94311">
        <ele>745.1</ele>
        <time>2025-08-31T10:17:38.000Z</time>
      </trkpt>
      <trkpt lat="44.16304" lon="2.94296">
        <ele>746.5</ele>
        <time>2025-08-31T10:17:44.000Z</time>
      </trkpt>
      <trkpt lat="44.16308" lon="2.94281">
        <ele>747.7</ele>
        <time>2025-08-31T10:17:49.000Z</time>
      </trkpt>
      <trkpt lat="44.16312" lon="2.94267">
        <ele>749</ele>
        <time>2025-08-31T10:17:55.000Z</time>
      </trkpt>
      <trkpt lat="44.16316" lon="2.94254">
        <ele>750.1</ele>
        <time>2025-08-31T10:18:00.000Z</time>
      </trkpt>
      <trkpt lat="44.16319" lon="2.9424">
        <ele>751.2</ele>
        <time>2025-08-31T10:18:05.000Z</time>
      </trkpt>
      <trkpt lat="44.16321" lon="2.94227">
        <ele>752.1</ele>
        <time>2025-08-31T10:18:09.000Z</time>
      </trkpt>
      <trkpt lat="44.16325" lon="2.94216">
        <ele>753</ele>
        <time>2025-08-31T10:18:13.000Z</time>
      </trkpt>
      <trkpt lat="44.16328" lon="2.94202">
        <ele>754.3</ele>
        <time>2025-08-31T10:18:19.000Z</time>
      </trkpt>
      <trkpt lat="44.16329" lon="2.94189">
        <ele>755.4</ele>
        <time>2025-08-31T10:18:24.000Z</time>
      </trkpt>
      <trkpt lat="44.16332" lon="2.94177">
        <ele>756.6</ele>
        <time>2025-08-31T10:18:29.000Z</time>
      </trkpt>
      <trkpt lat="44.16335" lon="2.94164">
        <ele>758</ele>
        <time>2025-08-31T10:18:35.000Z</time>
      </trkpt>
      <trkpt lat="44.16339" lon="2.94149">
        <ele>759</ele>
        <time>2025-08-31T10:18:40.000Z</time>
      </trkpt>
      <trkpt lat="44.16344" lon="2.94136">
        <ele>760.2</ele>
        <time>2025-08-31T10:18:45.000Z</time>
      </trkpt>
      <trkpt lat="44.16347" lon="2.94124">
        <ele>761</ele>
        <time>2025-08-31T10:18:49.000Z</time>
      </trkpt>
      <trkpt lat="44.16351" lon="2.94112">
        <ele>762</ele>
        <time>2025-08-31T10:18:53.000Z</time>
      </trkpt>
      <trkpt lat="44.16356" lon="2.94101">
        <ele>762.9</ele>
        <time>2025-08-31T10:18:57.000Z</time>
      </trkpt>
      <trkpt lat="44.16362" lon="2.94089">
        <ele>763.8</ele>
        <time>2025-08-31T10:19:01.000Z</time>
      </trkpt>
      <trkpt lat="44.16368" lon="2.94079">
        <ele>764.8</ele>
        <time>2025-08-31T10:19:05.000Z</time>
      </trkpt>
      <trkpt lat="44.16374" lon="2.94068">
        <ele>765.7</ele>
        <time>2025-08-31T10:19:09.000Z</time>
      </trkpt>
      <trkpt lat="44.16379" lon="2.94056">
        <ele>766.8</ele>
        <time>2025-08-31T10:19:13.000Z</time>
      </trkpt>
      <trkpt lat="44.16386" lon="2.94046">
        <ele>767.9</ele>
        <time>2025-08-31T10:19:17.000Z</time>
      </trkpt>
      <trkpt lat="44.16391" lon="2.94035">
        <ele>768.8</ele>
        <time>2025-08-31T10:19:21.000Z</time>
      </trkpt>
      <trkpt lat="44.16397" lon="2.94024">
        <ele>769.7</ele>
        <time>2025-08-31T10:19:25.000Z</time>
      </trkpt>
      <trkpt lat="44.16404" lon="2.94013">
        <ele>770.6</ele>
        <time>2025-08-31T10:19:29.000Z</time>
      </trkpt>
      <trkpt lat="44.16414" lon="2.94005">
        <ele>771.6</ele>
        <time>2025-08-31T10:19:33.000Z</time>
      </trkpt>
      <trkpt lat="44.16424" lon="2.94012">
        <ele>772.6</ele>
        <time>2025-08-31T10:19:37.000Z</time>
      </trkpt>
      <trkpt lat="44.16426" lon="2.94025">
        <ele>773.5</ele>
        <time>2025-08-31T10:19:41.000Z</time>
      </trkpt>
      <trkpt lat="44.16429" lon="2.94037">
        <ele>774.4</ele>
        <time>2025-08-31T10:19:45.000Z</time>
      </trkpt>
      <trkpt lat="44.16432" lon="2.9405">
        <ele>775.3</ele>
        <time>2025-08-31T10:19:49.000Z</time>
      </trkpt>
      <trkpt lat="44.16436" lon="2.94063">
        <ele>776.2</ele>
        <time>2025-08-31T10:19:53.000Z</time>
      </trkpt>
      <trkpt lat="44.16439" lon="2.94075">
        <ele>776.9</ele>
        <time>2025-08-31T10:19:57.000Z</time>
      </trkpt>
      <trkpt lat="44.16442" lon="2.94089">
        <ele>777.8</ele>
        <time>2025-08-31T10:20:02.000Z</time>
      </trkpt>
      <trkpt lat="44.16444" lon="2.94102">
        <ele>778.6</ele>
        <time>2025-08-31T10:20:07.000Z</time>
      </trkpt>
      <trkpt lat="44.16444" lon="2.94117">
        <ele>779.4</ele>
        <time>2025-08-31T10:20:12.000Z</time>
      </trkpt>
      <trkpt lat="44.16441" lon="2.9413">
        <ele>780.4</ele>
        <time>2025-08-31T10:20:18.000Z</time>
      </trkpt>
      <trkpt lat="44.16436" lon="2.9414">
        <ele>781.1</ele>
        <time>2025-08-31T10:20:23.000Z</time>
      </trkpt>
      <trkpt lat="44.16434" lon="2.94153">
        <ele>781.7</ele>
        <time>2025-08-31T10:20:27.000Z</time>
      </trkpt>
      <trkpt lat="44.16431" lon="2.94166">
        <ele>782.5</ele>
        <time>2025-08-31T10:20:32.000Z</time>
      </trkpt>
      <trkpt lat="44.16436" lon="2.94179">
        <ele>783.3</ele>
        <time>2025-08-31T10:20:37.000Z</time>
      </trkpt>
      <trkpt lat="44.16445" lon="2.9418">
        <ele>784.1</ele>
        <time>2025-08-31T10:20:42.000Z</time>
      </trkpt>
      <trkpt lat="44.16455" lon="2.94173">
        <ele>785.3</ele>
        <time>2025-08-31T10:20:49.000Z</time>
      </trkpt>
      <trkpt lat="44.16462" lon="2.94162">
        <ele>786.3</ele>
        <time>2025-08-31T10:20:54.000Z</time>
      </trkpt>
      <trkpt lat="44.16468" lon="2.94153">
        <ele>787</ele>
        <time>2025-08-31T10:20:58.000Z</time>
      </trkpt>
      <trkpt lat="44.16475" lon="2.94143">
        <ele>787.7</ele>
        <time>2025-08-31T10:21:02.000Z</time>
      </trkpt>
      <trkpt lat="44.16483" lon="2.94135">
        <ele>788.4</ele>
        <time>2025-08-31T10:21:06.000Z</time>
      </trkpt>
      <trkpt lat="44.16493" lon="2.94132">
        <ele>789.3</ele>
        <time>2025-08-31T10:21:11.000Z</time>
      </trkpt>
      <trkpt lat="44.16502" lon="2.94129">
        <ele>790</ele>
        <time>2025-08-31T10:21:15.000Z</time>
      </trkpt>
      <trkpt lat="44.16511" lon="2.94127">
        <ele>790.7</ele>
        <time>2025-08-31T10:21:19.000Z</time>
      </trkpt>
      <trkpt lat="44.16521" lon="2.94128">
        <ele>791.5</ele>
        <time>2025-08-31T10:21:23.000Z</time>
      </trkpt>
      <trkpt lat="44.1653" lon="2.94127">
        <ele>792.2</ele>
        <time>2025-08-31T10:21:27.000Z</time>
      </trkpt>
      <trkpt lat="44.1654" lon="2.94126">
        <ele>792.9</ele>
        <time>2025-08-31T10:21:31.000Z</time>
      </trkpt>
      <trkpt lat="44.1655" lon="2.94125">
        <ele>793.6</ele>
        <time>2025-08-31T10:21:35.000Z</time>
      </trkpt>
      <trkpt lat="44.16562" lon="2.94122">
        <ele>794.3</ele>
        <time>2025-08-31T10:21:39.000Z</time>
      </trkpt>
      <trkpt lat="44.16573" lon="2.94119">
        <ele>794.9</ele>
        <time>2025-08-31T10:21:43.000Z</time>
      </trkpt>
      <trkpt lat="44.16583" lon="2.94116">
        <ele>795.4</ele>
        <time>2025-08-31T10:21:46.000Z</time>
      </trkpt>
      <trkpt lat="44.16594" lon="2.9411">
        <ele>796.1</ele>
        <time>2025-08-31T10:21:50.000Z</time>
      </trkpt>
      <trkpt lat="44.16603" lon="2.94104">
        <ele>796.7</ele>
        <time>2025-08-31T10:21:54.000Z</time>
      </trkpt>
      <trkpt lat="44.16611" lon="2.94098">
        <ele>797.5</ele>
        <time>2025-08-31T10:21:58.000Z</time>
      </trkpt>
      <trkpt lat="44.1662" lon="2.94089">
        <ele>798.5</ele>
        <time>2025-08-31T10:22:03.000Z</time>
      </trkpt>
      <trkpt lat="44.16627" lon="2.94082">
        <ele>799.2</ele>
        <time>2025-08-31T10:22:07.000Z</time>
      </trkpt>
      <trkpt lat="44.16634" lon="2.94073">
        <ele>799.9</ele>
        <time>2025-08-31T10:22:11.000Z</time>
      </trkpt>
      <trkpt lat="44.16641" lon="2.94061">
        <ele>800.9</ele>
        <time>2025-08-31T10:22:16.000Z</time>
      </trkpt>
      <trkpt lat="44.16646" lon="2.9405">
        <ele>801.6</ele>
        <time>2025-08-31T10:22:20.000Z</time>
      </trkpt>
      <trkpt lat="44.16653" lon="2.94038">
        <ele>802.5</ele>
        <time>2025-08-31T10:22:24.000Z</time>
      </trkpt>
      <trkpt lat="44.1666" lon="2.94027">
        <ele>803.4</ele>
        <time>2025-08-31T10:22:28.000Z</time>
      </trkpt>
      <trkpt lat="44.16666" lon="2.94018">
        <ele>804.3</ele>
        <time>2025-08-31T10:22:32.000Z</time>
      </trkpt>
      <trkpt lat="44.16669" lon="2.94006">
        <ele>805.1</ele>
        <time>2025-08-31T10:22:36.000Z</time>
      </trkpt>
      <trkpt lat="44.16674" lon="2.93993">
        <ele>805.9</ele>
        <time>2025-08-31T10:22:40.000Z</time>
      </trkpt>
      <trkpt lat="44.16679" lon="2.9398">
        <ele>806.7</ele>
        <time>2025-08-31T10:22:44.000Z</time>
      </trkpt>
      <trkpt lat="44.16684" lon="2.93968">
        <ele>807.6</ele>
        <time>2025-08-31T10:22:48.000Z</time>
      </trkpt>
      <trkpt lat="44.16687" lon="2.93956">
        <ele>808.5</ele>
        <time>2025-08-31T10:22:52.000Z</time>
      </trkpt>
      <trkpt lat="44.1669" lon="2.93943">
        <ele>809.6</ele>
        <time>2025-08-31T10:22:56.000Z</time>
      </trkpt>
      <trkpt lat="44.16694" lon="2.93931">
        <ele>810.7</ele>
        <time>2025-08-31T10:23:00.000Z</time>
      </trkpt>
      <trkpt lat="44.16696" lon="2.93918">
        <ele>811.7</ele>
        <time>2025-08-31T10:23:04.000Z</time>
      </trkpt>
      <trkpt lat="44.167" lon="2.93905">
        <ele>812.8</ele>
        <time>2025-08-31T10:23:08.000Z</time>
      </trkpt>
      <trkpt lat="44.16705" lon="2.93891">
        <ele>813.8</ele>
        <time>2025-08-31T10:23:12.000Z</time>
      </trkpt>
      <trkpt lat="44.16712" lon="2.93878">
        <ele>814.8</ele>
        <time>2025-08-31T10:23:16.000Z</time>
      </trkpt>
      <trkpt lat="44.16718" lon="2.93869">
        <ele>815.5</ele>
        <time>2025-08-31T10:23:19.000Z</time>
      </trkpt>
      <trkpt lat="44.16724" lon="2.93857">
        <ele>816.6</ele>
        <time>2025-08-31T10:23:23.000Z</time>
      </trkpt>
      <trkpt lat="44.1673" lon="2.93846">
        <ele>817.7</ele>
        <time>2025-08-31T10:23:27.000Z</time>
      </trkpt>
      <trkpt lat="44.16737" lon="2.93835">
        <ele>818.8</ele>
        <time>2025-08-31T10:23:31.000Z</time>
      </trkpt>
      <trkpt lat="44.16745" lon="2.9383">
        <ele>819.9</ele>
        <time>2025-08-31T10:23:35.000Z</time>
      </trkpt>
      <trkpt lat="44.16755" lon="2.93827">
        <ele>821.2</ele>
        <time>2025-08-31T10:23:39.000Z</time>
      </trkpt>
      <trkpt lat="44.16764" lon="2.93828">
        <ele>822.3</ele>
        <time>2025-08-31T10:23:43.000Z</time>
      </trkpt>
      <trkpt lat="44.16774" lon="2.93831">
        <ele>823.7</ele>
        <time>2025-08-31T10:23:48.000Z</time>
      </trkpt>
      <trkpt lat="44.16784" lon="2.93834">
        <ele>824.7</ele>
        <time>2025-08-31T10:23:52.000Z</time>
      </trkpt>
      <trkpt lat="44.16793" lon="2.93838">
        <ele>826</ele>
        <time>2025-08-31T10:23:57.000Z</time>
      </trkpt>
      <trkpt lat="44.16803" lon="2.93841">
        <ele>827.3</ele>
        <time>2025-08-31T10:24:03.000Z</time>
      </trkpt>
      <trkpt lat="44.16812" lon="2.93846">
        <ele>828.3</ele>
        <time>2025-08-31T10:24:08.000Z</time>
      </trkpt>
      <trkpt lat="44.16821" lon="2.93848">
        <ele>829.2</ele>
        <time>2025-08-31T10:24:13.000Z</time>
      </trkpt>
      <trkpt lat="44.1683" lon="2.93852">
        <ele>830.2</ele>
        <time>2025-08-31T10:24:18.000Z</time>
      </trkpt>
      <trkpt lat="44.1684" lon="2.93854">
        <ele>831</ele>
        <time>2025-08-31T10:24:23.000Z</time>
      </trkpt>
      <trkpt lat="44.1685" lon="2.93855">
        <ele>831.9</ele>
        <time>2025-08-31T10:24:28.000Z</time>
      </trkpt>
      <trkpt lat="44.1686" lon="2.93858">
        <ele>832.8</ele>
        <time>2025-08-31T10:24:33.000Z</time>
      </trkpt>
      <trkpt lat="44.16869" lon="2.9386">
        <ele>833.8</ele>
        <time>2025-08-31T10:24:38.000Z</time>
      </trkpt>
      <trkpt lat="44.1688" lon="2.93861">
        <ele>834.7</ele>
        <time>2025-08-31T10:24:43.000Z</time>
      </trkpt>
      <trkpt lat="44.16891" lon="2.93861">
        <ele>835.6</ele>
        <time>2025-08-31T10:24:48.000Z</time>
      </trkpt>
      <trkpt lat="44.16902" lon="2.93859">
        <ele>836.7</ele>
        <time>2025-08-31T10:24:53.000Z</time>
      </trkpt>
      <trkpt lat="44.16912" lon="2.93859">
        <ele>837.6</ele>
        <time>2025-08-31T10:24:58.000Z</time>
      </trkpt>
      <trkpt lat="44.16922" lon="2.93857">
        <ele>838.6</ele>
        <time>2025-08-31T10:25:03.000Z</time>
      </trkpt>
      <trkpt lat="44.16932" lon="2.93856">
        <ele>839.6</ele>
        <time>2025-08-31T10:25:08.000Z</time>
      </trkpt>
      <trkpt lat="44.16941" lon="2.93855">
        <ele>840.3</ele>
        <time>2025-08-31T10:25:12.000Z</time>
      </trkpt>
      <trkpt lat="44.16951" lon="2.93854">
        <ele>841</ele>
        <time>2025-08-31T10:25:16.000Z</time>
      </trkpt>
      <trkpt lat="44.16961" lon="2.93854">
        <ele>841.7</ele>
        <time>2025-08-31T10:25:20.000Z</time>
      </trkpt>
      <trkpt lat="44.16972" lon="2.93854">
        <ele>842.6</ele>
        <time>2025-08-31T10:25:24.000Z</time>
      </trkpt>
      <trkpt lat="44.16982" lon="2.93855">
        <ele>843.4</ele>
        <time>2025-08-31T10:25:28.000Z</time>
      </trkpt>
      <trkpt lat="44.16992" lon="2.93854">
        <ele>844.1</ele>
        <time>2025-08-31T10:25:32.000Z</time>
      </trkpt>
      <trkpt lat="44.17002" lon="2.93852">
        <ele>844.8</ele>
        <time>2025-08-31T10:25:36.000Z</time>
      </trkpt>
      <trkpt lat="44.17012" lon="2.93851">
        <ele>845.4</ele>
        <time>2025-08-31T10:25:40.000Z</time>
      </trkpt>
      <trkpt lat="44.17022" lon="2.9385">
        <ele>846.1</ele>
        <time>2025-08-31T10:25:44.000Z</time>
      </trkpt>
      <trkpt lat="44.17032" lon="2.9385">
        <ele>846.8</ele>
        <time>2025-08-31T10:25:48.000Z</time>
      </trkpt>
      <trkpt lat="44.17042" lon="2.93848">
        <ele>847.5</ele>
        <time>2025-08-31T10:25:52.000Z</time>
      </trkpt>
      <trkpt lat="44.17054" lon="2.93848">
        <ele>848.2</ele>
        <time>2025-08-31T10:25:56.000Z</time>
      </trkpt>
      <trkpt lat="44.17063" lon="2.93847">
        <ele>848.7</ele>
        <time>2025-08-31T10:25:59.000Z</time>
      </trkpt>
      <trkpt lat="44.17073" lon="2.93847">
        <ele>849.3</ele>
        <time>2025-08-31T10:26:02.000Z</time>
      </trkpt>
      <trkpt lat="44.17082" lon="2.93846">
        <ele>850</ele>
        <time>2025-08-31T10:26:05.000Z</time>
      </trkpt>
      <trkpt lat="44.17091" lon="2.93844">
        <ele>850.5</ele>
        <time>2025-08-31T10:26:08.000Z</time>
      </trkpt>
      <trkpt lat="44.17101" lon="2.93843">
        <ele>851</ele>
        <time>2025-08-31T10:26:11.000Z</time>
      </trkpt>
      <trkpt lat="44.1711" lon="2.93842">
        <ele>851.6</ele>
        <time>2025-08-31T10:26:14.000Z</time>
      </trkpt>
      <trkpt lat="44.1712" lon="2.93839">
        <ele>852.1</ele>
        <time>2025-08-31T10:26:17.000Z</time>
      </trkpt>
      <trkpt lat="44.17129" lon="2.93835">
        <ele>852.7</ele>
        <time>2025-08-31T10:26:20.000Z</time>
      </trkpt>
      <trkpt lat="44.17138" lon="2.93831">
        <ele>853.4</ele>
        <time>2025-08-31T10:26:23.000Z</time>
      </trkpt>
      <trkpt lat="44.17147" lon="2.93827">
        <ele>854</ele>
        <time>2025-08-31T10:26:26.000Z</time>
      </trkpt>
      <trkpt lat="44.17157" lon="2.93819">
        <ele>854.7</ele>
        <time>2025-08-31T10:26:30.000Z</time>
      </trkpt>
      <trkpt lat="44.17167" lon="2.93811">
        <ele>855.5</ele>
        <time>2025-08-31T10:26:34.000Z</time>
      </trkpt>
      <trkpt lat="44.17176" lon="2.93803">
        <ele>856.3</ele>
        <time>2025-08-31T10:26:38.000Z</time>
      </trkpt>
      <trkpt lat="44.17184" lon="2.93794">
        <ele>857.2</ele>
        <time>2025-08-31T10:26:42.000Z</time>
      </trkpt>
      <trkpt lat="44.17192" lon="2.93785">
        <ele>858</ele>
        <time>2025-08-31T10:26:46.000Z</time>
      </trkpt>
      <trkpt lat="44.172" lon="2.93778">
        <ele>858.9</ele>
        <time>2025-08-31T10:26:50.000Z</time>
      </trkpt>
      <trkpt lat="44.17208" lon="2.93769">
        <ele>859.8</ele>
        <time>2025-08-31T10:26:54.000Z</time>
      </trkpt>
      <trkpt lat="44.17216" lon="2.93761">
        <ele>860.7</ele>
        <time>2025-08-31T10:26:58.000Z</time>
      </trkpt>
      <trkpt lat="44.17224" lon="2.93752">
        <ele>861.7</ele>
        <time>2025-08-31T10:27:02.000Z</time>
      </trkpt>
      <trkpt lat="44.17231" lon="2.93741">
        <ele>862.6</ele>
        <time>2025-08-31T10:27:06.000Z</time>
      </trkpt>
      <trkpt lat="44.17237" lon="2.93731">
        <ele>863.6</ele>
        <time>2025-08-31T10:27:10.000Z</time>
      </trkpt>
      <trkpt lat="44.17244" lon="2.93721">
        <ele>864.5</ele>
        <time>2025-08-31T10:27:14.000Z</time>
      </trkpt>
      <trkpt lat="44.17251" lon="2.93711">
        <ele>865.4</ele>
        <time>2025-08-31T10:27:18.000Z</time>
      </trkpt>
      <trkpt lat="44.17258" lon="2.937">
        <ele>866.2</ele>
        <time>2025-08-31T10:27:22.000Z</time>
      </trkpt>
      <trkpt lat="44.17265" lon="2.93689">
        <ele>867</ele>
        <time>2025-08-31T10:27:26.000Z</time>
      </trkpt>
      <trkpt lat="44.17272" lon="2.93677">
        <ele>867.8</ele>
        <time>2025-08-31T10:27:30.000Z</time>
      </trkpt>
      <trkpt lat="44.17279" lon="2.93665">
        <ele>868.6</ele>
        <time>2025-08-31T10:27:34.000Z</time>
      </trkpt>
      <trkpt lat="44.17286" lon="2.93655">
        <ele>869.5</ele>
        <time>2025-08-31T10:27:38.000Z</time>
      </trkpt>
      <trkpt lat="44.17293" lon="2.93645">
        <ele>870.4</ele>
        <time>2025-08-31T10:27:42.000Z</time>
      </trkpt>
      <trkpt lat="44.17302" lon="2.93635">
        <ele>871.5</ele>
        <time>2025-08-31T10:27:47.000Z</time>
      </trkpt>
      <trkpt lat="44.17309" lon="2.93626">
        <ele>872.3</ele>
        <time>2025-08-31T10:27:51.000Z</time>
      </trkpt>
      <trkpt lat="44.17316" lon="2.93618">
        <ele>873.1</ele>
        <time>2025-08-31T10:27:55.000Z</time>
      </trkpt>
      <trkpt lat="44.17323" lon="2.93609">
        <ele>874</ele>
        <time>2025-08-31T10:27:59.000Z</time>
      </trkpt>
      <trkpt lat="44.17331" lon="2.93601">
        <ele>874.8</ele>
        <time>2025-08-31T10:28:03.000Z</time>
      </trkpt>
      <trkpt lat="44.17338" lon="2.93593">
        <ele>875.6</ele>
        <time>2025-08-31T10:28:07.000Z</time>
      </trkpt>
      <trkpt lat="44.17346" lon="2.93586">
        <ele>876.5</ele>
        <time>2025-08-31T10:28:11.000Z</time>
      </trkpt>
      <trkpt lat="44.17355" lon="2.93579">
        <ele>877.3</ele>
        <time>2025-08-31T10:28:15.000Z</time>
      </trkpt>
      <trkpt lat="44.17364" lon="2.93572">
        <ele>878.3</ele>
        <time>2025-08-31T10:28:20.000Z</time>
      </trkpt>
      <trkpt lat="44.17374" lon="2.93567">
        <ele>879.5</ele>
        <time>2025-08-31T10:28:25.000Z</time>
      </trkpt>
      <trkpt lat="44.17383" lon="2.93562">
        <ele>880.6</ele>
        <time>2025-08-31T10:28:30.000Z</time>
      </trkpt>
      <trkpt lat="44.17393" lon="2.93558">
        <ele>881.8</ele>
        <time>2025-08-31T10:28:35.000Z</time>
      </trkpt>
      <trkpt lat="44.17403" lon="2.93555">
        <ele>882.8</ele>
        <time>2025-08-31T10:28:39.000Z</time>
      </trkpt>
      <trkpt lat="44.17413" lon="2.93552">
        <ele>883.6</ele>
        <time>2025-08-31T10:28:43.000Z</time>
      </trkpt>
      <trkpt lat="44.17422" lon="2.93548">
        <ele>884.5</ele>
        <time>2025-08-31T10:28:47.000Z</time>
      </trkpt>
      <trkpt lat="44.1743" lon="2.93544">
        <ele>885.4</ele>
        <time>2025-08-31T10:28:51.000Z</time>
      </trkpt>
      <trkpt lat="44.1744" lon="2.93538">
        <ele>886.4</ele>
        <time>2025-08-31T10:28:56.000Z</time>
      </trkpt>
      <trkpt lat="44.17449" lon="2.93532">
        <ele>887.2</ele>
        <time>2025-08-31T10:29:00.000Z</time>
      </trkpt>
      <trkpt lat="44.17458" lon="2.93526">
        <ele>888.1</ele>
        <time>2025-08-31T10:29:04.000Z</time>
      </trkpt>
      <trkpt lat="44.17466" lon="2.9352">
        <ele>888.9</ele>
        <time>2025-08-31T10:29:08.000Z</time>
      </trkpt>
      <trkpt lat="44.17474" lon="2.93513">
        <ele>889.7</ele>
        <time>2025-08-31T10:29:12.000Z</time>
      </trkpt>
      <trkpt lat="44.17481" lon="2.93505">
        <ele>890.5</ele>
        <time>2025-08-31T10:29:16.000Z</time>
      </trkpt>
      <trkpt lat="44.17488" lon="2.93498">
        <ele>891.3</ele>
        <time>2025-08-31T10:29:20.000Z</time>
      </trkpt>
      <trkpt lat="44.17495" lon="2.93489">
        <ele>892</ele>
        <time>2025-08-31T10:29:24.000Z</time>
      </trkpt>
      <trkpt lat="44.17502" lon="2.9348">
        <ele>892.8</ele>
        <time>2025-08-31T10:29:28.000Z</time>
      </trkpt>
      <trkpt lat="44.1751" lon="2.93471">
        <ele>893.7</ele>
        <time>2025-08-31T10:29:32.000Z</time>
      </trkpt>
      <trkpt lat="44.17517" lon="2.93463">
        <ele>894.5</ele>
        <time>2025-08-31T10:29:36.000Z</time>
      </trkpt>
      <trkpt lat="44.17524" lon="2.93453">
        <ele>895.4</ele>
        <time>2025-08-31T10:29:40.000Z</time>
      </trkpt>
      <trkpt lat="44.17531" lon="2.93445">
        <ele>896.2</ele>
        <time>2025-08-31T10:29:44.000Z</time>
      </trkpt>
      <trkpt lat="44.17538" lon="2.93437">
        <ele>896.8</ele>
        <time>2025-08-31T10:29:48.000Z</time>
      </trkpt>
      <trkpt lat="44.17546" lon="2.93429">
        <ele>897.6</ele>
        <time>2025-08-31T10:29:52.000Z</time>
      </trkpt>
      <trkpt lat="44.17553" lon="2.9342">
        <ele>898.4</ele>
        <time>2025-08-31T10:29:56.000Z</time>
      </trkpt>
      <trkpt lat="44.17561" lon="2.93411">
        <ele>899.2</ele>
        <time>2025-08-31T10:30:00.000Z</time>
      </trkpt>
      <trkpt lat="44.17568" lon="2.93401">
        <ele>900</ele>
        <time>2025-08-31T10:30:04.000Z</time>
      </trkpt>
      <trkpt lat="44.17574" lon="2.93391">
        <ele>900.8</ele>
        <time>2025-08-31T10:30:08.000Z</time>
      </trkpt>
      <trkpt lat="44.17581" lon="2.9338">
        <ele>901.5</ele>
        <time>2025-08-31T10:30:12.000Z</time>
      </trkpt>
      <trkpt lat="44.17587" lon="2.93368">
        <ele>902.3</ele>
        <time>2025-08-31T10:30:16.000Z</time>
      </trkpt>
      <trkpt lat="44.17592" lon="2.93356">
        <ele>903.1</ele>
        <time>2025-08-31T10:30:20.000Z</time>
      </trkpt>
      <trkpt lat="44.17598" lon="2.93345">
        <ele>903.7</ele>
        <time>2025-08-31T10:30:24.000Z</time>
      </trkpt>
      <trkpt lat="44.17604" lon="2.93333">
        <ele>904.3</ele>
        <time>2025-08-31T10:30:28.000Z</time>
      </trkpt>
      <trkpt lat="44.1761" lon="2.93323">
        <ele>904.8</ele>
        <time>2025-08-31T10:30:32.000Z</time>
      </trkpt>
      <trkpt lat="44.17616" lon="2.93311">
        <ele>905.4</ele>
        <time>2025-08-31T10:30:36.000Z</time>
      </trkpt>
      <trkpt lat="44.17623" lon="2.93298">
        <ele>906.1</ele>
        <time>2025-08-31T10:30:40.000Z</time>
      </trkpt>
      <trkpt lat="44.1763" lon="2.93285">
        <ele>906.7</ele>
        <time>2025-08-31T10:30:44.000Z</time>
      </trkpt>
      <trkpt lat="44.17636" lon="2.93275">
        <ele>907.1</ele>
        <time>2025-08-31T10:30:47.000Z</time>
      </trkpt>
      <trkpt lat="44.17646" lon="2.93265">
        <ele>907.6</ele>
        <time>2025-08-31T10:30:51.000Z</time>
      </trkpt>
      <trkpt lat="44.17655" lon="2.9326">
        <ele>908</ele>
        <time>2025-08-31T10:30:54.000Z</time>
      </trkpt>
      <trkpt lat="44.17664" lon="2.9326">
        <ele>908.5</ele>
        <time>2025-08-31T10:30:57.000Z</time>
      </trkpt>
      <trkpt lat="44.17673" lon="2.93266">
        <ele>908.9</ele>
        <time>2025-08-31T10:31:00.000Z</time>
      </trkpt>
      <trkpt lat="44.17681" lon="2.93274">
        <ele>909.5</ele>
        <time>2025-08-31T10:31:03.000Z</time>
      </trkpt>
      <trkpt lat="44.1769" lon="2.93285">
        <ele>910.1</ele>
        <time>2025-08-31T10:31:07.000Z</time>
      </trkpt>
      <trkpt lat="44.17696" lon="2.93294">
        <ele>910.5</ele>
        <time>2025-08-31T10:31:10.000Z</time>
      </trkpt>
      <trkpt lat="44.17704" lon="2.93302">
        <ele>911</ele>
        <time>2025-08-31T10:31:13.000Z</time>
      </trkpt>
      <trkpt lat="44.17712" lon="2.93309">
        <ele>911.5</ele>
        <time>2025-08-31T10:31:16.000Z</time>
      </trkpt>
      <trkpt lat="44.17721" lon="2.93315">
        <ele>912</ele>
        <time>2025-08-31T10:31:19.000Z</time>
      </trkpt>
      <trkpt lat="44.1773" lon="2.9332">
        <ele>912.8</ele>
        <time>2025-08-31T10:31:25.000Z</time>
      </trkpt>
      <trkpt lat="44.17741" lon="2.93322">
        <ele>913.5</ele>
        <time>2025-08-31T10:31:30.000Z</time>
      </trkpt>
      <trkpt lat="44.17752" lon="2.93323">
        <ele>914</ele>
        <time>2025-08-31T10:31:34.000Z</time>
      </trkpt>
      <trkpt lat="44.17764" lon="2.93319">
        <ele>914.6</ele>
        <time>2025-08-31T10:31:38.000Z</time>
      </trkpt>
      <trkpt lat="44.17773" lon="2.93315">
        <ele>915</ele>
        <time>2025-08-31T10:31:41.000Z</time>
      </trkpt>
      <trkpt lat="44.17782" lon="2.93311">
        <ele>915.5</ele>
        <time>2025-08-31T10:31:44.000Z</time>
      </trkpt>
      <trkpt lat="44.17793" lon="2.93305">
        <ele>916</ele>
        <time>2025-08-31T10:31:48.000Z</time>
      </trkpt>
      <trkpt lat="44.17801" lon="2.933">
        <ele>916.5</ele>
        <time>2025-08-31T10:31:51.000Z</time>
      </trkpt>
      <trkpt lat="44.1781" lon="2.93296">
        <ele>917</ele>
        <time>2025-08-31T10:31:54.000Z</time>
      </trkpt>
      <trkpt lat="44.17819" lon="2.93291">
        <ele>917.5</ele>
        <time>2025-08-31T10:31:57.000Z</time>
      </trkpt>
      <trkpt lat="44.17827" lon="2.93286">
        <ele>918.1</ele>
        <time>2025-08-31T10:32:00.000Z</time>
      </trkpt>
      <trkpt lat="44.17836" lon="2.93281">
        <ele>918.6</ele>
        <time>2025-08-31T10:32:03.000Z</time>
      </trkpt>
      <trkpt lat="44.17845" lon="2.93276">
        <ele>919.2</ele>
        <time>2025-08-31T10:32:06.000Z</time>
      </trkpt>
      <trkpt lat="44.17855" lon="2.9327">
        <ele>919.6</ele>
        <time>2025-08-31T10:32:09.000Z</time>
      </trkpt>
      <trkpt lat="44.17864" lon="2.93266">
        <ele>920.1</ele>
        <time>2025-08-31T10:32:12.000Z</time>
      </trkpt>
      <trkpt lat="44.17874" lon="2.93261">
        <ele>920.6</ele>
        <time>2025-08-31T10:32:15.000Z</time>
      </trkpt>
      <trkpt lat="44.17884" lon="2.93256">
        <ele>921</ele>
        <time>2025-08-31T10:32:18.000Z</time>
      </trkpt>
      <trkpt lat="44.17895" lon="2.93252">
        <ele>921.5</ele>
        <time>2025-08-31T10:32:21.000Z</time>
      </trkpt>
      <trkpt lat="44.17905" lon="2.93248">
        <ele>922</ele>
        <time>2025-08-31T10:32:24.000Z</time>
      </trkpt>
      <trkpt lat="44.17916" lon="2.93244">
        <ele>922.4</ele>
        <time>2025-08-31T10:32:27.000Z</time>
      </trkpt>
      <trkpt lat="44.17927" lon="2.93241">
        <ele>922.8</ele>
        <time>2025-08-31T10:32:30.000Z</time>
      </trkpt>
      <trkpt lat="44.17938" lon="2.93237">
        <ele>923.2</ele>
        <time>2025-08-31T10:32:33.000Z</time>
      </trkpt>
      <trkpt lat="44.17949" lon="2.93235">
        <ele>923.6</ele>
        <time>2025-08-31T10:32:36.000Z</time>
      </trkpt>
      <trkpt lat="44.1796" lon="2.93233">
        <ele>924.1</ele>
        <time>2025-08-31T10:32:39.000Z</time>
      </trkpt>
      <trkpt lat="44.17972" lon="2.9323">
        <ele>924.5</ele>
        <time>2025-08-31T10:32:42.000Z</time>
      </trkpt>
      <trkpt lat="44.17984" lon="2.93227">
        <ele>925</ele>
        <time>2025-08-31T10:32:45.000Z</time>
      </trkpt>
      <trkpt lat="44.17995" lon="2.93224">
        <ele>925.5</ele>
        <time>2025-08-31T10:32:48.000Z</time>
      </trkpt>
      <trkpt lat="44.18007" lon="2.9322">
        <ele>926.1</ele>
        <time>2025-08-31T10:32:51.000Z</time>
      </trkpt>
      <trkpt lat="44.18017" lon="2.93216">
        <ele>926.6</ele>
        <time>2025-08-31T10:32:54.000Z</time>
      </trkpt>
      <trkpt lat="44.18028" lon="2.93212">
        <ele>927.1</ele>
        <time>2025-08-31T10:32:57.000Z</time>
      </trkpt>
      <trkpt lat="44.18038" lon="2.93207">
        <ele>927.7</ele>
        <time>2025-08-31T10:33:00.000Z</time>
      </trkpt>
      <trkpt lat="44.18049" lon="2.93201">
        <ele>928.2</ele>
        <time>2025-08-31T10:33:03.000Z</time>
      </trkpt>
      <trkpt lat="44.18059" lon="2.93194">
        <ele>928.8</ele>
        <time>2025-08-31T10:33:06.000Z</time>
      </trkpt>
      <trkpt lat="44.18069" lon="2.93186">
        <ele>929.3</ele>
        <time>2025-08-31T10:33:09.000Z</time>
      </trkpt>
      <trkpt lat="44.18078" lon="2.93179">
        <ele>929.7</ele>
        <time>2025-08-31T10:33:12.000Z</time>
      </trkpt>
      <trkpt lat="44.18087" lon="2.93171">
        <ele>930.2</ele>
        <time>2025-08-31T10:33:15.000Z</time>
      </trkpt>
      <trkpt lat="44.18095" lon="2.93162">
        <ele>930.9</ele>
        <time>2025-08-31T10:33:18.000Z</time>
      </trkpt>
      <trkpt lat="44.18103" lon="2.93152">
        <ele>931.4</ele>
        <time>2025-08-31T10:33:21.000Z</time>
      </trkpt>
      <trkpt lat="44.1811" lon="2.9314">
        <ele>931.9</ele>
        <time>2025-08-31T10:33:24.000Z</time>
      </trkpt>
      <trkpt lat="44.18116" lon="2.93127">
        <ele>932.3</ele>
        <time>2025-08-31T10:33:27.000Z</time>
      </trkpt>
      <trkpt lat="44.18123" lon="2.93114">
        <ele>932.7</ele>
        <time>2025-08-31T10:33:30.000Z</time>
      </trkpt>
      <trkpt lat="44.18129" lon="2.931">
        <ele>933.1</ele>
        <time>2025-08-31T10:33:33.000Z</time>
      </trkpt>
      <trkpt lat="44.18135" lon="2.93086">
        <ele>933.6</ele>
        <time>2025-08-31T10:33:36.000Z</time>
      </trkpt>
      <trkpt lat="44.18142" lon="2.93072">
        <ele>934</ele>
        <time>2025-08-31T10:33:39.000Z</time>
      </trkpt>
      <trkpt lat="44.18148" lon="2.93057">
        <ele>934.4</ele>
        <time>2025-08-31T10:33:42.000Z</time>
      </trkpt>
      <trkpt lat="44.18155" lon="2.93043">
        <ele>934.7</ele>
        <time>2025-08-31T10:33:45.000Z</time>
      </trkpt>
      <trkpt lat="44.18161" lon="2.93029">
        <ele>935</ele>
        <time>2025-08-31T10:33:48.000Z</time>
      </trkpt>
      <trkpt lat="44.18168" lon="2.93014">
        <ele>935.3</ele>
        <time>2025-08-31T10:33:51.000Z</time>
      </trkpt>
      <trkpt lat="44.18175" lon="2.92999">
        <ele>935.5</ele>
        <time>2025-08-31T10:33:54.000Z</time>
      </trkpt>
      <trkpt lat="44.18181" lon="2.92983">
        <ele>935.8</ele>
        <time>2025-08-31T10:33:57.000Z</time>
      </trkpt>
      <trkpt lat="44.18187" lon="2.92967">
        <ele>936.1</ele>
        <time>2025-08-31T10:34:00.000Z</time>
      </trkpt>
      <trkpt lat="44.18192" lon="2.92949">
        <ele>936.4</ele>
        <time>2025-08-31T10:34:03.000Z</time>
      </trkpt>
      <trkpt lat="44.18196" lon="2.92932">
        <ele>936.7</ele>
        <time>2025-08-31T10:34:06.000Z</time>
      </trkpt>
      <trkpt lat="44.182" lon="2.92916">
        <ele>937.1</ele>
        <time>2025-08-31T10:34:09.000Z</time>
      </trkpt>
      <trkpt lat="44.18204" lon="2.929">
        <ele>937.5</ele>
        <time>2025-08-31T10:34:12.000Z</time>
      </trkpt>
      <trkpt lat="44.18208" lon="2.92882">
        <ele>937.9</ele>
        <time>2025-08-31T10:34:15.000Z</time>
      </trkpt>
      <trkpt lat="44.18212" lon="2.92866">
        <ele>938.4</ele>
        <time>2025-08-31T10:34:18.000Z</time>
      </trkpt>
      <trkpt lat="44.18214" lon="2.9285">
        <ele>938.8</ele>
        <time>2025-08-31T10:34:21.000Z</time>
      </trkpt>
      <trkpt lat="44.18217" lon="2.92833">
        <ele>939.3</ele>
        <time>2025-08-31T10:34:24.000Z</time>
      </trkpt>
      <trkpt lat="44.18219" lon="2.92818">
        <ele>939.9</ele>
        <time>2025-08-31T10:34:27.000Z</time>
      </trkpt>
      <trkpt lat="44.18221" lon="2.92803">
        <ele>940.6</ele>
        <time>2025-08-31T10:34:30.000Z</time>
      </trkpt>
      <trkpt lat="44.18223" lon="2.92786">
        <ele>941.2</ele>
        <time>2025-08-31T10:34:33.000Z</time>
      </trkpt>
      <trkpt lat="44.18225" lon="2.92769">
        <ele>941.7</ele>
        <time>2025-08-31T10:34:36.000Z</time>
      </trkpt>
      <trkpt lat="44.1823" lon="2.92753">
        <ele>942.3</ele>
        <time>2025-08-31T10:34:39.000Z</time>
      </trkpt>
      <trkpt lat="44.18235" lon="2.92743">
        <ele>942.6</ele>
        <time>2025-08-31T10:34:41.000Z</time>
      </trkpt>
      <trkpt lat="44.18243" lon="2.92734">
        <ele>942.9</ele>
        <time>2025-08-31T10:34:43.000Z</time>
      </trkpt>
      <trkpt lat="44.18254" lon="2.92728">
        <ele>943.3</ele>
        <time>2025-08-31T10:34:46.000Z</time>
      </trkpt>
      <trkpt lat="44.18266" lon="2.92725">
        <ele>943.6</ele>
        <time>2025-08-31T10:34:49.000Z</time>
      </trkpt>
      <trkpt lat="44.18276" lon="2.9273">
        <ele>944.1</ele>
        <time>2025-08-31T10:34:52.000Z</time>
      </trkpt>
      <trkpt lat="44.18285" lon="2.92736">
        <ele>944.5</ele>
        <time>2025-08-31T10:34:55.000Z</time>
      </trkpt>
      <trkpt lat="44.18292" lon="2.92743">
        <ele>945.1</ele>
        <time>2025-08-31T10:34:58.000Z</time>
      </trkpt>
      <trkpt lat="44.183" lon="2.9275">
        <ele>945.6</ele>
        <time>2025-08-31T10:35:01.000Z</time>
      </trkpt>
      <trkpt lat="44.18308" lon="2.92759">
        <ele>946.2</ele>
        <time>2025-08-31T10:35:04.000Z</time>
      </trkpt>
      <trkpt lat="44.18316" lon="2.92767">
        <ele>946.9</ele>
        <time>2025-08-31T10:35:07.000Z</time>
      </trkpt>
      <trkpt lat="44.18324" lon="2.92776">
        <ele>947.5</ele>
        <time>2025-08-31T10:35:10.000Z</time>
      </trkpt>
      <trkpt lat="44.18334" lon="2.92785">
        <ele>948.2</ele>
        <time>2025-08-31T10:35:13.000Z</time>
      </trkpt>
      <trkpt lat="44.18341" lon="2.92793">
        <ele>948.8</ele>
        <time>2025-08-31T10:35:16.000Z</time>
      </trkpt>
      <trkpt lat="44.18349" lon="2.92801">
        <ele>949.8</ele>
        <time>2025-08-31T10:35:21.000Z</time>
      </trkpt>
      <trkpt lat="44.18357" lon="2.92809">
        <ele>950.7</ele>
        <time>2025-08-31T10:35:26.000Z</time>
      </trkpt>
      <trkpt lat="44.18365" lon="2.92816">
        <ele>951.7</ele>
        <time>2025-08-31T10:35:31.000Z</time>
      </trkpt>
      <trkpt lat="44.18374" lon="2.92822">
        <ele>952.5</ele>
        <time>2025-08-31T10:35:35.000Z</time>
      </trkpt>
      <trkpt lat="44.18382" lon="2.92829">
        <ele>953.2</ele>
        <time>2025-08-31T10:35:39.000Z</time>
      </trkpt>
      <trkpt lat="44.1839" lon="2.92835">
        <ele>954</ele>
        <time>2025-08-31T10:35:43.000Z</time>
      </trkpt>
      <trkpt lat="44.18398" lon="2.92842">
        <ele>954.7</ele>
        <time>2025-08-31T10:35:47.000Z</time>
      </trkpt>
      <trkpt lat="44.18406" lon="2.92849">
        <ele>955.4</ele>
        <time>2025-08-31T10:35:51.000Z</time>
      </trkpt>
      <trkpt lat="44.18415" lon="2.92855">
        <ele>956.1</ele>
        <time>2025-08-31T10:35:55.000Z</time>
      </trkpt>
      <trkpt lat="44.18424" lon="2.92861">
        <ele>956.9</ele>
        <time>2025-08-31T10:35:59.000Z</time>
      </trkpt>
      <trkpt lat="44.18432" lon="2.92866">
        <ele>957.7</ele>
        <time>2025-08-31T10:36:03.000Z</time>
      </trkpt>
      <trkpt lat="44.18441" lon="2.92871">
        <ele>958.4</ele>
        <time>2025-08-31T10:36:07.000Z</time>
      </trkpt>
      <trkpt lat="44.18451" lon="2.92874">
        <ele>959.1</ele>
        <time>2025-08-31T10:36:11.000Z</time>
      </trkpt>
      <trkpt lat="44.18461" lon="2.92877">
        <ele>959.9</ele>
        <time>2025-08-31T10:36:15.000Z</time>
      </trkpt>
      <trkpt lat="44.18471" lon="2.92879">
        <ele>960.5</ele>
        <time>2025-08-31T10:36:19.000Z</time>
      </trkpt>
      <trkpt lat="44.18481" lon="2.92882">
        <ele>961.2</ele>
        <time>2025-08-31T10:36:23.000Z</time>
      </trkpt>
      <trkpt lat="44.18491" lon="2.92883">
        <ele>961.8</ele>
        <time>2025-08-31T10:36:27.000Z</time>
      </trkpt>
      <trkpt lat="44.18502" lon="2.92883">
        <ele>962.7</ele>
        <time>2025-08-31T10:36:31.000Z</time>
      </trkpt>
      <trkpt lat="44.18512" lon="2.92881">
        <ele>963.4</ele>
        <time>2025-08-31T10:36:35.000Z</time>
      </trkpt>
      <trkpt lat="44.18522" lon="2.92877">
        <ele>964.2</ele>
        <time>2025-08-31T10:36:39.000Z</time>
      </trkpt>
      <trkpt lat="44.18532" lon="2.92872">
        <ele>965.1</ele>
        <time>2025-08-31T10:36:43.000Z</time>
      </trkpt>
      <trkpt lat="44.18541" lon="2.92865">
        <ele>965.9</ele>
        <time>2025-08-31T10:36:47.000Z</time>
      </trkpt>
      <trkpt lat="44.1855" lon="2.92856">
        <ele>966.7</ele>
        <time>2025-08-31T10:36:51.000Z</time>
      </trkpt>
      <trkpt lat="44.18557" lon="2.92846">
        <ele>967.6</ele>
        <time>2025-08-31T10:36:55.000Z</time>
      </trkpt>
      <trkpt lat="44.18563" lon="2.92835">
        <ele>968.3</ele>
        <time>2025-08-31T10:36:59.000Z</time>
      </trkpt>
      <trkpt lat="44.18568" lon="2.92823">
        <ele>969</ele>
        <time>2025-08-31T10:37:03.000Z</time>
      </trkpt>
      <trkpt lat="44.18573" lon="2.92811">
        <ele>969.7</ele>
        <time>2025-08-31T10:37:07.000Z</time>
      </trkpt>
      <trkpt lat="44.18576" lon="2.92798">
        <ele>970.4</ele>
        <time>2025-08-31T10:37:11.000Z</time>
      </trkpt>
      <trkpt lat="44.18581" lon="2.92784">
        <ele>971.1</ele>
        <time>2025-08-31T10:37:15.000Z</time>
      </trkpt>
      <trkpt lat="44.18585" lon="2.92769">
        <ele>972</ele>
        <time>2025-08-31T10:37:19.000Z</time>
      </trkpt>
      <trkpt lat="44.1859" lon="2.92754">
        <ele>972.8</ele>
        <time>2025-08-31T10:37:23.000Z</time>
      </trkpt>
      <trkpt lat="44.18594" lon="2.9274">
        <ele>973.6</ele>
        <time>2025-08-31T10:37:27.000Z</time>
      </trkpt>
      <trkpt lat="44.18599" lon="2.92726">
        <ele>974.4</ele>
        <time>2025-08-31T10:37:31.000Z</time>
      </trkpt>
      <trkpt lat="44.18604" lon="2.92713">
        <ele>975.1</ele>
        <time>2025-08-31T10:37:35.000Z</time>
      </trkpt>
      <trkpt lat="44.1861" lon="2.92701">
        <ele>975.8</ele>
        <time>2025-08-31T10:37:39.000Z</time>
      </trkpt>
      <trkpt lat="44.18618" lon="2.9269">
        <ele>976.5</ele>
        <time>2025-08-31T10:37:43.000Z</time>
      </trkpt>
      <trkpt lat="44.18626" lon="2.9268">
        <ele>977.3</ele>
        <time>2025-08-31T10:37:47.000Z</time>
      </trkpt>
      <trkpt lat="44.18634" lon="2.9267">
        <ele>978.2</ele>
        <time>2025-08-31T10:37:51.000Z</time>
      </trkpt>
      <trkpt lat="44.18642" lon="2.92662">
        <ele>979.1</ele>
        <time>2025-08-31T10:37:55.000Z</time>
      </trkpt>
      <trkpt lat="44.18651" lon="2.92652">
        <ele>979.9</ele>
        <time>2025-08-31T10:37:59.000Z</time>
      </trkpt>
      <trkpt lat="44.1866" lon="2.92646">
        <ele>980.8</ele>
        <time>2025-08-31T10:38:03.000Z</time>
      </trkpt>
      <trkpt lat="44.1867" lon="2.92641">
        <ele>981.6</ele>
        <time>2025-08-31T10:38:07.000Z</time>
      </trkpt>
      <trkpt lat="44.18681" lon="2.92641">
        <ele>982.3</ele>
        <time>2025-08-31T10:38:11.000Z</time>
      </trkpt>
      <trkpt lat="44.18691" lon="2.92641">
        <ele>983</ele>
        <time>2025-08-31T10:38:15.000Z</time>
      </trkpt>
      <trkpt lat="44.18702" lon="2.92644">
        <ele>983.8</ele>
        <time>2025-08-31T10:38:19.000Z</time>
      </trkpt>
      <trkpt lat="44.18713" lon="2.92645">
        <ele>984.5</ele>
        <time>2025-08-31T10:38:23.000Z</time>
      </trkpt>
      <trkpt lat="44.18723" lon="2.92647">
        <ele>985.2</ele>
        <time>2025-08-31T10:38:27.000Z</time>
      </trkpt>
      <trkpt lat="44.18732" lon="2.92649">
        <ele>985.9</ele>
        <time>2025-08-31T10:38:31.000Z</time>
      </trkpt>
      <trkpt lat="44.18743" lon="2.92651">
        <ele>986.6</ele>
        <time>2025-08-31T10:38:35.000Z</time>
      </trkpt>
      <trkpt lat="44.18752" lon="2.92655">
        <ele>987.1</ele>
        <time>2025-08-31T10:38:38.000Z</time>
      </trkpt>
      <trkpt lat="44.18762" lon="2.92658">
        <ele>987.6</ele>
        <time>2025-08-31T10:38:41.000Z</time>
      </trkpt>
      <trkpt lat="44.18771" lon="2.92659">
        <ele>988.1</ele>
        <time>2025-08-31T10:38:44.000Z</time>
      </trkpt>
      <trkpt lat="44.1878" lon="2.9266">
        <ele>988.6</ele>
        <time>2025-08-31T10:38:47.000Z</time>
      </trkpt>
      <trkpt lat="44.18792" lon="2.92661">
        <ele>989.3</ele>
        <time>2025-08-31T10:38:51.000Z</time>
      </trkpt>
      <trkpt lat="44.18802" lon="2.92659">
        <ele>989.8</ele>
        <time>2025-08-31T10:38:54.000Z</time>
      </trkpt>
      <trkpt lat="44.18813" lon="2.92655">
        <ele>990.3</ele>
        <time>2025-08-31T10:38:57.000Z</time>
      </trkpt>
      <trkpt lat="44.18824" lon="2.92653">
        <ele>990.9</ele>
        <time>2025-08-31T10:39:00.000Z</time>
      </trkpt>
      <trkpt lat="44.18835" lon="2.92649">
        <ele>991.4</ele>
        <time>2025-08-31T10:39:03.000Z</time>
      </trkpt>
      <trkpt lat="44.18845" lon="2.92645">
        <ele>991.8</ele>
        <time>2025-08-31T10:39:06.000Z</time>
      </trkpt>
      <trkpt lat="44.18854" lon="2.9264">
        <ele>992.3</ele>
        <time>2025-08-31T10:39:09.000Z</time>
      </trkpt>
      <trkpt lat="44.18863" lon="2.92634">
        <ele>992.8</ele>
        <time>2025-08-31T10:39:12.000Z</time>
      </trkpt>
      <trkpt lat="44.18872" lon="2.92628">
        <ele>993.2</ele>
        <time>2025-08-31T10:39:15.000Z</time>
      </trkpt>
      <trkpt lat="44.18881" lon="2.92621">
        <ele>993.7</ele>
        <time>2025-08-31T10:39:18.000Z</time>
      </trkpt>
      <trkpt lat="44.18889" lon="2.92613">
        <ele>994.1</ele>
        <time>2025-08-31T10:39:21.000Z</time>
      </trkpt>
      <trkpt lat="44.18897" lon="2.92604">
        <ele>994.5</ele>
        <time>2025-08-31T10:39:24.000Z</time>
      </trkpt>
      <trkpt lat="44.18904" lon="2.92595">
        <ele>994.9</ele>
        <time>2025-08-31T10:39:27.000Z</time>
      </trkpt>
      <trkpt lat="44.18913" lon="2.92585">
        <ele>995.3</ele>
        <time>2025-08-31T10:39:31.000Z</time>
      </trkpt>
      <trkpt lat="44.18923" lon="2.92583">
        <ele>995.9</ele>
        <time>2025-08-31T10:39:36.000Z</time>
      </trkpt>
      <trkpt lat="44.18932" lon="2.92578">
        <ele>998.8</ele>
        <time>2025-08-31T10:43:12.000Z</time>
      </trkpt>
      <trkpt lat="44.18941" lon="2.92572">
        <ele>998.8</ele>
        <time>2025-08-31T10:43:16.000Z</time>
      </trkpt>
      <trkpt lat="44.18949" lon="2.92567">
        <ele>998.8</ele>
        <time>2025-08-31T10:43:19.000Z</time>
      </trkpt>
      <trkpt lat="44.1896" lon="2.92561">
        <ele>998.8</ele>
        <time>2025-08-31T10:43:22.000Z</time>
      </trkpt>
      <trkpt lat="44.18971" lon="2.92556">
        <ele>998.8</ele>
        <time>2025-08-31T10:43:25.000Z</time>
      </trkpt>
      <trkpt lat="44.18984" lon="2.92551">
        <ele>998.8</ele>
        <time>2025-08-31T10:43:28.000Z</time>
      </trkpt>
      <trkpt lat="44.18996" lon="2.92546">
        <ele>998.8</ele>
        <time>2025-08-31T10:43:31.000Z</time>
      </trkpt>
      <trkpt lat="44.19005" lon="2.92542">
        <ele>998.8</ele>
        <time>2025-08-31T10:43:33.000Z</time>
      </trkpt>
      <trkpt lat="44.19018" lon="2.92539">
        <ele>998.8</ele>
        <time>2025-08-31T10:43:36.000Z</time>
      </trkpt>
      <trkpt lat="44.19029" lon="2.92538">
        <ele>998.8</ele>
        <time>2025-08-31T10:43:39.000Z</time>
      </trkpt>
      <trkpt lat="44.1904" lon="2.92536">
        <ele>998.8</ele>
        <time>2025-08-31T10:43:42.000Z</time>
      </trkpt>
      <trkpt lat="44.19051" lon="2.92535">
        <ele>998.8</ele>
        <time>2025-08-31T10:43:45.000Z</time>
      </trkpt>
      <trkpt lat="44.19062" lon="2.92533">
        <ele>998.8</ele>
        <time>2025-08-31T10:43:48.000Z</time>
      </trkpt>
      <trkpt lat="44.19073" lon="2.92532">
        <ele>998.8</ele>
        <time>2025-08-31T10:43:51.000Z</time>
      </trkpt>
      <trkpt lat="44.19083" lon="2.92531">
        <ele>998.8</ele>
        <time>2025-08-31T10:43:54.000Z</time>
      </trkpt>
      <trkpt lat="44.19095" lon="2.92531">
        <ele>998.8</ele>
        <time>2025-08-31T10:43:57.000Z</time>
      </trkpt>
      <trkpt lat="44.19106" lon="2.92529">
        <ele>998.9</ele>
        <time>2025-08-31T10:44:00.000Z</time>
      </trkpt>
      <trkpt lat="44.19116" lon="2.92526">
        <ele>999</ele>
        <time>2025-08-31T10:44:03.000Z</time>
      </trkpt>
      <trkpt lat="44.19126" lon="2.92523">
        <ele>999.2</ele>
        <time>2025-08-31T10:44:06.000Z</time>
      </trkpt>
      <trkpt lat="44.19138" lon="2.92518">
        <ele>999.4</ele>
        <time>2025-08-31T10:44:09.000Z</time>
      </trkpt>
      <trkpt lat="44.19149" lon="2.92512">
        <ele>999.6</ele>
        <time>2025-08-31T10:44:12.000Z</time>
      </trkpt>
      <trkpt lat="44.1916" lon="2.92506">
        <ele>999.7</ele>
        <time>2025-08-31T10:44:15.000Z</time>
      </trkpt>
      <trkpt lat="44.19171" lon="2.925">
        <ele>999.8</ele>
        <time>2025-08-31T10:44:18.000Z</time>
      </trkpt>
      <trkpt lat="44.19182" lon="2.92496">
        <ele>1000</ele>
        <time>2025-08-31T10:44:21.000Z</time>
      </trkpt>
      <trkpt lat="44.19192" lon="2.92492">
        <ele>1000.3</ele>
        <time>2025-08-31T10:44:25.000Z</time>
      </trkpt>
      <trkpt lat="44.19203" lon="2.92491">
        <ele>1000.8</ele>
        <time>2025-08-31T10:44:30.000Z</time>
      </trkpt>
      <trkpt lat="44.19215" lon="2.9249">
        <ele>1001.4</ele>
        <time>2025-08-31T10:44:35.000Z</time>
      </trkpt>
      <trkpt lat="44.19226" lon="2.9249">
        <ele>1001.6</ele>
        <time>2025-08-31T10:44:38.000Z</time>
      </trkpt>
      <trkpt lat="44.19236" lon="2.92492">
        <ele>1001.7</ele>
        <time>2025-08-31T10:44:40.000Z</time>
      </trkpt>
      <trkpt lat="44.19246" lon="2.92495">
        <ele>1001.7</ele>
        <time>2025-08-31T10:44:42.000Z</time>
      </trkpt>
      <trkpt lat="44.19257" lon="2.92499">
        <ele>1001.6</ele>
        <time>2025-08-31T10:44:44.000Z</time>
      </trkpt>
      <trkpt lat="44.19268" lon="2.92504">
        <ele>1001.5</ele>
        <time>2025-08-31T10:44:46.000Z</time>
      </trkpt>
      <trkpt lat="44.19277" lon="2.92508">
        <ele>1001.4</ele>
        <time>2025-08-31T10:44:48.000Z</time>
      </trkpt>
      <trkpt lat="44.19287" lon="2.92514">
        <ele>1001.2</ele>
        <time>2025-08-31T10:44:50.000Z</time>
      </trkpt>
      <trkpt lat="44.19295" lon="2.9252">
        <ele>1001.1</ele>
        <time>2025-08-31T10:44:52.000Z</time>
      </trkpt>
      <trkpt lat="44.19304" lon="2.92526">
        <ele>1000.9</ele>
        <time>2025-08-31T10:44:54.000Z</time>
      </trkpt>
      <trkpt lat="44.19312" lon="2.92531">
        <ele>1000.8</ele>
        <time>2025-08-31T10:44:56.000Z</time>
      </trkpt>
      <trkpt lat="44.1932" lon="2.92537">
        <ele>1000.7</ele>
        <time>2025-08-31T10:44:58.000Z</time>
      </trkpt>
      <trkpt lat="44.19332" lon="2.92545">
        <ele>1000.6</ele>
        <time>2025-08-31T10:45:01.000Z</time>
      </trkpt>
      <trkpt lat="44.19343" lon="2.92555">
        <ele>1000.5</ele>
        <time>2025-08-31T10:45:04.000Z</time>
      </trkpt>
      <trkpt lat="44.19353" lon="2.92564">
        <ele>1000.5</ele>
        <time>2025-08-31T10:45:07.000Z</time>
      </trkpt>
      <trkpt lat="44.19362" lon="2.92573">
        <ele>1000.4</ele>
        <time>2025-08-31T10:45:10.000Z</time>
      </trkpt>
      <trkpt lat="44.1937" lon="2.92583">
        <ele>1000.2</ele>
        <time>2025-08-31T10:45:13.000Z</time>
      </trkpt>
      <trkpt lat="44.19379" lon="2.92592">
        <ele>1000.2</ele>
        <time>2025-08-31T10:45:16.000Z</time>
      </trkpt>
      <trkpt lat="44.19388" lon="2.92603">
        <ele>1000.1</ele>
        <time>2025-08-31T10:45:19.000Z</time>
      </trkpt>
      <trkpt lat="44.19397" lon="2.92615">
        <ele>1000</ele>
        <time>2025-08-31T10:45:22.000Z</time>
      </trkpt>
      <trkpt lat="44.19404" lon="2.92627">
        <ele>1000</ele>
        <time>2025-08-31T10:45:25.000Z</time>
      </trkpt>
      <trkpt lat="44.1941" lon="2.92639">
        <ele>999.9</ele>
        <time>2025-08-31T10:45:28.000Z</time>
      </trkpt>
      <trkpt lat="44.19416" lon="2.92651">
        <ele>999.9</ele>
        <time>2025-08-31T10:45:31.000Z</time>
      </trkpt>
      <trkpt lat="44.19423" lon="2.92662">
        <ele>999.8</ele>
        <time>2025-08-31T10:45:34.000Z</time>
      </trkpt>
      <trkpt lat="44.19431" lon="2.92674">
        <ele>999.7</ele>
        <time>2025-08-31T10:45:37.000Z</time>
      </trkpt>
      <trkpt lat="44.19438" lon="2.92688">
        <ele>999.6</ele>
        <time>2025-08-31T10:45:40.000Z</time>
      </trkpt>
      <trkpt lat="44.19447" lon="2.92702">
        <ele>999.5</ele>
        <time>2025-08-31T10:45:43.000Z</time>
      </trkpt>
      <trkpt lat="44.19453" lon="2.92713">
        <ele>999.3</ele>
        <time>2025-08-31T10:45:45.000Z</time>
      </trkpt>
      <trkpt lat="44.19458" lon="2.92724">
        <ele>999.2</ele>
        <time>2025-08-31T10:45:47.000Z</time>
      </trkpt>
      <trkpt lat="44.19461" lon="2.92736">
        <ele>999</ele>
        <time>2025-08-31T10:45:49.000Z</time>
      </trkpt>
      <trkpt lat="44.19468" lon="2.92753">
        <ele>998.6</ele>
        <time>2025-08-31T10:45:52.000Z</time>
      </trkpt>
      <trkpt lat="44.19472" lon="2.92764">
        <ele>998.2</ele>
        <time>2025-08-31T10:45:54.000Z</time>
      </trkpt>
      <trkpt lat="44.19477" lon="2.92776">
        <ele>997.8</ele>
        <time>2025-08-31T10:45:56.000Z</time>
      </trkpt>
      <trkpt lat="44.19482" lon="2.92788">
        <ele>997.3</ele>
        <time>2025-08-31T10:45:58.000Z</time>
      </trkpt>
      <trkpt lat="44.19487" lon="2.928">
        <ele>996.9</ele>
        <time>2025-08-31T10:46:00.000Z</time>
      </trkpt>
      <trkpt lat="44.19494" lon="2.92811">
        <ele>996.4</ele>
        <time>2025-08-31T10:46:02.000Z</time>
      </trkpt>
      <trkpt lat="44.19502" lon="2.92824">
        <ele>995.9</ele>
        <time>2025-08-31T10:46:04.000Z</time>
      </trkpt>
      <trkpt lat="44.19509" lon="2.92838">
        <ele>995.4</ele>
        <time>2025-08-31T10:46:06.000Z</time>
      </trkpt>
      <trkpt lat="44.19515" lon="2.92854">
        <ele>995</ele>
        <time>2025-08-31T10:46:08.000Z</time>
      </trkpt>
      <trkpt lat="44.19518" lon="2.9287">
        <ele>994.4</ele>
        <time>2025-08-31T10:46:10.000Z</time>
      </trkpt>
      <trkpt lat="44.1952" lon="2.92883">
        <ele>993.8</ele>
        <time>2025-08-31T10:46:12.000Z</time>
      </trkpt>
      <trkpt lat="44.19522" lon="2.92896">
        <ele>993.2</ele>
        <time>2025-08-31T10:46:14.000Z</time>
      </trkpt>
      <trkpt lat="44.19524" lon="2.92909">
        <ele>992.6</ele>
        <time>2025-08-31T10:46:16.000Z</time>
      </trkpt>
      <trkpt lat="44.19526" lon="2.92924">
        <ele>992</ele>
        <time>2025-08-31T10:46:18.000Z</time>
      </trkpt>
      <trkpt lat="44.19529" lon="2.92938">
        <ele>991.2</ele>
        <time>2025-08-31T10:46:20.000Z</time>
      </trkpt>
      <trkpt lat="44.19533" lon="2.92952">
        <ele>990.6</ele>
        <time>2025-08-31T10:46:22.000Z</time>
      </trkpt>
      <trkpt lat="44.19535" lon="2.92965">
        <ele>989.9</ele>
        <time>2025-08-31T10:46:24.000Z</time>
      </trkpt>
      <trkpt lat="44.19538" lon="2.92979">
        <ele>989.3</ele>
        <time>2025-08-31T10:46:26.000Z</time>
      </trkpt>
      <trkpt lat="44.19541" lon="2.92992">
        <ele>988.7</ele>
        <time>2025-08-31T10:46:28.000Z</time>
      </trkpt>
      <trkpt lat="44.19543" lon="2.93004">
        <ele>988.2</ele>
        <time>2025-08-31T10:46:30.000Z</time>
      </trkpt>
      <trkpt lat="44.19546" lon="2.93019">
        <ele>987.5</ele>
        <time>2025-08-31T10:46:33.000Z</time>
      </trkpt>
      <trkpt lat="44.19549" lon="2.93031">
        <ele>986.8</ele>
        <time>2025-08-31T10:46:36.000Z</time>
      </trkpt>
      <trkpt lat="44.19552" lon="2.93045">
        <ele>986.1</ele>
        <time>2025-08-31T10:46:39.000Z</time>
      </trkpt>
      <trkpt lat="44.19554" lon="2.93059">
        <ele>985.5</ele>
        <time>2025-08-31T10:46:42.000Z</time>
      </trkpt>
      <trkpt lat="44.19557" lon="2.93074">
        <ele>985.1</ele>
        <time>2025-08-31T10:46:45.000Z</time>
      </trkpt>
      <trkpt lat="44.19563" lon="2.9309">
        <ele>984.8</ele>
        <time>2025-08-31T10:46:48.000Z</time>
      </trkpt>
      <trkpt lat="44.1957" lon="2.93104">
        <ele>984.5</ele>
        <time>2025-08-31T10:46:51.000Z</time>
      </trkpt>
      <trkpt lat="44.19579" lon="2.93117">
        <ele>984.4</ele>
        <time>2025-08-31T10:46:54.000Z</time>
      </trkpt>
      <trkpt lat="44.19587" lon="2.93129">
        <ele>984.5</ele>
        <time>2025-08-31T10:46:57.000Z</time>
      </trkpt>
      <trkpt lat="44.19594" lon="2.93141">
        <ele>984.5</ele>
        <time>2025-08-31T10:47:00.000Z</time>
      </trkpt>
      <trkpt lat="44.19602" lon="2.93149">
        <ele>984.6</ele>
        <time>2025-08-31T10:47:03.000Z</time>
      </trkpt>
      <trkpt lat="44.19612" lon="2.93158">
        <ele>984.7</ele>
        <time>2025-08-31T10:47:07.000Z</time>
      </trkpt>
      <trkpt lat="44.19622" lon="2.93166">
        <ele>985.1</ele>
        <time>2025-08-31T10:47:11.000Z</time>
      </trkpt>
      <trkpt lat="44.19633" lon="2.93171">
        <ele>985.5</ele>
        <time>2025-08-31T10:47:15.000Z</time>
      </trkpt>
      <trkpt lat="44.19642" lon="2.93176">
        <ele>987.1</ele>
        <time>2025-08-31T10:47:53.000Z</time>
      </trkpt>
      <trkpt lat="44.19652" lon="2.93178">
        <ele>987.2</ele>
        <time>2025-08-31T10:47:57.000Z</time>
      </trkpt>
      <trkpt lat="44.19661" lon="2.9318">
        <ele>987.3</ele>
        <time>2025-08-31T10:48:00.000Z</time>
      </trkpt>
      <trkpt lat="44.19672" lon="2.93182">
        <ele>987.3</ele>
        <time>2025-08-31T10:48:03.000Z</time>
      </trkpt>
      <trkpt lat="44.19685" lon="2.93183">
        <ele>987.4</ele>
        <time>2025-08-31T10:48:06.000Z</time>
      </trkpt>
      <trkpt lat="44.19698" lon="2.93182">
        <ele>987.4</ele>
        <time>2025-08-31T10:48:09.000Z</time>
      </trkpt>
      <trkpt lat="44.19708" lon="2.9318">
        <ele>987.4</ele>
        <time>2025-08-31T10:48:11.000Z</time>
      </trkpt>
      <trkpt lat="44.19717" lon="2.93178">
        <ele>987.4</ele>
        <time>2025-08-31T10:48:13.000Z</time>
      </trkpt>
      <trkpt lat="44.19727" lon="2.93176">
        <ele>987.4</ele>
        <time>2025-08-31T10:48:15.000Z</time>
      </trkpt>
      <trkpt lat="44.19737" lon="2.93173">
        <ele>987.4</ele>
        <time>2025-08-31T10:48:17.000Z</time>
      </trkpt>
      <trkpt lat="44.19746" lon="2.9317">
        <ele>987.5</ele>
        <time>2025-08-31T10:48:19.000Z</time>
      </trkpt>
      <trkpt lat="44.19756" lon="2.93166">
        <ele>987.5</ele>
        <time>2025-08-31T10:48:21.000Z</time>
      </trkpt>
      <trkpt lat="44.19765" lon="2.93163">
        <ele>987.5</ele>
        <time>2025-08-31T10:48:23.000Z</time>
      </trkpt>
      <trkpt lat="44.19774" lon="2.9316">
        <ele>987.5</ele>
        <time>2025-08-31T10:48:25.000Z</time>
      </trkpt>
      <trkpt lat="44.19786" lon="2.93155">
        <ele>987.6</ele>
        <time>2025-08-31T10:48:28.000Z</time>
      </trkpt>
      <trkpt lat="44.19798" lon="2.93151">
        <ele>987.7</ele>
        <time>2025-08-31T10:48:31.000Z</time>
      </trkpt>
      <trkpt lat="44.1981" lon="2.93148">
        <ele>987.9</ele>
        <time>2025-08-31T10:48:34.000Z</time>
      </trkpt>
      <trkpt lat="44.19823" lon="2.93143">
        <ele>988</ele>
        <time>2025-08-31T10:48:37.000Z</time>
      </trkpt>
      <trkpt lat="44.19832" lon="2.9314">
        <ele>988.1</ele>
        <time>2025-08-31T10:48:39.000Z</time>
      </trkpt>
      <trkpt lat="44.19841" lon="2.93137">
        <ele>988.3</ele>
        <time>2025-08-31T10:48:41.000Z</time>
      </trkpt>
      <trkpt lat="44.1985" lon="2.93135">
        <ele>988.4</ele>
        <time>2025-08-31T10:48:43.000Z</time>
      </trkpt>
      <trkpt lat="44.19858" lon="2.93132">
        <ele>988.5</ele>
        <time>2025-08-31T10:48:45.000Z</time>
      </trkpt>
      <trkpt lat="44.19871" lon="2.93127">
        <ele>988.7</ele>
        <time>2025-08-31T10:48:48.000Z</time>
      </trkpt>
      <trkpt lat="44.19881" lon="2.93124">
        <ele>988.8</ele>
        <time>2025-08-31T10:48:50.000Z</time>
      </trkpt>
      <trkpt lat="44.19891" lon="2.93121">
        <ele>988.9</ele>
        <time>2025-08-31T10:48:52.000Z</time>
      </trkpt>
      <trkpt lat="44.199" lon="2.93117">
        <ele>989</ele>
        <time>2025-08-31T10:48:54.000Z</time>
      </trkpt>
      <trkpt lat="44.1991" lon="2.93113">
        <ele>989.1</ele>
        <time>2025-08-31T10:48:56.000Z</time>
      </trkpt>
      <trkpt lat="44.19921" lon="2.93109">
        <ele>989.2</ele>
        <time>2025-08-31T10:48:58.000Z</time>
      </trkpt>
      <trkpt lat="44.19931" lon="2.93104">
        <ele>989.3</ele>
        <time>2025-08-31T10:49:00.000Z</time>
      </trkpt>
      <trkpt lat="44.19942" lon="2.93099">
        <ele>989.4</ele>
        <time>2025-08-31T10:49:02.000Z</time>
      </trkpt>
      <trkpt lat="44.19954" lon="2.93094">
        <ele>989.4</ele>
        <time>2025-08-31T10:49:04.000Z</time>
      </trkpt>
      <trkpt lat="44.19967" lon="2.93091">
        <ele>989.5</ele>
        <time>2025-08-31T10:49:06.000Z</time>
      </trkpt>
      <trkpt lat="44.19981" lon="2.93092">
        <ele>989.5</ele>
        <time>2025-08-31T10:49:08.000Z</time>
      </trkpt>
      <trkpt lat="44.19994" lon="2.93102">
        <ele>989.5</ele>
        <time>2025-08-31T10:49:10.000Z</time>
      </trkpt>
      <trkpt lat="44.20003" lon="2.93117">
        <ele>989.5</ele>
        <time>2025-08-31T10:49:12.000Z</time>
      </trkpt>
      <trkpt lat="44.20011" lon="2.93134">
        <ele>989.5</ele>
        <time>2025-08-31T10:49:14.000Z</time>
      </trkpt>
      <trkpt lat="44.20018" lon="2.9315">
        <ele>989.4</ele>
        <time>2025-08-31T10:49:16.000Z</time>
      </trkpt>
      <trkpt lat="44.20024" lon="2.93165">
        <ele>989.4</ele>
        <time>2025-08-31T10:49:18.000Z</time>
      </trkpt>
      <trkpt lat="44.20031" lon="2.9318">
        <ele>989.3</ele>
        <time>2025-08-31T10:49:20.000Z</time>
      </trkpt>
      <trkpt lat="44.20037" lon="2.93194">
        <ele>989.3</ele>
        <time>2025-08-31T10:49:22.000Z</time>
      </trkpt>
      <trkpt lat="44.20043" lon="2.93208">
        <ele>989.3</ele>
        <time>2025-08-31T10:49:24.000Z</time>
      </trkpt>
      <trkpt lat="44.2005" lon="2.93221">
        <ele>989.3</ele>
        <time>2025-08-31T10:49:26.000Z</time>
      </trkpt>
      <trkpt lat="44.2006" lon="2.93231">
        <ele>989.3</ele>
        <time>2025-08-31T10:49:28.000Z</time>
      </trkpt>
      <trkpt lat="44.20068" lon="2.9324">
        <ele>989.3</ele>
        <time>2025-08-31T10:49:30.000Z</time>
      </trkpt>
      <trkpt lat="44.20075" lon="2.93249">
        <ele>989.3</ele>
        <time>2025-08-31T10:49:32.000Z</time>
      </trkpt>
      <trkpt lat="44.20081" lon="2.9326">
        <ele>989.2</ele>
        <time>2025-08-31T10:49:35.000Z</time>
      </trkpt>
      <trkpt lat="44.20088" lon="2.9327">
        <ele>989.1</ele>
        <time>2025-08-31T10:49:39.000Z</time>
      </trkpt>
      <trkpt lat="44.20095" lon="2.93284">
        <ele>989.1</ele>
        <time>2025-08-31T10:49:43.000Z</time>
      </trkpt>
      <trkpt lat="44.20101" lon="2.93297">
        <ele>989.1</ele>
        <time>2025-08-31T10:49:47.000Z</time>
      </trkpt>
      <trkpt lat="44.20107" lon="2.93307">
        <ele>989.1</ele>
        <time>2025-08-31T10:49:50.000Z</time>
      </trkpt>
      <trkpt lat="44.20113" lon="2.9332">
        <ele>989.4</ele>
        <time>2025-08-31T10:49:54.000Z</time>
      </trkpt>
      <trkpt lat="44.20118" lon="2.93333">
        <ele>989.7</ele>
        <time>2025-08-31T10:49:58.000Z</time>
      </trkpt>
      <trkpt lat="44.20123" lon="2.93346">
        <ele>990.2</ele>
        <time>2025-08-31T10:50:02.000Z</time>
      </trkpt>
      <trkpt lat="44.20126" lon="2.9336">
        <ele>990.9</ele>
        <time>2025-08-31T10:50:06.000Z</time>
      </trkpt>
      <trkpt lat="44.20131" lon="2.93372">
        <ele>991.7</ele>
        <time>2025-08-31T10:50:10.000Z</time>
      </trkpt>
      <trkpt lat="44.20137" lon="2.93385">
        <ele>992.7</ele>
        <time>2025-08-31T10:50:15.000Z</time>
      </trkpt>
      <trkpt lat="44.20144" lon="2.93393">
        <ele>993.6</ele>
        <time>2025-08-31T10:50:20.000Z</time>
      </trkpt>
      <trkpt lat="44.20153" lon="2.93402">
        <ele>994.8</ele>
        <time>2025-08-31T10:50:26.000Z</time>
      </trkpt>
      <trkpt lat="44.20163" lon="2.93409">
        <ele>995.9</ele>
        <time>2025-08-31T10:50:31.000Z</time>
      </trkpt>
      <trkpt lat="44.20173" lon="2.93414">
        <ele>996.9</ele>
        <time>2025-08-31T10:50:36.000Z</time>
      </trkpt>
      <trkpt lat="44.20183" lon="2.93418">
        <ele>997.9</ele>
        <time>2025-08-31T10:50:41.000Z</time>
      </trkpt>
      <trkpt lat="44.20191" lon="2.93422">
        <ele>999.1</ele>
        <time>2025-08-31T10:50:46.000Z</time>
      </trkpt>
      <trkpt lat="44.20201" lon="2.93424">
        <ele>1000.1</ele>
        <time>2025-08-31T10:50:51.000Z</time>
      </trkpt>
      <trkpt lat="44.20211" lon="2.93425">
        <ele>1001.4</ele>
        <time>2025-08-31T10:50:57.000Z</time>
      </trkpt>
      <trkpt lat="44.2022" lon="2.93425">
        <ele>1002.8</ele>
        <time>2025-08-31T10:51:03.000Z</time>
      </trkpt>
      <trkpt lat="44.2023" lon="2.93425">
        <ele>1004</ele>
        <time>2025-08-31T10:51:09.000Z</time>
      </trkpt>
      <trkpt lat="44.20241" lon="2.93421">
        <ele>1005.4</ele>
        <time>2025-08-31T10:51:15.000Z</time>
      </trkpt>
      <trkpt lat="44.2025" lon="2.93419">
        <ele>1006.4</ele>
        <time>2025-08-31T10:51:20.000Z</time>
      </trkpt>
      <trkpt lat="44.20259" lon="2.93415">
        <ele>1007.6</ele>
        <time>2025-08-31T10:51:25.000Z</time>
      </trkpt>
      <trkpt lat="44.20268" lon="2.9341">
        <ele>1008.8</ele>
        <time>2025-08-31T10:51:30.000Z</time>
      </trkpt>
      <trkpt lat="44.20277" lon="2.93404">
        <ele>1010</ele>
        <time>2025-08-31T10:51:35.000Z</time>
      </trkpt>
      <trkpt lat="44.20285" lon="2.93396">
        <ele>1011.1</ele>
        <time>2025-08-31T10:51:40.000Z</time>
      </trkpt>
      <trkpt lat="44.20293" lon="2.93385">
        <ele>1012.3</ele>
        <time>2025-08-31T10:51:46.000Z</time>
      </trkpt>
      <trkpt lat="44.203" lon="2.93375">
        <ele>1013.3</ele>
        <time>2025-08-31T10:51:51.000Z</time>
      </trkpt>
      <trkpt lat="44.20305" lon="2.93364">
        <ele>1014.3</ele>
        <time>2025-08-31T10:51:56.000Z</time>
      </trkpt>
      <trkpt lat="44.20311" lon="2.93352">
        <ele>1015.2</ele>
        <time>2025-08-31T10:52:01.000Z</time>
      </trkpt>
      <trkpt lat="44.20314" lon="2.93337">
        <ele>1016.2</ele>
        <time>2025-08-31T10:52:06.000Z</time>
      </trkpt>
      <trkpt lat="44.2032" lon="2.93324">
        <ele>1016.9</ele>
        <time>2025-08-31T10:52:10.000Z</time>
      </trkpt>
      <trkpt lat="44.20324" lon="2.93313">
        <ele>1017.8</ele>
        <time>2025-08-31T10:52:14.000Z</time>
      </trkpt>
      <trkpt lat="44.20329" lon="2.93301">
        <ele>1018.6</ele>
        <time>2025-08-31T10:52:18.000Z</time>
      </trkpt>
      <trkpt lat="44.20331" lon="2.93288">
        <ele>1019.5</ele>
        <time>2025-08-31T10:52:22.000Z</time>
      </trkpt>
      <trkpt lat="44.20333" lon="2.93274">
        <ele>1020.3</ele>
        <time>2025-08-31T10:52:26.000Z</time>
      </trkpt>
      <trkpt lat="44.20336" lon="2.93262">
        <ele>1021</ele>
        <time>2025-08-31T10:52:30.000Z</time>
      </trkpt>
      <trkpt lat="44.20338" lon="2.9325">
        <ele>1021.8</ele>
        <time>2025-08-31T10:52:34.000Z</time>
      </trkpt>
      <trkpt lat="44.2034" lon="2.93237">
        <ele>1022.4</ele>
        <time>2025-08-31T10:52:38.000Z</time>
      </trkpt>
      <trkpt lat="44.20343" lon="2.93223">
        <ele>1023.1</ele>
        <time>2025-08-31T10:52:42.000Z</time>
      </trkpt>
      <trkpt lat="44.20346" lon="2.9321">
        <ele>1023.5</ele>
        <time>2025-08-31T10:52:45.000Z</time>
      </trkpt>
      <trkpt lat="44.20352" lon="2.93194">
        <ele>1023.8</ele>
        <time>2025-08-31T10:52:48.000Z</time>
      </trkpt>
      <trkpt lat="44.20359" lon="2.93182">
        <ele>1023.9</ele>
        <time>2025-08-31T10:52:50.000Z</time>
      </trkpt>
      <trkpt lat="44.20368" lon="2.93171">
        <ele>1023.8</ele>
        <time>2025-08-31T10:52:52.000Z</time>
      </trkpt>
      <trkpt lat="44.20377" lon="2.93158">
        <ele>1023.7</ele>
        <time>2025-08-31T10:52:54.000Z</time>
      </trkpt>
      <trkpt lat="44.20387" lon="2.93143">
        <ele>1023.5</ele>
        <time>2025-08-31T10:52:56.000Z</time>
      </trkpt>
      <trkpt lat="44.20399" lon="2.93129">
        <ele>1023.1</ele>
        <time>2025-08-31T10:52:58.000Z</time>
      </trkpt>
      <trkpt lat="44.20411" lon="2.93117">
        <ele>1022.7</ele>
        <time>2025-08-31T10:53:00.000Z</time>
      </trkpt>
      <trkpt lat="44.20423" lon="2.93107">
        <ele>1022.2</ele>
        <time>2025-08-31T10:53:02.000Z</time>
      </trkpt>
      <trkpt lat="44.20434" lon="2.93097">
        <ele>1021.7</ele>
        <time>2025-08-31T10:53:04.000Z</time>
      </trkpt>
      <trkpt lat="44.20443" lon="2.9309">
        <ele>1021.1</ele>
        <time>2025-08-31T10:53:06.000Z</time>
      </trkpt>
      <trkpt lat="44.20453" lon="2.93088">
        <ele>1020.4</ele>
        <time>2025-08-31T10:53:08.000Z</time>
      </trkpt>
      <trkpt lat="44.20462" lon="2.9309">
        <ele>1019.9</ele>
        <time>2025-08-31T10:53:10.000Z</time>
      </trkpt>
      <trkpt lat="44.20472" lon="2.93095">
        <ele>1019.4</ele>
        <time>2025-08-31T10:53:12.000Z</time>
      </trkpt>
      <trkpt lat="44.20481" lon="2.93101">
        <ele>1018.9</ele>
        <time>2025-08-31T10:53:14.000Z</time>
      </trkpt>
      <trkpt lat="44.20491" lon="2.93107">
        <ele>1018.6</ele>
        <time>2025-08-31T10:53:16.000Z</time>
      </trkpt>
      <trkpt lat="44.205" lon="2.93113">
        <ele>1018.3</ele>
        <time>2025-08-31T10:53:18.000Z</time>
      </trkpt>
      <trkpt lat="44.20509" lon="2.93119">
        <ele>1018</ele>
        <time>2025-08-31T10:53:20.000Z</time>
      </trkpt>
      <trkpt lat="44.20518" lon="2.93124">
        <ele>1017.8</ele>
        <time>2025-08-31T10:53:22.000Z</time>
      </trkpt>
      <trkpt lat="44.2053" lon="2.9313">
        <ele>1017.6</ele>
        <time>2025-08-31T10:53:25.000Z</time>
      </trkpt>
      <trkpt lat="44.20541" lon="2.93134">
        <ele>1017.5</ele>
        <time>2025-08-31T10:53:28.000Z</time>
      </trkpt>
      <trkpt lat="44.20551" lon="2.93139">
        <ele>1017.6</ele>
        <time>2025-08-31T10:53:31.000Z</time>
      </trkpt>
      <trkpt lat="44.20562" lon="2.93143">
        <ele>1017.9</ele>
        <time>2025-08-31T10:53:34.000Z</time>
      </trkpt>
      <trkpt lat="44.20572" lon="2.93146">
        <ele>1018.1</ele>
        <time>2025-08-31T10:53:37.000Z</time>
      </trkpt>
      <trkpt lat="44.20582" lon="2.9315">
        <ele>1018.4</ele>
        <time>2025-08-31T10:53:40.000Z</time>
      </trkpt>
      <trkpt lat="44.20591" lon="2.93154">
        <ele>1018.7</ele>
        <time>2025-08-31T10:53:43.000Z</time>
      </trkpt>
      <trkpt lat="44.206" lon="2.93157">
        <ele>1019</ele>
        <time>2025-08-31T10:53:46.000Z</time>
      </trkpt>
      <trkpt lat="44.20611" lon="2.93162">
        <ele>1019.5</ele>
        <time>2025-08-31T10:53:50.000Z</time>
      </trkpt>
      <trkpt lat="44.20622" lon="2.93167">
        <ele>1020.1</ele>
        <time>2025-08-31T10:53:54.000Z</time>
      </trkpt>
      <trkpt lat="44.20632" lon="2.93171">
        <ele>1020.8</ele>
        <time>2025-08-31T10:53:58.000Z</time>
      </trkpt>
      <trkpt lat="44.20642" lon="2.93175">
        <ele>1021.6</ele>
        <time>2025-08-31T10:54:02.000Z</time>
      </trkpt>
      <trkpt lat="44.20651" lon="2.93178">
        <ele>1022.2</ele>
        <time>2025-08-31T10:54:06.000Z</time>
      </trkpt>
      <trkpt lat="44.2066" lon="2.93182">
        <ele>1023</ele>
        <time>2025-08-31T10:54:10.000Z</time>
      </trkpt>
      <trkpt lat="44.20671" lon="2.93185">
        <ele>1023.8</ele>
        <time>2025-08-31T10:54:14.000Z</time>
      </trkpt>
      <trkpt lat="44.2068" lon="2.93188">
        <ele>1024.5</ele>
        <time>2025-08-31T10:54:18.000Z</time>
      </trkpt>
      <trkpt lat="44.2069" lon="2.93192">
        <ele>1025.2</ele>
        <time>2025-08-31T10:54:22.000Z</time>
      </trkpt>
      <trkpt lat="44.207" lon="2.93196">
        <ele>1026</ele>
        <time>2025-08-31T10:54:26.000Z</time>
      </trkpt>
      <trkpt lat="44.20709" lon="2.93199">
        <ele>1026.8</ele>
        <time>2025-08-31T10:54:30.000Z</time>
      </trkpt>
      <trkpt lat="44.20718" lon="2.93203">
        <ele>1027.5</ele>
        <time>2025-08-31T10:54:34.000Z</time>
      </trkpt>
      <trkpt lat="44.20728" lon="2.93208">
        <ele>1028.5</ele>
        <time>2025-08-31T10:54:39.000Z</time>
      </trkpt>
      <trkpt lat="44.20738" lon="2.93212">
        <ele>1029.3</ele>
        <time>2025-08-31T10:54:43.000Z</time>
      </trkpt>
      <trkpt lat="44.20748" lon="2.93216">
        <ele>1030.2</ele>
        <time>2025-08-31T10:54:47.000Z</time>
      </trkpt>
      <trkpt lat="44.20757" lon="2.9322">
        <ele>1031.1</ele>
        <time>2025-08-31T10:54:51.000Z</time>
      </trkpt>
      <trkpt lat="44.20766" lon="2.93224">
        <ele>1032.1</ele>
        <time>2025-08-31T10:54:55.000Z</time>
      </trkpt>
      <trkpt lat="44.20775" lon="2.93231">
        <ele>1033</ele>
        <time>2025-08-31T10:54:59.000Z</time>
      </trkpt>
      <trkpt lat="44.20784" lon="2.93241">
        <ele>1033.8</ele>
        <time>2025-08-31T10:55:03.000Z</time>
      </trkpt>
      <trkpt lat="44.20791" lon="2.93251">
        <ele>1034.6</ele>
        <time>2025-08-31T10:55:07.000Z</time>
      </trkpt>
      <trkpt lat="44.20799" lon="2.93261">
        <ele>1035.4</ele>
        <time>2025-08-31T10:55:11.000Z</time>
      </trkpt>
      <trkpt lat="44.20806" lon="2.93272">
        <ele>1036.2</ele>
        <time>2025-08-31T10:55:15.000Z</time>
      </trkpt>
      <trkpt lat="44.20815" lon="2.93283">
        <ele>1036.9</ele>
        <time>2025-08-31T10:55:19.000Z</time>
      </trkpt>
      <trkpt lat="44.20822" lon="2.93294">
        <ele>1037.3</ele>
        <time>2025-08-31T10:55:22.000Z</time>
      </trkpt>
      <trkpt lat="44.20829" lon="2.93308">
        <ele>1037.6</ele>
        <time>2025-08-31T10:55:25.000Z</time>
      </trkpt>
      <trkpt lat="44.20837" lon="2.93321">
        <ele>1037.9</ele>
        <time>2025-08-31T10:55:28.000Z</time>
      </trkpt>
      <trkpt lat="44.20847" lon="2.93331">
        <ele>1038.1</ele>
        <time>2025-08-31T10:55:31.000Z</time>
      </trkpt>
      <trkpt lat="44.20858" lon="2.93339">
        <ele>1038.3</ele>
        <time>2025-08-31T10:55:34.000Z</time>
      </trkpt>
      <trkpt lat="44.20869" lon="2.93346">
        <ele>1038.4</ele>
        <time>2025-08-31T10:55:37.000Z</time>
      </trkpt>
      <trkpt lat="44.20879" lon="2.93352">
        <ele>1038.6</ele>
        <time>2025-08-31T10:55:40.000Z</time>
      </trkpt>
      <trkpt lat="44.20887" lon="2.93359">
        <ele>1038.8</ele>
        <time>2025-08-31T10:55:43.000Z</time>
      </trkpt>
      <trkpt lat="44.20897" lon="2.93366">
        <ele>1039.3</ele>
        <time>2025-08-31T10:55:47.000Z</time>
      </trkpt>
      <trkpt lat="44.20907" lon="2.93372">
        <ele>1039.9</ele>
        <time>2025-08-31T10:55:51.000Z</time>
      </trkpt>
      <trkpt lat="44.20915" lon="2.93378">
        <ele>1040.5</ele>
        <time>2025-08-31T10:55:55.000Z</time>
      </trkpt>
      <trkpt lat="44.20924" lon="2.93383">
        <ele>1041.2</ele>
        <time>2025-08-31T10:55:59.000Z</time>
      </trkpt>
      <trkpt lat="44.20932" lon="2.93388">
        <ele>1042</ele>
        <time>2025-08-31T10:56:03.000Z</time>
      </trkpt>
      <trkpt lat="44.20942" lon="2.93395">
        <ele>1043</ele>
        <time>2025-08-31T10:56:08.000Z</time>
      </trkpt>
      <trkpt lat="44.20951" lon="2.93402">
        <ele>1044</ele>
        <time>2025-08-31T10:56:13.000Z</time>
      </trkpt>
      <trkpt lat="44.20961" lon="2.93408">
        <ele>1044.9</ele>
        <time>2025-08-31T10:56:18.000Z</time>
      </trkpt>
      <trkpt lat="44.20971" lon="2.93415">
        <ele>1045.9</ele>
        <time>2025-08-31T10:56:23.000Z</time>
      </trkpt>
      <trkpt lat="44.20981" lon="2.93421">
        <ele>1046.8</ele>
        <time>2025-08-31T10:56:28.000Z</time>
      </trkpt>
      <trkpt lat="44.20991" lon="2.93428">
        <ele>1047.8</ele>
        <time>2025-08-31T10:56:33.000Z</time>
      </trkpt>
      <trkpt lat="44.21001" lon="2.93434">
        <ele>1048.8</ele>
        <time>2025-08-31T10:56:38.000Z</time>
      </trkpt>
      <trkpt lat="44.2101" lon="2.93438">
        <ele>1049.7</ele>
        <time>2025-08-31T10:56:42.000Z</time>
      </trkpt>
      <trkpt lat="44.21018" lon="2.93442">
        <ele>1050.4</ele>
        <time>2025-08-31T10:56:46.000Z</time>
      </trkpt>
      <trkpt lat="44.21027" lon="2.93443">
        <ele>1051</ele>
        <time>2025-08-31T10:56:50.000Z</time>
      </trkpt>
      <trkpt lat="44.21038" lon="2.93442">
        <ele>1051.8</ele>
        <time>2025-08-31T10:56:55.000Z</time>
      </trkpt>
      <trkpt lat="44.21047" lon="2.93439">
        <ele>1052.3</ele>
        <time>2025-08-31T10:56:59.000Z</time>
      </trkpt>
      <trkpt lat="44.21057" lon="2.93437">
        <ele>1053</ele>
        <time>2025-08-31T10:57:04.000Z</time>
      </trkpt>
      <trkpt lat="44.21069" lon="2.93435">
        <ele>1053.7</ele>
        <time>2025-08-31T10:57:09.000Z</time>
      </trkpt>
      <trkpt lat="44.21079" lon="2.93433">
        <ele>1054.4</ele>
        <time>2025-08-31T10:57:13.000Z</time>
      </trkpt>
      <trkpt lat="44.21088" lon="2.93431">
        <ele>1055</ele>
        <time>2025-08-31T10:57:17.000Z</time>
      </trkpt>
      <trkpt lat="44.21099" lon="2.93431">
        <ele>1055.6</ele>
        <time>2025-08-31T10:57:21.000Z</time>
      </trkpt>
      <trkpt lat="44.2111" lon="2.9343">
        <ele>1056.2</ele>
        <time>2025-08-31T10:57:25.000Z</time>
      </trkpt>
      <trkpt lat="44.21121" lon="2.93429">
        <ele>1056.7</ele>
        <time>2025-08-31T10:57:29.000Z</time>
      </trkpt>
      <trkpt lat="44.21132" lon="2.93429">
        <ele>1057.3</ele>
        <time>2025-08-31T10:57:33.000Z</time>
      </trkpt>
      <trkpt lat="44.21143" lon="2.93426">
        <ele>1057.9</ele>
        <time>2025-08-31T10:57:37.000Z</time>
      </trkpt>
      <trkpt lat="44.2115" lon="2.93416">
        <ele>1058.9</ele>
        <time>2025-08-31T10:57:42.000Z</time>
      </trkpt>
      <trkpt lat="44.21153" lon="2.93404">
        <ele>1059.8</ele>
        <time>2025-08-31T10:57:48.000Z</time>
      </trkpt>
      <trkpt lat="44.21158" lon="2.93392">
        <ele>1061.7</ele>
        <time>2025-08-31T10:58:01.000Z</time>
      </trkpt>
      <trkpt lat="44.21166" lon="2.93382">
        <ele>1062.8</ele>
        <time>2025-08-31T10:58:09.000Z</time>
      </trkpt>
      <trkpt lat="44.21172" lon="2.93372">
        <ele>1063.8</ele>
        <time>2025-08-31T10:58:14.000Z</time>
      </trkpt>
      <trkpt lat="44.21179" lon="2.9336">
        <ele>1064.6</ele>
        <time>2025-08-31T10:58:19.000Z</time>
      </trkpt>
      <trkpt lat="44.21186" lon="2.9335">
        <ele>1065.4</ele>
        <time>2025-08-31T10:58:24.000Z</time>
      </trkpt>
      <trkpt lat="44.21191" lon="2.9334">
        <ele>1066.5</ele>
        <time>2025-08-31T10:58:30.000Z</time>
      </trkpt>
      <trkpt lat="44.21194" lon="2.93326">
        <ele>1067.6</ele>
        <time>2025-08-31T10:58:36.000Z</time>
      </trkpt>
      <trkpt lat="44.212" lon="2.93315">
        <ele>1068.7</ele>
        <time>2025-08-31T10:58:42.000Z</time>
      </trkpt>
      <trkpt lat="44.21206" lon="2.93302">
        <ele>1069.6</ele>
        <time>2025-08-31T10:58:47.000Z</time>
      </trkpt>
      <trkpt lat="44.21212" lon="2.93291">
        <ele>1070.6</ele>
        <time>2025-08-31T10:58:53.000Z</time>
      </trkpt>
      <trkpt lat="44.21219" lon="2.93281">
        <ele>1071.5</ele>
        <time>2025-08-31T10:58:58.000Z</time>
      </trkpt>
      <trkpt lat="44.21225" lon="2.93269">
        <ele>1072.6</ele>
        <time>2025-08-31T10:59:04.000Z</time>
      </trkpt>
      <trkpt lat="44.21233" lon="2.93258">
        <ele>1073.8</ele>
        <time>2025-08-31T10:59:10.000Z</time>
      </trkpt>
      <trkpt lat="44.21239" lon="2.93248">
        <ele>1074.6</ele>
        <time>2025-08-31T10:59:15.000Z</time>
      </trkpt>
      <trkpt lat="44.21247" lon="2.93239">
        <ele>1075.2</ele>
        <time>2025-08-31T10:59:20.000Z</time>
      </trkpt>
      <trkpt lat="44.21254" lon="2.9323">
        <ele>1075.8</ele>
        <time>2025-08-31T10:59:24.000Z</time>
      </trkpt>
      <trkpt lat="44.21261" lon="2.93221">
        <ele>1076.5</ele>
        <time>2025-08-31T10:59:28.000Z</time>
      </trkpt>
      <trkpt lat="44.21269" lon="2.93215">
        <ele>1077.2</ele>
        <time>2025-08-31T10:59:33.000Z</time>
      </trkpt>
      <trkpt lat="44.21277" lon="2.93207">
        <ele>1077.9</ele>
        <time>2025-08-31T10:59:37.000Z</time>
      </trkpt>
      <trkpt lat="44.21284" lon="2.93198">
        <ele>1078.6</ele>
        <time>2025-08-31T10:59:41.000Z</time>
      </trkpt>
      <trkpt lat="44.21291" lon="2.93186">
        <ele>1079.3</ele>
        <time>2025-08-31T10:59:45.000Z</time>
      </trkpt>
      <trkpt lat="44.21296" lon="2.93173">
        <ele>1080</ele>
        <time>2025-08-31T10:59:49.000Z</time>
      </trkpt>
      <trkpt lat="44.213" lon="2.93161">
        <ele>1080.8</ele>
        <time>2025-08-31T10:59:53.000Z</time>
      </trkpt>
      <trkpt lat="44.21302" lon="2.93146">
        <ele>1081.7</ele>
        <time>2025-08-31T10:59:58.000Z</time>
      </trkpt>
      <trkpt lat="44.21304" lon="2.93134">
        <ele>1082.5</ele>
        <time>2025-08-31T11:00:02.000Z</time>
      </trkpt>
      <trkpt lat="44.21307" lon="2.9312">
        <ele>1083.2</ele>
        <time>2025-08-31T11:00:06.000Z</time>
      </trkpt>
      <trkpt lat="44.21309" lon="2.93106">
        <ele>1083.8</ele>
        <time>2025-08-31T11:00:10.000Z</time>
      </trkpt>
      <trkpt lat="44.21312" lon="2.93092">
        <ele>1084.3</ele>
        <time>2025-08-31T11:00:14.000Z</time>
      </trkpt>
      <trkpt lat="44.21314" lon="2.93077">
        <ele>1084.8</ele>
        <time>2025-08-31T11:00:18.000Z</time>
      </trkpt>
      <trkpt lat="44.21319" lon="2.93062">
        <ele>1085.3</ele>
        <time>2025-08-31T11:00:22.000Z</time>
      </trkpt>
      <trkpt lat="44.21323" lon="2.93047">
        <ele>1086</ele>
        <time>2025-08-31T11:00:26.000Z</time>
      </trkpt>
      <trkpt lat="44.21327" lon="2.93032">
        <ele>1086.9</ele>
        <time>2025-08-31T11:00:30.000Z</time>
      </trkpt>
      <trkpt lat="44.21331" lon="2.9302">
        <ele>1087.6</ele>
        <time>2025-08-31T11:00:34.000Z</time>
      </trkpt>
      <trkpt lat="44.21336" lon="2.93007">
        <ele>1088.4</ele>
        <time>2025-08-31T11:00:38.000Z</time>
      </trkpt>
      <trkpt lat="44.21339" lon="2.92994">
        <ele>1089</ele>
        <time>2025-08-31T11:00:42.000Z</time>
      </trkpt>
      <trkpt lat="44.21343" lon="2.92983">
        <ele>1090.2</ele>
        <time>2025-08-31T11:00:51.000Z</time>
      </trkpt>
      <trkpt lat="44.21345" lon="2.92969">
        <ele>1091</ele>
        <time>2025-08-31T11:01:00.000Z</time>
      </trkpt>
      <trkpt lat="44.21354" lon="2.9297">
        <ele>1091.9</ele>
        <time>2025-08-31T11:01:16.000Z</time>
      </trkpt>
      <trkpt lat="44.21362" lon="2.92976">
        <ele>1093.1</ele>
        <time>2025-08-31T11:01:27.000Z</time>
      </trkpt>
      <trkpt lat="44.2137" lon="2.92969">
        <ele>1093.7</ele>
        <time>2025-08-31T11:01:33.000Z</time>
      </trkpt>
      <trkpt lat="44.21375" lon="2.92956">
        <ele>1094.2</ele>
        <time>2025-08-31T11:01:41.000Z</time>
      </trkpt>
      <trkpt lat="44.21384" lon="2.92952">
        <ele>1094.8</ele>
        <time>2025-08-31T11:01:49.000Z</time>
      </trkpt>
      <trkpt lat="44.21393" lon="2.92953">
        <ele>1095.8</ele>
        <time>2025-08-31T11:01:57.000Z</time>
      </trkpt>
      <trkpt lat="44.21402" lon="2.92952">
        <ele>1096.9</ele>
        <time>2025-08-31T11:02:04.000Z</time>
      </trkpt>
      <trkpt lat="44.21412" lon="2.92953">
        <ele>1098.2</ele>
        <time>2025-08-31T11:02:11.000Z</time>
      </trkpt>
      <trkpt lat="44.21422" lon="2.92955">
        <ele>1099.4</ele>
        <time>2025-08-31T11:02:17.000Z</time>
      </trkpt>
      <trkpt lat="44.21431" lon="2.92957">
        <ele>1100.6</ele>
        <time>2025-08-31T11:02:24.000Z</time>
      </trkpt>
      <trkpt lat="44.21441" lon="2.9296">
        <ele>1101.9</ele>
        <time>2025-08-31T11:02:31.000Z</time>
      </trkpt>
      <trkpt lat="44.21451" lon="2.92957">
        <ele>1103</ele>
        <time>2025-08-31T11:02:38.000Z</time>
      </trkpt>
      <trkpt lat="44.21461" lon="2.92959">
        <ele>1104</ele>
        <time>2025-08-31T11:02:44.000Z</time>
      </trkpt>
      <trkpt lat="44.21471" lon="2.9296">
        <ele>1104.9</ele>
        <time>2025-08-31T11:02:49.000Z</time>
      </trkpt>
      <trkpt lat="44.21482" lon="2.92961">
        <ele>1105.6</ele>
        <time>2025-08-31T11:02:54.000Z</time>
      </trkpt>
      <trkpt lat="44.21493" lon="2.92963">
        <ele>1106.2</ele>
        <time>2025-08-31T11:02:59.000Z</time>
      </trkpt>
      <trkpt lat="44.21503" lon="2.92965">
        <ele>1106.5</ele>
        <time>2025-08-31T11:03:03.000Z</time>
      </trkpt>
      <trkpt lat="44.21513" lon="2.92965">
        <ele>1107.2</ele>
        <time>2025-08-31T11:03:08.000Z</time>
      </trkpt>
      <trkpt lat="44.21523" lon="2.92967">
        <ele>1108.6</ele>
        <time>2025-08-31T11:03:22.000Z</time>
      </trkpt>
      <trkpt lat="44.21532" lon="2.92965">
        <ele>1109.1</ele>
        <time>2025-08-31T11:03:26.000Z</time>
      </trkpt>
      <trkpt lat="44.21542" lon="2.92962">
        <ele>1109.6</ele>
        <time>2025-08-31T11:03:31.000Z</time>
      </trkpt>
      <trkpt lat="44.21551" lon="2.92957">
        <ele>1110.3</ele>
        <time>2025-08-31T11:03:37.000Z</time>
      </trkpt>
      <trkpt lat="44.21544" lon="2.92964">
        <ele>1111.9</ele>
        <time>2025-08-31T11:06:19.000Z</time>
      </trkpt>
      <trkpt lat="44.21533" lon="2.92968">
        <ele>1111.9</ele>
        <time>2025-08-31T11:06:23.000Z</time>
      </trkpt>
      <trkpt lat="44.21524" lon="2.9297">
        <ele>1111.9</ele>
        <time>2025-08-31T11:06:26.000Z</time>
      </trkpt>
      <trkpt lat="44.21513" lon="2.92968">
        <ele>1111.8</ele>
        <time>2025-08-31T11:06:29.000Z</time>
      </trkpt>
      <trkpt lat="44.21501" lon="2.92965">
        <ele>1111.6</ele>
        <time>2025-08-31T11:06:32.000Z</time>
      </trkpt>
      <trkpt lat="44.21489" lon="2.92963">
        <ele>1111.3</ele>
        <time>2025-08-31T11:06:35.000Z</time>
      </trkpt>
      <trkpt lat="44.2148" lon="2.92962">
        <ele>1111.1</ele>
        <time>2025-08-31T11:06:38.000Z</time>
      </trkpt>
      <trkpt lat="44.21471" lon="2.92962">
        <ele>1110.6</ele>
        <time>2025-08-31T11:06:42.000Z</time>
      </trkpt>
      <trkpt lat="44.21458" lon="2.92959">
        <ele>1109.9</ele>
        <time>2025-08-31T11:06:46.000Z</time>
      </trkpt>
      <trkpt lat="44.21447" lon="2.92961">
        <ele>1109.4</ele>
        <time>2025-08-31T11:06:49.000Z</time>
      </trkpt>
      <trkpt lat="44.21435" lon="2.92959">
        <ele>1109</ele>
        <time>2025-08-31T11:06:52.000Z</time>
      </trkpt>
      <trkpt lat="44.21422" lon="2.92957">
        <ele>1108.3</ele>
        <time>2025-08-31T11:06:55.000Z</time>
      </trkpt>
      <trkpt lat="44.2141" lon="2.92956">
        <ele>1107.6</ele>
        <time>2025-08-31T11:06:58.000Z</time>
      </trkpt>
      <trkpt lat="44.21399" lon="2.92956">
        <ele>1106.7</ele>
        <time>2025-08-31T11:07:01.000Z</time>
      </trkpt>
      <trkpt lat="44.21388" lon="2.92955">
        <ele>1105.8</ele>
        <time>2025-08-31T11:07:04.000Z</time>
      </trkpt>
      <trkpt lat="44.21377" lon="2.92956">
        <ele>1104.1</ele>
        <time>2025-08-31T11:07:08.000Z</time>
      </trkpt>
      <trkpt lat="44.21366" lon="2.92955">
        <ele>1102.6</ele>
        <time>2025-08-31T11:07:12.000Z</time>
      </trkpt>
      <trkpt lat="44.21357" lon="2.92956">
        <ele>1095.3</ele>
        <time>2025-08-31T11:07:42.000Z</time>
      </trkpt>
      <trkpt lat="44.21348" lon="2.92961">
        <ele>1095</ele>
        <time>2025-08-31T11:07:45.000Z</time>
      </trkpt>
      <trkpt lat="44.21343" lon="2.92971">
        <ele>1094.9</ele>
        <time>2025-08-31T11:07:48.000Z</time>
      </trkpt>
      <trkpt lat="44.21338" lon="2.92985">
        <ele>1094.7</ele>
        <time>2025-08-31T11:07:51.000Z</time>
      </trkpt>
      <trkpt lat="44.21334" lon="2.92998">
        <ele>1094.4</ele>
        <time>2025-08-31T11:07:54.000Z</time>
      </trkpt>
      <trkpt lat="44.2133" lon="2.93012">
        <ele>1094.2</ele>
        <time>2025-08-31T11:07:57.000Z</time>
      </trkpt>
      <trkpt lat="44.21326" lon="2.93027">
        <ele>1093.9</ele>
        <time>2025-08-31T11:08:00.000Z</time>
      </trkpt>
      <trkpt lat="44.21323" lon="2.93039">
        <ele>1093.6</ele>
        <time>2025-08-31T11:08:02.000Z</time>
      </trkpt>
      <trkpt lat="44.2132" lon="2.93053">
        <ele>1093.3</ele>
        <time>2025-08-31T11:08:04.000Z</time>
      </trkpt>
      <trkpt lat="44.21317" lon="2.93068">
        <ele>1093</ele>
        <time>2025-08-31T11:08:06.000Z</time>
      </trkpt>
      <trkpt lat="44.21314" lon="2.93086">
        <ele>1092.6</ele>
        <time>2025-08-31T11:08:08.000Z</time>
      </trkpt>
      <trkpt lat="44.21312" lon="2.93105">
        <ele>1092.2</ele>
        <time>2025-08-31T11:08:10.000Z</time>
      </trkpt>
      <trkpt lat="44.21308" lon="2.93122">
        <ele>1091.8</ele>
        <time>2025-08-31T11:08:12.000Z</time>
      </trkpt>
      <trkpt lat="44.21306" lon="2.93138">
        <ele>1091.4</ele>
        <time>2025-08-31T11:08:14.000Z</time>
      </trkpt>
      <trkpt lat="44.213" lon="2.93156">
        <ele>1090.9</ele>
        <time>2025-08-31T11:08:16.000Z</time>
      </trkpt>
      <trkpt lat="44.21296" lon="2.93172">
        <ele>1090.3</ele>
        <time>2025-08-31T11:08:18.000Z</time>
      </trkpt>
      <trkpt lat="44.21292" lon="2.93184">
        <ele>1089.7</ele>
        <time>2025-08-31T11:08:20.000Z</time>
      </trkpt>
      <trkpt lat="44.21285" lon="2.93195">
        <ele>1089.1</ele>
        <time>2025-08-31T11:08:22.000Z</time>
      </trkpt>
      <trkpt lat="44.21275" lon="2.93204">
        <ele>1088.4</ele>
        <time>2025-08-31T11:08:24.000Z</time>
      </trkpt>
      <trkpt lat="44.21265" lon="2.93213">
        <ele>1087.6</ele>
        <time>2025-08-31T11:08:26.000Z</time>
      </trkpt>
      <trkpt lat="44.21257" lon="2.93223">
        <ele>1086.9</ele>
        <time>2025-08-31T11:08:28.000Z</time>
      </trkpt>
      <trkpt lat="44.21249" lon="2.93235">
        <ele>1086.2</ele>
        <time>2025-08-31T11:08:30.000Z</time>
      </trkpt>
      <trkpt lat="44.2124" lon="2.93248">
        <ele>1085.5</ele>
        <time>2025-08-31T11:08:32.000Z</time>
      </trkpt>
      <trkpt lat="44.21231" lon="2.93262">
        <ele>1084.9</ele>
        <time>2025-08-31T11:08:34.000Z</time>
      </trkpt>
      <trkpt lat="44.21221" lon="2.93277">
        <ele>1084.2</ele>
        <time>2025-08-31T11:08:36.000Z</time>
      </trkpt>
      <trkpt lat="44.21212" lon="2.9329">
        <ele>1083.3</ele>
        <time>2025-08-31T11:08:38.000Z</time>
      </trkpt>
      <trkpt lat="44.21205" lon="2.93301">
        <ele>1082.4</ele>
        <time>2025-08-31T11:08:40.000Z</time>
      </trkpt>
      <trkpt lat="44.21199" lon="2.93311">
        <ele>1081.3</ele>
        <time>2025-08-31T11:08:42.000Z</time>
      </trkpt>
      <trkpt lat="44.21193" lon="2.93323">
        <ele>1080.4</ele>
        <time>2025-08-31T11:08:44.000Z</time>
      </trkpt>
      <trkpt lat="44.21185" lon="2.93339">
        <ele>1079.4</ele>
        <time>2025-08-31T11:08:46.000Z</time>
      </trkpt>
      <trkpt lat="44.21178" lon="2.93354">
        <ele>1077.8</ele>
        <time>2025-08-31T11:08:49.000Z</time>
      </trkpt>
      <trkpt lat="44.21172" lon="2.93367">
        <ele>1075.7</ele>
        <time>2025-08-31T11:08:53.000Z</time>
      </trkpt>
      <trkpt lat="44.21166" lon="2.93381">
        <ele>1073.8</ele>
        <time>2025-08-31T11:08:57.000Z</time>
      </trkpt>
      <trkpt lat="44.21158" lon="2.9339">
        <ele>1072.1</ele>
        <time>2025-08-31T11:09:01.000Z</time>
      </trkpt>
      <trkpt lat="44.21155" lon="2.93404">
        <ele>1070.5</ele>
        <time>2025-08-31T11:09:05.000Z</time>
      </trkpt>
      <trkpt lat="44.21164" lon="2.93413">
        <ele>1068.7</ele>
        <time>2025-08-31T11:09:10.000Z</time>
      </trkpt>
      <trkpt lat="44.21173" lon="2.93417">
        <ele>1065.4</ele>
        <time>2025-08-31T11:09:27.000Z</time>
      </trkpt>
      <trkpt lat="44.21184" lon="2.93423">
        <ele>1065</ele>
        <time>2025-08-31T11:09:31.000Z</time>
      </trkpt>
      <trkpt lat="44.21194" lon="2.93429">
        <ele>1064.8</ele>
        <time>2025-08-31T11:09:35.000Z</time>
      </trkpt>
      <trkpt lat="44.21203" lon="2.93434">
        <ele>1064.8</ele>
        <time>2025-08-31T11:09:39.000Z</time>
      </trkpt>
      <trkpt lat="44.21211" lon="2.93439">
        <ele>1064.9</ele>
        <time>2025-08-31T11:09:43.000Z</time>
      </trkpt>
      <trkpt lat="44.2122" lon="2.93442">
        <ele>1065.2</ele>
        <time>2025-08-31T11:09:47.000Z</time>
      </trkpt>
      <trkpt lat="44.21229" lon="2.93445">
        <ele>1065.6</ele>
        <time>2025-08-31T11:09:51.000Z</time>
      </trkpt>
      <trkpt lat="44.21239" lon="2.93449">
        <ele>1065.9</ele>
        <time>2025-08-31T11:09:55.000Z</time>
      </trkpt>
      <trkpt lat="44.2125" lon="2.93453">
        <ele>1066.3</ele>
        <time>2025-08-31T11:09:59.000Z</time>
      </trkpt>
      <trkpt lat="44.2126" lon="2.93457">
        <ele>1066.8</ele>
        <time>2025-08-31T11:10:04.000Z</time>
      </trkpt>
      <trkpt lat="44.21265" lon="2.93471">
        <ele>1068.2</ele>
        <time>2025-08-31T11:10:30.000Z</time>
      </trkpt>
      <trkpt lat="44.21263" lon="2.93487">
        <ele>1068.1</ele>
        <time>2025-08-31T11:10:33.000Z</time>
      </trkpt>
      <trkpt lat="44.21263" lon="2.93501">
        <ele>1067.9</ele>
        <time>2025-08-31T11:10:35.000Z</time>
      </trkpt>
      <trkpt lat="44.21264" lon="2.93518">
        <ele>1067.2</ele>
        <time>2025-08-31T11:10:38.000Z</time>
      </trkpt>
      <trkpt lat="44.21267" lon="2.93534">
        <ele>1066.4</ele>
        <time>2025-08-31T11:10:41.000Z</time>
      </trkpt>
      <trkpt lat="44.21271" lon="2.93551">
        <ele>1065.5</ele>
        <time>2025-08-31T11:10:44.000Z</time>
      </trkpt>
      <trkpt lat="44.21273" lon="2.93567">
        <ele>1064.4</ele>
        <time>2025-08-31T11:10:47.000Z</time>
      </trkpt>
      <trkpt lat="44.21271" lon="2.9358">
        <ele>1063.7</ele>
        <time>2025-08-31T11:10:49.000Z</time>
      </trkpt>
      <trkpt lat="44.21266" lon="2.93596">
        <ele>1062.6</ele>
        <time>2025-08-31T11:10:52.000Z</time>
      </trkpt>
      <trkpt lat="44.21262" lon="2.9361">
        <ele>1061.5</ele>
        <time>2025-08-31T11:10:55.000Z</time>
      </trkpt>
      <trkpt lat="44.21256" lon="2.93621">
        <ele>1060.5</ele>
        <time>2025-08-31T11:10:58.000Z</time>
      </trkpt>
      <trkpt lat="44.21252" lon="2.93635">
        <ele>1058.9</ele>
        <time>2025-08-31T11:11:02.000Z</time>
      </trkpt>
      <trkpt lat="44.21247" lon="2.93648">
        <ele>1057.7</ele>
        <time>2025-08-31T11:11:05.000Z</time>
      </trkpt>
      <trkpt lat="44.21241" lon="2.93662">
        <ele>1056.7</ele>
        <time>2025-08-31T11:11:08.000Z</time>
      </trkpt>
      <trkpt lat="44.21235" lon="2.93676">
        <ele>1055.6</ele>
        <time>2025-08-31T11:11:11.000Z</time>
      </trkpt>
      <trkpt lat="44.21228" lon="2.93689">
        <ele>1054.4</ele>
        <time>2025-08-31T11:11:14.000Z</time>
      </trkpt>
      <trkpt lat="44.21223" lon="2.937">
        <ele>1053.6</ele>
        <time>2025-08-31T11:11:16.000Z</time>
      </trkpt>
      <trkpt lat="44.21215" lon="2.93713">
        <ele>1052.2</ele>
        <time>2025-08-31T11:11:19.000Z</time>
      </trkpt>
      <trkpt lat="44.21207" lon="2.93722">
        <ele>1050.9</ele>
        <time>2025-08-31T11:11:22.000Z</time>
      </trkpt>
      <trkpt lat="44.21196" lon="2.93732">
        <ele>1049.6</ele>
        <time>2025-08-31T11:11:25.000Z</time>
      </trkpt>
      <trkpt lat="44.21187" lon="2.9374">
        <ele>1048.9</ele>
        <time>2025-08-31T11:11:27.000Z</time>
      </trkpt>
      <trkpt lat="44.21177" lon="2.93744">
        <ele>1048</ele>
        <time>2025-08-31T11:11:29.000Z</time>
      </trkpt>
      <trkpt lat="44.21164" lon="2.93745">
        <ele>1046.5</ele>
        <time>2025-08-31T11:11:32.000Z</time>
      </trkpt>
      <trkpt lat="44.21152" lon="2.93746">
        <ele>1045.2</ele>
        <time>2025-08-31T11:11:35.000Z</time>
      </trkpt>
      <trkpt lat="44.2114" lon="2.9375">
        <ele>1043.8</ele>
        <time>2025-08-31T11:11:38.000Z</time>
      </trkpt>
      <trkpt lat="44.21139" lon="2.93763">
        <ele>1042.3</ele>
        <time>2025-08-31T11:11:41.000Z</time>
      </trkpt>
      <trkpt lat="44.21148" lon="2.93772">
        <ele>1040.9</ele>
        <time>2025-08-31T11:11:44.000Z</time>
      </trkpt>
      <trkpt lat="44.21158" lon="2.9378">
        <ele>1039.4</ele>
        <time>2025-08-31T11:11:47.000Z</time>
      </trkpt>
      <trkpt lat="44.21165" lon="2.93788">
        <ele>1037.8</ele>
        <time>2025-08-31T11:11:50.000Z</time>
      </trkpt>
      <trkpt lat="44.21173" lon="2.93798">
        <ele>1036.3</ele>
        <time>2025-08-31T11:11:53.000Z</time>
      </trkpt>
      <trkpt lat="44.21174" lon="2.93811">
        <ele>1035.3</ele>
        <time>2025-08-31T11:11:55.000Z</time>
      </trkpt>
      <trkpt lat="44.2117" lon="2.93824">
        <ele>1034.2</ele>
        <time>2025-08-31T11:11:57.000Z</time>
      </trkpt>
      <trkpt lat="44.21163" lon="2.93838">
        <ele>1033.1</ele>
        <time>2025-08-31T11:11:59.000Z</time>
      </trkpt>
      <trkpt lat="44.21155" lon="2.93854">
        <ele>1032</ele>
        <time>2025-08-31T11:12:01.000Z</time>
      </trkpt>
      <trkpt lat="44.21147" lon="2.93869">
        <ele>1030.7</ele>
        <time>2025-08-31T11:12:03.000Z</time>
      </trkpt>
      <trkpt lat="44.21139" lon="2.93884">
        <ele>1029.3</ele>
        <time>2025-08-31T11:12:05.000Z</time>
      </trkpt>
      <trkpt lat="44.21132" lon="2.939">
        <ele>1028.1</ele>
        <time>2025-08-31T11:12:07.000Z</time>
      </trkpt>
      <trkpt lat="44.21125" lon="2.93916">
        <ele>1026.9</ele>
        <time>2025-08-31T11:12:09.000Z</time>
      </trkpt>
      <trkpt lat="44.21118" lon="2.9393">
        <ele>1026.1</ele>
        <time>2025-08-31T11:12:11.000Z</time>
      </trkpt>
      <trkpt lat="44.21111" lon="2.93943">
        <ele>1025</ele>
        <time>2025-08-31T11:12:13.000Z</time>
      </trkpt>
      <trkpt lat="44.21104" lon="2.93956">
        <ele>1024</ele>
        <time>2025-08-31T11:12:15.000Z</time>
      </trkpt>
      <trkpt lat="44.21097" lon="2.93967">
        <ele>1023.1</ele>
        <time>2025-08-31T11:12:17.000Z</time>
      </trkpt>
      <trkpt lat="44.21091" lon="2.93979">
        <ele>1022.3</ele>
        <time>2025-08-31T11:12:19.000Z</time>
      </trkpt>
      <trkpt lat="44.21085" lon="2.93991">
        <ele>1021.6</ele>
        <time>2025-08-31T11:12:21.000Z</time>
      </trkpt>
      <trkpt lat="44.2108" lon="2.94002">
        <ele>1020.8</ele>
        <time>2025-08-31T11:12:23.000Z</time>
      </trkpt>
      <trkpt lat="44.21074" lon="2.94014">
        <ele>1019.9</ele>
        <time>2025-08-31T11:12:25.000Z</time>
      </trkpt>
      <trkpt lat="44.21069" lon="2.94028">
        <ele>1018.9</ele>
        <time>2025-08-31T11:12:28.000Z</time>
      </trkpt>
      <trkpt lat="44.21064" lon="2.94039">
        <ele>1018.1</ele>
        <time>2025-08-31T11:12:31.000Z</time>
      </trkpt>
      <trkpt lat="44.21059" lon="2.94052">
        <ele>1017.3</ele>
        <time>2025-08-31T11:12:34.000Z</time>
      </trkpt>
      <trkpt lat="44.21052" lon="2.94061">
        <ele>1013.1</ele>
        <time>2025-08-31T11:13:01.000Z</time>
      </trkpt>
      <trkpt lat="44.21049" lon="2.94077">
        <ele>1012.8</ele>
        <time>2025-08-31T11:13:06.000Z</time>
      </trkpt>
      <trkpt lat="44.21044" lon="2.94088">
        <ele>1012.6</ele>
        <time>2025-08-31T11:13:09.000Z</time>
      </trkpt>
      <trkpt lat="44.21038" lon="2.94102">
        <ele>1012.2</ele>
        <time>2025-08-31T11:13:12.000Z</time>
      </trkpt>
      <trkpt lat="44.21029" lon="2.94115">
        <ele>1011.6</ele>
        <time>2025-08-31T11:13:15.000Z</time>
      </trkpt>
      <trkpt lat="44.21021" lon="2.94127">
        <ele>1011</ele>
        <time>2025-08-31T11:13:18.000Z</time>
      </trkpt>
      <trkpt lat="44.21012" lon="2.9414">
        <ele>1010.4</ele>
        <time>2025-08-31T11:13:21.000Z</time>
      </trkpt>
      <trkpt lat="44.21003" lon="2.94153">
        <ele>1009.7</ele>
        <time>2025-08-31T11:13:24.000Z</time>
      </trkpt>
      <trkpt lat="44.20996" lon="2.94163">
        <ele>1009.2</ele>
        <time>2025-08-31T11:13:26.000Z</time>
      </trkpt>
      <trkpt lat="44.20988" lon="2.94176">
        <ele>1008.4</ele>
        <time>2025-08-31T11:13:29.000Z</time>
      </trkpt>
      <trkpt lat="44.20978" lon="2.94188">
        <ele>1007.5</ele>
        <time>2025-08-31T11:13:32.000Z</time>
      </trkpt>
      <trkpt lat="44.20972" lon="2.94197">
        <ele>1006.9</ele>
        <time>2025-08-31T11:13:34.000Z</time>
      </trkpt>
      <trkpt lat="44.20963" lon="2.94209">
        <ele>1005.7</ele>
        <time>2025-08-31T11:13:37.000Z</time>
      </trkpt>
      <trkpt lat="44.20954" lon="2.94218">
        <ele>1004.5</ele>
        <time>2025-08-31T11:13:40.000Z</time>
      </trkpt>
      <trkpt lat="44.20945" lon="2.94227">
        <ele>1003.4</ele>
        <time>2025-08-31T11:13:43.000Z</time>
      </trkpt>
      <trkpt lat="44.20938" lon="2.94235">
        <ele>1002.5</ele>
        <time>2025-08-31T11:13:46.000Z</time>
      </trkpt>
      <trkpt lat="44.20931" lon="2.94246">
        <ele>1001.5</ele>
        <time>2025-08-31T11:13:49.000Z</time>
      </trkpt>
      <trkpt lat="44.20926" lon="2.94256">
        <ele>1000.4</ele>
        <time>2025-08-31T11:13:52.000Z</time>
      </trkpt>
      <trkpt lat="44.2092" lon="2.94267">
        <ele>999.4</ele>
        <time>2025-08-31T11:13:55.000Z</time>
      </trkpt>
      <trkpt lat="44.20914" lon="2.94279">
        <ele>998.3</ele>
        <time>2025-08-31T11:13:58.000Z</time>
      </trkpt>
      <trkpt lat="44.20908" lon="2.94295">
        <ele>997.1</ele>
        <time>2025-08-31T11:14:01.000Z</time>
      </trkpt>
      <trkpt lat="44.20901" lon="2.9431">
        <ele>996</ele>
        <time>2025-08-31T11:14:04.000Z</time>
      </trkpt>
      <trkpt lat="44.20895" lon="2.94323">
        <ele>994.6</ele>
        <time>2025-08-31T11:14:07.000Z</time>
      </trkpt>
      <trkpt lat="44.20888" lon="2.94337">
        <ele>993</ele>
        <time>2025-08-31T11:14:11.000Z</time>
      </trkpt>
      <trkpt lat="44.2088" lon="2.9435">
        <ele>991.4</ele>
        <time>2025-08-31T11:14:15.000Z</time>
      </trkpt>
      <trkpt lat="44.20873" lon="2.9436">
        <ele>990.2</ele>
        <time>2025-08-31T11:14:18.000Z</time>
      </trkpt>
      <trkpt lat="44.20868" lon="2.9437">
        <ele>989.2</ele>
        <time>2025-08-31T11:14:21.000Z</time>
      </trkpt>
      <trkpt lat="44.20863" lon="2.9438">
        <ele>988</ele>
        <time>2025-08-31T11:14:24.000Z</time>
      </trkpt>
      <trkpt lat="44.20856" lon="2.9439">
        <ele>986.8</ele>
        <time>2025-08-31T11:14:27.000Z</time>
      </trkpt>
      <trkpt lat="44.20849" lon="2.94399">
        <ele>985.5</ele>
        <time>2025-08-31T11:14:30.000Z</time>
      </trkpt>
      <trkpt lat="44.20841" lon="2.94408">
        <ele>983.8</ele>
        <time>2025-08-31T11:14:34.000Z</time>
      </trkpt>
      <trkpt lat="44.20833" lon="2.94416">
        <ele>982.6</ele>
        <time>2025-08-31T11:14:37.000Z</time>
      </trkpt>
      <trkpt lat="44.20823" lon="2.94424">
        <ele>981.4</ele>
        <time>2025-08-31T11:14:40.000Z</time>
      </trkpt>
      <trkpt lat="44.20815" lon="2.94431">
        <ele>980.6</ele>
        <time>2025-08-31T11:14:42.000Z</time>
      </trkpt>
      <trkpt lat="44.20804" lon="2.9444">
        <ele>979.3</ele>
        <time>2025-08-31T11:14:45.000Z</time>
      </trkpt>
      <trkpt lat="44.20795" lon="2.94449">
        <ele>978</ele>
        <time>2025-08-31T11:14:48.000Z</time>
      </trkpt>
      <trkpt lat="44.20787" lon="2.94458">
        <ele>976.7</ele>
        <time>2025-08-31T11:14:51.000Z</time>
      </trkpt>
      <trkpt lat="44.2078" lon="2.94469">
        <ele>975.3</ele>
        <time>2025-08-31T11:14:54.000Z</time>
      </trkpt>
      <trkpt lat="44.20772" lon="2.94483">
        <ele>974</ele>
        <time>2025-08-31T11:14:57.000Z</time>
      </trkpt>
      <trkpt lat="44.20765" lon="2.94496">
        <ele>972.7</ele>
        <time>2025-08-31T11:15:00.000Z</time>
      </trkpt>
      <trkpt lat="44.2076" lon="2.9451">
        <ele>971.2</ele>
        <time>2025-08-31T11:15:03.000Z</time>
      </trkpt>
      <trkpt lat="44.20755" lon="2.94521">
        <ele>969.6</ele>
        <time>2025-08-31T11:15:06.000Z</time>
      </trkpt>
      <trkpt lat="44.20749" lon="2.94534">
        <ele>967.5</ele>
        <time>2025-08-31T11:15:10.000Z</time>
      </trkpt>
      <trkpt lat="44.20745" lon="2.94548">
        <ele>966</ele>
        <time>2025-08-31T11:15:13.000Z</time>
      </trkpt>
      <trkpt lat="44.20742" lon="2.94563">
        <ele>964.3</ele>
        <time>2025-08-31T11:15:16.000Z</time>
      </trkpt>
      <trkpt lat="44.20741" lon="2.94578">
        <ele>962.9</ele>
        <time>2025-08-31T11:15:19.000Z</time>
      </trkpt>
      <trkpt lat="44.20738" lon="2.94595">
        <ele>961</ele>
        <time>2025-08-31T11:15:23.000Z</time>
      </trkpt>
      <trkpt lat="44.20735" lon="2.9461">
        <ele>959.5</ele>
        <time>2025-08-31T11:15:26.000Z</time>
      </trkpt>
      <trkpt lat="44.2073" lon="2.94626">
        <ele>958</ele>
        <time>2025-08-31T11:15:29.000Z</time>
      </trkpt>
      <trkpt lat="44.20727" lon="2.94638">
        <ele>956.9</ele>
        <time>2025-08-31T11:15:31.000Z</time>
      </trkpt>
      <trkpt lat="44.20722" lon="2.94653">
        <ele>955.2</ele>
        <time>2025-08-31T11:15:34.000Z</time>
      </trkpt>
      <trkpt lat="44.20721" lon="2.9467">
        <ele>953.6</ele>
        <time>2025-08-31T11:15:37.000Z</time>
      </trkpt>
      <trkpt lat="44.20723" lon="2.94685">
        <ele>952.4</ele>
        <time>2025-08-31T11:15:39.000Z</time>
      </trkpt>
      <trkpt lat="44.20722" lon="2.94703">
        <ele>951.2</ele>
        <time>2025-08-31T11:15:41.000Z</time>
      </trkpt>
      <trkpt lat="44.20723" lon="2.94721">
        <ele>950</ele>
        <time>2025-08-31T11:15:43.000Z</time>
      </trkpt>
      <trkpt lat="44.20723" lon="2.94735">
        <ele>948.8</ele>
        <time>2025-08-31T11:15:45.000Z</time>
      </trkpt>
      <trkpt lat="44.20725" lon="2.94749">
        <ele>946.5</ele>
        <time>2025-08-31T11:15:49.000Z</time>
      </trkpt>
      <trkpt lat="44.20723" lon="2.94763">
        <ele>943.2</ele>
        <time>2025-08-31T11:15:56.000Z</time>
      </trkpt>
      <trkpt lat="44.20721" lon="2.9478">
        <ele>941.7</ele>
        <time>2025-08-31T11:16:00.000Z</time>
      </trkpt>
      <trkpt lat="44.20718" lon="2.94796">
        <ele>940.6</ele>
        <time>2025-08-31T11:16:03.000Z</time>
      </trkpt>
      <trkpt lat="44.20714" lon="2.94813">
        <ele>939.2</ele>
        <time>2025-08-31T11:16:06.000Z</time>
      </trkpt>
      <trkpt lat="44.20713" lon="2.94826">
        <ele>938.5</ele>
        <time>2025-08-31T11:16:08.000Z</time>
      </trkpt>
      <trkpt lat="44.20711" lon="2.94843">
        <ele>937.3</ele>
        <time>2025-08-31T11:16:11.000Z</time>
      </trkpt>
      <trkpt lat="44.2071" lon="2.94857">
        <ele>936</ele>
        <time>2025-08-31T11:16:14.000Z</time>
      </trkpt>
      <trkpt lat="44.20709" lon="2.94874">
        <ele>934.5</ele>
        <time>2025-08-31T11:16:17.000Z</time>
      </trkpt>
      <trkpt lat="44.20708" lon="2.94887">
        <ele>933.1</ele>
        <time>2025-08-31T11:16:20.000Z</time>
      </trkpt>
      <trkpt lat="44.20706" lon="2.94899">
        <ele>931.2</ele>
        <time>2025-08-31T11:16:24.000Z</time>
      </trkpt>
      <trkpt lat="44.20703" lon="2.94911">
        <ele>928.5</ele>
        <time>2025-08-31T11:16:31.000Z</time>
      </trkpt>
      <trkpt lat="44.20701" lon="2.94927">
        <ele>927.3</ele>
        <time>2025-08-31T11:16:34.000Z</time>
      </trkpt>
      <trkpt lat="44.20698" lon="2.94945">
        <ele>925.8</ele>
        <time>2025-08-31T11:16:37.000Z</time>
      </trkpt>
      <trkpt lat="44.20696" lon="2.94958">
        <ele>924.7</ele>
        <time>2025-08-31T11:16:39.000Z</time>
      </trkpt>
      <trkpt lat="44.20694" lon="2.94971">
        <ele>923.6</ele>
        <time>2025-08-31T11:16:41.000Z</time>
      </trkpt>
      <trkpt lat="44.20691" lon="2.94983">
        <ele>922.5</ele>
        <time>2025-08-31T11:16:43.000Z</time>
      </trkpt>
      <trkpt lat="44.20688" lon="2.94995">
        <ele>921.4</ele>
        <time>2025-08-31T11:16:45.000Z</time>
      </trkpt>
      <trkpt lat="44.20685" lon="2.95008">
        <ele>920.3</ele>
        <time>2025-08-31T11:16:47.000Z</time>
      </trkpt>
      <trkpt lat="44.20681" lon="2.95021">
        <ele>919.1</ele>
        <time>2025-08-31T11:16:49.000Z</time>
      </trkpt>
      <trkpt lat="44.20677" lon="2.95036">
        <ele>917.5</ele>
        <time>2025-08-31T11:16:52.000Z</time>
      </trkpt>
      <trkpt lat="44.20672" lon="2.95051">
        <ele>916</ele>
        <time>2025-08-31T11:16:55.000Z</time>
      </trkpt>
      <trkpt lat="44.20667" lon="2.95065">
        <ele>914.6</ele>
        <time>2025-08-31T11:16:58.000Z</time>
      </trkpt>
      <trkpt lat="44.2066" lon="2.95081">
        <ele>912.9</ele>
        <time>2025-08-31T11:17:01.000Z</time>
      </trkpt>
      <trkpt lat="44.20654" lon="2.95095">
        <ele>911</ele>
        <time>2025-08-31T11:17:04.000Z</time>
      </trkpt>
      <trkpt lat="44.20651" lon="2.95107">
        <ele>907.2</ele>
        <time>2025-08-31T11:17:11.000Z</time>
      </trkpt>
      <trkpt lat="44.20642" lon="2.95119">
        <ele>905.2</ele>
        <time>2025-08-31T11:17:16.000Z</time>
      </trkpt>
      <trkpt lat="44.20634" lon="2.95128">
        <ele>904.4</ele>
        <time>2025-08-31T11:17:18.000Z</time>
      </trkpt>
      <trkpt lat="44.20628" lon="2.95137">
        <ele>903.6</ele>
        <time>2025-08-31T11:17:20.000Z</time>
      </trkpt>
      <trkpt lat="44.20619" lon="2.95148">
        <ele>902.1</ele>
        <time>2025-08-31T11:17:23.000Z</time>
      </trkpt>
      <trkpt lat="44.20612" lon="2.95161">
        <ele>900.6</ele>
        <time>2025-08-31T11:17:26.000Z</time>
      </trkpt>
      <trkpt lat="44.20604" lon="2.95175">
        <ele>899.1</ele>
        <time>2025-08-31T11:17:29.000Z</time>
      </trkpt>
      <trkpt lat="44.20597" lon="2.95189">
        <ele>897.3</ele>
        <time>2025-08-31T11:17:32.000Z</time>
      </trkpt>
      <trkpt lat="44.20591" lon="2.95201">
        <ele>895.7</ele>
        <time>2025-08-31T11:17:35.000Z</time>
      </trkpt>
      <trkpt lat="44.20585" lon="2.95214">
        <ele>894</ele>
        <time>2025-08-31T11:17:38.000Z</time>
      </trkpt>
      <trkpt lat="44.20578" lon="2.95229">
        <ele>892.5</ele>
        <time>2025-08-31T11:17:41.000Z</time>
      </trkpt>
      <trkpt lat="44.20571" lon="2.9524">
        <ele>891.5</ele>
        <time>2025-08-31T11:17:43.000Z</time>
      </trkpt>
      <trkpt lat="44.20563" lon="2.9525">
        <ele>890.4</ele>
        <time>2025-08-31T11:17:45.000Z</time>
      </trkpt>
      <trkpt lat="44.20555" lon="2.95257">
        <ele>889.2</ele>
        <time>2025-08-31T11:17:47.000Z</time>
      </trkpt>
      <trkpt lat="44.20547" lon="2.95262">
        <ele>888.1</ele>
        <time>2025-08-31T11:17:49.000Z</time>
      </trkpt>
      <trkpt lat="44.20537" lon="2.95269">
        <ele>886.4</ele>
        <time>2025-08-31T11:17:52.000Z</time>
      </trkpt>
      <trkpt lat="44.2053" lon="2.95278">
        <ele>884.3</ele>
        <time>2025-08-31T11:17:56.000Z</time>
      </trkpt>
      <trkpt lat="44.20524" lon="2.95288">
        <ele>882.9</ele>
        <time>2025-08-31T11:17:59.000Z</time>
      </trkpt>
      <trkpt lat="44.20517" lon="2.95299">
        <ele>881.6</ele>
        <time>2025-08-31T11:18:02.000Z</time>
      </trkpt>
      <trkpt lat="44.20512" lon="2.95309">
        <ele>880.7</ele>
        <time>2025-08-31T11:18:04.000Z</time>
      </trkpt>
      <trkpt lat="44.20506" lon="2.9532">
        <ele>879.7</ele>
        <time>2025-08-31T11:18:06.000Z</time>
      </trkpt>
      <trkpt lat="44.20498" lon="2.9533">
        <ele>878.8</ele>
        <time>2025-08-31T11:18:08.000Z</time>
      </trkpt>
      <trkpt lat="44.2049" lon="2.9534">
        <ele>877.8</ele>
        <time>2025-08-31T11:18:10.000Z</time>
      </trkpt>
      <trkpt lat="44.20481" lon="2.9535">
        <ele>876.7</ele>
        <time>2025-08-31T11:18:12.000Z</time>
      </trkpt>
      <trkpt lat="44.20473" lon="2.95359">
        <ele>875.7</ele>
        <time>2025-08-31T11:18:14.000Z</time>
      </trkpt>
      <trkpt lat="44.20463" lon="2.95368">
        <ele>874.3</ele>
        <time>2025-08-31T11:18:17.000Z</time>
      </trkpt>
      <trkpt lat="44.20454" lon="2.95377">
        <ele>872.9</ele>
        <time>2025-08-31T11:18:20.000Z</time>
      </trkpt>
      <trkpt lat="44.20444" lon="2.95389">
        <ele>871.5</ele>
        <time>2025-08-31T11:18:23.000Z</time>
      </trkpt>
      <trkpt lat="44.20434" lon="2.95398">
        <ele>870.1</ele>
        <time>2025-08-31T11:18:26.000Z</time>
      </trkpt>
      <trkpt lat="44.20425" lon="2.95403">
        <ele>869.2</ele>
        <time>2025-08-31T11:18:28.000Z</time>
      </trkpt>
      <trkpt lat="44.20416" lon="2.95408">
        <ele>868.2</ele>
        <time>2025-08-31T11:18:30.000Z</time>
      </trkpt>
      <trkpt lat="44.20404" lon="2.95413">
        <ele>866.8</ele>
        <time>2025-08-31T11:18:33.000Z</time>
      </trkpt>
      <trkpt lat="44.20396" lon="2.95417">
        <ele>865.5</ele>
        <time>2025-08-31T11:18:36.000Z</time>
      </trkpt>
      <trkpt lat="44.20387" lon="2.9542">
        <ele>863.4</ele>
        <time>2025-08-31T11:18:41.000Z</time>
      </trkpt>
      <trkpt lat="44.20377" lon="2.95424">
        <ele>862.3</ele>
        <time>2025-08-31T11:18:44.000Z</time>
      </trkpt>
      <trkpt lat="44.20364" lon="2.95427">
        <ele>861.2</ele>
        <time>2025-08-31T11:18:47.000Z</time>
      </trkpt>
      <trkpt lat="44.20354" lon="2.95429">
        <ele>860.4</ele>
        <time>2025-08-31T11:18:49.000Z</time>
      </trkpt>
      <trkpt lat="44.20345" lon="2.9543">
        <ele>859.6</ele>
        <time>2025-08-31T11:18:51.000Z</time>
      </trkpt>
      <trkpt lat="44.20333" lon="2.95432">
        <ele>858.3</ele>
        <time>2025-08-31T11:18:54.000Z</time>
      </trkpt>
      <trkpt lat="44.20323" lon="2.95433">
        <ele>857.3</ele>
        <time>2025-08-31T11:18:56.000Z</time>
      </trkpt>
      <trkpt lat="44.2031" lon="2.95435">
        <ele>855.8</ele>
        <time>2025-08-31T11:18:59.000Z</time>
      </trkpt>
      <trkpt lat="44.203" lon="2.9544">
        <ele>854.4</ele>
        <time>2025-08-31T11:19:02.000Z</time>
      </trkpt>
      <trkpt lat="44.2029" lon="2.95445">
        <ele>853</ele>
        <time>2025-08-31T11:19:05.000Z</time>
      </trkpt>
      <trkpt lat="44.20282" lon="2.95454">
        <ele>851.6</ele>
        <time>2025-08-31T11:19:08.000Z</time>
      </trkpt>
      <trkpt lat="44.20279" lon="2.95466">
        <ele>849.8</ele>
        <time>2025-08-31T11:19:12.000Z</time>
      </trkpt>
      <trkpt lat="44.20271" lon="2.95459">
        <ele>846.7</ele>
        <time>2025-08-31T11:19:23.000Z</time>
      </trkpt>
      <trkpt lat="44.20277" lon="2.95469">
        <ele>844</ele>
        <time>2025-08-31T11:19:54.000Z</time>
      </trkpt>
      <trkpt lat="44.20288" lon="2.95476">
        <ele>844</ele>
        <time>2025-08-31T11:19:57.000Z</time>
      </trkpt>
      <trkpt lat="44.20297" lon="2.95483">
        <ele>843.9</ele>
        <time>2025-08-31T11:19:59.000Z</time>
      </trkpt>
      <trkpt lat="44.20306" lon="2.95492">
        <ele>843.9</ele>
        <time>2025-08-31T11:20:01.000Z</time>
      </trkpt>
      <trkpt lat="44.20316" lon="2.95502">
        <ele>843.6</ele>
        <time>2025-08-31T11:20:03.000Z</time>
      </trkpt>
      <trkpt lat="44.20326" lon="2.95513">
        <ele>843.4</ele>
        <time>2025-08-31T11:20:05.000Z</time>
      </trkpt>
      <trkpt lat="44.20336" lon="2.95525">
        <ele>843</ele>
        <time>2025-08-31T11:20:07.000Z</time>
      </trkpt>
      <trkpt lat="44.20346" lon="2.95535">
        <ele>842.6</ele>
        <time>2025-08-31T11:20:09.000Z</time>
      </trkpt>
      <trkpt lat="44.20355" lon="2.95546">
        <ele>842.2</ele>
        <time>2025-08-31T11:20:11.000Z</time>
      </trkpt>
      <trkpt lat="44.20365" lon="2.95556">
        <ele>841.8</ele>
        <time>2025-08-31T11:20:13.000Z</time>
      </trkpt>
      <trkpt lat="44.20376" lon="2.95565">
        <ele>841.4</ele>
        <time>2025-08-31T11:20:15.000Z</time>
      </trkpt>
      <trkpt lat="44.20388" lon="2.95571">
        <ele>840.9</ele>
        <time>2025-08-31T11:20:17.000Z</time>
      </trkpt>
      <trkpt lat="44.20396" lon="2.95575">
        <ele>840.3</ele>
        <time>2025-08-31T11:20:19.000Z</time>
      </trkpt>
      <trkpt lat="44.20399" lon="2.95587">
        <ele>839</ele>
        <time>2025-08-31T11:20:25.000Z</time>
      </trkpt>
      <trkpt lat="44.20391" lon="2.95593">
        <ele>838.5</ele>
        <time>2025-08-31T11:20:27.000Z</time>
      </trkpt>
      <trkpt lat="44.2038" lon="2.95599">
        <ele>838.1</ele>
        <time>2025-08-31T11:20:29.000Z</time>
      </trkpt>
      <trkpt lat="44.20368" lon="2.95606">
        <ele>837.5</ele>
        <time>2025-08-31T11:20:31.000Z</time>
      </trkpt>
      <trkpt lat="44.20355" lon="2.95616">
        <ele>837</ele>
        <time>2025-08-31T11:20:33.000Z</time>
      </trkpt>
      <trkpt lat="44.20343" lon="2.95628">
        <ele>836.5</ele>
        <time>2025-08-31T11:20:35.000Z</time>
      </trkpt>
      <trkpt lat="44.20331" lon="2.95641">
        <ele>835.7</ele>
        <time>2025-08-31T11:20:37.000Z</time>
      </trkpt>
      <trkpt lat="44.20319" lon="2.95655">
        <ele>835.1</ele>
        <time>2025-08-31T11:20:39.000Z</time>
      </trkpt>
      <trkpt lat="44.20306" lon="2.95669">
        <ele>834.4</ele>
        <time>2025-08-31T11:20:41.000Z</time>
      </trkpt>
      <trkpt lat="44.20294" lon="2.95684">
        <ele>833.7</ele>
        <time>2025-08-31T11:20:43.000Z</time>
      </trkpt>
      <trkpt lat="44.20281" lon="2.95699">
        <ele>832.9</ele>
        <time>2025-08-31T11:20:45.000Z</time>
      </trkpt>
      <trkpt lat="44.20274" lon="2.95707">
        <ele>832.6</ele>
        <time>2025-08-31T11:20:46.000Z</time>
      </trkpt>
      <trkpt lat="44.20267" lon="2.95716">
        <ele>832.2</ele>
        <time>2025-08-31T11:20:47.000Z</time>
      </trkpt>
      <trkpt lat="44.20261" lon="2.95725">
        <ele>831.7</ele>
        <time>2025-08-31T11:20:48.000Z</time>
      </trkpt>
      <trkpt lat="44.20254" lon="2.95733">
        <ele>831.2</ele>
        <time>2025-08-31T11:20:49.000Z</time>
      </trkpt>
      <trkpt lat="44.20247" lon="2.95742">
        <ele>830.8</ele>
        <time>2025-08-31T11:20:50.000Z</time>
      </trkpt>
      <trkpt lat="44.20241" lon="2.95751">
        <ele>830.4</ele>
        <time>2025-08-31T11:20:51.000Z</time>
      </trkpt>
      <trkpt lat="44.20234" lon="2.9576">
        <ele>829.9</ele>
        <time>2025-08-31T11:20:52.000Z</time>
      </trkpt>
      <trkpt lat="44.20228" lon="2.9577">
        <ele>829.5</ele>
        <time>2025-08-31T11:20:53.000Z</time>
      </trkpt>
      <trkpt lat="44.20223" lon="2.95781">
        <ele>828.9</ele>
        <time>2025-08-31T11:20:54.000Z</time>
      </trkpt>
      <trkpt lat="44.20216" lon="2.95802">
        <ele>827.8</ele>
        <time>2025-08-31T11:20:56.000Z</time>
      </trkpt>
      <trkpt lat="44.20208" lon="2.95822">
        <ele>826.6</ele>
        <time>2025-08-31T11:20:58.000Z</time>
      </trkpt>
      <trkpt lat="44.20197" lon="2.95841">
        <ele>825.6</ele>
        <time>2025-08-31T11:21:00.000Z</time>
      </trkpt>
      <trkpt lat="44.20185" lon="2.95859">
        <ele>824.5</ele>
        <time>2025-08-31T11:21:02.000Z</time>
      </trkpt>
      <trkpt lat="44.20173" lon="2.95877">
        <ele>823.4</ele>
        <time>2025-08-31T11:21:04.000Z</time>
      </trkpt>
      <trkpt lat="44.2016" lon="2.95895">
        <ele>822.4</ele>
        <time>2025-08-31T11:21:06.000Z</time>
      </trkpt>
      <trkpt lat="44.20154" lon="2.95904">
        <ele>821.9</ele>
        <time>2025-08-31T11:21:07.000Z</time>
      </trkpt>
      <trkpt lat="44.20147" lon="2.95913">
        <ele>821.4</ele>
        <time>2025-08-31T11:21:08.000Z</time>
      </trkpt>
      <trkpt lat="44.2014" lon="2.95921">
        <ele>820.9</ele>
        <time>2025-08-31T11:21:09.000Z</time>
      </trkpt>
      <trkpt lat="44.20125" lon="2.95934">
        <ele>820</ele>
        <time>2025-08-31T11:21:11.000Z</time>
      </trkpt>
      <trkpt lat="44.2011" lon="2.95945">
        <ele>819.2</ele>
        <time>2025-08-31T11:21:13.000Z</time>
      </trkpt>
      <trkpt lat="44.20096" lon="2.95955">
        <ele>818.5</ele>
        <time>2025-08-31T11:21:15.000Z</time>
      </trkpt>
      <trkpt lat="44.20082" lon="2.95964">
        <ele>817.9</ele>
        <time>2025-08-31T11:21:17.000Z</time>
      </trkpt>
      <trkpt lat="44.20069" lon="2.9597">
        <ele>817.3</ele>
        <time>2025-08-31T11:21:19.000Z</time>
      </trkpt>
      <trkpt lat="44.20057" lon="2.95975">
        <ele>816.8</ele>
        <time>2025-08-31T11:21:21.000Z</time>
      </trkpt>
      <trkpt lat="44.20046" lon="2.95981">
        <ele>816.4</ele>
        <time>2025-08-31T11:21:23.000Z</time>
      </trkpt>
      <trkpt lat="44.20037" lon="2.95988">
        <ele>816</ele>
        <time>2025-08-31T11:21:25.000Z</time>
      </trkpt>
      <trkpt lat="44.20027" lon="2.95996">
        <ele>815.7</ele>
        <time>2025-08-31T11:21:27.000Z</time>
      </trkpt>
      <trkpt lat="44.20018" lon="2.96005">
        <ele>815.4</ele>
        <time>2025-08-31T11:21:29.000Z</time>
      </trkpt>
      <trkpt lat="44.20009" lon="2.96012">
        <ele>815.1</ele>
        <time>2025-08-31T11:21:31.000Z</time>
      </trkpt>
      <trkpt lat="44.2" lon="2.96019">
        <ele>814.9</ele>
        <time>2025-08-31T11:21:33.000Z</time>
      </trkpt>
      <trkpt lat="44.19991" lon="2.96027">
        <ele>814.7</ele>
        <time>2025-08-31T11:21:35.000Z</time>
      </trkpt>
      <trkpt lat="44.19981" lon="2.96036">
        <ele>814.5</ele>
        <time>2025-08-31T11:21:37.000Z</time>
      </trkpt>
      <trkpt lat="44.19969" lon="2.96045">
        <ele>814.3</ele>
        <time>2025-08-31T11:21:39.000Z</time>
      </trkpt>
      <trkpt lat="44.19957" lon="2.96051">
        <ele>814.2</ele>
        <time>2025-08-31T11:21:41.000Z</time>
      </trkpt>
      <trkpt lat="44.19945" lon="2.96056">
        <ele>814.1</ele>
        <time>2025-08-31T11:21:43.000Z</time>
      </trkpt>
      <trkpt lat="44.19932" lon="2.96061">
        <ele>814</ele>
        <time>2025-08-31T11:21:45.000Z</time>
      </trkpt>
      <trkpt lat="44.1992" lon="2.96064">
        <ele>813.9</ele>
        <time>2025-08-31T11:21:47.000Z</time>
      </trkpt>
      <trkpt lat="44.19909" lon="2.96067">
        <ele>813.8</ele>
        <time>2025-08-31T11:21:49.000Z</time>
      </trkpt>
      <trkpt lat="44.19899" lon="2.96069">
        <ele>813.7</ele>
        <time>2025-08-31T11:21:51.000Z</time>
      </trkpt>
      <trkpt lat="44.19888" lon="2.96073">
        <ele>813.7</ele>
        <time>2025-08-31T11:21:53.000Z</time>
      </trkpt>
      <trkpt lat="44.19878" lon="2.96074">
        <ele>813.6</ele>
        <time>2025-08-31T11:21:55.000Z</time>
      </trkpt>
      <trkpt lat="44.19868" lon="2.96075">
        <ele>813.6</ele>
        <time>2025-08-31T11:21:57.000Z</time>
      </trkpt>
      <trkpt lat="44.19858" lon="2.96076">
        <ele>813.6</ele>
        <time>2025-08-31T11:21:59.000Z</time>
      </trkpt>
      <trkpt lat="44.19849" lon="2.96078">
        <ele>813.7</ele>
        <time>2025-08-31T11:22:01.000Z</time>
      </trkpt>
      <trkpt lat="44.19835" lon="2.9608">
        <ele>813.9</ele>
        <time>2025-08-31T11:22:04.000Z</time>
      </trkpt>
      <trkpt lat="44.19824" lon="2.96083">
        <ele>814.2</ele>
        <time>2025-08-31T11:22:07.000Z</time>
      </trkpt>
      <trkpt lat="44.19813" lon="2.96085">
        <ele>814.5</ele>
        <time>2025-08-31T11:22:10.000Z</time>
      </trkpt>
      <trkpt lat="44.19803" lon="2.96086">
        <ele>814.9</ele>
        <time>2025-08-31T11:22:13.000Z</time>
      </trkpt>
      <trkpt lat="44.19792" lon="2.96089">
        <ele>815.5</ele>
        <time>2025-08-31T11:22:17.000Z</time>
      </trkpt>
      <trkpt lat="44.19781" lon="2.96089">
        <ele>816.3</ele>
        <time>2025-08-31T11:22:21.000Z</time>
      </trkpt>
      <trkpt lat="44.1977" lon="2.96092">
        <ele>817.2</ele>
        <time>2025-08-31T11:22:25.000Z</time>
      </trkpt>
      <trkpt lat="44.1976" lon="2.96096">
        <ele>817.7</ele>
        <time>2025-08-31T11:22:28.000Z</time>
      </trkpt>
      <trkpt lat="44.19751" lon="2.96101">
        <ele>818.2</ele>
        <time>2025-08-31T11:22:31.000Z</time>
      </trkpt>
      <trkpt lat="44.19742" lon="2.96105">
        <ele>818.6</ele>
        <time>2025-08-31T11:22:34.000Z</time>
      </trkpt>
      <trkpt lat="44.19733" lon="2.9611">
        <ele>819</ele>
        <time>2025-08-31T11:22:37.000Z</time>
      </trkpt>
      <trkpt lat="44.19723" lon="2.96114">
        <ele>819.4</ele>
        <time>2025-08-31T11:22:40.000Z</time>
      </trkpt>
      <trkpt lat="44.19714" lon="2.96118">
        <ele>819.8</ele>
        <time>2025-08-31T11:22:43.000Z</time>
      </trkpt>
      <trkpt lat="44.19703" lon="2.96125">
        <ele>820.2</ele>
        <time>2025-08-31T11:22:47.000Z</time>
      </trkpt>
      <trkpt lat="44.19693" lon="2.96133">
        <ele>820.7</ele>
        <time>2025-08-31T11:22:51.000Z</time>
      </trkpt>
      <trkpt lat="44.19685" lon="2.9614">
        <ele>821.2</ele>
        <time>2025-08-31T11:22:54.000Z</time>
      </trkpt>
      <trkpt lat="44.19677" lon="2.96147">
        <ele>821.7</ele>
        <time>2025-08-31T11:22:57.000Z</time>
      </trkpt>
      <trkpt lat="44.19669" lon="2.96156">
        <ele>822.5</ele>
        <time>2025-08-31T11:23:01.000Z</time>
      </trkpt>
      <trkpt lat="44.1966" lon="2.96164">
        <ele>823.2</ele>
        <time>2025-08-31T11:23:05.000Z</time>
      </trkpt>
      <trkpt lat="44.19653" lon="2.96174">
        <ele>824</ele>
        <time>2025-08-31T11:23:09.000Z</time>
      </trkpt>
      <trkpt lat="44.19646" lon="2.96183">
        <ele>824.9</ele>
        <time>2025-08-31T11:23:13.000Z</time>
      </trkpt>
      <trkpt lat="44.19639" lon="2.96193">
        <ele>825.9</ele>
        <time>2025-08-31T11:23:17.000Z</time>
      </trkpt>
      <trkpt lat="44.19632" lon="2.96204">
        <ele>827.1</ele>
        <time>2025-08-31T11:23:22.000Z</time>
      </trkpt>
      <trkpt lat="44.19633" lon="2.96216">
        <ele>828.2</ele>
        <time>2025-08-31T11:23:28.000Z</time>
      </trkpt>
      <trkpt lat="44.19625" lon="2.96222">
        <ele>829.3</ele>
        <time>2025-08-31T11:23:38.000Z</time>
      </trkpt>
      <trkpt lat="44.19617" lon="2.96232">
        <ele>830</ele>
        <time>2025-08-31T11:23:44.000Z</time>
      </trkpt>
      <trkpt lat="44.1961" lon="2.96242">
        <ele>830.7</ele>
        <time>2025-08-31T11:23:49.000Z</time>
      </trkpt>
      <trkpt lat="44.19603" lon="2.96252">
        <ele>831.5</ele>
        <time>2025-08-31T11:23:55.000Z</time>
      </trkpt>
      <trkpt lat="44.19598" lon="2.96263">
        <ele>832.5</ele>
        <time>2025-08-31T11:24:00.000Z</time>
      </trkpt>
      <trkpt lat="44.19593" lon="2.96275">
        <ele>833.4</ele>
        <time>2025-08-31T11:24:05.000Z</time>
      </trkpt>
      <trkpt lat="44.19588" lon="2.96287">
        <ele>834.4</ele>
        <time>2025-08-31T11:24:10.000Z</time>
      </trkpt>
      <trkpt lat="44.1958" lon="2.96297">
        <ele>835.2</ele>
        <time>2025-08-31T11:24:15.000Z</time>
      </trkpt>
      <trkpt lat="44.19573" lon="2.96307">
        <ele>836.2</ele>
        <time>2025-08-31T11:24:20.000Z</time>
      </trkpt>
      <trkpt lat="44.19564" lon="2.96316">
        <ele>837.1</ele>
        <time>2025-08-31T11:24:25.000Z</time>
      </trkpt>
      <trkpt lat="44.19555" lon="2.96326">
        <ele>838.1</ele>
        <time>2025-08-31T11:24:30.000Z</time>
      </trkpt>
      <trkpt lat="44.19547" lon="2.96334">
        <ele>839.1</ele>
        <time>2025-08-31T11:24:35.000Z</time>
      </trkpt>
      <trkpt lat="44.19541" lon="2.96343">
        <ele>840.1</ele>
        <time>2025-08-31T11:24:40.000Z</time>
      </trkpt>
      <trkpt lat="44.19534" lon="2.96352">
        <ele>841</ele>
        <time>2025-08-31T11:24:45.000Z</time>
      </trkpt>
      <trkpt lat="44.19527" lon="2.96362">
        <ele>841.9</ele>
        <time>2025-08-31T11:24:50.000Z</time>
      </trkpt>
      <trkpt lat="44.19519" lon="2.9637">
        <ele>842.8</ele>
        <time>2025-08-31T11:24:55.000Z</time>
      </trkpt>
      <trkpt lat="44.1951" lon="2.96375">
        <ele>843.6</ele>
        <time>2025-08-31T11:24:59.000Z</time>
      </trkpt>
      <trkpt lat="44.19502" lon="2.96382">
        <ele>844.3</ele>
        <time>2025-08-31T11:25:03.000Z</time>
      </trkpt>
      <trkpt lat="44.19493" lon="2.96388">
        <ele>844.9</ele>
        <time>2025-08-31T11:25:07.000Z</time>
      </trkpt>
      <trkpt lat="44.19484" lon="2.96394">
        <ele>845.5</ele>
        <time>2025-08-31T11:25:11.000Z</time>
      </trkpt>
      <trkpt lat="44.19474" lon="2.964">
        <ele>846.1</ele>
        <time>2025-08-31T11:25:15.000Z</time>
      </trkpt>
      <trkpt lat="44.19464" lon="2.96406">
        <ele>846.7</ele>
        <time>2025-08-31T11:25:19.000Z</time>
      </trkpt>
      <trkpt lat="44.19454" lon="2.96412">
        <ele>847.3</ele>
        <time>2025-08-31T11:25:23.000Z</time>
      </trkpt>
      <trkpt lat="44.19446" lon="2.96418">
        <ele>847.8</ele>
        <time>2025-08-31T11:25:26.000Z</time>
      </trkpt>
      <trkpt lat="44.19434" lon="2.96424">
        <ele>848.3</ele>
        <time>2025-08-31T11:25:30.000Z</time>
      </trkpt>
      <trkpt lat="44.19425" lon="2.96427">
        <ele>848.6</ele>
        <time>2025-08-31T11:25:33.000Z</time>
      </trkpt>
      <trkpt lat="44.19415" lon="2.96431">
        <ele>848.9</ele>
        <time>2025-08-31T11:25:36.000Z</time>
      </trkpt>
      <trkpt lat="44.19405" lon="2.96435">
        <ele>849.2</ele>
        <time>2025-08-31T11:25:39.000Z</time>
      </trkpt>
      <trkpt lat="44.19396" lon="2.96438">
        <ele>849.4</ele>
        <time>2025-08-31T11:25:42.000Z</time>
      </trkpt>
      <trkpt lat="44.19386" lon="2.96442">
        <ele>849.7</ele>
        <time>2025-08-31T11:25:45.000Z</time>
      </trkpt>
      <trkpt lat="44.19375" lon="2.96447">
        <ele>850.1</ele>
        <time>2025-08-31T11:25:49.000Z</time>
      </trkpt>
      <trkpt lat="44.19366" lon="2.96451">
        <ele>850.4</ele>
        <time>2025-08-31T11:25:52.000Z</time>
      </trkpt>
      <trkpt lat="44.19356" lon="2.96457">
        <ele>850.7</ele>
        <time>2025-08-31T11:25:55.000Z</time>
      </trkpt>
      <trkpt lat="44.19346" lon="2.96461">
        <ele>851.1</ele>
        <time>2025-08-31T11:25:58.000Z</time>
      </trkpt>
      <trkpt lat="44.19336" lon="2.96465">
        <ele>851.4</ele>
        <time>2025-08-31T11:26:01.000Z</time>
      </trkpt>
      <trkpt lat="44.19326" lon="2.96469">
        <ele>851.8</ele>
        <time>2025-08-31T11:26:04.000Z</time>
      </trkpt>
      <trkpt lat="44.19317" lon="2.96472">
        <ele>852.1</ele>
        <time>2025-08-31T11:26:07.000Z</time>
      </trkpt>
      <trkpt lat="44.19307" lon="2.96476">
        <ele>852.3</ele>
        <time>2025-08-31T11:26:10.000Z</time>
      </trkpt>
      <trkpt lat="44.19297" lon="2.9648">
        <ele>852.5</ele>
        <time>2025-08-31T11:26:13.000Z</time>
      </trkpt>
      <trkpt lat="44.19287" lon="2.96484">
        <ele>852.8</ele>
        <time>2025-08-31T11:26:16.000Z</time>
      </trkpt>
      <trkpt lat="44.19276" lon="2.96486">
        <ele>853</ele>
        <time>2025-08-31T11:26:19.000Z</time>
      </trkpt>
      <trkpt lat="44.19264" lon="2.96488">
        <ele>853.1</ele>
        <time>2025-08-31T11:26:22.000Z</time>
      </trkpt>
      <trkpt lat="44.19252" lon="2.96491">
        <ele>853.3</ele>
        <time>2025-08-31T11:26:25.000Z</time>
      </trkpt>
      <trkpt lat="44.1924" lon="2.96495">
        <ele>853.5</ele>
        <time>2025-08-31T11:26:28.000Z</time>
      </trkpt>
      <trkpt lat="44.19229" lon="2.96498">
        <ele>853.7</ele>
        <time>2025-08-31T11:26:31.000Z</time>
      </trkpt>
      <trkpt lat="44.19217" lon="2.96501">
        <ele>853.9</ele>
        <time>2025-08-31T11:26:34.000Z</time>
      </trkpt>
      <trkpt lat="44.19206" lon="2.96505">
        <ele>854.1</ele>
        <time>2025-08-31T11:26:37.000Z</time>
      </trkpt>
      <trkpt lat="44.19195" lon="2.96509">
        <ele>854.3</ele>
        <time>2025-08-31T11:26:40.000Z</time>
      </trkpt>
      <trkpt lat="44.19186" lon="2.96512">
        <ele>854.5</ele>
        <time>2025-08-31T11:26:43.000Z</time>
      </trkpt>
      <trkpt lat="44.19177" lon="2.96517">
        <ele>854.6</ele>
        <time>2025-08-31T11:26:46.000Z</time>
      </trkpt>
      <trkpt lat="44.19167" lon="2.96522">
        <ele>854.7</ele>
        <time>2025-08-31T11:26:49.000Z</time>
      </trkpt>
      <trkpt lat="44.19155" lon="2.96526">
        <ele>854.8</ele>
        <time>2025-08-31T11:26:52.000Z</time>
      </trkpt>
      <trkpt lat="44.19141" lon="2.96529">
        <ele>854.8</ele>
        <time>2025-08-31T11:26:55.000Z</time>
      </trkpt>
      <trkpt lat="44.19131" lon="2.9653">
        <ele>854.7</ele>
        <time>2025-08-31T11:26:57.000Z</time>
      </trkpt>
      <trkpt lat="44.1912" lon="2.9653">
        <ele>854.6</ele>
        <time>2025-08-31T11:26:59.000Z</time>
      </trkpt>
      <trkpt lat="44.19107" lon="2.96531">
        <ele>854.4</ele>
        <time>2025-08-31T11:27:01.000Z</time>
      </trkpt>
      <trkpt lat="44.19095" lon="2.96533">
        <ele>854.2</ele>
        <time>2025-08-31T11:27:03.000Z</time>
      </trkpt>
      <trkpt lat="44.19086" lon="2.96537">
        <ele>853.9</ele>
        <time>2025-08-31T11:27:05.000Z</time>
      </trkpt>
      <trkpt lat="44.19078" lon="2.96543">
        <ele>853.4</ele>
        <time>2025-08-31T11:27:09.000Z</time>
      </trkpt>
      <trkpt lat="44.19068" lon="2.96546">
        <ele>852.1</ele>
        <time>2025-08-31T11:27:22.000Z</time>
      </trkpt>
      <trkpt lat="44.19058" lon="2.9655">
        <ele>851.8</ele>
        <time>2025-08-31T11:27:28.000Z</time>
      </trkpt>
      <trkpt lat="44.19049" lon="2.96552">
        <ele>851.8</ele>
        <time>2025-08-31T11:27:33.000Z</time>
      </trkpt>
      <trkpt lat="44.19039" lon="2.96555">
        <ele>852</ele>
        <time>2025-08-31T11:27:38.000Z</time>
      </trkpt>
      <trkpt lat="44.19029" lon="2.96557">
        <ele>852.5</ele>
        <time>2025-08-31T11:27:44.000Z</time>
      </trkpt>
      <trkpt lat="44.1902" lon="2.96559">
        <ele>853.4</ele>
        <time>2025-08-31T11:27:50.000Z</time>
      </trkpt>
      <trkpt lat="44.1901" lon="2.96562">
        <ele>854.2</ele>
        <time>2025-08-31T11:27:56.000Z</time>
      </trkpt>
      <trkpt lat="44.19" lon="2.96563">
        <ele>855</ele>
        <time>2025-08-31T11:28:02.000Z</time>
      </trkpt>
      <trkpt lat="44.1899" lon="2.96565">
        <ele>855.9</ele>
        <time>2025-08-31T11:28:08.000Z</time>
      </trkpt>
      <trkpt lat="44.18981" lon="2.96565">
        <ele>857.4</ele>
        <time>2025-08-31T11:28:17.000Z</time>
      </trkpt>
      <trkpt lat="44.1897" lon="2.96563">
        <ele>859.2</ele>
        <time>2025-08-31T11:28:33.000Z</time>
      </trkpt>
      <trkpt lat="44.18961" lon="2.96563">
        <ele>859.8</ele>
        <time>2025-08-31T11:28:38.000Z</time>
      </trkpt>
      <trkpt lat="44.18951" lon="2.96563">
        <ele>860.4</ele>
        <time>2025-08-31T11:28:44.000Z</time>
      </trkpt>
      <trkpt lat="44.18942" lon="2.96558">
        <ele>861.1</ele>
        <time>2025-08-31T11:28:52.000Z</time>
      </trkpt>
      <trkpt lat="44.18938" lon="2.96546">
        <ele>861.7</ele>
        <time>2025-08-31T11:28:58.000Z</time>
      </trkpt>
      <trkpt lat="44.1893" lon="2.96539">
        <ele>862.2</ele>
        <time>2025-08-31T11:29:04.000Z</time>
      </trkpt>
      <trkpt lat="44.1892" lon="2.96545">
        <ele>862.5</ele>
        <time>2025-08-31T11:29:09.000Z</time>
      </trkpt>
      <trkpt lat="44.18911" lon="2.9655">
        <ele>862.7</ele>
        <time>2025-08-31T11:29:13.000Z</time>
      </trkpt>
      <trkpt lat="44.18902" lon="2.96554">
        <ele>862.8</ele>
        <time>2025-08-31T11:29:17.000Z</time>
      </trkpt>
      <trkpt lat="44.18891" lon="2.96559">
        <ele>863</ele>
        <time>2025-08-31T11:29:21.000Z</time>
      </trkpt>
      <trkpt lat="44.18882" lon="2.96563">
        <ele>863.1</ele>
        <time>2025-08-31T11:29:24.000Z</time>
      </trkpt>
      <trkpt lat="44.18873" lon="2.96567">
        <ele>863.1</ele>
        <time>2025-08-31T11:29:27.000Z</time>
      </trkpt>
      <trkpt lat="44.18864" lon="2.96571">
        <ele>863.2</ele>
        <time>2025-08-31T11:29:30.000Z</time>
      </trkpt>
      <trkpt lat="44.18855" lon="2.96577">
        <ele>863.2</ele>
        <time>2025-08-31T11:29:33.000Z</time>
      </trkpt>
      <trkpt lat="44.18844" lon="2.96579">
        <ele>863.3</ele>
        <time>2025-08-31T11:29:37.000Z</time>
      </trkpt>
      <trkpt lat="44.18836" lon="2.96573">
        <ele>863.3</ele>
        <time>2025-08-31T11:29:40.000Z</time>
      </trkpt>
      <trkpt lat="44.18828" lon="2.9656">
        <ele>863.3</ele>
        <time>2025-08-31T11:29:43.000Z</time>
      </trkpt>
      <trkpt lat="44.18822" lon="2.96548">
        <ele>863.3</ele>
        <time>2025-08-31T11:29:45.000Z</time>
      </trkpt>
      <trkpt lat="44.18816" lon="2.96537">
        <ele>863.2</ele>
        <time>2025-08-31T11:29:47.000Z</time>
      </trkpt>
      <trkpt lat="44.18806" lon="2.96525">
        <ele>862.9</ele>
        <time>2025-08-31T11:29:50.000Z</time>
      </trkpt>
      <trkpt lat="44.18797" lon="2.96515">
        <ele>862.7</ele>
        <time>2025-08-31T11:29:53.000Z</time>
      </trkpt>
      <trkpt lat="44.18787" lon="2.96508">
        <ele>862.4</ele>
        <time>2025-08-31T11:29:56.000Z</time>
      </trkpt>
      <trkpt lat="44.18775" lon="2.96501">
        <ele>862</ele>
        <time>2025-08-31T11:29:59.000Z</time>
      </trkpt>
      <trkpt lat="44.18767" lon="2.96494">
        <ele>861.6</ele>
        <time>2025-08-31T11:30:01.000Z</time>
      </trkpt>
      <trkpt lat="44.18758" lon="2.9649">
        <ele>861.2</ele>
        <time>2025-08-31T11:30:03.000Z</time>
      </trkpt>
      <trkpt lat="44.18747" lon="2.96484">
        <ele>860.7</ele>
        <time>2025-08-31T11:30:06.000Z</time>
      </trkpt>
      <trkpt lat="44.18735" lon="2.96479">
        <ele>860.2</ele>
        <time>2025-08-31T11:30:09.000Z</time>
      </trkpt>
      <trkpt lat="44.18724" lon="2.96471">
        <ele>859.8</ele>
        <time>2025-08-31T11:30:12.000Z</time>
      </trkpt>
      <trkpt lat="44.18714" lon="2.96463">
        <ele>859.3</ele>
        <time>2025-08-31T11:30:15.000Z</time>
      </trkpt>
      <trkpt lat="44.18704" lon="2.96456">
        <ele>858.8</ele>
        <time>2025-08-31T11:30:18.000Z</time>
      </trkpt>
      <trkpt lat="44.18697" lon="2.96449">
        <ele>858.4</ele>
        <time>2025-08-31T11:30:20.000Z</time>
      </trkpt>
      <trkpt lat="44.18689" lon="2.9644">
        <ele>858.1</ele>
        <time>2025-08-31T11:30:22.000Z</time>
      </trkpt>
      <trkpt lat="44.1868" lon="2.96429">
        <ele>857.5</ele>
        <time>2025-08-31T11:30:24.000Z</time>
      </trkpt>
      <trkpt lat="44.18671" lon="2.96416">
        <ele>856.9</ele>
        <time>2025-08-31T11:30:26.000Z</time>
      </trkpt>
      <trkpt lat="44.18662" lon="2.96406">
        <ele>856.3</ele>
        <time>2025-08-31T11:30:28.000Z</time>
      </trkpt>
      <trkpt lat="44.18651" lon="2.96396">
        <ele>855.8</ele>
        <time>2025-08-31T11:30:30.000Z</time>
      </trkpt>
      <trkpt lat="44.18641" lon="2.96385">
        <ele>855.3</ele>
        <time>2025-08-31T11:30:32.000Z</time>
      </trkpt>
      <trkpt lat="44.18628" lon="2.96375">
        <ele>854.9</ele>
        <time>2025-08-31T11:30:34.000Z</time>
      </trkpt>
      <trkpt lat="44.18617" lon="2.96367">
        <ele>854.4</ele>
        <time>2025-08-31T11:30:36.000Z</time>
      </trkpt>
      <trkpt lat="44.18604" lon="2.9636">
        <ele>853.9</ele>
        <time>2025-08-31T11:30:38.000Z</time>
      </trkpt>
      <trkpt lat="44.18592" lon="2.96357">
        <ele>853.4</ele>
        <time>2025-08-31T11:30:40.000Z</time>
      </trkpt>
      <trkpt lat="44.18582" lon="2.96359">
        <ele>852.9</ele>
        <time>2025-08-31T11:30:42.000Z</time>
      </trkpt>
      <trkpt lat="44.18573" lon="2.96367">
        <ele>852.3</ele>
        <time>2025-08-31T11:30:45.000Z</time>
      </trkpt>
      <trkpt lat="44.18564" lon="2.96371">
        <ele>851.6</ele>
        <time>2025-08-31T11:30:48.000Z</time>
      </trkpt>
      <trkpt lat="44.18556" lon="2.96379">
        <ele>850.9</ele>
        <time>2025-08-31T11:30:52.000Z</time>
      </trkpt>
      <trkpt lat="44.18548" lon="2.96388">
        <ele>850.1</ele>
        <time>2025-08-31T11:30:57.000Z</time>
      </trkpt>
      <trkpt lat="44.1854" lon="2.96394">
        <ele>849</ele>
        <time>2025-08-31T11:31:05.000Z</time>
      </trkpt>
      <trkpt lat="44.18531" lon="2.96403">
        <ele>848.5</ele>
        <time>2025-08-31T11:31:08.000Z</time>
      </trkpt>
      <trkpt lat="44.1852" lon="2.96415">
        <ele>848</ele>
        <time>2025-08-31T11:31:11.000Z</time>
      </trkpt>
      <trkpt lat="44.18512" lon="2.96425">
        <ele>847.4</ele>
        <time>2025-08-31T11:31:13.000Z</time>
      </trkpt>
      <trkpt lat="44.18503" lon="2.96437">
        <ele>846.7</ele>
        <time>2025-08-31T11:31:15.000Z</time>
      </trkpt>
      <trkpt lat="44.18493" lon="2.96449">
        <ele>846</ele>
        <time>2025-08-31T11:31:17.000Z</time>
      </trkpt>
      <trkpt lat="44.18485" lon="2.96459">
        <ele>845.3</ele>
        <time>2025-08-31T11:31:19.000Z</time>
      </trkpt>
      <trkpt lat="44.18477" lon="2.96469">
        <ele>844.6</ele>
        <time>2025-08-31T11:31:21.000Z</time>
      </trkpt>
      <trkpt lat="44.18469" lon="2.96478">
        <ele>843.8</ele>
        <time>2025-08-31T11:31:23.000Z</time>
      </trkpt>
      <trkpt lat="44.18462" lon="2.96489">
        <ele>843</ele>
        <time>2025-08-31T11:31:25.000Z</time>
      </trkpt>
      <trkpt lat="44.18454" lon="2.96499">
        <ele>842.3</ele>
        <time>2025-08-31T11:31:27.000Z</time>
      </trkpt>
      <trkpt lat="44.18448" lon="2.96507">
        <ele>841.6</ele>
        <time>2025-08-31T11:31:29.000Z</time>
      </trkpt>
      <trkpt lat="44.18438" lon="2.9652">
        <ele>840.5</ele>
        <time>2025-08-31T11:31:32.000Z</time>
      </trkpt>
      <trkpt lat="44.18432" lon="2.96529">
        <ele>839.8</ele>
        <time>2025-08-31T11:31:34.000Z</time>
      </trkpt>
      <trkpt lat="44.18425" lon="2.96539">
        <ele>839.1</ele>
        <time>2025-08-31T11:31:36.000Z</time>
      </trkpt>
      <trkpt lat="44.18418" lon="2.96548">
        <ele>838.5</ele>
        <time>2025-08-31T11:31:38.000Z</time>
      </trkpt>
      <trkpt lat="44.1841" lon="2.96556">
        <ele>837.9</ele>
        <time>2025-08-31T11:31:40.000Z</time>
      </trkpt>
      <trkpt lat="44.18403" lon="2.96565">
        <ele>837.4</ele>
        <time>2025-08-31T11:31:42.000Z</time>
      </trkpt>
      <trkpt lat="44.18396" lon="2.96575">
        <ele>836.8</ele>
        <time>2025-08-31T11:31:44.000Z</time>
      </trkpt>
      <trkpt lat="44.18387" lon="2.96589">
        <ele>835.9</ele>
        <time>2025-08-31T11:31:47.000Z</time>
      </trkpt>
      <trkpt lat="44.1838" lon="2.96602">
        <ele>835.2</ele>
        <time>2025-08-31T11:31:50.000Z</time>
      </trkpt>
      <trkpt lat="44.18374" lon="2.96615">
        <ele>834.4</ele>
        <time>2025-08-31T11:31:53.000Z</time>
      </trkpt>
      <trkpt lat="44.18371" lon="2.96628">
        <ele>833.8</ele>
        <time>2025-08-31T11:31:56.000Z</time>
      </trkpt>
      <trkpt lat="44.18368" lon="2.96642">
        <ele>833.2</ele>
        <time>2025-08-31T11:31:59.000Z</time>
      </trkpt>
      <trkpt lat="44.18371" lon="2.96655">
        <ele>832.5</ele>
        <time>2025-08-31T11:32:03.000Z</time>
      </trkpt>
      <trkpt lat="44.18377" lon="2.9666">
        <ele>832.8</ele>
        <time>2025-08-31T11:33:00.000Z</time>
      </trkpt>
      <trkpt lat="44.18381" lon="2.96672">
        <ele>831.9</ele>
        <time>2025-08-31T11:33:07.000Z</time>
      </trkpt>
      <trkpt lat="44.18391" lon="2.96679">
        <ele>831.4</ele>
        <time>2025-08-31T11:33:11.000Z</time>
      </trkpt>
      <trkpt lat="44.18402" lon="2.96686">
        <ele>830.9</ele>
        <time>2025-08-31T11:33:15.000Z</time>
      </trkpt>
      <trkpt lat="44.18414" lon="2.96692">
        <ele>830.3</ele>
        <time>2025-08-31T11:33:18.000Z</time>
      </trkpt>
      <trkpt lat="44.18424" lon="2.96703">
        <ele>829.7</ele>
        <time>2025-08-31T11:33:21.000Z</time>
      </trkpt>
      <trkpt lat="44.18435" lon="2.96714">
        <ele>829.1</ele>
        <time>2025-08-31T11:33:24.000Z</time>
      </trkpt>
      <trkpt lat="44.18442" lon="2.96721">
        <ele>828.7</ele>
        <time>2025-08-31T11:33:26.000Z</time>
      </trkpt>
      <trkpt lat="44.1845" lon="2.96728">
        <ele>828.3</ele>
        <time>2025-08-31T11:33:28.000Z</time>
      </trkpt>
      <trkpt lat="44.1846" lon="2.96735">
        <ele>827.8</ele>
        <time>2025-08-31T11:33:30.000Z</time>
      </trkpt>
      <trkpt lat="44.18473" lon="2.96743">
        <ele>827.1</ele>
        <time>2025-08-31T11:33:32.000Z</time>
      </trkpt>
      <trkpt lat="44.18485" lon="2.9675">
        <ele>826.3</ele>
        <time>2025-08-31T11:33:34.000Z</time>
      </trkpt>
      <trkpt lat="44.18497" lon="2.96756">
        <ele>825.4</ele>
        <time>2025-08-31T11:33:36.000Z</time>
      </trkpt>
      <trkpt lat="44.18509" lon="2.9676">
        <ele>824.6</ele>
        <time>2025-08-31T11:33:38.000Z</time>
      </trkpt>
      <trkpt lat="44.1852" lon="2.96765">
        <ele>823.8</ele>
        <time>2025-08-31T11:33:40.000Z</time>
      </trkpt>
      <trkpt lat="44.18534" lon="2.96768">
        <ele>822.9</ele>
        <time>2025-08-31T11:33:42.000Z</time>
      </trkpt>
      <trkpt lat="44.18543" lon="2.96773">
        <ele>821.9</ele>
        <time>2025-08-31T11:33:44.000Z</time>
      </trkpt>
      <trkpt lat="44.18555" lon="2.96777">
        <ele>821</ele>
        <time>2025-08-31T11:33:46.000Z</time>
      </trkpt>
      <trkpt lat="44.18564" lon="2.96788">
        <ele>819.6</ele>
        <time>2025-08-31T11:33:49.000Z</time>
      </trkpt>
      <trkpt lat="44.18576" lon="2.96796">
        <ele>818.3</ele>
        <time>2025-08-31T11:33:52.000Z</time>
      </trkpt>
      <trkpt lat="44.18587" lon="2.96804">
        <ele>816.9</ele>
        <time>2025-08-31T11:33:55.000Z</time>
      </trkpt>
      <trkpt lat="44.18597" lon="2.96811">
        <ele>815.6</ele>
        <time>2025-08-31T11:33:58.000Z</time>
      </trkpt>
      <trkpt lat="44.18588" lon="2.96818">
        <ele>813.5</ele>
        <time>2025-08-31T11:34:03.000Z</time>
      </trkpt>
      <trkpt lat="44.18578" lon="2.96814">
        <ele>810.4</ele>
        <time>2025-08-31T11:34:13.000Z</time>
      </trkpt>
      <trkpt lat="44.18569" lon="2.9681">
        <ele>809.5</ele>
        <time>2025-08-31T11:34:16.000Z</time>
      </trkpt>
      <trkpt lat="44.18558" lon="2.96802">
        <ele>808.7</ele>
        <time>2025-08-31T11:34:19.000Z</time>
      </trkpt>
      <trkpt lat="44.18549" lon="2.96792">
        <ele>808.1</ele>
        <time>2025-08-31T11:34:21.000Z</time>
      </trkpt>
      <trkpt lat="44.18539" lon="2.96789">
        <ele>807.6</ele>
        <time>2025-08-31T11:34:23.000Z</time>
      </trkpt>
      <trkpt lat="44.18528" lon="2.96792">
        <ele>807</ele>
        <time>2025-08-31T11:34:25.000Z</time>
      </trkpt>
      <trkpt lat="44.18518" lon="2.96797">
        <ele>806.3</ele>
        <time>2025-08-31T11:34:27.000Z</time>
      </trkpt>
      <trkpt lat="44.18507" lon="2.96801">
        <ele>805.7</ele>
        <time>2025-08-31T11:34:29.000Z</time>
      </trkpt>
      <trkpt lat="44.18497" lon="2.96804">
        <ele>805</ele>
        <time>2025-08-31T11:34:31.000Z</time>
      </trkpt>
      <trkpt lat="44.18488" lon="2.96806">
        <ele>804.4</ele>
        <time>2025-08-31T11:34:33.000Z</time>
      </trkpt>
      <trkpt lat="44.18477" lon="2.96807">
        <ele>803.7</ele>
        <time>2025-08-31T11:34:35.000Z</time>
      </trkpt>
      <trkpt lat="44.18465" lon="2.96808">
        <ele>802.9</ele>
        <time>2025-08-31T11:34:37.000Z</time>
      </trkpt>
      <trkpt lat="44.18452" lon="2.96808">
        <ele>802</ele>
        <time>2025-08-31T11:34:39.000Z</time>
      </trkpt>
      <trkpt lat="44.18439" lon="2.96808">
        <ele>800.9</ele>
        <time>2025-08-31T11:34:41.000Z</time>
      </trkpt>
      <trkpt lat="44.18425" lon="2.96807">
        <ele>799.9</ele>
        <time>2025-08-31T11:34:43.000Z</time>
      </trkpt>
      <trkpt lat="44.18412" lon="2.96805">
        <ele>798.7</ele>
        <time>2025-08-31T11:34:45.000Z</time>
      </trkpt>
      <trkpt lat="44.18399" lon="2.96804">
        <ele>797.5</ele>
        <time>2025-08-31T11:34:47.000Z</time>
      </trkpt>
      <trkpt lat="44.18389" lon="2.96803">
        <ele>796.2</ele>
        <time>2025-08-31T11:34:49.000Z</time>
      </trkpt>
      <trkpt lat="44.18378" lon="2.96802">
        <ele>795</ele>
        <time>2025-08-31T11:34:51.000Z</time>
      </trkpt>
      <trkpt lat="44.18366" lon="2.96803">
        <ele>793.7</ele>
        <time>2025-08-31T11:34:53.000Z</time>
      </trkpt>
      <trkpt lat="44.18353" lon="2.96801">
        <ele>792.3</ele>
        <time>2025-08-31T11:34:55.000Z</time>
      </trkpt>
      <trkpt lat="44.18343" lon="2.968">
        <ele>790.9</ele>
        <time>2025-08-31T11:34:57.000Z</time>
      </trkpt>
      <trkpt lat="44.18332" lon="2.9681">
        <ele>788.8</ele>
        <time>2025-08-31T11:35:00.000Z</time>
      </trkpt>
      <trkpt lat="44.18325" lon="2.9682">
        <ele>787.6</ele>
        <time>2025-08-31T11:35:02.000Z</time>
      </trkpt>
      <trkpt lat="44.18316" lon="2.96831">
        <ele>786.4</ele>
        <time>2025-08-31T11:35:04.000Z</time>
      </trkpt>
      <trkpt lat="44.18305" lon="2.96843">
        <ele>785.3</ele>
        <time>2025-08-31T11:35:06.000Z</time>
      </trkpt>
      <trkpt lat="44.18293" lon="2.96853">
        <ele>784.3</ele>
        <time>2025-08-31T11:35:08.000Z</time>
      </trkpt>
      <trkpt lat="44.18281" lon="2.96862">
        <ele>783</ele>
        <time>2025-08-31T11:35:10.000Z</time>
      </trkpt>
      <trkpt lat="44.18267" lon="2.96871">
        <ele>781.9</ele>
        <time>2025-08-31T11:35:12.000Z</time>
      </trkpt>
      <trkpt lat="44.18254" lon="2.96878">
        <ele>780.7</ele>
        <time>2025-08-31T11:35:14.000Z</time>
      </trkpt>
      <trkpt lat="44.18243" lon="2.96884">
        <ele>779.5</ele>
        <time>2025-08-31T11:35:16.000Z</time>
      </trkpt>
      <trkpt lat="44.18234" lon="2.9689">
        <ele>778.4</ele>
        <time>2025-08-31T11:35:18.000Z</time>
      </trkpt>
      <trkpt lat="44.18225" lon="2.96896">
        <ele>777.1</ele>
        <time>2025-08-31T11:35:20.000Z</time>
      </trkpt>
      <trkpt lat="44.18215" lon="2.96901">
        <ele>775.3</ele>
        <time>2025-08-31T11:35:23.000Z</time>
      </trkpt>
      <trkpt lat="44.18204" lon="2.96906">
        <ele>773.7</ele>
        <time>2025-08-31T11:35:26.000Z</time>
      </trkpt>
      <trkpt lat="44.18193" lon="2.96907">
        <ele>772.2</ele>
        <time>2025-08-31T11:35:29.000Z</time>
      </trkpt>
      <trkpt lat="44.18181" lon="2.96907">
        <ele>770.7</ele>
        <time>2025-08-31T11:35:32.000Z</time>
      </trkpt>
      <trkpt lat="44.18171" lon="2.96908">
        <ele>769.8</ele>
        <time>2025-08-31T11:35:34.000Z</time>
      </trkpt>
      <trkpt lat="44.18161" lon="2.96908">
        <ele>769.1</ele>
        <time>2025-08-31T11:35:36.000Z</time>
      </trkpt>
      <trkpt lat="44.18151" lon="2.96905">
        <ele>768.1</ele>
        <time>2025-08-31T11:35:38.000Z</time>
      </trkpt>
      <trkpt lat="44.18141" lon="2.96903">
        <ele>767.2</ele>
        <time>2025-08-31T11:35:40.000Z</time>
      </trkpt>
      <trkpt lat="44.18128" lon="2.969">
        <ele>765.9</ele>
        <time>2025-08-31T11:35:43.000Z</time>
      </trkpt>
      <trkpt lat="44.18118" lon="2.96896">
        <ele>764.9</ele>
        <time>2025-08-31T11:35:45.000Z</time>
      </trkpt>
      <trkpt lat="44.18108" lon="2.96891">
        <ele>763.6</ele>
        <time>2025-08-31T11:35:48.000Z</time>
      </trkpt>
      <trkpt lat="44.18097" lon="2.96884">
        <ele>762.1</ele>
        <time>2025-08-31T11:35:51.000Z</time>
      </trkpt>
      <trkpt lat="44.18084" lon="2.96883">
        <ele>760.8</ele>
        <time>2025-08-31T11:35:54.000Z</time>
      </trkpt>
      <trkpt lat="44.18075" lon="2.96883">
        <ele>759.5</ele>
        <time>2025-08-31T11:35:57.000Z</time>
      </trkpt>
      <trkpt lat="44.18067" lon="2.96875">
        <ele>758</ele>
        <time>2025-08-31T11:36:01.000Z</time>
      </trkpt>
      <trkpt lat="44.18058" lon="2.96871">
        <ele>755.5</ele>
        <time>2025-08-31T11:36:11.000Z</time>
      </trkpt>
      <trkpt lat="44.18047" lon="2.96872">
        <ele>754.5</ele>
        <time>2025-08-31T11:36:16.000Z</time>
      </trkpt>
      <trkpt lat="44.18037" lon="2.96874">
        <ele>753.9</ele>
        <time>2025-08-31T11:36:20.000Z</time>
      </trkpt>
      <trkpt lat="44.18026" lon="2.96873">
        <ele>753.3</ele>
        <time>2025-08-31T11:36:24.000Z</time>
      </trkpt>
      <trkpt lat="44.1802" lon="2.96864">
        <ele>752.9</ele>
        <time>2025-08-31T11:36:27.000Z</time>
      </trkpt>
      <trkpt lat="44.18012" lon="2.96851">
        <ele>752.5</ele>
        <time>2025-08-31T11:36:31.000Z</time>
      </trkpt>
      <trkpt lat="44.18006" lon="2.96841">
        <ele>752.4</ele>
        <time>2025-08-31T11:36:34.000Z</time>
      </trkpt>
      <trkpt lat="44.18001" lon="2.9683">
        <ele>752.3</ele>
        <time>2025-08-31T11:36:37.000Z</time>
      </trkpt>
      <trkpt lat="44.17997" lon="2.96818">
        <ele>752.3</ele>
        <time>2025-08-31T11:36:40.000Z</time>
      </trkpt>
      <trkpt lat="44.17993" lon="2.96807">
        <ele>752.5</ele>
        <time>2025-08-31T11:36:43.000Z</time>
      </trkpt>
      <trkpt lat="44.17983" lon="2.96799">
        <ele>752.8</ele>
        <time>2025-08-31T11:36:47.000Z</time>
      </trkpt>
      <trkpt lat="44.17973" lon="2.96798">
        <ele>753.3</ele>
        <time>2025-08-31T11:36:51.000Z</time>
      </trkpt>
      <trkpt lat="44.17963" lon="2.96799">
        <ele>754</ele>
        <time>2025-08-31T11:36:55.000Z</time>
      </trkpt>
      <trkpt lat="44.17953" lon="2.96799">
        <ele>754.6</ele>
        <time>2025-08-31T11:36:59.000Z</time>
      </trkpt>
      <trkpt lat="44.17944" lon="2.96792">
        <ele>755.4</ele>
        <time>2025-08-31T11:37:04.000Z</time>
      </trkpt>
      <trkpt lat="44.17936" lon="2.96785">
        <ele>756.2</ele>
        <time>2025-08-31T11:37:09.000Z</time>
      </trkpt>
      <trkpt lat="44.17928" lon="2.96773">
        <ele>757</ele>
        <time>2025-08-31T11:37:14.000Z</time>
      </trkpt>
      <trkpt lat="44.17923" lon="2.96763">
        <ele>757.8</ele>
        <time>2025-08-31T11:37:20.000Z</time>
      </trkpt>
      <trkpt lat="44.17919" lon="2.96752">
        <ele>759.8</ele>
        <time>2025-08-31T11:38:04.000Z</time>
      </trkpt>
      <trkpt lat="44.17916" lon="2.96739">
        <ele>760.1</ele>
        <time>2025-08-31T11:38:09.000Z</time>
      </trkpt>
      <trkpt lat="44.17915" lon="2.96725">
        <ele>760.7</ele>
        <time>2025-08-31T11:38:14.000Z</time>
      </trkpt>
      <trkpt lat="44.17917" lon="2.96712">
        <ele>761.3</ele>
        <time>2025-08-31T11:38:18.000Z</time>
      </trkpt>
      <trkpt lat="44.1792" lon="2.967">
        <ele>762</ele>
        <time>2025-08-31T11:38:22.000Z</time>
      </trkpt>
      <trkpt lat="44.17925" lon="2.96686">
        <ele>762.8</ele>
        <time>2025-08-31T11:38:27.000Z</time>
      </trkpt>
      <trkpt lat="44.17929" lon="2.96673">
        <ele>763.8</ele>
        <time>2025-08-31T11:38:32.000Z</time>
      </trkpt>
      <trkpt lat="44.17935" lon="2.96661">
        <ele>764.6</ele>
        <time>2025-08-31T11:38:37.000Z</time>
      </trkpt>
      <trkpt lat="44.1794" lon="2.96649">
        <ele>765.6</ele>
        <time>2025-08-31T11:38:42.000Z</time>
      </trkpt>
      <trkpt lat="44.17946" lon="2.96638">
        <ele>766.4</ele>
        <time>2025-08-31T11:38:47.000Z</time>
      </trkpt>
      <trkpt lat="44.17952" lon="2.96626">
        <ele>767.2</ele>
        <time>2025-08-31T11:38:52.000Z</time>
      </trkpt>
      <trkpt lat="44.17956" lon="2.96613">
        <ele>768.1</ele>
        <time>2025-08-31T11:38:57.000Z</time>
      </trkpt>
      <trkpt lat="44.1796" lon="2.96599">
        <ele>769</ele>
        <time>2025-08-31T11:39:02.000Z</time>
      </trkpt>
      <trkpt lat="44.17964" lon="2.96586">
        <ele>769.9</ele>
        <time>2025-08-31T11:39:07.000Z</time>
      </trkpt>
      <trkpt lat="44.17968" lon="2.96574">
        <ele>770.8</ele>
        <time>2025-08-31T11:39:11.000Z</time>
      </trkpt>
      <trkpt lat="44.17974" lon="2.96561">
        <ele>771.9</ele>
        <time>2025-08-31T11:39:16.000Z</time>
      </trkpt>
      <trkpt lat="44.1798" lon="2.96549">
        <ele>772.9</ele>
        <time>2025-08-31T11:39:21.000Z</time>
      </trkpt>
      <trkpt lat="44.17986" lon="2.96537">
        <ele>773.7</ele>
        <time>2025-08-31T11:39:25.000Z</time>
      </trkpt>
      <trkpt lat="44.17992" lon="2.96525">
        <ele>774.5</ele>
        <time>2025-08-31T11:39:29.000Z</time>
      </trkpt>
      <trkpt lat="44.17997" lon="2.96515">
        <ele>775.2</ele>
        <time>2025-08-31T11:39:33.000Z</time>
      </trkpt>
      <trkpt lat="44.18003" lon="2.96505">
        <ele>776</ele>
        <time>2025-08-31T11:39:37.000Z</time>
      </trkpt>
      <trkpt lat="44.18008" lon="2.96493">
        <ele>776.8</ele>
        <time>2025-08-31T11:39:41.000Z</time>
      </trkpt>
      <trkpt lat="44.18007" lon="2.96478">
        <ele>777.7</ele>
        <time>2025-08-31T11:39:46.000Z</time>
      </trkpt>
      <trkpt lat="44.18003" lon="2.96466">
        <ele>778.3</ele>
        <time>2025-08-31T11:39:50.000Z</time>
      </trkpt>
      <trkpt lat="44.17995" lon="2.96455">
        <ele>778.9</ele>
        <time>2025-08-31T11:39:54.000Z</time>
      </trkpt>
      <trkpt lat="44.17985" lon="2.96447">
        <ele>779.6</ele>
        <time>2025-08-31T11:39:58.000Z</time>
      </trkpt>
      <trkpt lat="44.17977" lon="2.96441">
        <ele>780.1</ele>
        <time>2025-08-31T11:40:01.000Z</time>
      </trkpt>
      <trkpt lat="44.17969" lon="2.96431">
        <ele>780.7</ele>
        <time>2025-08-31T11:40:05.000Z</time>
      </trkpt>
      <trkpt lat="44.17963" lon="2.96419">
        <ele>781.4</ele>
        <time>2025-08-31T11:40:09.000Z</time>
      </trkpt>
      <trkpt lat="44.1796" lon="2.96407">
        <ele>781.8</ele>
        <time>2025-08-31T11:40:12.000Z</time>
      </trkpt>
      <trkpt lat="44.17958" lon="2.96392">
        <ele>782.2</ele>
        <time>2025-08-31T11:40:15.000Z</time>
      </trkpt>
      <trkpt lat="44.17958" lon="2.96378">
        <ele>782.6</ele>
        <time>2025-08-31T11:40:18.000Z</time>
      </trkpt>
      <trkpt lat="44.17958" lon="2.96363">
        <ele>783</ele>
        <time>2025-08-31T11:40:21.000Z</time>
      </trkpt>
      <trkpt lat="44.17957" lon="2.96347">
        <ele>783.4</ele>
        <time>2025-08-31T11:40:24.000Z</time>
      </trkpt>
      <trkpt lat="44.17957" lon="2.9633">
        <ele>783.7</ele>
        <time>2025-08-31T11:40:27.000Z</time>
      </trkpt>
      <trkpt lat="44.17957" lon="2.96313">
        <ele>784</ele>
        <time>2025-08-31T11:40:30.000Z</time>
      </trkpt>
      <trkpt lat="44.17959" lon="2.96297">
        <ele>784.3</ele>
        <time>2025-08-31T11:40:33.000Z</time>
      </trkpt>
      <trkpt lat="44.17965" lon="2.96285">
        <ele>784.6</ele>
        <time>2025-08-31T11:40:36.000Z</time>
      </trkpt>
      <trkpt lat="44.17973" lon="2.96279">
        <ele>785.1</ele>
        <time>2025-08-31T11:40:39.000Z</time>
      </trkpt>
      <trkpt lat="44.17981" lon="2.96272">
        <ele>785.6</ele>
        <time>2025-08-31T11:40:42.000Z</time>
      </trkpt>
      <trkpt lat="44.17989" lon="2.96265">
        <ele>786</ele>
        <time>2025-08-31T11:40:45.000Z</time>
      </trkpt>
      <trkpt lat="44.17998" lon="2.96258">
        <ele>786.4</ele>
        <time>2025-08-31T11:40:48.000Z</time>
      </trkpt>
      <trkpt lat="44.18007" lon="2.9625">
        <ele>786.7</ele>
        <time>2025-08-31T11:40:51.000Z</time>
      </trkpt>
      <trkpt lat="44.18016" lon="2.96241">
        <ele>787</ele>
        <time>2025-08-31T11:40:54.000Z</time>
      </trkpt>
      <trkpt lat="44.18026" lon="2.96232">
        <ele>787.3</ele>
        <time>2025-08-31T11:40:57.000Z</time>
      </trkpt>
      <trkpt lat="44.18037" lon="2.96225">
        <ele>787.5</ele>
        <time>2025-08-31T11:41:00.000Z</time>
      </trkpt>
      <trkpt lat="44.18046" lon="2.96224">
        <ele>787.5</ele>
        <time>2025-08-31T11:41:02.000Z</time>
      </trkpt>
      <trkpt lat="44.18056" lon="2.96225">
        <ele>787.6</ele>
        <time>2025-08-31T11:41:04.000Z</time>
      </trkpt>
      <trkpt lat="44.18066" lon="2.96233">
        <ele>787.5</ele>
        <time>2025-08-31T11:41:06.000Z</time>
      </trkpt>
      <trkpt lat="44.18075" lon="2.96243">
        <ele>787.4</ele>
        <time>2025-08-31T11:41:08.000Z</time>
      </trkpt>
      <trkpt lat="44.18083" lon="2.96253">
        <ele>787.4</ele>
        <time>2025-08-31T11:41:10.000Z</time>
      </trkpt>
      <trkpt lat="44.18091" lon="2.96262">
        <ele>787.3</ele>
        <time>2025-08-31T11:41:12.000Z</time>
      </trkpt>
      <trkpt lat="44.18099" lon="2.96269">
        <ele>787.3</ele>
        <time>2025-08-31T11:41:14.000Z</time>
      </trkpt>
      <trkpt lat="44.18106" lon="2.96276">
        <ele>787.2</ele>
        <time>2025-08-31T11:41:16.000Z</time>
      </trkpt>
      <trkpt lat="44.18118" lon="2.96285">
        <ele>787.2</ele>
        <time>2025-08-31T11:41:19.000Z</time>
      </trkpt>
      <trkpt lat="44.18126" lon="2.96291">
        <ele>787.1</ele>
        <time>2025-08-31T11:41:21.000Z</time>
      </trkpt>
      <trkpt lat="44.18135" lon="2.96296">
        <ele>787.1</ele>
        <time>2025-08-31T11:41:23.000Z</time>
      </trkpt>
      <trkpt lat="44.18147" lon="2.96302">
        <ele>787.1</ele>
        <time>2025-08-31T11:41:26.000Z</time>
      </trkpt>
      <trkpt lat="44.18286" lon="2.96443">
        <ele>789.5</ele>
        <time>2025-08-31T11:42:11.000Z</time>
      </trkpt>
      <trkpt lat="44.18293" lon="2.96452">
        <ele>790</ele>
        <time>2025-08-31T11:42:14.000Z</time>
      </trkpt>
      <trkpt lat="44.18315" lon="2.96484">
        <ele>791.4</ele>
        <time>2025-08-31T11:42:25.000Z</time>
      </trkpt>
      <trkpt lat="44.18325" lon="2.96485">
        <ele>791.5</ele>
        <time>2025-08-31T11:42:27.000Z</time>
      </trkpt>
      <trkpt lat="44.18337" lon="2.96478">
        <ele>791.5</ele>
        <time>2025-08-31T11:42:29.000Z</time>
      </trkpt>
      <trkpt lat="44.18348" lon="2.96465">
        <ele>791.4</ele>
        <time>2025-08-31T11:42:31.000Z</time>
      </trkpt>
      <trkpt lat="44.18357" lon="2.96446">
        <ele>791.2</ele>
        <time>2025-08-31T11:42:33.000Z</time>
      </trkpt>
      <trkpt lat="44.1836" lon="2.96435">
        <ele>791</ele>
        <time>2025-08-31T11:42:34.000Z</time>
      </trkpt>
      <trkpt lat="44.18363" lon="2.96423">
        <ele>790.8</ele>
        <time>2025-08-31T11:42:35.000Z</time>
      </trkpt>
      <trkpt lat="44.18366" lon="2.9641">
        <ele>790.6</ele>
        <time>2025-08-31T11:42:36.000Z</time>
      </trkpt>
      <trkpt lat="44.18369" lon="2.96398">
        <ele>790.3</ele>
        <time>2025-08-31T11:42:37.000Z</time>
      </trkpt>
      <trkpt lat="44.18373" lon="2.96386">
        <ele>790.1</ele>
        <time>2025-08-31T11:42:38.000Z</time>
      </trkpt>
      <trkpt lat="44.18382" lon="2.96365">
        <ele>789.6</ele>
        <time>2025-08-31T11:42:40.000Z</time>
      </trkpt>
      <trkpt lat="44.18393" lon="2.96349">
        <ele>789.1</ele>
        <time>2025-08-31T11:42:42.000Z</time>
      </trkpt>
      <trkpt lat="44.18406" lon="2.96334">
        <ele>788.6</ele>
        <time>2025-08-31T11:42:44.000Z</time>
      </trkpt>
      <trkpt lat="44.18416" lon="2.96316">
        <ele>788.1</ele>
        <time>2025-08-31T11:42:46.000Z</time>
      </trkpt>
      <trkpt lat="44.18421" lon="2.96294">
        <ele>787.7</ele>
        <time>2025-08-31T11:42:48.000Z</time>
      </trkpt>
      <trkpt lat="44.18419" lon="2.96274">
        <ele>787.3</ele>
        <time>2025-08-31T11:42:50.000Z</time>
      </trkpt>
      <trkpt lat="44.18415" lon="2.96256">
        <ele>787</ele>
        <time>2025-08-31T11:42:52.000Z</time>
      </trkpt>
      <trkpt lat="44.18411" lon="2.96241">
        <ele>786.7</ele>
        <time>2025-08-31T11:42:54.000Z</time>
      </trkpt>
      <trkpt lat="44.18409" lon="2.96228">
        <ele>786.4</ele>
        <time>2025-08-31T11:42:56.000Z</time>
      </trkpt>
      <trkpt lat="44.18406" lon="2.96215">
        <ele>786.2</ele>
        <time>2025-08-31T11:42:58.000Z</time>
      </trkpt>
      <trkpt lat="44.18403" lon="2.96202">
        <ele>786</ele>
        <time>2025-08-31T11:43:00.000Z</time>
      </trkpt>
      <trkpt lat="44.18399" lon="2.96184">
        <ele>785.8</ele>
        <time>2025-08-31T11:43:03.000Z</time>
      </trkpt>
      <trkpt lat="44.18399" lon="2.96171">
        <ele>785.6</ele>
        <time>2025-08-31T11:43:05.000Z</time>
      </trkpt>
      <trkpt lat="44.18403" lon="2.96156">
        <ele>785.3</ele>
        <time>2025-08-31T11:43:07.000Z</time>
      </trkpt>
      <trkpt lat="44.18406" lon="2.96143">
        <ele>784.8</ele>
        <time>2025-08-31T11:43:09.000Z</time>
      </trkpt>
      <trkpt lat="44.18408" lon="2.9613">
        <ele>783.4</ele>
        <time>2025-08-31T11:43:14.000Z</time>
      </trkpt>
      <trkpt lat="44.1841" lon="2.96116">
        <ele>782.9</ele>
        <time>2025-08-31T11:43:16.000Z</time>
      </trkpt>
      <trkpt lat="44.18414" lon="2.96099">
        <ele>782.3</ele>
        <time>2025-08-31T11:43:18.000Z</time>
      </trkpt>
      <trkpt lat="44.18419" lon="2.9608">
        <ele>781.6</ele>
        <time>2025-08-31T11:43:20.000Z</time>
      </trkpt>
      <trkpt lat="44.18426" lon="2.96061">
        <ele>780.8</ele>
        <time>2025-08-31T11:43:22.000Z</time>
      </trkpt>
      <trkpt lat="44.18431" lon="2.96042">
        <ele>779.9</ele>
        <time>2025-08-31T11:43:24.000Z</time>
      </trkpt>
      <trkpt lat="44.18438" lon="2.96023">
        <ele>779.1</ele>
        <time>2025-08-31T11:43:26.000Z</time>
      </trkpt>
      <trkpt lat="44.18443" lon="2.96004">
        <ele>778.4</ele>
        <time>2025-08-31T11:43:28.000Z</time>
      </trkpt>
      <trkpt lat="44.18449" lon="2.95984">
        <ele>777.5</ele>
        <time>2025-08-31T11:43:30.000Z</time>
      </trkpt>
      <trkpt lat="44.18456" lon="2.95963">
        <ele>776.6</ele>
        <time>2025-08-31T11:43:32.000Z</time>
      </trkpt>
      <trkpt lat="44.18462" lon="2.95941">
        <ele>775.7</ele>
        <time>2025-08-31T11:43:34.000Z</time>
      </trkpt>
      <trkpt lat="44.18465" lon="2.9592">
        <ele>774.7</ele>
        <time>2025-08-31T11:43:36.000Z</time>
      </trkpt>
      <trkpt lat="44.18467" lon="2.95901">
        <ele>773.7</ele>
        <time>2025-08-31T11:43:38.000Z</time>
      </trkpt>
      <trkpt lat="44.1847" lon="2.95885">
        <ele>772.8</ele>
        <time>2025-08-31T11:43:40.000Z</time>
      </trkpt>
      <trkpt lat="44.1847" lon="2.9587">
        <ele>772.1</ele>
        <time>2025-08-31T11:43:42.000Z</time>
      </trkpt>
      <trkpt lat="44.18462" lon="2.95857">
        <ele>771.4</ele>
        <time>2025-08-31T11:43:44.000Z</time>
      </trkpt>
      <trkpt lat="44.18451" lon="2.95849">
        <ele>770.5</ele>
        <time>2025-08-31T11:43:46.000Z</time>
      </trkpt>
      <trkpt lat="44.18443" lon="2.95843">
        <ele>769.5</ele>
        <time>2025-08-31T11:43:48.000Z</time>
      </trkpt>
      <trkpt lat="44.18435" lon="2.95841">
        <ele>760.4</ele>
        <time>2025-08-31T11:44:50.000Z</time>
      </trkpt>
      <trkpt lat="44.18436" lon="2.95854">
        <ele>760.1</ele>
        <time>2025-08-31T11:44:53.000Z</time>
      </trkpt>
      <trkpt lat="44.18434" lon="2.95868">
        <ele>759.4</ele>
        <time>2025-08-31T11:44:56.000Z</time>
      </trkpt>
      <trkpt lat="44.18425" lon="2.9588">
        <ele>758.1</ele>
        <time>2025-08-31T11:45:00.000Z</time>
      </trkpt>
      <trkpt lat="44.18417" lon="2.9589">
        <ele>756.7</ele>
        <time>2025-08-31T11:45:03.000Z</time>
      </trkpt>
      <trkpt lat="44.1841" lon="2.95899">
        <ele>755.3</ele>
        <time>2025-08-31T11:45:06.000Z</time>
      </trkpt>
      <trkpt lat="44.18402" lon="2.95907">
        <ele>753.9</ele>
        <time>2025-08-31T11:45:09.000Z</time>
      </trkpt>
      <trkpt lat="44.18393" lon="2.95912">
        <ele>751.5</ele>
        <time>2025-08-31T11:45:14.000Z</time>
      </trkpt>
      <trkpt lat="44.18382" lon="2.95915">
        <ele>749.8</ele>
        <time>2025-08-31T11:45:18.000Z</time>
      </trkpt>
      <trkpt lat="44.1837" lon="2.95914">
        <ele>748.5</ele>
        <time>2025-08-31T11:45:21.000Z</time>
      </trkpt>
      <trkpt lat="44.1836" lon="2.95915">
        <ele>747</ele>
        <time>2025-08-31T11:45:24.000Z</time>
      </trkpt>
      <trkpt lat="44.18349" lon="2.9592">
        <ele>745.5</ele>
        <time>2025-08-31T11:45:27.000Z</time>
      </trkpt>
      <trkpt lat="44.18339" lon="2.95928">
        <ele>743.9</ele>
        <time>2025-08-31T11:45:30.000Z</time>
      </trkpt>
      <trkpt lat="44.18329" lon="2.95936">
        <ele>742.4</ele>
        <time>2025-08-31T11:45:33.000Z</time>
      </trkpt>
      <trkpt lat="44.18317" lon="2.95939">
        <ele>740.4</ele>
        <time>2025-08-31T11:45:37.000Z</time>
      </trkpt>
      <trkpt lat="44.18307" lon="2.9594">
        <ele>738.9</ele>
        <time>2025-08-31T11:45:40.000Z</time>
      </trkpt>
      <trkpt lat="44.18297" lon="2.9594">
        <ele>737.3</ele>
        <time>2025-08-31T11:45:43.000Z</time>
      </trkpt>
      <trkpt lat="44.18286" lon="2.95938">
        <ele>735</ele>
        <time>2025-08-31T11:45:47.000Z</time>
      </trkpt>
      <trkpt lat="44.18276" lon="2.95933">
        <ele>732.7</ele>
        <time>2025-08-31T11:45:51.000Z</time>
      </trkpt>
      <trkpt lat="44.18268" lon="2.95927">
        <ele>730.6</ele>
        <time>2025-08-31T11:45:55.000Z</time>
      </trkpt>
      <trkpt lat="44.18257" lon="2.95919">
        <ele>728.2</ele>
        <time>2025-08-31T11:45:59.000Z</time>
      </trkpt>
      <trkpt lat="44.18248" lon="2.95914">
        <ele>726.6</ele>
        <time>2025-08-31T11:46:02.000Z</time>
      </trkpt>
      <trkpt lat="44.18236" lon="2.95915">
        <ele>724.9</ele>
        <time>2025-08-31T11:46:05.000Z</time>
      </trkpt>
      <trkpt lat="44.18226" lon="2.95918">
        <ele>723.4</ele>
        <time>2025-08-31T11:46:08.000Z</time>
      </trkpt>
      <trkpt lat="44.18217" lon="2.95929">
        <ele>721.4</ele>
        <time>2025-08-31T11:46:12.000Z</time>
      </trkpt>
      <trkpt lat="44.18207" lon="2.95931">
        <ele>719.4</ele>
        <time>2025-08-31T11:46:16.000Z</time>
      </trkpt>
      <trkpt lat="44.18199" lon="2.95926">
        <ele>717.2</ele>
        <time>2025-08-31T11:46:22.000Z</time>
      </trkpt>
      <trkpt lat="44.18193" lon="2.95913">
        <ele>713.5</ele>
        <time>2025-08-31T11:46:45.000Z</time>
      </trkpt>
      <trkpt lat="44.18187" lon="2.95903">
        <ele>713.4</ele>
        <time>2025-08-31T11:46:48.000Z</time>
      </trkpt>
      <trkpt lat="44.18178" lon="2.95894">
        <ele>713.3</ele>
        <time>2025-08-31T11:46:52.000Z</time>
      </trkpt>
      <trkpt lat="44.18169" lon="2.95888">
        <ele>713.5</ele>
        <time>2025-08-31T11:46:57.000Z</time>
      </trkpt>
      <trkpt lat="44.1816" lon="2.9588">
        <ele>713.8</ele>
        <time>2025-08-31T11:47:02.000Z</time>
      </trkpt>
      <trkpt lat="44.18155" lon="2.95868">
        <ele>714.3</ele>
        <time>2025-08-31T11:47:07.000Z</time>
      </trkpt>
      <trkpt lat="44.18151" lon="2.95856">
        <ele>714.8</ele>
        <time>2025-08-31T11:47:12.000Z</time>
      </trkpt>
      <trkpt lat="44.18147" lon="2.95842">
        <ele>715.3</ele>
        <time>2025-08-31T11:47:18.000Z</time>
      </trkpt>
      <trkpt lat="44.18143" lon="2.9583">
        <ele>715.5</ele>
        <time>2025-08-31T11:47:22.000Z</time>
      </trkpt>
      <trkpt lat="44.18138" lon="2.95818">
        <ele>715.3</ele>
        <time>2025-08-31T11:47:26.000Z</time>
      </trkpt>
      <trkpt lat="44.18133" lon="2.95807">
        <ele>714.8</ele>
        <time>2025-08-31T11:47:30.000Z</time>
      </trkpt>
      <trkpt lat="44.18129" lon="2.95795">
        <ele>714.2</ele>
        <time>2025-08-31T11:47:34.000Z</time>
      </trkpt>
      <trkpt lat="44.18124" lon="2.95782">
        <ele>713.4</ele>
        <time>2025-08-31T11:47:38.000Z</time>
      </trkpt>
      <trkpt lat="44.18118" lon="2.95771">
        <ele>712.2</ele>
        <time>2025-08-31T11:47:43.000Z</time>
      </trkpt>
      <trkpt lat="44.1811" lon="2.95761">
        <ele>711.1</ele>
        <time>2025-08-31T11:47:47.000Z</time>
      </trkpt>
      <trkpt lat="44.18104" lon="2.95749">
        <ele>709.1</ele>
        <time>2025-08-31T11:47:56.000Z</time>
      </trkpt>
      <trkpt lat="44.18097" lon="2.95742">
        <ele>708.4</ele>
        <time>2025-08-31T11:47:59.000Z</time>
      </trkpt>
      <trkpt lat="44.1809" lon="2.9573">
        <ele>707.4</ele>
        <time>2025-08-31T11:48:03.000Z</time>
      </trkpt>
      <trkpt lat="44.18083" lon="2.95718">
        <ele>706.4</ele>
        <time>2025-08-31T11:48:07.000Z</time>
      </trkpt>
      <trkpt lat="44.18076" lon="2.95707">
        <ele>705</ele>
        <time>2025-08-31T11:48:13.000Z</time>
      </trkpt>
      <trkpt lat="44.18069" lon="2.95698">
        <ele>703.6</ele>
        <time>2025-08-31T11:48:19.000Z</time>
      </trkpt>
      <trkpt lat="44.18062" lon="2.95687">
        <ele>702.5</ele>
        <time>2025-08-31T11:48:24.000Z</time>
      </trkpt>
      <trkpt lat="44.18058" lon="2.95676">
        <ele>701.1</ele>
        <time>2025-08-31T11:48:30.000Z</time>
      </trkpt>
      <trkpt lat="44.18052" lon="2.95664">
        <ele>699.8</ele>
        <time>2025-08-31T11:48:35.000Z</time>
      </trkpt>
      <trkpt lat="44.18044" lon="2.95651">
        <ele>698.8</ele>
        <time>2025-08-31T11:48:39.000Z</time>
      </trkpt>
      <trkpt lat="44.18037" lon="2.95641">
        <ele>697.9</ele>
        <time>2025-08-31T11:48:43.000Z</time>
      </trkpt>
      <trkpt lat="44.18032" lon="2.9563">
        <ele>697.1</ele>
        <time>2025-08-31T11:48:47.000Z</time>
      </trkpt>
      <trkpt lat="44.18025" lon="2.95617">
        <ele>696.2</ele>
        <time>2025-08-31T11:48:51.000Z</time>
      </trkpt>
      <trkpt lat="44.18017" lon="2.95604">
        <ele>695.5</ele>
        <time>2025-08-31T11:48:54.000Z</time>
      </trkpt>
      <trkpt lat="44.1801" lon="2.95593">
        <ele>694.8</ele>
        <time>2025-08-31T11:48:57.000Z</time>
      </trkpt>
      <trkpt lat="44.18003" lon="2.95584">
        <ele>694.3</ele>
        <time>2025-08-31T11:49:00.000Z</time>
      </trkpt>
      <trkpt lat="44.17996" lon="2.95574">
        <ele>692.9</ele>
        <time>2025-08-31T11:49:08.000Z</time>
      </trkpt>
      <trkpt lat="44.17988" lon="2.95564">
        <ele>692</ele>
        <time>2025-08-31T11:49:14.000Z</time>
      </trkpt>
      <trkpt lat="44.1798" lon="2.95557">
        <ele>691.5</ele>
        <time>2025-08-31T11:49:18.000Z</time>
      </trkpt>
      <trkpt lat="44.1797" lon="2.95553">
        <ele>690.8</ele>
        <time>2025-08-31T11:49:22.000Z</time>
      </trkpt>
      <trkpt lat="44.17959" lon="2.9555">
        <ele>689.9</ele>
        <time>2025-08-31T11:49:26.000Z</time>
      </trkpt>
      <trkpt lat="44.17949" lon="2.95547">
        <ele>689</ele>
        <time>2025-08-31T11:49:30.000Z</time>
      </trkpt>
      <trkpt lat="44.17937" lon="2.95544">
        <ele>687.8</ele>
        <time>2025-08-31T11:49:34.000Z</time>
      </trkpt>
      <trkpt lat="44.17927" lon="2.95542">
        <ele>687</ele>
        <time>2025-08-31T11:49:37.000Z</time>
      </trkpt>
      <trkpt lat="44.17916" lon="2.95541">
        <ele>685.7</ele>
        <time>2025-08-31T11:49:41.000Z</time>
      </trkpt>
      <trkpt lat="44.17905" lon="2.95539">
        <ele>684.5</ele>
        <time>2025-08-31T11:49:45.000Z</time>
      </trkpt>
      <trkpt lat="44.17895" lon="2.95539">
        <ele>683.4</ele>
        <time>2025-08-31T11:49:49.000Z</time>
      </trkpt>
      <trkpt lat="44.17886" lon="2.95538">
        <ele>682.5</ele>
        <time>2025-08-31T11:49:52.000Z</time>
      </trkpt>
      <trkpt lat="44.17877" lon="2.95538">
        <ele>681.5</ele>
        <time>2025-08-31T11:49:55.000Z</time>
      </trkpt>
      <trkpt lat="44.17868" lon="2.95538">
        <ele>680.5</ele>
        <time>2025-08-31T11:49:58.000Z</time>
      </trkpt>
      <trkpt lat="44.17858" lon="2.95539">
        <ele>679.4</ele>
        <time>2025-08-31T11:50:01.000Z</time>
      </trkpt>
      <trkpt lat="44.17848" lon="2.95539">
        <ele>678.1</ele>
        <time>2025-08-31T11:50:05.000Z</time>
      </trkpt>
      <trkpt lat="44.17838" lon="2.95537">
        <ele>676.7</ele>
        <time>2025-08-31T11:50:10.000Z</time>
      </trkpt>
      <trkpt lat="44.17827" lon="2.95536">
        <ele>675.7</ele>
        <time>2025-08-31T11:50:14.000Z</time>
      </trkpt>
      <trkpt lat="44.17818" lon="2.95534">
        <ele>674.8</ele>
        <time>2025-08-31T11:50:18.000Z</time>
      </trkpt>
      <trkpt lat="44.17808" lon="2.95536">
        <ele>673.8</ele>
        <time>2025-08-31T11:50:23.000Z</time>
      </trkpt>
      <trkpt lat="44.178" lon="2.95531">
        <ele>672.7</ele>
        <time>2025-08-31T11:50:29.000Z</time>
      </trkpt>
      <trkpt lat="44.17788" lon="2.95532">
        <ele>671.8</ele>
        <time>2025-08-31T11:50:33.000Z</time>
      </trkpt>
      <trkpt lat="44.17776" lon="2.95532">
        <ele>671</ele>
        <time>2025-08-31T11:50:36.000Z</time>
      </trkpt>
      <trkpt lat="44.17764" lon="2.95533">
        <ele>670.3</ele>
        <time>2025-08-31T11:50:39.000Z</time>
      </trkpt>
      <trkpt lat="44.17753" lon="2.95535">
        <ele>669.7</ele>
        <time>2025-08-31T11:50:42.000Z</time>
      </trkpt>
      <trkpt lat="44.17743" lon="2.9554">
        <ele>669</ele>
        <time>2025-08-31T11:50:45.000Z</time>
      </trkpt>
      <trkpt lat="44.17732" lon="2.95542">
        <ele>668.2</ele>
        <time>2025-08-31T11:50:48.000Z</time>
      </trkpt>
      <trkpt lat="44.17722" lon="2.95543">
        <ele>667.2</ele>
        <time>2025-08-31T11:50:51.000Z</time>
      </trkpt>
      <trkpt lat="44.17709" lon="2.95546">
        <ele>666.2</ele>
        <time>2025-08-31T11:50:54.000Z</time>
      </trkpt>
      <trkpt lat="44.177" lon="2.95548">
        <ele>665.5</ele>
        <time>2025-08-31T11:50:56.000Z</time>
      </trkpt>
      <trkpt lat="44.17689" lon="2.9555">
        <ele>664.3</ele>
        <time>2025-08-31T11:50:59.000Z</time>
      </trkpt>
      <trkpt lat="44.17678" lon="2.95548">
        <ele>663.2</ele>
        <time>2025-08-31T11:51:02.000Z</time>
      </trkpt>
      <trkpt lat="44.17669" lon="2.95551">
        <ele>661.9</ele>
        <time>2025-08-31T11:51:05.000Z</time>
      </trkpt>
      <trkpt lat="44.1766" lon="2.95557">
        <ele>660.1</ele>
        <time>2025-08-31T11:51:10.000Z</time>
      </trkpt>
      <trkpt lat="44.17649" lon="2.95555">
        <ele>658.8</ele>
        <time>2025-08-31T11:51:15.000Z</time>
      </trkpt>
      <trkpt lat="44.17641" lon="2.9555">
        <ele>657.7</ele>
        <time>2025-08-31T11:51:21.000Z</time>
      </trkpt>
      <trkpt lat="44.1763" lon="2.95547">
        <ele>656.8</ele>
        <time>2025-08-31T11:51:29.000Z</time>
      </trkpt>
      <trkpt lat="44.17619" lon="2.95546">
        <ele>656.4</ele>
        <time>2025-08-31T11:51:34.000Z</time>
      </trkpt>
      <trkpt lat="44.17606" lon="2.95538">
        <ele>660.2</ele>
        <time>2025-08-31T12:01:39.000Z</time>
      </trkpt>
      <trkpt lat="44.17594" lon="2.95536">
        <ele>658.7</ele>
        <time>2025-08-31T12:01:43.000Z</time>
      </trkpt>
      <trkpt lat="44.17582" lon="2.95537">
        <ele>657.6</ele>
        <time>2025-08-31T12:01:46.000Z</time>
      </trkpt>
      <trkpt lat="44.17573" lon="2.9554">
        <ele>656.4</ele>
        <time>2025-08-31T12:01:49.000Z</time>
      </trkpt>
      <trkpt lat="44.17562" lon="2.95548">
        <ele>655.2</ele>
        <time>2025-08-31T12:01:52.000Z</time>
      </trkpt>
      <trkpt lat="44.17551" lon="2.95557">
        <ele>654.1</ele>
        <time>2025-08-31T12:01:55.000Z</time>
      </trkpt>
      <trkpt lat="44.1754" lon="2.95567">
        <ele>652.9</ele>
        <time>2025-08-31T12:01:58.000Z</time>
      </trkpt>
      <trkpt lat="44.17528" lon="2.95574">
        <ele>651.8</ele>
        <time>2025-08-31T12:02:01.000Z</time>
      </trkpt>
      <trkpt lat="44.1752" lon="2.9558">
        <ele>651.2</ele>
        <time>2025-08-31T12:02:03.000Z</time>
      </trkpt>
      <trkpt lat="44.17509" lon="2.95588">
        <ele>650.3</ele>
        <time>2025-08-31T12:02:06.000Z</time>
      </trkpt>
      <trkpt lat="44.17499" lon="2.95594">
        <ele>649.5</ele>
        <time>2025-08-31T12:02:09.000Z</time>
      </trkpt>
      <trkpt lat="44.1749" lon="2.956">
        <ele>648.5</ele>
        <time>2025-08-31T12:02:13.000Z</time>
      </trkpt>
      <trkpt lat="44.17478" lon="2.95604">
        <ele>647.4</ele>
        <time>2025-08-31T12:02:18.000Z</time>
      </trkpt>
      <trkpt lat="44.17468" lon="2.95599">
        <ele>646.4</ele>
        <time>2025-08-31T12:02:22.000Z</time>
      </trkpt>
      <trkpt lat="44.17461" lon="2.95588">
        <ele>645.3</ele>
        <time>2025-08-31T12:02:27.000Z</time>
      </trkpt>
      <trkpt lat="44.17454" lon="2.95581">
        <ele>644.6</ele>
        <time>2025-08-31T12:02:30.000Z</time>
      </trkpt>
      <trkpt lat="44.17445" lon="2.95576">
        <ele>643.8</ele>
        <time>2025-08-31T12:02:33.000Z</time>
      </trkpt>
      <trkpt lat="44.17434" lon="2.95573">
        <ele>642.9</ele>
        <time>2025-08-31T12:02:36.000Z</time>
      </trkpt>
      <trkpt lat="44.17423" lon="2.95572">
        <ele>641.9</ele>
        <time>2025-08-31T12:02:39.000Z</time>
      </trkpt>
      <trkpt lat="44.17412" lon="2.95574">
        <ele>641</ele>
        <time>2025-08-31T12:02:42.000Z</time>
      </trkpt>
      <trkpt lat="44.17402" lon="2.95575">
        <ele>639.6</ele>
        <time>2025-08-31T12:02:46.000Z</time>
      </trkpt>
      <trkpt lat="44.17394" lon="2.95569">
        <ele>637.7</ele>
        <time>2025-08-31T12:02:53.000Z</time>
      </trkpt>
      <trkpt lat="44.17385" lon="2.95561">
        <ele>636.4</ele>
        <time>2025-08-31T12:03:00.000Z</time>
      </trkpt>
      <trkpt lat="44.17384" lon="2.95574">
        <ele>635.6</ele>
        <time>2025-08-31T12:03:07.000Z</time>
      </trkpt>
      <trkpt lat="44.17395" lon="2.95575">
        <ele>635</ele>
        <time>2025-08-31T12:03:15.000Z</time>
      </trkpt>
      <trkpt lat="44.17391" lon="2.95561">
        <ele>634.8</ele>
        <time>2025-08-31T12:03:19.000Z</time>
      </trkpt>
      <trkpt lat="44.17381" lon="2.95562">
        <ele>634.4</ele>
        <time>2025-08-31T12:03:25.000Z</time>
      </trkpt>
      <trkpt lat="44.17374" lon="2.95553">
        <ele>633.9</ele>
        <time>2025-08-31T12:03:53.000Z</time>
      </trkpt>
      <trkpt lat="44.17366" lon="2.9556">
        <ele>633.9</ele>
        <time>2025-08-31T12:03:56.000Z</time>
      </trkpt>
      <trkpt lat="44.17354" lon="2.95562">
        <ele>634</ele>
        <time>2025-08-31T12:03:59.000Z</time>
      </trkpt>
      <trkpt lat="44.17345" lon="2.95561">
        <ele>634</ele>
        <time>2025-08-31T12:04:01.000Z</time>
      </trkpt>
      <trkpt lat="44.17336" lon="2.95557">
        <ele>634</ele>
        <time>2025-08-31T12:04:03.000Z</time>
      </trkpt>
      <trkpt lat="44.17326" lon="2.95553">
        <ele>634</ele>
        <time>2025-08-31T12:04:05.000Z</time>
      </trkpt>
      <trkpt lat="44.17317" lon="2.95547">
        <ele>633.9</ele>
        <time>2025-08-31T12:04:07.000Z</time>
      </trkpt>
      <trkpt lat="44.17308" lon="2.95542">
        <ele>633.9</ele>
        <time>2025-08-31T12:04:09.000Z</time>
      </trkpt>
      <trkpt lat="44.17299" lon="2.95538">
        <ele>633.7</ele>
        <time>2025-08-31T12:04:11.000Z</time>
      </trkpt>
      <trkpt lat="44.17289" lon="2.95534">
        <ele>633.6</ele>
        <time>2025-08-31T12:04:13.000Z</time>
      </trkpt>
      <trkpt lat="44.17279" lon="2.95531">
        <ele>633.4</ele>
        <time>2025-08-31T12:04:15.000Z</time>
      </trkpt>
      <trkpt lat="44.17269" lon="2.95528">
        <ele>633.3</ele>
        <time>2025-08-31T12:04:17.000Z</time>
      </trkpt>
      <trkpt lat="44.17259" lon="2.95528">
        <ele>633.2</ele>
        <time>2025-08-31T12:04:19.000Z</time>
      </trkpt>
      <trkpt lat="44.1725" lon="2.95532">
        <ele>633.1</ele>
        <time>2025-08-31T12:04:21.000Z</time>
      </trkpt>
      <trkpt lat="44.17243" lon="2.9554">
        <ele>633.1</ele>
        <time>2025-08-31T12:04:23.000Z</time>
      </trkpt>
      <trkpt lat="44.17236" lon="2.95549">
        <ele>633</ele>
        <time>2025-08-31T12:04:25.000Z</time>
      </trkpt>
      <trkpt lat="44.17229" lon="2.95561">
        <ele>633</ele>
        <time>2025-08-31T12:04:27.000Z</time>
      </trkpt>
      <trkpt lat="44.17222" lon="2.9557">
        <ele>633</ele>
        <time>2025-08-31T12:04:29.000Z</time>
      </trkpt>
      <trkpt lat="44.17215" lon="2.95578">
        <ele>633</ele>
        <time>2025-08-31T12:04:31.000Z</time>
      </trkpt>
      <trkpt lat="44.17203" lon="2.95588">
        <ele>633</ele>
        <time>2025-08-31T12:04:34.000Z</time>
      </trkpt>
      <trkpt lat="44.17195" lon="2.95594">
        <ele>633</ele>
        <time>2025-08-31T12:04:36.000Z</time>
      </trkpt>
      <trkpt lat="44.17183" lon="2.95601">
        <ele>633</ele>
        <time>2025-08-31T12:04:39.000Z</time>
      </trkpt>
      <trkpt lat="44.17171" lon="2.95609">
        <ele>633</ele>
        <time>2025-08-31T12:04:42.000Z</time>
      </trkpt>
      <trkpt lat="44.1716" lon="2.95618">
        <ele>633.1</ele>
        <time>2025-08-31T12:04:45.000Z</time>
      </trkpt>
      <trkpt lat="44.17149" lon="2.95626">
        <ele>633.3</ele>
        <time>2025-08-31T12:04:48.000Z</time>
      </trkpt>
      <trkpt lat="44.17137" lon="2.95634">
        <ele>633.6</ele>
        <time>2025-08-31T12:04:51.000Z</time>
      </trkpt>
      <trkpt lat="44.17126" lon="2.95641">
        <ele>633.9</ele>
        <time>2025-08-31T12:04:54.000Z</time>
      </trkpt>
      <trkpt lat="44.17115" lon="2.95645">
        <ele>634.2</ele>
        <time>2025-08-31T12:04:57.000Z</time>
      </trkpt>
      <trkpt lat="44.17103" lon="2.95649">
        <ele>634.6</ele>
        <time>2025-08-31T12:05:00.000Z</time>
      </trkpt>
      <trkpt lat="44.17093" lon="2.95651">
        <ele>635</ele>
        <time>2025-08-31T12:05:03.000Z</time>
      </trkpt>
      <trkpt lat="44.17084" lon="2.95653">
        <ele>635.5</ele>
        <time>2025-08-31T12:05:06.000Z</time>
      </trkpt>
      <trkpt lat="44.17075" lon="2.95654">
        <ele>635.9</ele>
        <time>2025-08-31T12:05:09.000Z</time>
      </trkpt>
      <trkpt lat="44.17065" lon="2.95658">
        <ele>636.4</ele>
        <time>2025-08-31T12:05:12.000Z</time>
      </trkpt>
      <trkpt lat="44.17056" lon="2.95663">
        <ele>636.9</ele>
        <time>2025-08-31T12:05:15.000Z</time>
      </trkpt>
      <trkpt lat="44.17048" lon="2.95668">
        <ele>637.4</ele>
        <time>2025-08-31T12:05:18.000Z</time>
      </trkpt>
      <trkpt lat="44.17037" lon="2.95674">
        <ele>638.1</ele>
        <time>2025-08-31T12:05:22.000Z</time>
      </trkpt>
      <trkpt lat="44.17026" lon="2.95681">
        <ele>638.9</ele>
        <time>2025-08-31T12:05:26.000Z</time>
      </trkpt>
      <trkpt lat="44.17018" lon="2.95687">
        <ele>639.5</ele>
        <time>2025-08-31T12:05:29.000Z</time>
      </trkpt>
      <trkpt lat="44.17008" lon="2.95692">
        <ele>640.1</ele>
        <time>2025-08-31T12:05:32.000Z</time>
      </trkpt>
      <trkpt lat="44.16999" lon="2.95697">
        <ele>640.7</ele>
        <time>2025-08-31T12:05:35.000Z</time>
      </trkpt>
      <trkpt lat="44.16991" lon="2.95703">
        <ele>641.4</ele>
        <time>2025-08-31T12:05:38.000Z</time>
      </trkpt>
      <trkpt lat="44.16981" lon="2.9571">
        <ele>642.3</ele>
        <time>2025-08-31T12:05:42.000Z</time>
      </trkpt>
      <trkpt lat="44.16971" lon="2.95719">
        <ele>643.3</ele>
        <time>2025-08-31T12:05:46.000Z</time>
      </trkpt>
      <trkpt lat="44.16962" lon="2.95728">
        <ele>644.3</ele>
        <time>2025-08-31T12:05:50.000Z</time>
      </trkpt>
      <trkpt lat="44.16952" lon="2.95736">
        <ele>645.3</ele>
        <time>2025-08-31T12:05:54.000Z</time>
      </trkpt>
      <trkpt lat="44.16942" lon="2.95741">
        <ele>646.3</ele>
        <time>2025-08-31T12:05:58.000Z</time>
      </trkpt>
      <trkpt lat="44.16932" lon="2.95742">
        <ele>647.3</ele>
        <time>2025-08-31T12:06:02.000Z</time>
      </trkpt>
      <trkpt lat="44.16922" lon="2.95742">
        <ele>648.3</ele>
        <time>2025-08-31T12:06:06.000Z</time>
      </trkpt>
      <trkpt lat="44.1691" lon="2.95743">
        <ele>649.2</ele>
        <time>2025-08-31T12:06:10.000Z</time>
      </trkpt>
      <trkpt lat="44.16901" lon="2.95746">
        <ele>649.7</ele>
        <time>2025-08-31T12:06:13.000Z</time>
      </trkpt>
      <trkpt lat="44.16892" lon="2.9575">
        <ele>650.2</ele>
        <time>2025-08-31T12:06:16.000Z</time>
      </trkpt>
      <trkpt lat="44.16881" lon="2.95755">
        <ele>650.6</ele>
        <time>2025-08-31T12:06:20.000Z</time>
      </trkpt>
      <trkpt lat="44.16871" lon="2.95759">
        <ele>650.9</ele>
        <time>2025-08-31T12:06:23.000Z</time>
      </trkpt>
      <trkpt lat="44.16861" lon="2.95763">
        <ele>651.1</ele>
        <time>2025-08-31T12:06:26.000Z</time>
      </trkpt>
      <trkpt lat="44.1685" lon="2.95766">
        <ele>651.3</ele>
        <time>2025-08-31T12:06:29.000Z</time>
      </trkpt>
      <trkpt lat="44.1684" lon="2.95768">
        <ele>651.5</ele>
        <time>2025-08-31T12:06:32.000Z</time>
      </trkpt>
      <trkpt lat="44.16831" lon="2.95769">
        <ele>651.5</ele>
        <time>2025-08-31T12:06:35.000Z</time>
      </trkpt>
      <trkpt lat="44.16822" lon="2.95771">
        <ele>651.4</ele>
        <time>2025-08-31T12:06:40.000Z</time>
      </trkpt>
      <trkpt lat="44.16812" lon="2.95768">
        <ele>651.1</ele>
        <time>2025-08-31T12:06:46.000Z</time>
      </trkpt>
      <trkpt lat="44.16802" lon="2.95766">
        <ele>650.8</ele>
        <time>2025-08-31T12:06:50.000Z</time>
      </trkpt>
      <trkpt lat="44.16792" lon="2.9576">
        <ele>650.6</ele>
        <time>2025-08-31T12:06:54.000Z</time>
      </trkpt>
      <trkpt lat="44.16781" lon="2.95753">
        <ele>650.2</ele>
        <time>2025-08-31T12:06:57.000Z</time>
      </trkpt>
      <trkpt lat="44.16769" lon="2.95746">
        <ele>649.8</ele>
        <time>2025-08-31T12:07:00.000Z</time>
      </trkpt>
      <trkpt lat="44.16758" lon="2.95741">
        <ele>649.5</ele>
        <time>2025-08-31T12:07:02.000Z</time>
      </trkpt>
      <trkpt lat="44.1675" lon="2.95736">
        <ele>649</ele>
        <time>2025-08-31T12:07:04.000Z</time>
      </trkpt>
      <trkpt lat="44.1674" lon="2.95727">
        <ele>648.5</ele>
        <time>2025-08-31T12:07:06.000Z</time>
      </trkpt>
      <trkpt lat="44.1673" lon="2.9572">
        <ele>648</ele>
        <time>2025-08-31T12:07:08.000Z</time>
      </trkpt>
      <trkpt lat="44.1672" lon="2.95718">
        <ele>647.4</ele>
        <time>2025-08-31T12:07:10.000Z</time>
      </trkpt>
      <trkpt lat="44.1671" lon="2.95715">
        <ele>646.3</ele>
        <time>2025-08-31T12:07:14.000Z</time>
      </trkpt>
      <trkpt lat="44.16701" lon="2.95719">
        <ele>644</ele>
        <time>2025-08-31T12:07:29.000Z</time>
      </trkpt>
      <trkpt lat="44.16692" lon="2.95728">
        <ele>643.5</ele>
        <time>2025-08-31T12:07:33.000Z</time>
      </trkpt>
      <trkpt lat="44.16683" lon="2.95738">
        <ele>642.9</ele>
        <time>2025-08-31T12:07:37.000Z</time>
      </trkpt>
      <trkpt lat="44.16677" lon="2.95747">
        <ele>642.5</ele>
        <time>2025-08-31T12:07:40.000Z</time>
      </trkpt>
      <trkpt lat="44.1667" lon="2.95756">
        <ele>642.2</ele>
        <time>2025-08-31T12:07:43.000Z</time>
      </trkpt>
      <trkpt lat="44.16663" lon="2.95765">
        <ele>641.8</ele>
        <time>2025-08-31T12:07:46.000Z</time>
      </trkpt>
      <trkpt lat="44.16655" lon="2.95774">
        <ele>641</ele>
        <time>2025-08-31T12:07:52.000Z</time>
      </trkpt>
      <trkpt lat="44.16649" lon="2.95783">
        <ele>640.1</ele>
        <time>2025-08-31T12:07:59.000Z</time>
      </trkpt>
      <trkpt lat="44.16639" lon="2.95782">
        <ele>638.6</ele>
        <time>2025-08-31T12:08:16.000Z</time>
      </trkpt>
      <trkpt lat="44.1663" lon="2.95785">
        <ele>638.4</ele>
        <time>2025-08-31T12:08:22.000Z</time>
      </trkpt>
      <trkpt lat="44.16621" lon="2.95786">
        <ele>638.4</ele>
        <time>2025-08-31T12:08:27.000Z</time>
      </trkpt>
      <trkpt lat="44.1661" lon="2.95787">
        <ele>638.8</ele>
        <time>2025-08-31T12:08:33.000Z</time>
      </trkpt>
      <trkpt lat="44.16602" lon="2.95792">
        <ele>639.2</ele>
        <time>2025-08-31T12:08:38.000Z</time>
      </trkpt>
      <trkpt lat="44.16592" lon="2.95793">
        <ele>639.7</ele>
        <time>2025-08-31T12:08:43.000Z</time>
      </trkpt>
      <trkpt lat="44.16582" lon="2.95799">
        <ele>641.5</ele>
        <time>2025-08-31T12:09:05.000Z</time>
      </trkpt>
      <trkpt lat="44.16573" lon="2.95802">
        <ele>641.9</ele>
        <time>2025-08-31T12:09:09.000Z</time>
      </trkpt>
      <trkpt lat="44.16562" lon="2.95802">
        <ele>642.4</ele>
        <time>2025-08-31T12:09:14.000Z</time>
      </trkpt>
      <trkpt lat="44.16552" lon="2.95802">
        <ele>643</ele>
        <time>2025-08-31T12:09:19.000Z</time>
      </trkpt>
      <trkpt lat="44.16542" lon="2.95805">
        <ele>643.5</ele>
        <time>2025-08-31T12:09:24.000Z</time>
      </trkpt>
      <trkpt lat="44.16531" lon="2.95804">
        <ele>644.1</ele>
        <time>2025-08-31T12:09:29.000Z</time>
      </trkpt>
      <trkpt lat="44.16521" lon="2.95802">
        <ele>644.8</ele>
        <time>2025-08-31T12:09:34.000Z</time>
      </trkpt>
      <trkpt lat="44.16511" lon="2.95797">
        <ele>645.7</ele>
        <time>2025-08-31T12:09:39.000Z</time>
      </trkpt>
      <trkpt lat="44.16501" lon="2.95799">
        <ele>646.6</ele>
        <time>2025-08-31T12:09:44.000Z</time>
      </trkpt>
      <trkpt lat="44.16493" lon="2.95806">
        <ele>647.5</ele>
        <time>2025-08-31T12:09:51.000Z</time>
      </trkpt>
      <trkpt lat="44.16502" lon="2.95809">
        <ele>648.4</ele>
        <time>2025-08-31T12:10:01.000Z</time>
      </trkpt>
      <trkpt lat="44.16492" lon="2.95807">
        <ele>648.9</ele>
        <time>2025-08-31T12:10:09.000Z</time>
      </trkpt>
      <trkpt lat="44.16482" lon="2.95806">
        <ele>649.2</ele>
        <time>2025-08-31T12:10:14.000Z</time>
      </trkpt>
      <trkpt lat="44.16472" lon="2.95805">
        <ele>649.6</ele>
        <time>2025-08-31T12:10:18.000Z</time>
      </trkpt>
      <trkpt lat="44.16463" lon="2.95803">
        <ele>650</ele>
        <time>2025-08-31T12:10:22.000Z</time>
      </trkpt>
      <trkpt lat="44.16452" lon="2.95804">
        <ele>650.5</ele>
        <time>2025-08-31T12:10:27.000Z</time>
      </trkpt>
      <trkpt lat="44.16443" lon="2.95807">
        <ele>651</ele>
        <time>2025-08-31T12:10:31.000Z</time>
      </trkpt>
      <trkpt lat="44.16433" lon="2.95806">
        <ele>651.6</ele>
        <time>2025-08-31T12:10:36.000Z</time>
      </trkpt>
      <trkpt lat="44.1643" lon="2.9582">
        <ele>652.5</ele>
        <time>2025-08-31T12:10:45.000Z</time>
      </trkpt>
      <trkpt lat="44.16421" lon="2.95815">
        <ele>653.6</ele>
        <time>2025-08-31T12:11:09.000Z</time>
      </trkpt>
      <trkpt lat="44.16413" lon="2.95826">
        <ele>653.8</ele>
        <time>2025-08-31T12:11:15.000Z</time>
      </trkpt>
      <trkpt lat="44.16405" lon="2.95833">
        <ele>654</ele>
        <time>2025-08-31T12:11:20.000Z</time>
      </trkpt>
      <trkpt lat="44.1641" lon="2.95817">
        <ele>654.3</ele>
        <time>2025-08-31T12:11:28.000Z</time>
      </trkpt>
      <trkpt lat="44.16417" lon="2.95806">
        <ele>654.5</ele>
        <time>2025-08-31T12:11:31.000Z</time>
      </trkpt>
      <trkpt lat="44.16425" lon="2.95798">
        <ele>654.9</ele>
        <time>2025-08-31T12:11:41.000Z</time>
      </trkpt>
      <trkpt lat="44.16415" lon="2.95795">
        <ele>655.4</ele>
        <time>2025-08-31T12:11:55.000Z</time>
      </trkpt>
      <trkpt lat="44.16408" lon="2.95806">
        <ele>655.8</ele>
        <time>2025-08-31T12:12:12.000Z</time>
      </trkpt>
      <trkpt lat="44.16399" lon="2.95802">
        <ele>656.2</ele>
        <time>2025-08-31T12:12:18.000Z</time>
      </trkpt>
      <trkpt lat="44.16388" lon="2.95802">
        <ele>656.5</ele>
        <time>2025-08-31T12:12:22.000Z</time>
      </trkpt>
      <trkpt lat="44.16389" lon="2.95788">
        <ele>656.9</ele>
        <time>2025-08-31T12:12:27.000Z</time>
      </trkpt>
      <trkpt lat="44.1638" lon="2.95795">
        <ele>658.2</ele>
        <time>2025-08-31T12:13:14.000Z</time>
      </trkpt>
      <trkpt lat="44.16371" lon="2.95789">
        <ele>658.5</ele>
        <time>2025-08-31T12:13:26.000Z</time>
      </trkpt>
      <trkpt lat="44.1638" lon="2.95784">
        <ele>661.5</ele>
        <time>2025-08-31T12:15:19.000Z</time>
      </trkpt>
      <trkpt lat="44.1638" lon="2.95771">
        <ele>661.9</ele>
        <time>2025-08-31T12:15:25.000Z</time>
      </trkpt>
      <trkpt lat="44.16375" lon="2.95759">
        <ele>662.4</ele>
        <time>2025-08-31T12:15:30.000Z</time>
      </trkpt>
      <trkpt lat="44.16371" lon="2.95746">
        <ele>663.1</ele>
        <time>2025-08-31T12:15:36.000Z</time>
      </trkpt>
      <trkpt lat="44.16365" lon="2.95737">
        <ele>663.7</ele>
        <time>2025-08-31T12:15:42.000Z</time>
      </trkpt>
      <trkpt lat="44.16361" lon="2.95725">
        <ele>664.3</ele>
        <time>2025-08-31T12:15:48.000Z</time>
      </trkpt>
      <trkpt lat="44.16354" lon="2.95716">
        <ele>665.2</ele>
        <time>2025-08-31T12:15:55.000Z</time>
      </trkpt>
      <trkpt lat="44.1635" lon="2.95704">
        <ele>666.1</ele>
        <time>2025-08-31T12:16:00.000Z</time>
      </trkpt>
      <trkpt lat="44.16345" lon="2.95692">
        <ele>667.1</ele>
        <time>2025-08-31T12:16:05.000Z</time>
      </trkpt>
      <trkpt lat="44.16338" lon="2.95682">
        <ele>668</ele>
        <time>2025-08-31T12:16:09.000Z</time>
      </trkpt>
      <trkpt lat="44.16331" lon="2.95674">
        <ele>668.9</ele>
        <time>2025-08-31T12:16:13.000Z</time>
      </trkpt>
      <trkpt lat="44.16323" lon="2.95665">
        <ele>670.2</ele>
        <time>2025-08-31T12:16:18.000Z</time>
      </trkpt>
      <trkpt lat="44.16314" lon="2.9566">
        <ele>671.9</ele>
        <time>2025-08-31T12:16:24.000Z</time>
      </trkpt>
      <trkpt lat="44.16306" lon="2.95653">
        <ele>673.6</ele>
        <time>2025-08-31T12:16:30.000Z</time>
      </trkpt>
      <trkpt lat="44.163" lon="2.95643">
        <ele>675.7</ele>
        <time>2025-08-31T12:16:37.000Z</time>
      </trkpt>
      <trkpt lat="44.16293" lon="2.95634">
        <ele>677.5</ele>
        <time>2025-08-31T12:16:44.000Z</time>
      </trkpt>
      <trkpt lat="44.16287" lon="2.95622">
        <ele>679.5</ele>
        <time>2025-08-31T12:16:51.000Z</time>
      </trkpt>
      <trkpt lat="44.16283" lon="2.95608">
        <ele>681.3</ele>
        <time>2025-08-31T12:16:58.000Z</time>
      </trkpt>
      <trkpt lat="44.16281" lon="2.95596">
        <ele>683.2</ele>
        <time>2025-08-31T12:17:06.000Z</time>
      </trkpt>
      <trkpt lat="44.16279" lon="2.95582">
        <ele>685.1</ele>
        <time>2025-08-31T12:17:15.000Z</time>
      </trkpt>
      <trkpt lat="44.16277" lon="2.9557">
        <ele>686.3</ele>
        <time>2025-08-31T12:17:22.000Z</time>
      </trkpt>
      <trkpt lat="44.16267" lon="2.95567">
        <ele>693.5</ele>
        <time>2025-08-31T12:20:42.000Z</time>
      </trkpt>
      <trkpt lat="44.16259" lon="2.95559">
        <ele>693.3</ele>
        <time>2025-08-31T12:20:44.000Z</time>
      </trkpt>
      <trkpt lat="44.1625" lon="2.9555">
        <ele>693</ele>
        <time>2025-08-31T12:20:46.000Z</time>
      </trkpt>
      <trkpt lat="44.1624" lon="2.95539">
        <ele>692.5</ele>
        <time>2025-08-31T12:20:48.000Z</time>
      </trkpt>
      <trkpt lat="44.1623" lon="2.95527">
        <ele>691.7</ele>
        <time>2025-08-31T12:20:50.000Z</time>
      </trkpt>
      <trkpt lat="44.16225" lon="2.95514">
        <ele>690.9</ele>
        <time>2025-08-31T12:20:52.000Z</time>
      </trkpt>
      <trkpt lat="44.1622" lon="2.95498">
        <ele>689.6</ele>
        <time>2025-08-31T12:20:55.000Z</time>
      </trkpt>
      <trkpt lat="44.16215" lon="2.9551">
        <ele>687</ele>
        <time>2025-08-31T12:21:02.000Z</time>
      </trkpt>
      <trkpt lat="44.16218" lon="2.95524">
        <ele>685.9</ele>
        <time>2025-08-31T12:21:06.000Z</time>
      </trkpt>
      <trkpt lat="44.16222" lon="2.9554">
        <ele>685.1</ele>
        <time>2025-08-31T12:21:09.000Z</time>
      </trkpt>
      <trkpt lat="44.16226" lon="2.95554">
        <ele>684.6</ele>
        <time>2025-08-31T12:21:11.000Z</time>
      </trkpt>
      <trkpt lat="44.1623" lon="2.9557">
        <ele>684.1</ele>
        <time>2025-08-31T12:21:13.000Z</time>
      </trkpt>
      <trkpt lat="44.16234" lon="2.95587">
        <ele>683.6</ele>
        <time>2025-08-31T12:21:15.000Z</time>
      </trkpt>
      <trkpt lat="44.16239" lon="2.95605">
        <ele>683</ele>
        <time>2025-08-31T12:21:17.000Z</time>
      </trkpt>
      <trkpt lat="44.16244" lon="2.95623">
        <ele>682.4</ele>
        <time>2025-08-31T12:21:19.000Z</time>
      </trkpt>
      <trkpt lat="44.1625" lon="2.95643">
        <ele>681.8</ele>
        <time>2025-08-31T12:21:21.000Z</time>
      </trkpt>
      <trkpt lat="44.16256" lon="2.95661">
        <ele>681.2</ele>
        <time>2025-08-31T12:21:23.000Z</time>
      </trkpt>
      <trkpt lat="44.1626" lon="2.95678">
        <ele>680.6</ele>
        <time>2025-08-31T12:21:25.000Z</time>
      </trkpt>
      <trkpt lat="44.16266" lon="2.95694">
        <ele>680</ele>
        <time>2025-08-31T12:21:27.000Z</time>
      </trkpt>
      <trkpt lat="44.16267" lon="2.95707">
        <ele>679.4</ele>
        <time>2025-08-31T12:21:29.000Z</time>
      </trkpt>
      <trkpt lat="44.16256" lon="2.95708">
        <ele>678.3</ele>
        <time>2025-08-31T12:21:33.000Z</time>
      </trkpt>
      <trkpt lat="44.16252" lon="2.95694">
        <ele>677.6</ele>
        <time>2025-08-31T12:21:36.000Z</time>
      </trkpt>
      <trkpt lat="44.16249" lon="2.95679">
        <ele>677</ele>
        <time>2025-08-31T12:21:39.000Z</time>
      </trkpt>
      <trkpt lat="44.16245" lon="2.95667">
        <ele>676.3</ele>
        <time>2025-08-31T12:21:42.000Z</time>
      </trkpt>
      <trkpt lat="44.16238" lon="2.95652">
        <ele>675.7</ele>
        <time>2025-08-31T12:21:45.000Z</time>
      </trkpt>
      <trkpt lat="44.16231" lon="2.95638">
        <ele>675</ele>
        <time>2025-08-31T12:21:48.000Z</time>
      </trkpt>
      <trkpt lat="44.16225" lon="2.95626">
        <ele>674.3</ele>
        <time>2025-08-31T12:21:51.000Z</time>
      </trkpt>
      <trkpt lat="44.16219" lon="2.95612">
        <ele>673.6</ele>
        <time>2025-08-31T12:21:54.000Z</time>
      </trkpt>
      <trkpt lat="44.16213" lon="2.95602">
        <ele>673.2</ele>
        <time>2025-08-31T12:21:56.000Z</time>
      </trkpt>
      <trkpt lat="44.16207" lon="2.9559">
        <ele>672.6</ele>
        <time>2025-08-31T12:21:58.000Z</time>
      </trkpt>
      <trkpt lat="44.16201" lon="2.95576">
        <ele>672</ele>
        <time>2025-08-31T12:22:00.000Z</time>
      </trkpt>
      <trkpt lat="44.16195" lon="2.95562">
        <ele>671.4</ele>
        <time>2025-08-31T12:22:02.000Z</time>
      </trkpt>
      <trkpt lat="44.16189" lon="2.95547">
        <ele>670.9</ele>
        <time>2025-08-31T12:22:04.000Z</time>
      </trkpt>
      <trkpt lat="44.16185" lon="2.95533">
        <ele>670.4</ele>
        <time>2025-08-31T12:22:06.000Z</time>
      </trkpt>
      <trkpt lat="44.1618" lon="2.95519">
        <ele>669.8</ele>
        <time>2025-08-31T12:22:08.000Z</time>
      </trkpt>
      <trkpt lat="44.16173" lon="2.95505">
        <ele>669.2</ele>
        <time>2025-08-31T12:22:10.000Z</time>
      </trkpt>
      <trkpt lat="44.16162" lon="2.95495">
        <ele>668.6</ele>
        <time>2025-08-31T12:22:12.000Z</time>
      </trkpt>
      <trkpt lat="44.16149" lon="2.95493">
        <ele>667.9</ele>
        <time>2025-08-31T12:22:14.000Z</time>
      </trkpt>
      <trkpt lat="44.16135" lon="2.95494">
        <ele>667.2</ele>
        <time>2025-08-31T12:22:16.000Z</time>
      </trkpt>
      <trkpt lat="44.16121" lon="2.95491">
        <ele>666.6</ele>
        <time>2025-08-31T12:22:18.000Z</time>
      </trkpt>
      <trkpt lat="44.16107" lon="2.95485">
        <ele>665.9</ele>
        <time>2025-08-31T12:22:20.000Z</time>
      </trkpt>
      <trkpt lat="44.16093" lon="2.95479">
        <ele>665.1</ele>
        <time>2025-08-31T12:22:22.000Z</time>
      </trkpt>
      <trkpt lat="44.16078" lon="2.95476">
        <ele>664.4</ele>
        <time>2025-08-31T12:22:24.000Z</time>
      </trkpt>
      <trkpt lat="44.16061" lon="2.95475">
        <ele>663.6</ele>
        <time>2025-08-31T12:22:26.000Z</time>
      </trkpt>
      <trkpt lat="44.16045" lon="2.95476">
        <ele>662.8</ele>
        <time>2025-08-31T12:22:28.000Z</time>
      </trkpt>
      <trkpt lat="44.16029" lon="2.95478">
        <ele>662</ele>
        <time>2025-08-31T12:22:30.000Z</time>
      </trkpt>
      <trkpt lat="44.1602" lon="2.95479">
        <ele>661.1</ele>
        <time>2025-08-31T12:22:32.000Z</time>
      </trkpt>
      <trkpt lat="44.16009" lon="2.95481">
        <ele>658.8</ele>
        <time>2025-08-31T12:22:38.000Z</time>
      </trkpt>
      <trkpt lat="44.15998" lon="2.95483">
        <ele>657.9</ele>
        <time>2025-08-31T12:22:41.000Z</time>
      </trkpt>
      <trkpt lat="44.15988" lon="2.95485">
        <ele>657.4</ele>
        <time>2025-08-31T12:22:43.000Z</time>
      </trkpt>
      <trkpt lat="44.15977" lon="2.9549">
        <ele>656.9</ele>
        <time>2025-08-31T12:22:45.000Z</time>
      </trkpt>
      <trkpt lat="44.15967" lon="2.95494">
        <ele>656.4</ele>
        <time>2025-08-31T12:22:47.000Z</time>
      </trkpt>
      <trkpt lat="44.15956" lon="2.95497">
        <ele>655.6</ele>
        <time>2025-08-31T12:22:50.000Z</time>
      </trkpt>
      <trkpt lat="44.15947" lon="2.955">
        <ele>653.3</ele>
        <time>2025-08-31T12:23:01.000Z</time>
      </trkpt>
      <trkpt lat="44.15936" lon="2.955">
        <ele>652.6</ele>
        <time>2025-08-31T12:23:05.000Z</time>
      </trkpt>
      <trkpt lat="44.15923" lon="2.95501">
        <ele>652.1</ele>
        <time>2025-08-31T12:23:08.000Z</time>
      </trkpt>
      <trkpt lat="44.15912" lon="2.95501">
        <ele>651.7</ele>
        <time>2025-08-31T12:23:10.000Z</time>
      </trkpt>
      <trkpt lat="44.15899" lon="2.95494">
        <ele>651.2</ele>
        <time>2025-08-31T12:23:12.000Z</time>
      </trkpt>
      <trkpt lat="44.15887" lon="2.9548">
        <ele>650.6</ele>
        <time>2025-08-31T12:23:14.000Z</time>
      </trkpt>
      <trkpt lat="44.15879" lon="2.95461">
        <ele>650</ele>
        <time>2025-08-31T12:23:16.000Z</time>
      </trkpt>
      <trkpt lat="44.15878" lon="2.95448">
        <ele>649.7</ele>
        <time>2025-08-31T12:23:17.000Z</time>
      </trkpt>
      <trkpt lat="44.15878" lon="2.95424">
        <ele>649</ele>
        <time>2025-08-31T12:23:19.000Z</time>
      </trkpt>
      <trkpt lat="44.15874" lon="2.95405">
        <ele>648.3</ele>
        <time>2025-08-31T12:23:21.000Z</time>
      </trkpt>
      <trkpt lat="44.1586" lon="2.95398">
        <ele>647.6</ele>
        <time>2025-08-31T12:23:23.000Z</time>
      </trkpt>
      <trkpt lat="44.15847" lon="2.95405">
        <ele>647.1</ele>
        <time>2025-08-31T12:23:25.000Z</time>
      </trkpt>
      <trkpt lat="44.1584" lon="2.95416">
        <ele>646.6</ele>
        <time>2025-08-31T12:23:27.000Z</time>
      </trkpt>
      <trkpt lat="44.15833" lon="2.95427">
        <ele>646.2</ele>
        <time>2025-08-31T12:23:29.000Z</time>
      </trkpt>
      <trkpt lat="44.15828" lon="2.95438">
        <ele>645.8</ele>
        <time>2025-08-31T12:23:31.000Z</time>
      </trkpt>
      <trkpt lat="44.15821" lon="2.95449">
        <ele>645.5</ele>
        <time>2025-08-31T12:23:33.000Z</time>
      </trkpt>
      <trkpt lat="44.15813" lon="2.9546">
        <ele>645.2</ele>
        <time>2025-08-31T12:23:35.000Z</time>
      </trkpt>
      <trkpt lat="44.15805" lon="2.95471">
        <ele>645</ele>
        <time>2025-08-31T12:23:37.000Z</time>
      </trkpt>
      <trkpt lat="44.15796" lon="2.95482">
        <ele>644.8</ele>
        <time>2025-08-31T12:23:39.000Z</time>
      </trkpt>
      <trkpt lat="44.15788" lon="2.95493">
        <ele>644.6</ele>
        <time>2025-08-31T12:23:41.000Z</time>
      </trkpt>
      <trkpt lat="44.15782" lon="2.95502">
        <ele>644.5</ele>
        <time>2025-08-31T12:23:43.000Z</time>
      </trkpt>
      <trkpt lat="44.15773" lon="2.9551">
        <ele>644.4</ele>
        <time>2025-08-31T12:23:45.000Z</time>
      </trkpt>
      <trkpt lat="44.15764" lon="2.95517">
        <ele>644.3</ele>
        <time>2025-08-31T12:23:47.000Z</time>
      </trkpt>
      <trkpt lat="44.15755" lon="2.9552">
        <ele>644.3</ele>
        <time>2025-08-31T12:23:49.000Z</time>
      </trkpt>
      <trkpt lat="44.15742" lon="2.95519">
        <ele>644.3</ele>
        <time>2025-08-31T12:23:52.000Z</time>
      </trkpt>
      <trkpt lat="44.1573" lon="2.95515">
        <ele>644.4</ele>
        <time>2025-08-31T12:23:55.000Z</time>
      </trkpt>
      <trkpt lat="44.15718" lon="2.95509">
        <ele>644.5</ele>
        <time>2025-08-31T12:23:58.000Z</time>
      </trkpt>
      <trkpt lat="44.15705" lon="2.95504">
        <ele>644.7</ele>
        <time>2025-08-31T12:24:01.000Z</time>
      </trkpt>
      <trkpt lat="44.15696" lon="2.955">
        <ele>644.7</ele>
        <time>2025-08-31T12:24:03.000Z</time>
      </trkpt>
      <trkpt lat="44.15687" lon="2.95498">
        <ele>644.9</ele>
        <time>2025-08-31T12:24:05.000Z</time>
      </trkpt>
      <trkpt lat="44.15679" lon="2.95493">
        <ele>645</ele>
        <time>2025-08-31T12:24:07.000Z</time>
      </trkpt>
      <trkpt lat="44.1567" lon="2.95488">
        <ele>645.3</ele>
        <time>2025-08-31T12:24:09.000Z</time>
      </trkpt>
      <trkpt lat="44.15661" lon="2.95483">
        <ele>645.5</ele>
        <time>2025-08-31T12:24:11.000Z</time>
      </trkpt>
      <trkpt lat="44.15653" lon="2.95478">
        <ele>645.8</ele>
        <time>2025-08-31T12:24:13.000Z</time>
      </trkpt>
      <trkpt lat="44.15644" lon="2.95471">
        <ele>645.9</ele>
        <time>2025-08-31T12:24:15.000Z</time>
      </trkpt>
      <trkpt lat="44.15636" lon="2.95464">
        <ele>646.1</ele>
        <time>2025-08-31T12:24:17.000Z</time>
      </trkpt>
      <trkpt lat="44.15628" lon="2.95457">
        <ele>646.3</ele>
        <time>2025-08-31T12:24:19.000Z</time>
      </trkpt>
      <trkpt lat="44.1562" lon="2.9545">
        <ele>646.5</ele>
        <time>2025-08-31T12:24:21.000Z</time>
      </trkpt>
      <trkpt lat="44.1561" lon="2.95438">
        <ele>646.8</ele>
        <time>2025-08-31T12:24:24.000Z</time>
      </trkpt>
      <trkpt lat="44.15603" lon="2.95431">
        <ele>647.1</ele>
        <time>2025-08-31T12:24:26.000Z</time>
      </trkpt>
      <trkpt lat="44.15595" lon="2.95423">
        <ele>647.4</ele>
        <time>2025-08-31T12:24:28.000Z</time>
      </trkpt>
      <trkpt lat="44.15587" lon="2.95417">
        <ele>647.7</ele>
        <time>2025-08-31T12:24:30.000Z</time>
      </trkpt>
      <trkpt lat="44.15579" lon="2.95411">
        <ele>647.9</ele>
        <time>2025-08-31T12:24:32.000Z</time>
      </trkpt>
      <trkpt lat="44.15571" lon="2.95405">
        <ele>648.1</ele>
        <time>2025-08-31T12:24:34.000Z</time>
      </trkpt>
      <trkpt lat="44.15558" lon="2.95399">
        <ele>648.5</ele>
        <time>2025-08-31T12:24:37.000Z</time>
      </trkpt>
      <trkpt lat="44.15546" lon="2.95396">
        <ele>648.8</ele>
        <time>2025-08-31T12:24:40.000Z</time>
      </trkpt>
      <trkpt lat="44.15533" lon="2.95398">
        <ele>649.3</ele>
        <time>2025-08-31T12:24:43.000Z</time>
      </trkpt>
      <trkpt lat="44.15524" lon="2.95406">
        <ele>649.7</ele>
        <time>2025-08-31T12:24:46.000Z</time>
      </trkpt>
      <trkpt lat="44.15533" lon="2.95401">
        <ele>650.3</ele>
        <time>2025-08-31T12:24:52.000Z</time>
      </trkpt>
      <trkpt lat="44.15544" lon="2.954">
        <ele>650.7</ele>
        <time>2025-08-31T12:24:56.000Z</time>
      </trkpt>
      <trkpt lat="44.15553" lon="2.95402">
        <ele>650.9</ele>
        <time>2025-08-31T12:24:59.000Z</time>
      </trkpt>
      <trkpt lat="44.15544" lon="2.95402">
        <ele>651.8</ele>
        <time>2025-08-31T12:25:17.000Z</time>
      </trkpt>
      <trkpt lat="44.15535" lon="2.95403">
        <ele>651.8</ele>
        <time>2025-08-31T12:25:20.000Z</time>
      </trkpt>
      <trkpt lat="44.15525" lon="2.95409">
        <ele>651.9</ele>
        <time>2025-08-31T12:25:23.000Z</time>
      </trkpt>
      <trkpt lat="44.15517" lon="2.95417">
        <ele>652</ele>
        <time>2025-08-31T12:25:26.000Z</time>
      </trkpt>
      <trkpt lat="44.1551" lon="2.95426">
        <ele>652.1</ele>
        <time>2025-08-31T12:25:29.000Z</time>
      </trkpt>
      <trkpt lat="44.15503" lon="2.95436">
        <ele>652.1</ele>
        <time>2025-08-31T12:25:32.000Z</time>
      </trkpt>
      <trkpt lat="44.15494" lon="2.95445">
        <ele>652.2</ele>
        <time>2025-08-31T12:25:35.000Z</time>
      </trkpt>
      <trkpt lat="44.15482" lon="2.95451">
        <ele>652.3</ele>
        <time>2025-08-31T12:25:38.000Z</time>
      </trkpt>
      <trkpt lat="44.15472" lon="2.95453">
        <ele>652.3</ele>
        <time>2025-08-31T12:25:40.000Z</time>
      </trkpt>
      <trkpt lat="44.15462" lon="2.95451">
        <ele>652.4</ele>
        <time>2025-08-31T12:25:42.000Z</time>
      </trkpt>
      <trkpt lat="44.15452" lon="2.95446">
        <ele>652.4</ele>
        <time>2025-08-31T12:25:44.000Z</time>
      </trkpt>
      <trkpt lat="44.15442" lon="2.95439">
        <ele>652.5</ele>
        <time>2025-08-31T12:25:46.000Z</time>
      </trkpt>
      <trkpt lat="44.15432" lon="2.95431">
        <ele>652.5</ele>
        <time>2025-08-31T12:25:48.000Z</time>
      </trkpt>
      <trkpt lat="44.15423" lon="2.95423">
        <ele>652.5</ele>
        <time>2025-08-31T12:25:50.000Z</time>
      </trkpt>
      <trkpt lat="44.15415" lon="2.95414">
        <ele>652.4</ele>
        <time>2025-08-31T12:25:52.000Z</time>
      </trkpt>
      <trkpt lat="44.15407" lon="2.95404">
        <ele>652.4</ele>
        <time>2025-08-31T12:25:54.000Z</time>
      </trkpt>
      <trkpt lat="44.15401" lon="2.95392">
        <ele>652.3</ele>
        <time>2025-08-31T12:25:56.000Z</time>
      </trkpt>
      <trkpt lat="44.15395" lon="2.95379">
        <ele>652.1</ele>
        <time>2025-08-31T12:25:58.000Z</time>
      </trkpt>
      <trkpt lat="44.1539" lon="2.95364">
        <ele>651.9</ele>
        <time>2025-08-31T12:26:00.000Z</time>
      </trkpt>
      <trkpt lat="44.15384" lon="2.95351">
        <ele>651.7</ele>
        <time>2025-08-31T12:26:02.000Z</time>
      </trkpt>
      <trkpt lat="44.15377" lon="2.95339">
        <ele>651.5</ele>
        <time>2025-08-31T12:26:04.000Z</time>
      </trkpt>
      <trkpt lat="44.15366" lon="2.95331">
        <ele>651.4</ele>
        <time>2025-08-31T12:26:06.000Z</time>
      </trkpt>
      <trkpt lat="44.15353" lon="2.95326">
        <ele>651.2</ele>
        <time>2025-08-31T12:26:08.000Z</time>
      </trkpt>
      <trkpt lat="44.1534" lon="2.95323">
        <ele>650.9</ele>
        <time>2025-08-31T12:26:10.000Z</time>
      </trkpt>
      <trkpt lat="44.15326" lon="2.95318">
        <ele>650.7</ele>
        <time>2025-08-31T12:26:12.000Z</time>
      </trkpt>
      <trkpt lat="44.15312" lon="2.95314">
        <ele>650.5</ele>
        <time>2025-08-31T12:26:14.000Z</time>
      </trkpt>
      <trkpt lat="44.15298" lon="2.95311">
        <ele>650.3</ele>
        <time>2025-08-31T12:26:16.000Z</time>
      </trkpt>
      <trkpt lat="44.15284" lon="2.95309">
        <ele>650.1</ele>
        <time>2025-08-31T12:26:18.000Z</time>
      </trkpt>
      <trkpt lat="44.15271" lon="2.95312">
        <ele>650</ele>
        <time>2025-08-31T12:26:20.000Z</time>
      </trkpt>
      <trkpt lat="44.15258" lon="2.9532">
        <ele>649.7</ele>
        <time>2025-08-31T12:26:22.000Z</time>
      </trkpt>
      <trkpt lat="44.15245" lon="2.95329">
        <ele>649.5</ele>
        <time>2025-08-31T12:26:24.000Z</time>
      </trkpt>
      <trkpt lat="44.15233" lon="2.95336">
        <ele>649.2</ele>
        <time>2025-08-31T12:26:26.000Z</time>
      </trkpt>
      <trkpt lat="44.15221" lon="2.95343">
        <ele>649</ele>
        <time>2025-08-31T12:26:28.000Z</time>
      </trkpt>
      <trkpt lat="44.1521" lon="2.95347">
        <ele>648.8</ele>
        <time>2025-08-31T12:26:30.000Z</time>
      </trkpt>
      <trkpt lat="44.15199" lon="2.95347">
        <ele>648.5</ele>
        <time>2025-08-31T12:26:32.000Z</time>
      </trkpt>
      <trkpt lat="44.15187" lon="2.95344">
        <ele>648.2</ele>
        <time>2025-08-31T12:26:34.000Z</time>
      </trkpt>
      <trkpt lat="44.15176" lon="2.95339">
        <ele>647.8</ele>
        <time>2025-08-31T12:26:36.000Z</time>
      </trkpt>
      <trkpt lat="44.15165" lon="2.95332">
        <ele>647.3</ele>
        <time>2025-08-31T12:26:38.000Z</time>
      </trkpt>
      <trkpt lat="44.15154" lon="2.95324">
        <ele>646.8</ele>
        <time>2025-08-31T12:26:40.000Z</time>
      </trkpt>
      <trkpt lat="44.15145" lon="2.95314">
        <ele>646.3</ele>
        <time>2025-08-31T12:26:42.000Z</time>
      </trkpt>
      <trkpt lat="44.15137" lon="2.95302">
        <ele>645.8</ele>
        <time>2025-08-31T12:26:44.000Z</time>
      </trkpt>
      <trkpt lat="44.15132" lon="2.95286">
        <ele>645.4</ele>
        <time>2025-08-31T12:26:46.000Z</time>
      </trkpt>
      <trkpt lat="44.1513" lon="2.95267">
        <ele>644.9</ele>
        <time>2025-08-31T12:26:48.000Z</time>
      </trkpt>
      <trkpt lat="44.15129" lon="2.95246">
        <ele>644.5</ele>
        <time>2025-08-31T12:26:50.000Z</time>
      </trkpt>
      <trkpt lat="44.15123" lon="2.95229">
        <ele>644.1</ele>
        <time>2025-08-31T12:26:52.000Z</time>
      </trkpt>
      <trkpt lat="44.1511" lon="2.95221">
        <ele>643.8</ele>
        <time>2025-08-31T12:26:54.000Z</time>
      </trkpt>
      <trkpt lat="44.15096" lon="2.95223">
        <ele>643.6</ele>
        <time>2025-08-31T12:26:56.000Z</time>
      </trkpt>
      <trkpt lat="44.15082" lon="2.9523">
        <ele>643.3</ele>
        <time>2025-08-31T12:26:58.000Z</time>
      </trkpt>
      <trkpt lat="44.15068" lon="2.95237">
        <ele>643.1</ele>
        <time>2025-08-31T12:27:00.000Z</time>
      </trkpt>
      <trkpt lat="44.15054" lon="2.95243">
        <ele>642.8</ele>
        <time>2025-08-31T12:27:02.000Z</time>
      </trkpt>
      <trkpt lat="44.15041" lon="2.95248">
        <ele>642.6</ele>
        <time>2025-08-31T12:27:04.000Z</time>
      </trkpt>
      <trkpt lat="44.15028" lon="2.95253">
        <ele>642.4</ele>
        <time>2025-08-31T12:27:06.000Z</time>
      </trkpt>
      <trkpt lat="44.15016" lon="2.95257">
        <ele>642.2</ele>
        <time>2025-08-31T12:27:08.000Z</time>
      </trkpt>
      <trkpt lat="44.15003" lon="2.95261">
        <ele>642</ele>
        <time>2025-08-31T12:27:10.000Z</time>
      </trkpt>
      <trkpt lat="44.1499" lon="2.95266">
        <ele>641.9</ele>
        <time>2025-08-31T12:27:12.000Z</time>
      </trkpt>
      <trkpt lat="44.14978" lon="2.95272">
        <ele>641.7</ele>
        <time>2025-08-31T12:27:14.000Z</time>
      </trkpt>
      <trkpt lat="44.1497" lon="2.95284">
        <ele>641.5</ele>
        <time>2025-08-31T12:27:16.000Z</time>
      </trkpt>
      <trkpt lat="44.14963" lon="2.95302">
        <ele>641.4</ele>
        <time>2025-08-31T12:27:18.000Z</time>
      </trkpt>
      <trkpt lat="44.14961" lon="2.95321">
        <ele>641.3</ele>
        <time>2025-08-31T12:27:20.000Z</time>
      </trkpt>
      <trkpt lat="44.14961" lon="2.95338">
        <ele>641.2</ele>
        <time>2025-08-31T12:27:22.000Z</time>
      </trkpt>
      <trkpt lat="44.14958" lon="2.95355">
        <ele>641.1</ele>
        <time>2025-08-31T12:27:24.000Z</time>
      </trkpt>
      <trkpt lat="44.14951" lon="2.9537">
        <ele>641</ele>
        <time>2025-08-31T12:27:26.000Z</time>
      </trkpt>
      <trkpt lat="44.1494" lon="2.95382">
        <ele>640.9</ele>
        <time>2025-08-31T12:27:28.000Z</time>
      </trkpt>
      <trkpt lat="44.14927" lon="2.95389">
        <ele>640.8</ele>
        <time>2025-08-31T12:27:30.000Z</time>
      </trkpt>
      <trkpt lat="44.14913" lon="2.95391">
        <ele>640.6</ele>
        <time>2025-08-31T12:27:32.000Z</time>
      </trkpt>
      <trkpt lat="44.14898" lon="2.95392">
        <ele>640.4</ele>
        <time>2025-08-31T12:27:34.000Z</time>
      </trkpt>
      <trkpt lat="44.14882" lon="2.95392">
        <ele>640</ele>
        <time>2025-08-31T12:27:36.000Z</time>
      </trkpt>
      <trkpt lat="44.14866" lon="2.95392">
        <ele>639.6</ele>
        <time>2025-08-31T12:27:38.000Z</time>
      </trkpt>
      <trkpt lat="44.1485" lon="2.95392">
        <ele>639.1</ele>
        <time>2025-08-31T12:27:40.000Z</time>
      </trkpt>
      <trkpt lat="44.14833" lon="2.95392">
        <ele>638.6</ele>
        <time>2025-08-31T12:27:42.000Z</time>
      </trkpt>
      <trkpt lat="44.14817" lon="2.95393">
        <ele>638</ele>
        <time>2025-08-31T12:27:44.000Z</time>
      </trkpt>
      <trkpt lat="44.14801" lon="2.95393">
        <ele>637.5</ele>
        <time>2025-08-31T12:27:46.000Z</time>
      </trkpt>
      <trkpt lat="44.14785" lon="2.95394">
        <ele>636.9</ele>
        <time>2025-08-31T12:27:48.000Z</time>
      </trkpt>
      <trkpt lat="44.14769" lon="2.95395">
        <ele>636.3</ele>
        <time>2025-08-31T12:27:50.000Z</time>
      </trkpt>
      <trkpt lat="44.14752" lon="2.95395">
        <ele>635.7</ele>
        <time>2025-08-31T12:27:52.000Z</time>
      </trkpt>
      <trkpt lat="44.14736" lon="2.95396">
        <ele>635.1</ele>
        <time>2025-08-31T12:27:54.000Z</time>
      </trkpt>
      <trkpt lat="44.1472" lon="2.954">
        <ele>634.5</ele>
        <time>2025-08-31T12:27:56.000Z</time>
      </trkpt>
      <trkpt lat="44.14711" lon="2.95403">
        <ele>634.1</ele>
        <time>2025-08-31T12:27:57.000Z</time>
      </trkpt>
      <trkpt lat="44.14693" lon="2.95406">
        <ele>633.5</ele>
        <time>2025-08-31T12:27:59.000Z</time>
      </trkpt>
      <trkpt lat="44.14676" lon="2.9541">
        <ele>632.8</ele>
        <time>2025-08-31T12:28:01.000Z</time>
      </trkpt>
      <trkpt lat="44.14659" lon="2.95415">
        <ele>632</ele>
        <time>2025-08-31T12:28:03.000Z</time>
      </trkpt>
      <trkpt lat="44.14642" lon="2.9542">
        <ele>631.1</ele>
        <time>2025-08-31T12:28:05.000Z</time>
      </trkpt>
      <trkpt lat="44.14633" lon="2.95424">
        <ele>630.7</ele>
        <time>2025-08-31T12:28:06.000Z</time>
      </trkpt>
      <trkpt lat="44.14624" lon="2.95428">
        <ele>630.3</ele>
        <time>2025-08-31T12:28:07.000Z</time>
      </trkpt>
      <trkpt lat="44.14615" lon="2.95432">
        <ele>629.9</ele>
        <time>2025-08-31T12:28:08.000Z</time>
      </trkpt>
      <trkpt lat="44.14607" lon="2.95436">
        <ele>629.5</ele>
        <time>2025-08-31T12:28:09.000Z</time>
      </trkpt>
      <trkpt lat="44.1459" lon="2.95443">
        <ele>628.7</ele>
        <time>2025-08-31T12:28:11.000Z</time>
      </trkpt>
      <trkpt lat="44.14573" lon="2.95451">
        <ele>627.9</ele>
        <time>2025-08-31T12:28:13.000Z</time>
      </trkpt>
      <trkpt lat="44.14564" lon="2.95455">
        <ele>627.4</ele>
        <time>2025-08-31T12:28:14.000Z</time>
      </trkpt>
      <trkpt lat="44.14548" lon="2.95463">
        <ele>626.6</ele>
        <time>2025-08-31T12:28:16.000Z</time>
      </trkpt>
      <trkpt lat="44.14539" lon="2.95468">
        <ele>626.2</ele>
        <time>2025-08-31T12:28:17.000Z</time>
      </trkpt>
      <trkpt lat="44.14531" lon="2.95473">
        <ele>625.9</ele>
        <time>2025-08-31T12:28:18.000Z</time>
      </trkpt>
      <trkpt lat="44.14516" lon="2.95486">
        <ele>625.1</ele>
        <time>2025-08-31T12:28:20.000Z</time>
      </trkpt>
      <trkpt lat="44.14501" lon="2.955">
        <ele>624.3</ele>
        <time>2025-08-31T12:28:22.000Z</time>
      </trkpt>
      <trkpt lat="44.14486" lon="2.95512">
        <ele>623.5</ele>
        <time>2025-08-31T12:28:24.000Z</time>
      </trkpt>
      <trkpt lat="44.1447" lon="2.95522">
        <ele>622.7</ele>
        <time>2025-08-31T12:28:26.000Z</time>
      </trkpt>
      <trkpt lat="44.14455" lon="2.95532">
        <ele>621.9</ele>
        <time>2025-08-31T12:28:28.000Z</time>
      </trkpt>
      <trkpt lat="44.14441" lon="2.95542">
        <ele>621.1</ele>
        <time>2025-08-31T12:28:30.000Z</time>
      </trkpt>
      <trkpt lat="44.14426" lon="2.95553">
        <ele>620.3</ele>
        <time>2025-08-31T12:28:32.000Z</time>
      </trkpt>
      <trkpt lat="44.14418" lon="2.95562">
        <ele>619.9</ele>
        <time>2025-08-31T12:28:33.000Z</time>
      </trkpt>
      <trkpt lat="44.1441" lon="2.9557">
        <ele>619.5</ele>
        <time>2025-08-31T12:28:34.000Z</time>
      </trkpt>
      <trkpt lat="44.14404" lon="2.95579">
        <ele>619.2</ele>
        <time>2025-08-31T12:28:35.000Z</time>
      </trkpt>
      <trkpt lat="44.14397" lon="2.95589">
        <ele>618.9</ele>
        <time>2025-08-31T12:28:36.000Z</time>
      </trkpt>
      <trkpt lat="44.14391" lon="2.95598">
        <ele>618.5</ele>
        <time>2025-08-31T12:28:37.000Z</time>
      </trkpt>
      <trkpt lat="44.14385" lon="2.95608">
        <ele>618.1</ele>
        <time>2025-08-31T12:28:38.000Z</time>
      </trkpt>
      <trkpt lat="44.14374" lon="2.95626">
        <ele>617.3</ele>
        <time>2025-08-31T12:28:40.000Z</time>
      </trkpt>
      <trkpt lat="44.14368" lon="2.95636">
        <ele>617</ele>
        <time>2025-08-31T12:28:41.000Z</time>
      </trkpt>
      <trkpt lat="44.14357" lon="2.95654">
        <ele>616.3</ele>
        <time>2025-08-31T12:28:43.000Z</time>
      </trkpt>
      <trkpt lat="44.14347" lon="2.95673">
        <ele>615.7</ele>
        <time>2025-08-31T12:28:45.000Z</time>
      </trkpt>
      <trkpt lat="44.14337" lon="2.95692">
        <ele>615.1</ele>
        <time>2025-08-31T12:28:47.000Z</time>
      </trkpt>
      <trkpt lat="44.1433" lon="2.95712">
        <ele>614.6</ele>
        <time>2025-08-31T12:28:49.000Z</time>
      </trkpt>
      <trkpt lat="44.14324" lon="2.95732">
        <ele>614.2</ele>
        <time>2025-08-31T12:28:51.000Z</time>
      </trkpt>
      <trkpt lat="44.1432" lon="2.9575">
        <ele>613.8</ele>
        <time>2025-08-31T12:28:53.000Z</time>
      </trkpt>
      <trkpt lat="44.14317" lon="2.95769">
        <ele>613.5</ele>
        <time>2025-08-31T12:28:55.000Z</time>
      </trkpt>
      <trkpt lat="44.14315" lon="2.95787">
        <ele>613.2</ele>
        <time>2025-08-31T12:28:57.000Z</time>
      </trkpt>
      <trkpt lat="44.14314" lon="2.95804">
        <ele>613</ele>
        <time>2025-08-31T12:28:59.000Z</time>
      </trkpt>
      <trkpt lat="44.14312" lon="2.9582">
        <ele>612.8</ele>
        <time>2025-08-31T12:29:01.000Z</time>
      </trkpt>
      <trkpt lat="44.14311" lon="2.95835">
        <ele>612.7</ele>
        <time>2025-08-31T12:29:03.000Z</time>
      </trkpt>
      <trkpt lat="44.14309" lon="2.9585">
        <ele>612.6</ele>
        <time>2025-08-31T12:29:05.000Z</time>
      </trkpt>
      <trkpt lat="44.14309" lon="2.95865">
        <ele>612.6</ele>
        <time>2025-08-31T12:29:07.000Z</time>
      </trkpt>
      <trkpt lat="44.14307" lon="2.95879">
        <ele>612.5</ele>
        <time>2025-08-31T12:29:09.000Z</time>
      </trkpt>
      <trkpt lat="44.14304" lon="2.95892">
        <ele>612.5</ele>
        <time>2025-08-31T12:29:11.000Z</time>
      </trkpt>
      <trkpt lat="44.14301" lon="2.95905">
        <ele>612.6</ele>
        <time>2025-08-31T12:29:13.000Z</time>
      </trkpt>
      <trkpt lat="44.14297" lon="2.95919">
        <ele>612.6</ele>
        <time>2025-08-31T12:29:15.000Z</time>
      </trkpt>
      <trkpt lat="44.14294" lon="2.95932">
        <ele>612.7</ele>
        <time>2025-08-31T12:29:17.000Z</time>
      </trkpt>
      <trkpt lat="44.14291" lon="2.95945">
        <ele>612.8</ele>
        <time>2025-08-31T12:29:19.000Z</time>
      </trkpt>
      <trkpt lat="44.14288" lon="2.95958">
        <ele>612.9</ele>
        <time>2025-08-31T12:29:21.000Z</time>
      </trkpt>
      <trkpt lat="44.14284" lon="2.9597">
        <ele>613</ele>
        <time>2025-08-31T12:29:23.000Z</time>
      </trkpt>
      <trkpt lat="44.14279" lon="2.95983">
        <ele>613.2</ele>
        <time>2025-08-31T12:29:25.000Z</time>
      </trkpt>
      <trkpt lat="44.14275" lon="2.95994">
        <ele>613.4</ele>
        <time>2025-08-31T12:29:27.000Z</time>
      </trkpt>
      <trkpt lat="44.1427" lon="2.96004">
        <ele>613.7</ele>
        <time>2025-08-31T12:29:29.000Z</time>
      </trkpt>
      <trkpt lat="44.14265" lon="2.96015">
        <ele>613.9</ele>
        <time>2025-08-31T12:29:31.000Z</time>
      </trkpt>
      <trkpt lat="44.14258" lon="2.96026">
        <ele>614.1</ele>
        <time>2025-08-31T12:29:33.000Z</time>
      </trkpt>
      <trkpt lat="44.14252" lon="2.96035">
        <ele>614.3</ele>
        <time>2025-08-31T12:29:35.000Z</time>
      </trkpt>
      <trkpt lat="44.14246" lon="2.96045">
        <ele>614.5</ele>
        <time>2025-08-31T12:29:37.000Z</time>
      </trkpt>
      <trkpt lat="44.14238" lon="2.9606">
        <ele>614.8</ele>
        <time>2025-08-31T12:29:40.000Z</time>
      </trkpt>
      <trkpt lat="44.14232" lon="2.96069">
        <ele>614.9</ele>
        <time>2025-08-31T12:29:42.000Z</time>
      </trkpt>
      <trkpt lat="44.14226" lon="2.96079">
        <ele>615.1</ele>
        <time>2025-08-31T12:29:44.000Z</time>
      </trkpt>
      <trkpt lat="44.1422" lon="2.96089">
        <ele>615.2</ele>
        <time>2025-08-31T12:29:46.000Z</time>
      </trkpt>
      <trkpt lat="44.14214" lon="2.96098">
        <ele>615.3</ele>
        <time>2025-08-31T12:29:48.000Z</time>
      </trkpt>
      <trkpt lat="44.14207" lon="2.96109">
        <ele>615.4</ele>
        <time>2025-08-31T12:29:50.000Z</time>
      </trkpt>
      <trkpt lat="44.142" lon="2.9612">
        <ele>615.5</ele>
        <time>2025-08-31T12:29:52.000Z</time>
      </trkpt>
      <trkpt lat="44.14195" lon="2.96132">
        <ele>615.6</ele>
        <time>2025-08-31T12:29:54.000Z</time>
      </trkpt>
      <trkpt lat="44.14191" lon="2.96146">
        <ele>615.7</ele>
        <time>2025-08-31T12:29:56.000Z</time>
      </trkpt>
      <trkpt lat="44.14188" lon="2.96161">
        <ele>615.8</ele>
        <time>2025-08-31T12:29:58.000Z</time>
      </trkpt>
      <trkpt lat="44.14185" lon="2.96177">
        <ele>615.8</ele>
        <time>2025-08-31T12:30:00.000Z</time>
      </trkpt>
      <trkpt lat="44.1418" lon="2.96193">
        <ele>615.6</ele>
        <time>2025-08-31T12:30:02.000Z</time>
      </trkpt>
      <trkpt lat="44.14175" lon="2.96206">
        <ele>615.6</ele>
        <time>2025-08-31T12:30:03.000Z</time>
      </trkpt>
      <trkpt lat="44.14165" lon="2.96223">
        <ele>615.4</ele>
        <time>2025-08-31T12:30:05.000Z</time>
      </trkpt>
      <trkpt lat="44.14154" lon="2.96235">
        <ele>615.1</ele>
        <time>2025-08-31T12:30:07.000Z</time>
      </trkpt>
      <trkpt lat="44.14143" lon="2.96253">
        <ele>614.7</ele>
        <time>2025-08-31T12:30:09.000Z</time>
      </trkpt>
      <trkpt lat="44.14132" lon="2.96268">
        <ele>614.2</ele>
        <time>2025-08-31T12:30:11.000Z</time>
      </trkpt>
      <trkpt lat="44.14125" lon="2.96278">
        <ele>613.9</ele>
        <time>2025-08-31T12:30:12.000Z</time>
      </trkpt>
      <trkpt lat="44.14113" lon="2.96294">
        <ele>613.3</ele>
        <time>2025-08-31T12:30:14.000Z</time>
      </trkpt>
      <trkpt lat="44.14106" lon="2.96303">
        <ele>613</ele>
        <time>2025-08-31T12:30:15.000Z</time>
      </trkpt>
      <trkpt lat="44.1409" lon="2.96315">
        <ele>612.4</ele>
        <time>2025-08-31T12:30:17.000Z</time>
      </trkpt>
      <trkpt lat="44.14073" lon="2.96323">
        <ele>611.7</ele>
        <time>2025-08-31T12:30:19.000Z</time>
      </trkpt>
      <trkpt lat="44.14057" lon="2.96328">
        <ele>611</ele>
        <time>2025-08-31T12:30:21.000Z</time>
      </trkpt>
      <trkpt lat="44.14041" lon="2.96331">
        <ele>610.3</ele>
        <time>2025-08-31T12:30:23.000Z</time>
      </trkpt>
      <trkpt lat="44.14024" lon="2.96336">
        <ele>609.5</ele>
        <time>2025-08-31T12:30:25.000Z</time>
      </trkpt>
      <trkpt lat="44.14009" lon="2.9634">
        <ele>608.7</ele>
        <time>2025-08-31T12:30:27.000Z</time>
      </trkpt>
      <trkpt lat="44.13995" lon="2.96342">
        <ele>607.7</ele>
        <time>2025-08-31T12:30:29.000Z</time>
      </trkpt>
      <trkpt lat="44.13984" lon="2.96342">
        <ele>606.8</ele>
        <time>2025-08-31T12:30:31.000Z</time>
      </trkpt>
      <trkpt lat="44.13975" lon="2.96349">
        <ele>606</ele>
        <time>2025-08-31T12:30:33.000Z</time>
      </trkpt>
      <trkpt lat="44.1397" lon="2.96366">
        <ele>605.2</ele>
        <time>2025-08-31T12:30:35.000Z</time>
      </trkpt>
      <trkpt lat="44.13968" lon="2.96385">
        <ele>604.4</ele>
        <time>2025-08-31T12:30:37.000Z</time>
      </trkpt>
      <trkpt lat="44.13964" lon="2.96404">
        <ele>603.7</ele>
        <time>2025-08-31T12:30:39.000Z</time>
      </trkpt>
      <trkpt lat="44.1396" lon="2.96415">
        <ele>603</ele>
        <time>2025-08-31T12:30:41.000Z</time>
      </trkpt>
      <trkpt lat="44.13956" lon="2.96428">
        <ele>602.1</ele>
        <time>2025-08-31T12:30:44.000Z</time>
      </trkpt>
      <trkpt lat="44.1395" lon="2.96437">
        <ele>601.4</ele>
        <time>2025-08-31T12:30:47.000Z</time>
      </trkpt>
      <trkpt lat="44.13955" lon="2.96448">
        <ele>600.2</ele>
        <time>2025-08-31T12:32:27.000Z</time>
      </trkpt>
      <trkpt lat="44.13959" lon="2.96461">
        <ele>600.3</ele>
        <time>2025-08-31T12:32:31.000Z</time>
      </trkpt>
      <trkpt lat="44.13956" lon="2.96476">
        <ele>600.8</ele>
        <time>2025-08-31T12:32:36.000Z</time>
      </trkpt>
      <trkpt lat="44.13954" lon="2.9649">
        <ele>601.4</ele>
        <time>2025-08-31T12:32:41.000Z</time>
      </trkpt>
      <trkpt lat="44.13952" lon="2.96505">
        <ele>602</ele>
        <time>2025-08-31T12:32:45.000Z</time>
      </trkpt>
      <trkpt lat="44.1395" lon="2.96519">
        <ele>602.9</ele>
        <time>2025-08-31T12:32:50.000Z</time>
      </trkpt>
      <trkpt lat="44.13948" lon="2.96532">
        <ele>603.7</ele>
        <time>2025-08-31T12:32:54.000Z</time>
      </trkpt>
      <trkpt lat="44.13945" lon="2.96545">
        <ele>604.3</ele>
        <time>2025-08-31T12:32:57.000Z</time>
      </trkpt>
      <trkpt lat="44.13942" lon="2.96558">
        <ele>605.3</ele>
        <time>2025-08-31T12:33:01.000Z</time>
      </trkpt>
      <trkpt lat="44.1394" lon="2.96571">
        <ele>606.2</ele>
        <time>2025-08-31T12:33:05.000Z</time>
      </trkpt>
      <trkpt lat="44.13939" lon="2.96584">
        <ele>607.2</ele>
        <time>2025-08-31T12:33:09.000Z</time>
      </trkpt>
      <trkpt lat="44.13938" lon="2.96598">
        <ele>608.4</ele>
        <time>2025-08-31T12:33:14.000Z</time>
      </trkpt>
      <trkpt lat="44.13938" lon="2.96612">
        <ele>609.2</ele>
        <time>2025-08-31T12:33:18.000Z</time>
      </trkpt>
      <trkpt lat="44.13937" lon="2.96628">
        <ele>610.1</ele>
        <time>2025-08-31T12:33:22.000Z</time>
      </trkpt>
      <trkpt lat="44.13936" lon="2.96647">
        <ele>610.9</ele>
        <time>2025-08-31T12:33:26.000Z</time>
      </trkpt>
      <trkpt lat="44.13934" lon="2.96659">
        <ele>611.5</ele>
        <time>2025-08-31T12:33:29.000Z</time>
      </trkpt>
      <trkpt lat="44.13933" lon="2.96672">
        <ele>612.3</ele>
        <time>2025-08-31T12:33:33.000Z</time>
      </trkpt>
      <trkpt lat="44.13933" lon="2.96687">
        <ele>613.1</ele>
        <time>2025-08-31T12:33:37.000Z</time>
      </trkpt>
      <trkpt lat="44.13933" lon="2.96701">
        <ele>613.9</ele>
        <time>2025-08-31T12:33:41.000Z</time>
      </trkpt>
      <trkpt lat="44.13933" lon="2.96715">
        <ele>614.6</ele>
        <time>2025-08-31T12:33:45.000Z</time>
      </trkpt>
      <trkpt lat="44.13933" lon="2.9673">
        <ele>615.5</ele>
        <time>2025-08-31T12:33:49.000Z</time>
      </trkpt>
      <trkpt lat="44.13932" lon="2.96744">
        <ele>616.3</ele>
        <time>2025-08-31T12:33:53.000Z</time>
      </trkpt>
      <trkpt lat="44.13932" lon="2.96761">
        <ele>617.1</ele>
        <time>2025-08-31T12:33:57.000Z</time>
      </trkpt>
      <trkpt lat="44.13932" lon="2.96775">
        <ele>617.7</ele>
        <time>2025-08-31T12:34:01.000Z</time>
      </trkpt>
      <trkpt lat="44.1393" lon="2.9679">
        <ele>618.3</ele>
        <time>2025-08-31T12:34:05.000Z</time>
      </trkpt>
      <trkpt lat="44.13929" lon="2.96804">
        <ele>619.2</ele>
        <time>2025-08-31T12:34:09.000Z</time>
      </trkpt>
      <trkpt lat="44.13929" lon="2.96818">
        <ele>620</ele>
        <time>2025-08-31T12:34:13.000Z</time>
      </trkpt>
      <trkpt lat="44.13928" lon="2.96832">
        <ele>620.8</ele>
        <time>2025-08-31T12:34:17.000Z</time>
      </trkpt>
      <trkpt lat="44.13928" lon="2.96845">
        <ele>621.7</ele>
        <time>2025-08-31T12:34:21.000Z</time>
      </trkpt>
      <trkpt lat="44.13926" lon="2.96859">
        <ele>622.5</ele>
        <time>2025-08-31T12:34:25.000Z</time>
      </trkpt>
      <trkpt lat="44.13924" lon="2.96875">
        <ele>623.4</ele>
        <time>2025-08-31T12:34:29.000Z</time>
      </trkpt>
      <trkpt lat="44.13922" lon="2.96887">
        <ele>624</ele>
        <time>2025-08-31T12:34:32.000Z</time>
      </trkpt>
      <trkpt lat="44.13921" lon="2.96903">
        <ele>624.8</ele>
        <time>2025-08-31T12:34:36.000Z</time>
      </trkpt>
      <trkpt lat="44.1392" lon="2.96918">
        <ele>625.6</ele>
        <time>2025-08-31T12:34:40.000Z</time>
      </trkpt>
      <trkpt lat="44.13918" lon="2.96932">
        <ele>626.4</ele>
        <time>2025-08-31T12:34:44.000Z</time>
      </trkpt>
      <trkpt lat="44.13916" lon="2.96946">
        <ele>627.2</ele>
        <time>2025-08-31T12:34:48.000Z</time>
      </trkpt>
      <trkpt lat="44.13915" lon="2.96961">
        <ele>628</ele>
        <time>2025-08-31T12:34:53.000Z</time>
      </trkpt>
      <trkpt lat="44.13914" lon="2.96974">
        <ele>628.7</ele>
        <time>2025-08-31T12:34:57.000Z</time>
      </trkpt>
      <trkpt lat="44.13914" lon="2.96988">
        <ele>629.3</ele>
        <time>2025-08-31T12:35:01.000Z</time>
      </trkpt>
      <trkpt lat="44.13914" lon="2.97001">
        <ele>630</ele>
        <time>2025-08-31T12:35:05.000Z</time>
      </trkpt>
      <trkpt lat="44.13914" lon="2.97015">
        <ele>630.7</ele>
        <time>2025-08-31T12:35:09.000Z</time>
      </trkpt>
      <trkpt lat="44.13914" lon="2.9703">
        <ele>631.2</ele>
        <time>2025-08-31T12:35:13.000Z</time>
      </trkpt>
      <trkpt lat="44.13914" lon="2.97046">
        <ele>631.9</ele>
        <time>2025-08-31T12:35:17.000Z</time>
      </trkpt>
      <trkpt lat="44.13914" lon="2.9706">
        <ele>632.4</ele>
        <time>2025-08-31T12:35:20.000Z</time>
      </trkpt>
      <trkpt lat="44.13914" lon="2.97074">
        <ele>632.8</ele>
        <time>2025-08-31T12:35:23.000Z</time>
      </trkpt>
      <trkpt lat="44.13914" lon="2.97089">
        <ele>633.3</ele>
        <time>2025-08-31T12:35:26.000Z</time>
      </trkpt>
      <trkpt lat="44.13915" lon="2.97102">
        <ele>633.8</ele>
        <time>2025-08-31T12:35:29.000Z</time>
      </trkpt>
      <trkpt lat="44.13915" lon="2.97115">
        <ele>634.3</ele>
        <time>2025-08-31T12:35:32.000Z</time>
      </trkpt>
      <trkpt lat="44.13916" lon="2.97134">
        <ele>635.1</ele>
        <time>2025-08-31T12:35:36.000Z</time>
      </trkpt>
      <trkpt lat="44.13916" lon="2.9715">
        <ele>635.5</ele>
        <time>2025-08-31T12:35:39.000Z</time>
      </trkpt>
      <trkpt lat="44.13918" lon="2.97163">
        <ele>636</ele>
        <time>2025-08-31T12:35:42.000Z</time>
      </trkpt>
      <trkpt lat="44.13919" lon="2.97176">
        <ele>636.6</ele>
        <time>2025-08-31T12:35:45.000Z</time>
      </trkpt>
      <trkpt lat="44.1392" lon="2.9719">
        <ele>637.2</ele>
        <time>2025-08-31T12:35:48.000Z</time>
      </trkpt>
      <trkpt lat="44.13921" lon="2.97203">
        <ele>637.7</ele>
        <time>2025-08-31T12:35:51.000Z</time>
      </trkpt>
      <trkpt lat="44.13923" lon="2.97216">
        <ele>638.3</ele>
        <time>2025-08-31T12:35:54.000Z</time>
      </trkpt>
      <trkpt lat="44.13925" lon="2.97229">
        <ele>638.7</ele>
        <time>2025-08-31T12:35:57.000Z</time>
      </trkpt>
      <trkpt lat="44.13926" lon="2.97242">
        <ele>639.1</ele>
        <time>2025-08-31T12:36:00.000Z</time>
      </trkpt>
      <trkpt lat="44.13927" lon="2.97257">
        <ele>639.5</ele>
        <time>2025-08-31T12:36:04.000Z</time>
      </trkpt>
      <trkpt lat="44.13928" lon="2.97271">
        <ele>639.8</ele>
        <time>2025-08-31T12:36:07.000Z</time>
      </trkpt>
      <trkpt lat="44.13931" lon="2.97283">
        <ele>640.2</ele>
        <time>2025-08-31T12:36:10.000Z</time>
      </trkpt>
      <trkpt lat="44.13933" lon="2.97299">
        <ele>640.6</ele>
        <time>2025-08-31T12:36:14.000Z</time>
      </trkpt>
      <trkpt lat="44.13935" lon="2.97312">
        <ele>640.9</ele>
        <time>2025-08-31T12:36:17.000Z</time>
      </trkpt>
      <trkpt lat="44.13937" lon="2.97324">
        <ele>641.2</ele>
        <time>2025-08-31T12:36:20.000Z</time>
      </trkpt>
      <trkpt lat="44.13939" lon="2.97341">
        <ele>641.8</ele>
        <time>2025-08-31T12:36:24.000Z</time>
      </trkpt>
      <trkpt lat="44.13942" lon="2.97357">
        <ele>642.3</ele>
        <time>2025-08-31T12:36:28.000Z</time>
      </trkpt>
      <trkpt lat="44.13944" lon="2.97371">
        <ele>642.8</ele>
        <time>2025-08-31T12:36:31.000Z</time>
      </trkpt>
      <trkpt lat="44.13949" lon="2.97383">
        <ele>643.2</ele>
        <time>2025-08-31T12:36:34.000Z</time>
      </trkpt>
      <trkpt lat="44.13952" lon="2.97396">
        <ele>643.7</ele>
        <time>2025-08-31T12:36:37.000Z</time>
      </trkpt>
      <trkpt lat="44.13955" lon="2.97411">
        <ele>644.1</ele>
        <time>2025-08-31T12:36:41.000Z</time>
      </trkpt>
      <trkpt lat="44.13959" lon="2.97422">
        <ele>644.6</ele>
        <time>2025-08-31T12:36:44.000Z</time>
      </trkpt>
      <trkpt lat="44.13962" lon="2.97435">
        <ele>644.9</ele>
        <time>2025-08-31T12:36:47.000Z</time>
      </trkpt>
      <trkpt lat="44.13965" lon="2.97449">
        <ele>645.2</ele>
        <time>2025-08-31T12:36:50.000Z</time>
      </trkpt>
      <trkpt lat="44.1397" lon="2.97462">
        <ele>645.6</ele>
        <time>2025-08-31T12:36:53.000Z</time>
      </trkpt>
      <trkpt lat="44.13974" lon="2.97475">
        <ele>645.9</ele>
        <time>2025-08-31T12:36:56.000Z</time>
      </trkpt>
      <trkpt lat="44.13978" lon="2.97488">
        <ele>646.2</ele>
        <time>2025-08-31T12:36:59.000Z</time>
      </trkpt>
      <trkpt lat="44.13982" lon="2.97501">
        <ele>646.5</ele>
        <time>2025-08-31T12:37:02.000Z</time>
      </trkpt>
      <trkpt lat="44.13986" lon="2.97514">
        <ele>646.8</ele>
        <time>2025-08-31T12:37:05.000Z</time>
      </trkpt>
      <trkpt lat="44.1399" lon="2.97526">
        <ele>647.1</ele>
        <time>2025-08-31T12:37:08.000Z</time>
      </trkpt>
      <trkpt lat="44.13993" lon="2.9754">
        <ele>647.4</ele>
        <time>2025-08-31T12:37:11.000Z</time>
      </trkpt>
      <trkpt lat="44.13995" lon="2.97553">
        <ele>647.6</ele>
        <time>2025-08-31T12:37:14.000Z</time>
      </trkpt>
      <trkpt lat="44.13996" lon="2.97567">
        <ele>647.8</ele>
        <time>2025-08-31T12:37:17.000Z</time>
      </trkpt>
      <trkpt lat="44.13996" lon="2.97583">
        <ele>648.2</ele>
        <time>2025-08-31T12:37:20.000Z</time>
      </trkpt>
      <trkpt lat="44.13994" lon="2.976">
        <ele>648.5</ele>
        <time>2025-08-31T12:37:23.000Z</time>
      </trkpt>
      <trkpt lat="44.13992" lon="2.97616">
        <ele>648.8</ele>
        <time>2025-08-31T12:37:26.000Z</time>
      </trkpt>
      <trkpt lat="44.1399" lon="2.97632">
        <ele>649.2</ele>
        <time>2025-08-31T12:37:29.000Z</time>
      </trkpt>
      <trkpt lat="44.13988" lon="2.97647">
        <ele>649.4</ele>
        <time>2025-08-31T12:37:32.000Z</time>
      </trkpt>
      <trkpt lat="44.13986" lon="2.97661">
        <ele>649.8</ele>
        <time>2025-08-31T12:37:35.000Z</time>
      </trkpt>
      <trkpt lat="44.13984" lon="2.97676">
        <ele>650.2</ele>
        <time>2025-08-31T12:37:38.000Z</time>
      </trkpt>
      <trkpt lat="44.13983" lon="2.97691">
        <ele>650.7</ele>
        <time>2025-08-31T12:37:41.000Z</time>
      </trkpt>
      <trkpt lat="44.13982" lon="2.97707">
        <ele>651</ele>
        <time>2025-08-31T12:37:44.000Z</time>
      </trkpt>
      <trkpt lat="44.1398" lon="2.97723">
        <ele>651.4</ele>
        <time>2025-08-31T12:37:47.000Z</time>
      </trkpt>
      <trkpt lat="44.1398" lon="2.97738">
        <ele>651.8</ele>
        <time>2025-08-31T12:37:50.000Z</time>
      </trkpt>
      <trkpt lat="44.1398" lon="2.97753">
        <ele>652.2</ele>
        <time>2025-08-31T12:37:53.000Z</time>
      </trkpt>
      <trkpt lat="44.13981" lon="2.97768">
        <ele>652.5</ele>
        <time>2025-08-31T12:37:56.000Z</time>
      </trkpt>
      <trkpt lat="44.13982" lon="2.97784">
        <ele>652.9</ele>
        <time>2025-08-31T12:37:59.000Z</time>
      </trkpt>
      <trkpt lat="44.13982" lon="2.97799">
        <ele>653.4</ele>
        <time>2025-08-31T12:38:02.000Z</time>
      </trkpt>
      <trkpt lat="44.13982" lon="2.97814">
        <ele>653.8</ele>
        <time>2025-08-31T12:38:05.000Z</time>
      </trkpt>
      <trkpt lat="44.13982" lon="2.97828">
        <ele>654.2</ele>
        <time>2025-08-31T12:38:08.000Z</time>
      </trkpt>
      <trkpt lat="44.13984" lon="2.97843">
        <ele>654.7</ele>
        <time>2025-08-31T12:38:11.000Z</time>
      </trkpt>
      <trkpt lat="44.13984" lon="2.97858">
        <ele>655.2</ele>
        <time>2025-08-31T12:38:14.000Z</time>
      </trkpt>
      <trkpt lat="44.13984" lon="2.97873">
        <ele>655.7</ele>
        <time>2025-08-31T12:38:17.000Z</time>
      </trkpt>
      <trkpt lat="44.13985" lon="2.97888">
        <ele>656.2</ele>
        <time>2025-08-31T12:38:20.000Z</time>
      </trkpt>
      <trkpt lat="44.13986" lon="2.97902">
        <ele>656.7</ele>
        <time>2025-08-31T12:38:23.000Z</time>
      </trkpt>
      <trkpt lat="44.13987" lon="2.97915">
        <ele>657.2</ele>
        <time>2025-08-31T12:38:26.000Z</time>
      </trkpt>
      <trkpt lat="44.13988" lon="2.97929">
        <ele>657.7</ele>
        <time>2025-08-31T12:38:29.000Z</time>
      </trkpt>
      <trkpt lat="44.13989" lon="2.97941">
        <ele>658.1</ele>
        <time>2025-08-31T12:38:32.000Z</time>
      </trkpt>
      <trkpt lat="44.13989" lon="2.97954">
        <ele>658.5</ele>
        <time>2025-08-31T12:38:35.000Z</time>
      </trkpt>
      <trkpt lat="44.1399" lon="2.97969">
        <ele>659</ele>
        <time>2025-08-31T12:38:38.000Z</time>
      </trkpt>
      <trkpt lat="44.13992" lon="2.97983">
        <ele>659.4</ele>
        <time>2025-08-31T12:38:41.000Z</time>
      </trkpt>
      <trkpt lat="44.13994" lon="2.97998">
        <ele>660</ele>
        <time>2025-08-31T12:38:44.000Z</time>
      </trkpt>
      <trkpt lat="44.13994" lon="2.98012">
        <ele>660.5</ele>
        <time>2025-08-31T12:38:47.000Z</time>
      </trkpt>
      <trkpt lat="44.13994" lon="2.98026">
        <ele>660.9</ele>
        <time>2025-08-31T12:38:50.000Z</time>
      </trkpt>
      <trkpt lat="44.13995" lon="2.9804">
        <ele>661.4</ele>
        <time>2025-08-31T12:38:53.000Z</time>
      </trkpt>
      <trkpt lat="44.13995" lon="2.98054">
        <ele>662</ele>
        <time>2025-08-31T12:38:56.000Z</time>
      </trkpt>
      <trkpt lat="44.13996" lon="2.98068">
        <ele>662.5</ele>
        <time>2025-08-31T12:38:59.000Z</time>
      </trkpt>
      <trkpt lat="44.13997" lon="2.98082">
        <ele>662.9</ele>
        <time>2025-08-31T12:39:02.000Z</time>
      </trkpt>
      <trkpt lat="44.13998" lon="2.98096">
        <ele>663.4</ele>
        <time>2025-08-31T12:39:05.000Z</time>
      </trkpt>
      <trkpt lat="44.13999" lon="2.9811">
        <ele>663.9</ele>
        <time>2025-08-31T12:39:08.000Z</time>
      </trkpt>
      <trkpt lat="44.14" lon="2.98125">
        <ele>664.3</ele>
        <time>2025-08-31T12:39:11.000Z</time>
      </trkpt>
      <trkpt lat="44.14001" lon="2.98141">
        <ele>664.6</ele>
        <time>2025-08-31T12:39:14.000Z</time>
      </trkpt>
      <trkpt lat="44.14004" lon="2.98157">
        <ele>665</ele>
        <time>2025-08-31T12:39:17.000Z</time>
      </trkpt>
      <trkpt lat="44.14006" lon="2.98173">
        <ele>665.3</ele>
        <time>2025-08-31T12:39:20.000Z</time>
      </trkpt>
      <trkpt lat="44.14007" lon="2.9819">
        <ele>665.6</ele>
        <time>2025-08-31T12:39:23.000Z</time>
      </trkpt>
      <trkpt lat="44.14008" lon="2.98207">
        <ele>665.8</ele>
        <time>2025-08-31T12:39:26.000Z</time>
      </trkpt>
      <trkpt lat="44.14008" lon="2.98225">
        <ele>666.1</ele>
        <time>2025-08-31T12:39:29.000Z</time>
      </trkpt>
      <trkpt lat="44.14009" lon="2.98242">
        <ele>666.3</ele>
        <time>2025-08-31T12:39:32.000Z</time>
      </trkpt>
      <trkpt lat="44.1401" lon="2.98259">
        <ele>666.5</ele>
        <time>2025-08-31T12:39:35.000Z</time>
      </trkpt>
      <trkpt lat="44.14009" lon="2.98276">
        <ele>666.8</ele>
        <time>2025-08-31T12:39:38.000Z</time>
      </trkpt>
      <trkpt lat="44.1401" lon="2.98292">
        <ele>667.1</ele>
        <time>2025-08-31T12:39:41.000Z</time>
      </trkpt>
      <trkpt lat="44.14011" lon="2.98307">
        <ele>667.4</ele>
        <time>2025-08-31T12:39:44.000Z</time>
      </trkpt>
      <trkpt lat="44.14013" lon="2.98323">
        <ele>667.8</ele>
        <time>2025-08-31T12:39:47.000Z</time>
      </trkpt>
      <trkpt lat="44.14014" lon="2.98337">
        <ele>668.4</ele>
        <time>2025-08-31T12:39:50.000Z</time>
      </trkpt>
      <trkpt lat="44.14016" lon="2.98352">
        <ele>668.9</ele>
        <time>2025-08-31T12:39:53.000Z</time>
      </trkpt>
      <trkpt lat="44.14019" lon="2.98367">
        <ele>669.5</ele>
        <time>2025-08-31T12:39:56.000Z</time>
      </trkpt>
      <trkpt lat="44.14022" lon="2.9838">
        <ele>670.2</ele>
        <time>2025-08-31T12:39:59.000Z</time>
      </trkpt>
      <trkpt lat="44.14026" lon="2.98392">
        <ele>670.9</ele>
        <time>2025-08-31T12:40:02.000Z</time>
      </trkpt>
      <trkpt lat="44.14029" lon="2.98404">
        <ele>671.6</ele>
        <time>2025-08-31T12:40:05.000Z</time>
      </trkpt>
      <trkpt lat="44.14033" lon="2.98416">
        <ele>672.4</ele>
        <time>2025-08-31T12:40:08.000Z</time>
      </trkpt>
      <trkpt lat="44.14039" lon="2.9843">
        <ele>673.3</ele>
        <time>2025-08-31T12:40:12.000Z</time>
      </trkpt>
      <trkpt lat="44.14043" lon="2.98443">
        <ele>674.3</ele>
        <time>2025-08-31T12:40:16.000Z</time>
      </trkpt>
      <trkpt lat="44.14048" lon="2.98456">
        <ele>675.2</ele>
        <time>2025-08-31T12:40:20.000Z</time>
      </trkpt>
      <trkpt lat="44.14052" lon="2.98469">
        <ele>676.1</ele>
        <time>2025-08-31T12:40:24.000Z</time>
      </trkpt>
      <trkpt lat="44.14055" lon="2.98482">
        <ele>677.2</ele>
        <time>2025-08-31T12:40:29.000Z</time>
      </trkpt>
      <trkpt lat="44.14059" lon="2.98494">
        <ele>679.6</ele>
        <time>2025-08-31T12:40:50.000Z</time>
      </trkpt>
      <trkpt lat="44.14063" lon="2.98506">
        <ele>680.1</ele>
        <time>2025-08-31T12:40:54.000Z</time>
      </trkpt>
      <trkpt lat="44.14068" lon="2.98518">
        <ele>680.8</ele>
        <time>2025-08-31T12:40:58.000Z</time>
      </trkpt>
      <trkpt lat="44.14073" lon="2.9853">
        <ele>681.4</ele>
        <time>2025-08-31T12:41:02.000Z</time>
      </trkpt>
      <trkpt lat="44.14079" lon="2.98542">
        <ele>682</ele>
        <time>2025-08-31T12:41:06.000Z</time>
      </trkpt>
      <trkpt lat="44.14085" lon="2.98554">
        <ele>682.7</ele>
        <time>2025-08-31T12:41:10.000Z</time>
      </trkpt>
      <trkpt lat="44.14093" lon="2.98565">
        <ele>683.4</ele>
        <time>2025-08-31T12:41:14.000Z</time>
      </trkpt>
      <trkpt lat="44.141" lon="2.98575">
        <ele>684.1</ele>
        <time>2025-08-31T12:41:18.000Z</time>
      </trkpt>
      <trkpt lat="44.14108" lon="2.98585">
        <ele>684.7</ele>
        <time>2025-08-31T12:41:22.000Z</time>
      </trkpt>
      <trkpt lat="44.14116" lon="2.98594">
        <ele>685.4</ele>
        <time>2025-08-31T12:41:26.000Z</time>
      </trkpt>
      <trkpt lat="44.14124" lon="2.98604">
        <ele>686</ele>
        <time>2025-08-31T12:41:30.000Z</time>
      </trkpt>
      <trkpt lat="44.14132" lon="2.98614">
        <ele>686.8</ele>
        <time>2025-08-31T12:41:34.000Z</time>
      </trkpt>
      <trkpt lat="44.1414" lon="2.98624">
        <ele>687.6</ele>
        <time>2025-08-31T12:41:38.000Z</time>
      </trkpt>
      <trkpt lat="44.14147" lon="2.98636">
        <ele>688.5</ele>
        <time>2025-08-31T12:41:42.000Z</time>
      </trkpt>
      <trkpt lat="44.14153" lon="2.98647">
        <ele>689.4</ele>
        <time>2025-08-31T12:41:46.000Z</time>
      </trkpt>
      <trkpt lat="44.14157" lon="2.98661">
        <ele>690.3</ele>
        <time>2025-08-31T12:41:50.000Z</time>
      </trkpt>
      <trkpt lat="44.1416" lon="2.98675">
        <ele>691.3</ele>
        <time>2025-08-31T12:41:54.000Z</time>
      </trkpt>
      <trkpt lat="44.14162" lon="2.9869">
        <ele>692.3</ele>
        <time>2025-08-31T12:41:58.000Z</time>
      </trkpt>
      <trkpt lat="44.14164" lon="2.98705">
        <ele>693.2</ele>
        <time>2025-08-31T12:42:02.000Z</time>
      </trkpt>
      <trkpt lat="44.14165" lon="2.9872">
        <ele>694.1</ele>
        <time>2025-08-31T12:42:06.000Z</time>
      </trkpt>
      <trkpt lat="44.14167" lon="2.98735">
        <ele>695.1</ele>
        <time>2025-08-31T12:42:10.000Z</time>
      </trkpt>
      <trkpt lat="44.1417" lon="2.98751">
        <ele>695.9</ele>
        <time>2025-08-31T12:42:14.000Z</time>
      </trkpt>
      <trkpt lat="44.14172" lon="2.98766">
        <ele>696.7</ele>
        <time>2025-08-31T12:42:18.000Z</time>
      </trkpt>
      <trkpt lat="44.14176" lon="2.98782">
        <ele>697.4</ele>
        <time>2025-08-31T12:42:22.000Z</time>
      </trkpt>
      <trkpt lat="44.14181" lon="2.98792">
        <ele>698</ele>
        <time>2025-08-31T12:42:25.000Z</time>
      </trkpt>
      <trkpt lat="44.14187" lon="2.98806">
        <ele>698.7</ele>
        <time>2025-08-31T12:42:29.000Z</time>
      </trkpt>
      <trkpt lat="44.14193" lon="2.98819">
        <ele>699.4</ele>
        <time>2025-08-31T12:42:33.000Z</time>
      </trkpt>
      <trkpt lat="44.142" lon="2.98831">
        <ele>700</ele>
        <time>2025-08-31T12:42:37.000Z</time>
      </trkpt>
      <trkpt lat="44.14207" lon="2.98843">
        <ele>700.8</ele>
        <time>2025-08-31T12:42:41.000Z</time>
      </trkpt>
      <trkpt lat="44.14216" lon="2.98855">
        <ele>701.7</ele>
        <time>2025-08-31T12:42:45.000Z</time>
      </trkpt>
      <trkpt lat="44.14224" lon="2.98867">
        <ele>702.6</ele>
        <time>2025-08-31T12:42:49.000Z</time>
      </trkpt>
      <trkpt lat="44.14231" lon="2.98879">
        <ele>703.6</ele>
        <time>2025-08-31T12:42:53.000Z</time>
      </trkpt>
      <trkpt lat="44.14237" lon="2.98889">
        <ele>704.3</ele>
        <time>2025-08-31T12:42:56.000Z</time>
      </trkpt>
      <trkpt lat="44.14244" lon="2.98902">
        <ele>705.4</ele>
        <time>2025-08-31T12:43:00.000Z</time>
      </trkpt>
      <trkpt lat="44.1425" lon="2.98915">
        <ele>706.5</ele>
        <time>2025-08-31T12:43:04.000Z</time>
      </trkpt>
      <trkpt lat="44.14254" lon="2.98928">
        <ele>707.5</ele>
        <time>2025-08-31T12:43:08.000Z</time>
      </trkpt>
      <trkpt lat="44.14259" lon="2.98943">
        <ele>708.5</ele>
        <time>2025-08-31T12:43:12.000Z</time>
      </trkpt>
      <trkpt lat="44.14262" lon="2.98958">
        <ele>709.6</ele>
        <time>2025-08-31T12:43:16.000Z</time>
      </trkpt>
      <trkpt lat="44.14266" lon="2.98973">
        <ele>710.6</ele>
        <time>2025-08-31T12:43:20.000Z</time>
      </trkpt>
      <trkpt lat="44.14272" lon="2.98987">
        <ele>711.5</ele>
        <time>2025-08-31T12:43:24.000Z</time>
      </trkpt>
      <trkpt lat="44.14278" lon="2.99">
        <ele>712.4</ele>
        <time>2025-08-31T12:43:28.000Z</time>
      </trkpt>
      <trkpt lat="44.14285" lon="2.99011">
        <ele>713.5</ele>
        <time>2025-08-31T12:43:32.000Z</time>
      </trkpt>
      <trkpt lat="44.14293" lon="2.9902">
        <ele>714.4</ele>
        <time>2025-08-31T12:43:36.000Z</time>
      </trkpt>
      <trkpt lat="44.143" lon="2.99028">
        <ele>715.3</ele>
        <time>2025-08-31T12:43:40.000Z</time>
      </trkpt>
      <trkpt lat="44.14308" lon="2.99036">
        <ele>716.2</ele>
        <time>2025-08-31T12:43:44.000Z</time>
      </trkpt>
      <trkpt lat="44.14316" lon="2.99045">
        <ele>717</ele>
        <time>2025-08-31T12:43:48.000Z</time>
      </trkpt>
      <trkpt lat="44.14323" lon="2.99055">
        <ele>717.7</ele>
        <time>2025-08-31T12:43:52.000Z</time>
      </trkpt>
      <trkpt lat="44.1433" lon="2.99066">
        <ele>718.5</ele>
        <time>2025-08-31T12:43:56.000Z</time>
      </trkpt>
      <trkpt lat="44.14336" lon="2.99076">
        <ele>719.4</ele>
        <time>2025-08-31T12:44:00.000Z</time>
      </trkpt>
      <trkpt lat="44.14339" lon="2.9909">
        <ele>722.7</ele>
        <time>2025-08-31T12:44:19.000Z</time>
      </trkpt>
      <trkpt lat="44.14345" lon="2.99102">
        <ele>723.1</ele>
        <time>2025-08-31T12:44:23.000Z</time>
      </trkpt>
      <trkpt lat="44.1435" lon="2.99113">
        <ele>723.5</ele>
        <time>2025-08-31T12:44:27.000Z</time>
      </trkpt>
      <trkpt lat="44.14353" lon="2.99127">
        <ele>724.1</ele>
        <time>2025-08-31T12:44:31.000Z</time>
      </trkpt>
      <trkpt lat="44.14358" lon="2.9914">
        <ele>724.5</ele>
        <time>2025-08-31T12:44:35.000Z</time>
      </trkpt>
      <trkpt lat="44.14361" lon="2.99155">
        <ele>725.1</ele>
        <time>2025-08-31T12:44:39.000Z</time>
      </trkpt>
      <trkpt lat="44.14362" lon="2.9917">
        <ele>725.6</ele>
        <time>2025-08-31T12:44:43.000Z</time>
      </trkpt>
      <trkpt lat="44.14363" lon="2.99185">
        <ele>726.3</ele>
        <time>2025-08-31T12:44:47.000Z</time>
      </trkpt>
      <trkpt lat="44.14364" lon="2.99201">
        <ele>727</ele>
        <time>2025-08-31T12:44:51.000Z</time>
      </trkpt>
      <trkpt lat="44.14364" lon="2.99217">
        <ele>727.7</ele>
        <time>2025-08-31T12:44:55.000Z</time>
      </trkpt>
      <trkpt lat="44.14362" lon="2.99233">
        <ele>728.6</ele>
        <time>2025-08-31T12:44:59.000Z</time>
      </trkpt>
      <trkpt lat="44.1436" lon="2.99249">
        <ele>729.4</ele>
        <time>2025-08-31T12:45:03.000Z</time>
      </trkpt>
      <trkpt lat="44.14358" lon="2.99265">
        <ele>730.3</ele>
        <time>2025-08-31T12:45:07.000Z</time>
      </trkpt>
      <trkpt lat="44.14356" lon="2.99277">
        <ele>730.8</ele>
        <time>2025-08-31T12:45:10.000Z</time>
      </trkpt>
      <trkpt lat="44.14354" lon="2.99294">
        <ele>731.6</ele>
        <time>2025-08-31T12:45:14.000Z</time>
      </trkpt>
      <trkpt lat="44.14352" lon="2.9931">
        <ele>732.4</ele>
        <time>2025-08-31T12:45:18.000Z</time>
      </trkpt>
      <trkpt lat="44.1435" lon="2.99323">
        <ele>733</ele>
        <time>2025-08-31T12:45:21.000Z</time>
      </trkpt>
      <trkpt lat="44.14348" lon="2.99339">
        <ele>733.9</ele>
        <time>2025-08-31T12:45:25.000Z</time>
      </trkpt>
      <trkpt lat="44.14346" lon="2.99355">
        <ele>734.5</ele>
        <time>2025-08-31T12:45:29.000Z</time>
      </trkpt>
      <trkpt lat="44.14345" lon="2.9937">
        <ele>735.1</ele>
        <time>2025-08-31T12:45:33.000Z</time>
      </trkpt>
      <trkpt lat="44.14344" lon="2.99383">
        <ele>735.7</ele>
        <time>2025-08-31T12:45:38.000Z</time>
      </trkpt>
      <trkpt lat="44.1434" lon="2.99396">
        <ele>736</ele>
        <time>2025-08-31T12:45:41.000Z</time>
      </trkpt>
      <trkpt lat="44.14337" lon="2.9941">
        <ele>736.4</ele>
        <time>2025-08-31T12:45:44.000Z</time>
      </trkpt>
      <trkpt lat="44.14334" lon="2.99426">
        <ele>736.7</ele>
        <time>2025-08-31T12:45:47.000Z</time>
      </trkpt>
      <trkpt lat="44.14331" lon="2.99442">
        <ele>736.9</ele>
        <time>2025-08-31T12:45:50.000Z</time>
      </trkpt>
      <trkpt lat="44.14327" lon="2.99458">
        <ele>737.2</ele>
        <time>2025-08-31T12:45:53.000Z</time>
      </trkpt>
      <trkpt lat="44.14322" lon="2.99475">
        <ele>737.4</ele>
        <time>2025-08-31T12:45:56.000Z</time>
      </trkpt>
      <trkpt lat="44.14317" lon="2.99491">
        <ele>737.6</ele>
        <time>2025-08-31T12:45:59.000Z</time>
      </trkpt>
      <trkpt lat="44.14312" lon="2.99507">
        <ele>737.8</ele>
        <time>2025-08-31T12:46:02.000Z</time>
      </trkpt>
      <trkpt lat="44.14306" lon="2.99524">
        <ele>737.9</ele>
        <time>2025-08-31T12:46:05.000Z</time>
      </trkpt>
      <trkpt lat="44.14301" lon="2.99537">
        <ele>738</ele>
        <time>2025-08-31T12:46:07.000Z</time>
      </trkpt>
      <trkpt lat="44.14295" lon="2.9955">
        <ele>738.1</ele>
        <time>2025-08-31T12:46:09.000Z</time>
      </trkpt>
      <trkpt lat="44.1429" lon="2.99564">
        <ele>738.1</ele>
        <time>2025-08-31T12:46:11.000Z</time>
      </trkpt>
      <trkpt lat="44.14284" lon="2.99578">
        <ele>737.9</ele>
        <time>2025-08-31T12:46:13.000Z</time>
      </trkpt>
      <trkpt lat="44.14278" lon="2.99593">
        <ele>737.8</ele>
        <time>2025-08-31T12:46:15.000Z</time>
      </trkpt>
      <trkpt lat="44.14272" lon="2.99608">
        <ele>737.7</ele>
        <time>2025-08-31T12:46:17.000Z</time>
      </trkpt>
      <trkpt lat="44.14266" lon="2.99624">
        <ele>737.5</ele>
        <time>2025-08-31T12:46:19.000Z</time>
      </trkpt>
      <trkpt lat="44.1426" lon="2.99639">
        <ele>737.3</ele>
        <time>2025-08-31T12:46:21.000Z</time>
      </trkpt>
      <trkpt lat="44.14255" lon="2.99654">
        <ele>737.1</ele>
        <time>2025-08-31T12:46:23.000Z</time>
      </trkpt>
      <trkpt lat="44.14251" lon="2.9967">
        <ele>737</ele>
        <time>2025-08-31T12:46:25.000Z</time>
      </trkpt>
      <trkpt lat="44.14248" lon="2.99684">
        <ele>736.8</ele>
        <time>2025-08-31T12:46:27.000Z</time>
      </trkpt>
      <trkpt lat="44.14246" lon="2.99699">
        <ele>736.7</ele>
        <time>2025-08-31T12:46:29.000Z</time>
      </trkpt>
      <trkpt lat="44.14243" lon="2.99713">
        <ele>736.6</ele>
        <time>2025-08-31T12:46:31.000Z</time>
      </trkpt>
      <trkpt lat="44.14241" lon="2.99727">
        <ele>736.5</ele>
        <time>2025-08-31T12:46:33.000Z</time>
      </trkpt>
      <trkpt lat="44.14239" lon="2.99745">
        <ele>736.3</ele>
        <time>2025-08-31T12:46:36.000Z</time>
      </trkpt>
      <trkpt lat="44.14239" lon="2.99762">
        <ele>736.1</ele>
        <time>2025-08-31T12:46:39.000Z</time>
      </trkpt>
      <trkpt lat="44.14234" lon="2.99776">
        <ele>736</ele>
        <time>2025-08-31T12:46:42.000Z</time>
      </trkpt>
      <trkpt lat="44.14225" lon="2.99778">
        <ele>736</ele>
        <time>2025-08-31T12:46:45.000Z</time>
      </trkpt>
      <trkpt lat="44.14215" lon="2.99772">
        <ele>736</ele>
        <time>2025-08-31T12:46:49.000Z</time>
      </trkpt>
      <trkpt lat="44.14207" lon="2.99766">
        <ele>735.9</ele>
        <time>2025-08-31T12:47:14.000Z</time>
      </trkpt>
      <trkpt lat="44.14198" lon="2.99758">
        <ele>735.9</ele>
        <time>2025-08-31T12:47:18.000Z</time>
      </trkpt>
      <trkpt lat="44.14191" lon="2.9975">
        <ele>735.8</ele>
        <time>2025-08-31T12:47:21.000Z</time>
      </trkpt>
      <trkpt lat="44.14183" lon="2.99743">
        <ele>735.7</ele>
        <time>2025-08-31T12:47:24.000Z</time>
      </trkpt>
      <trkpt lat="44.14177" lon="2.99734">
        <ele>735.8</ele>
        <time>2025-08-31T12:47:27.000Z</time>
      </trkpt>
      <trkpt lat="44.14171" lon="2.99725">
        <ele>735.8</ele>
        <time>2025-08-31T12:47:30.000Z</time>
      </trkpt>
      <trkpt lat="44.14164" lon="2.99715">
        <ele>735.8</ele>
        <time>2025-08-31T12:47:33.000Z</time>
      </trkpt>
      <trkpt lat="44.14158" lon="2.99704">
        <ele>735.8</ele>
        <time>2025-08-31T12:47:36.000Z</time>
      </trkpt>
      <trkpt lat="44.14153" lon="2.99693">
        <ele>735.8</ele>
        <time>2025-08-31T12:47:39.000Z</time>
      </trkpt>
      <trkpt lat="44.14146" lon="2.99681">
        <ele>735.9</ele>
        <time>2025-08-31T12:47:43.000Z</time>
      </trkpt>
      <trkpt lat="44.14137" lon="2.99676">
        <ele>736.2</ele>
        <time>2025-08-31T12:47:47.000Z</time>
      </trkpt>
      <trkpt lat="44.14125" lon="2.99676">
        <ele>736.4</ele>
        <time>2025-08-31T12:47:51.000Z</time>
      </trkpt>
      <trkpt lat="44.14114" lon="2.9968">
        <ele>736.7</ele>
        <time>2025-08-31T12:47:55.000Z</time>
      </trkpt>
      <trkpt lat="44.14103" lon="2.99687">
        <ele>736.9</ele>
        <time>2025-08-31T12:47:59.000Z</time>
      </trkpt>
      <trkpt lat="44.14094" lon="2.99694">
        <ele>737.1</ele>
        <time>2025-08-31T12:48:02.000Z</time>
      </trkpt>
      <trkpt lat="44.14084" lon="2.99701">
        <ele>737.2</ele>
        <time>2025-08-31T12:48:05.000Z</time>
      </trkpt>
      <trkpt lat="44.14072" lon="2.99707">
        <ele>737.3</ele>
        <time>2025-08-31T12:48:08.000Z</time>
      </trkpt>
      <trkpt lat="44.14061" lon="2.99711">
        <ele>737.3</ele>
        <time>2025-08-31T12:48:11.000Z</time>
      </trkpt>
      <trkpt lat="44.1405" lon="2.99714">
        <ele>737.4</ele>
        <time>2025-08-31T12:48:14.000Z</time>
      </trkpt>
      <trkpt lat="44.14039" lon="2.99716">
        <ele>737.2</ele>
        <time>2025-08-31T12:48:17.000Z</time>
      </trkpt>
      <trkpt lat="44.14028" lon="2.99724">
        <ele>737.1</ele>
        <time>2025-08-31T12:48:20.000Z</time>
      </trkpt>
      <trkpt lat="44.14018" lon="2.9973">
        <ele>737</ele>
        <time>2025-08-31T12:48:22.000Z</time>
      </trkpt>
      <trkpt lat="44.14011" lon="2.9974">
        <ele>736.8</ele>
        <time>2025-08-31T12:48:24.000Z</time>
      </trkpt>
      <trkpt lat="44.14002" lon="2.99746">
        <ele>736.6</ele>
        <time>2025-08-31T12:48:26.000Z</time>
      </trkpt>
      <trkpt lat="44.13992" lon="2.9975">
        <ele>736.2</ele>
        <time>2025-08-31T12:48:28.000Z</time>
      </trkpt>
      <trkpt lat="44.13983" lon="2.99754">
        <ele>735.6</ele>
        <time>2025-08-31T12:48:30.000Z</time>
      </trkpt>
      <trkpt lat="44.13971" lon="2.99758">
        <ele>734.8</ele>
        <time>2025-08-31T12:48:33.000Z</time>
      </trkpt>
      <trkpt lat="44.13961" lon="2.99762">
        <ele>734.2</ele>
        <time>2025-08-31T12:48:36.000Z</time>
      </trkpt>
      <trkpt lat="44.13952" lon="2.99767">
        <ele>733.4</ele>
        <time>2025-08-31T12:48:39.000Z</time>
      </trkpt>
      <trkpt lat="44.13942" lon="2.99774">
        <ele>732.7</ele>
        <time>2025-08-31T12:48:42.000Z</time>
      </trkpt>
      <trkpt lat="44.13932" lon="2.99781">
        <ele>732.1</ele>
        <time>2025-08-31T12:48:45.000Z</time>
      </trkpt>
      <trkpt lat="44.13923" lon="2.99791">
        <ele>731.3</ele>
        <time>2025-08-31T12:48:48.000Z</time>
      </trkpt>
      <trkpt lat="44.13911" lon="2.998">
        <ele>730.6</ele>
        <time>2025-08-31T12:48:51.000Z</time>
      </trkpt>
      <trkpt lat="44.139" lon="2.99807">
        <ele>730</ele>
        <time>2025-08-31T12:48:54.000Z</time>
      </trkpt>
      <trkpt lat="44.13891" lon="2.99813">
        <ele>729.5</ele>
        <time>2025-08-31T12:48:56.000Z</time>
      </trkpt>
      <trkpt lat="44.13883" lon="2.99818">
        <ele>728.9</ele>
        <time>2025-08-31T12:48:58.000Z</time>
      </trkpt>
      <trkpt lat="44.13874" lon="2.99827">
        <ele>728</ele>
        <time>2025-08-31T12:49:01.000Z</time>
      </trkpt>
      <trkpt lat="44.13864" lon="2.99835">
        <ele>727.3</ele>
        <time>2025-08-31T12:49:04.000Z</time>
      </trkpt>
      <trkpt lat="44.13854" lon="2.99842">
        <ele>726.3</ele>
        <time>2025-08-31T12:49:08.000Z</time>
      </trkpt>
      <trkpt lat="44.13846" lon="2.99849">
        <ele>725.5</ele>
        <time>2025-08-31T12:49:11.000Z</time>
      </trkpt>
      <trkpt lat="44.13837" lon="2.99857">
        <ele>724.4</ele>
        <time>2025-08-31T12:49:15.000Z</time>
      </trkpt>
      <trkpt lat="44.13829" lon="2.99869">
        <ele>723.3</ele>
        <time>2025-08-31T12:49:19.000Z</time>
      </trkpt>
      <trkpt lat="44.13819" lon="2.99876">
        <ele>722.2</ele>
        <time>2025-08-31T12:49:23.000Z</time>
      </trkpt>
      <trkpt lat="44.13808" lon="2.99882">
        <ele>721.2</ele>
        <time>2025-08-31T12:49:27.000Z</time>
      </trkpt>
      <trkpt lat="44.13799" lon="2.99889">
        <ele>720.1</ele>
        <time>2025-08-31T12:49:31.000Z</time>
      </trkpt>
      <trkpt lat="44.13791" lon="2.99896">
        <ele>719.3</ele>
        <time>2025-08-31T12:49:34.000Z</time>
      </trkpt>
      <trkpt lat="44.13782" lon="2.999">
        <ele>718.5</ele>
        <time>2025-08-31T12:49:37.000Z</time>
      </trkpt>
      <trkpt lat="44.13772" lon="2.99907">
        <ele>717.5</ele>
        <time>2025-08-31T12:49:41.000Z</time>
      </trkpt>
      <trkpt lat="44.13762" lon="2.99913">
        <ele>716.5</ele>
        <time>2025-08-31T12:49:45.000Z</time>
      </trkpt>
      <trkpt lat="44.13752" lon="2.99917">
        <ele>715.4</ele>
        <time>2025-08-31T12:49:50.000Z</time>
      </trkpt>
      <trkpt lat="44.13743" lon="2.99917">
        <ele>714.6</ele>
        <time>2025-08-31T12:49:54.000Z</time>
      </trkpt>
      <trkpt lat="44.13732" lon="2.99921">
        <ele>713.8</ele>
        <time>2025-08-31T12:49:58.000Z</time>
      </trkpt>
      <trkpt lat="44.13722" lon="2.99923">
        <ele>712.8</ele>
        <time>2025-08-31T12:50:02.000Z</time>
      </trkpt>
      <trkpt lat="44.13712" lon="2.99924">
        <ele>711.9</ele>
        <time>2025-08-31T12:50:06.000Z</time>
      </trkpt>
      <trkpt lat="44.137" lon="2.99923">
        <ele>711</ele>
        <time>2025-08-31T12:50:10.000Z</time>
      </trkpt>
      <trkpt lat="44.1369" lon="2.99925">
        <ele>710.2</ele>
        <time>2025-08-31T12:50:13.000Z</time>
      </trkpt>
      <trkpt lat="44.13679" lon="2.99927">
        <ele>708.8</ele>
        <time>2025-08-31T12:50:18.000Z</time>
      </trkpt>
      <trkpt lat="44.13669" lon="2.99927">
        <ele>707.5</ele>
        <time>2025-08-31T12:50:23.000Z</time>
      </trkpt>
      <trkpt lat="44.1366" lon="2.99927">
        <ele>706.3</ele>
        <time>2025-08-31T12:50:28.000Z</time>
      </trkpt>
      <trkpt lat="44.1365" lon="2.99926">
        <ele>704.7</ele>
        <time>2025-08-31T12:50:34.000Z</time>
      </trkpt>
      <trkpt lat="44.13641" lon="2.99926">
        <ele>701.4</ele>
        <time>2025-08-31T12:50:58.000Z</time>
      </trkpt>
      <trkpt lat="44.13632" lon="2.99921">
        <ele>700.8</ele>
        <time>2025-08-31T12:51:03.000Z</time>
      </trkpt>
      <trkpt lat="44.13621" lon="2.99922">
        <ele>700</ele>
        <time>2025-08-31T12:51:08.000Z</time>
      </trkpt>
      <trkpt lat="44.13611" lon="2.99921">
        <ele>698.9</ele>
        <time>2025-08-31T12:51:13.000Z</time>
      </trkpt>
      <trkpt lat="44.13601" lon="2.99918">
        <ele>697.6</ele>
        <time>2025-08-31T12:51:18.000Z</time>
      </trkpt>
      <trkpt lat="44.13591" lon="2.99917">
        <ele>696.2</ele>
        <time>2025-08-31T12:51:23.000Z</time>
      </trkpt>
      <trkpt lat="44.13582" lon="2.9991">
        <ele>694.8</ele>
        <time>2025-08-31T12:51:28.000Z</time>
      </trkpt>
      <trkpt lat="44.13573" lon="2.99904">
        <ele>693.4</ele>
        <time>2025-08-31T12:51:34.000Z</time>
      </trkpt>
      <trkpt lat="44.13565" lon="2.99896">
        <ele>692.1</ele>
        <time>2025-08-31T12:51:39.000Z</time>
      </trkpt>
      <trkpt lat="44.13559" lon="2.99885">
        <ele>690.9</ele>
        <time>2025-08-31T12:51:44.000Z</time>
      </trkpt>
      <trkpt lat="44.13552" lon="2.99875">
        <ele>689.2</ele>
        <time>2025-08-31T12:51:50.000Z</time>
      </trkpt>
      <trkpt lat="44.13546" lon="2.99864">
        <ele>687.5</ele>
        <time>2025-08-31T12:51:56.000Z</time>
      </trkpt>
      <trkpt lat="44.13543" lon="2.99853">
        <ele>686.6</ele>
        <time>2025-08-31T12:52:00.000Z</time>
      </trkpt>
      <trkpt lat="44.13536" lon="2.99841">
        <ele>685.5</ele>
        <time>2025-08-31T12:52:05.000Z</time>
      </trkpt>
      <trkpt lat="44.13531" lon="2.99829">
        <ele>684.5</ele>
        <time>2025-08-31T12:52:10.000Z</time>
      </trkpt>
      <trkpt lat="44.13529" lon="2.99815">
        <ele>683.8</ele>
        <time>2025-08-31T12:52:14.000Z</time>
      </trkpt>
      <trkpt lat="44.13526" lon="2.99801">
        <ele>682.8</ele>
        <time>2025-08-31T12:52:20.000Z</time>
      </trkpt>
      <trkpt lat="44.13525" lon="2.99787">
        <ele>681.7</ele>
        <time>2025-08-31T12:52:26.000Z</time>
      </trkpt>
      <trkpt lat="44.13523" lon="2.99774">
        <ele>680.8</ele>
        <time>2025-08-31T12:52:31.000Z</time>
      </trkpt>
      <trkpt lat="44.13522" lon="2.99759">
        <ele>680.1</ele>
        <time>2025-08-31T12:52:36.000Z</time>
      </trkpt>
      <trkpt lat="44.13521" lon="2.99746">
        <ele>678.8</ele>
        <time>2025-08-31T12:52:43.000Z</time>
      </trkpt>
      <trkpt lat="44.13523" lon="2.9973">
        <ele>677.8</ele>
        <time>2025-08-31T12:52:49.000Z</time>
      </trkpt>
      <trkpt lat="44.13525" lon="2.99716">
        <ele>676.6</ele>
        <time>2025-08-31T12:52:55.000Z</time>
      </trkpt>
      <trkpt lat="44.13527" lon="2.99704">
        <ele>675.7</ele>
        <time>2025-08-31T12:53:00.000Z</time>
      </trkpt>
      <trkpt lat="44.13529" lon="2.99689">
        <ele>673.8</ele>
        <time>2025-08-31T12:53:16.000Z</time>
      </trkpt>
      <trkpt lat="44.13523" lon="2.99678">
        <ele>673.4</ele>
        <time>2025-08-31T12:53:21.000Z</time>
      </trkpt>
      <trkpt lat="44.13513" lon="2.99677">
        <ele>673</ele>
        <time>2025-08-31T12:53:26.000Z</time>
      </trkpt>
      <trkpt lat="44.13501" lon="2.99676">
        <ele>672.9</ele>
        <time>2025-08-31T12:53:29.000Z</time>
      </trkpt>
      <trkpt lat="44.13488" lon="2.99676">
        <ele>672.6</ele>
        <time>2025-08-31T12:53:32.000Z</time>
      </trkpt>
      <trkpt lat="44.13475" lon="2.99679">
        <ele>672.2</ele>
        <time>2025-08-31T12:53:35.000Z</time>
      </trkpt>
      <trkpt lat="44.13463" lon="2.99681">
        <ele>671.7</ele>
        <time>2025-08-31T12:53:38.000Z</time>
      </trkpt>
      <trkpt lat="44.1345" lon="2.99682">
        <ele>671.2</ele>
        <time>2025-08-31T12:53:41.000Z</time>
      </trkpt>
      <trkpt lat="44.13438" lon="2.99682">
        <ele>670.5</ele>
        <time>2025-08-31T12:53:44.000Z</time>
      </trkpt>
      <trkpt lat="44.13429" lon="2.99678">
        <ele>669.9</ele>
        <time>2025-08-31T12:53:47.000Z</time>
      </trkpt>
      <trkpt lat="44.13419" lon="2.99669">
        <ele>668.9</ele>
        <time>2025-08-31T12:53:51.000Z</time>
      </trkpt>
      <trkpt lat="44.13412" lon="2.99659">
        <ele>667.7</ele>
        <time>2025-08-31T12:53:55.000Z</time>
      </trkpt>
      <trkpt lat="44.13402" lon="2.99654">
        <ele>666.2</ele>
        <time>2025-08-31T12:54:01.000Z</time>
      </trkpt>
      <trkpt lat="44.13394" lon="2.99644">
        <ele>665.2</ele>
        <time>2025-08-31T12:54:07.000Z</time>
      </trkpt>
      <trkpt lat="44.13384" lon="2.99639">
        <ele>664.4</ele>
        <time>2025-08-31T12:54:11.000Z</time>
      </trkpt>
      <trkpt lat="44.13374" lon="2.99638">
        <ele>663.8</ele>
        <time>2025-08-31T12:54:14.000Z</time>
      </trkpt>
      <trkpt lat="44.13364" lon="2.99637">
        <ele>663</ele>
        <time>2025-08-31T12:54:18.000Z</time>
      </trkpt>
      <trkpt lat="44.13355" lon="2.99631">
        <ele>662.3</ele>
        <time>2025-08-31T12:54:22.000Z</time>
      </trkpt>
      <trkpt lat="44.13345" lon="2.99626">
        <ele>661.6</ele>
        <time>2025-08-31T12:54:27.000Z</time>
      </trkpt>
      <trkpt lat="44.13336" lon="2.9962">
        <ele>660.6</ele>
        <time>2025-08-31T12:54:32.000Z</time>
      </trkpt>
      <trkpt lat="44.13328" lon="2.99614">
        <ele>659.8</ele>
        <time>2025-08-31T12:54:36.000Z</time>
      </trkpt>
      <trkpt lat="44.1332" lon="2.99605">
        <ele>658.8</ele>
        <time>2025-08-31T12:54:41.000Z</time>
      </trkpt>
      <trkpt lat="44.13312" lon="2.99597">
        <ele>658</ele>
        <time>2025-08-31T12:54:45.000Z</time>
      </trkpt>
      <trkpt lat="44.13304" lon="2.99588">
        <ele>657.2</ele>
        <time>2025-08-31T12:54:49.000Z</time>
      </trkpt>
      <trkpt lat="44.13297" lon="2.99578">
        <ele>656.4</ele>
        <time>2025-08-31T12:54:53.000Z</time>
      </trkpt>
      <trkpt lat="44.13289" lon="2.99565">
        <ele>655.4</ele>
        <time>2025-08-31T12:54:57.000Z</time>
      </trkpt>
      <trkpt lat="44.13284" lon="2.99552">
        <ele>654.9</ele>
        <time>2025-08-31T12:55:00.000Z</time>
      </trkpt>
      <trkpt lat="44.13278" lon="2.9954">
        <ele>654.4</ele>
        <time>2025-08-31T12:55:03.000Z</time>
      </trkpt>
      <trkpt lat="44.13274" lon="2.99527">
        <ele>654</ele>
        <time>2025-08-31T12:55:06.000Z</time>
      </trkpt>
      <trkpt lat="44.13269" lon="2.99513">
        <ele>653.5</ele>
        <time>2025-08-31T12:55:10.000Z</time>
      </trkpt>
      <trkpt lat="44.13264" lon="2.99502">
        <ele>653.3</ele>
        <time>2025-08-31T12:55:13.000Z</time>
      </trkpt>
      <trkpt lat="44.13258" lon="2.99488">
        <ele>653.1</ele>
        <time>2025-08-31T12:55:16.000Z</time>
      </trkpt>
      <trkpt lat="44.13251" lon="2.99473">
        <ele>652.7</ele>
        <time>2025-08-31T12:55:19.000Z</time>
      </trkpt>
      <trkpt lat="44.13243" lon="2.99459">
        <ele>652.4</ele>
        <time>2025-08-31T12:55:22.000Z</time>
      </trkpt>
      <trkpt lat="44.13236" lon="2.99446">
        <ele>652.1</ele>
        <time>2025-08-31T12:55:25.000Z</time>
      </trkpt>
      <trkpt lat="44.13229" lon="2.99435">
        <ele>651.8</ele>
        <time>2025-08-31T12:55:28.000Z</time>
      </trkpt>
      <trkpt lat="44.13222" lon="2.99423">
        <ele>651.5</ele>
        <time>2025-08-31T12:55:31.000Z</time>
      </trkpt>
      <trkpt lat="44.13216" lon="2.99408">
        <ele>651</ele>
        <time>2025-08-31T12:55:34.000Z</time>
      </trkpt>
      <trkpt lat="44.13212" lon="2.99395">
        <ele>650.6</ele>
        <time>2025-08-31T12:55:37.000Z</time>
      </trkpt>
      <trkpt lat="44.13207" lon="2.99382">
        <ele>650</ele>
        <time>2025-08-31T12:55:41.000Z</time>
      </trkpt>
      <trkpt lat="44.13204" lon="2.99369">
        <ele>649.3</ele>
        <time>2025-08-31T12:55:45.000Z</time>
      </trkpt>
      <trkpt lat="44.132" lon="2.99356">
        <ele>648.7</ele>
        <time>2025-08-31T12:55:49.000Z</time>
      </trkpt>
      <trkpt lat="44.13196" lon="2.99344">
        <ele>648.3</ele>
        <time>2025-08-31T12:55:52.000Z</time>
      </trkpt>
      <trkpt lat="44.13192" lon="2.99332">
        <ele>647.8</ele>
        <time>2025-08-31T12:55:55.000Z</time>
      </trkpt>
      <trkpt lat="44.13189" lon="2.9932">
        <ele>647.2</ele>
        <time>2025-08-31T12:55:58.000Z</time>
      </trkpt>
      <trkpt lat="44.13186" lon="2.99305">
        <ele>646.4</ele>
        <time>2025-08-31T12:56:02.000Z</time>
      </trkpt>
      <trkpt lat="44.13184" lon="2.99291">
        <ele>645.9</ele>
        <time>2025-08-31T12:56:05.000Z</time>
      </trkpt>
      <trkpt lat="44.13183" lon="2.99277">
        <ele>645.5</ele>
        <time>2025-08-31T12:56:08.000Z</time>
      </trkpt>
      <trkpt lat="44.13182" lon="2.99263">
        <ele>645.1</ele>
        <time>2025-08-31T12:56:11.000Z</time>
      </trkpt>
      <trkpt lat="44.13182" lon="2.99249">
        <ele>644.6</ele>
        <time>2025-08-31T12:56:14.000Z</time>
      </trkpt>
      <trkpt lat="44.13181" lon="2.99235">
        <ele>644.1</ele>
        <time>2025-08-31T12:56:17.000Z</time>
      </trkpt>
      <trkpt lat="44.13182" lon="2.99221">
        <ele>643.6</ele>
        <time>2025-08-31T12:56:20.000Z</time>
      </trkpt>
      <trkpt lat="44.13183" lon="2.99209">
        <ele>642.8</ele>
        <time>2025-08-31T12:56:23.000Z</time>
      </trkpt>
      <trkpt lat="44.13182" lon="2.99196">
        <ele>641.2</ele>
        <time>2025-08-31T12:56:31.000Z</time>
      </trkpt>
      <trkpt lat="44.1318" lon="2.99183">
        <ele>640.3</ele>
        <time>2025-08-31T12:56:37.000Z</time>
      </trkpt>
      <trkpt lat="44.1318" lon="2.99165">
        <ele>639.9</ele>
        <time>2025-08-31T12:56:40.000Z</time>
      </trkpt>
      <trkpt lat="44.13181" lon="2.99152">
        <ele>639.6</ele>
        <time>2025-08-31T12:56:42.000Z</time>
      </trkpt>
      <trkpt lat="44.13181" lon="2.99139">
        <ele>639.2</ele>
        <time>2025-08-31T12:56:44.000Z</time>
      </trkpt>
      <trkpt lat="44.13183" lon="2.99125">
        <ele>638.8</ele>
        <time>2025-08-31T12:56:46.000Z</time>
      </trkpt>
      <trkpt lat="44.13185" lon="2.99112">
        <ele>638.3</ele>
        <time>2025-08-31T12:56:48.000Z</time>
      </trkpt>
      <trkpt lat="44.13188" lon="2.991">
        <ele>637.8</ele>
        <time>2025-08-31T12:56:50.000Z</time>
      </trkpt>
      <trkpt lat="44.1319" lon="2.99088">
        <ele>637.3</ele>
        <time>2025-08-31T12:56:52.000Z</time>
      </trkpt>
      <trkpt lat="44.13191" lon="2.99075">
        <ele>636.6</ele>
        <time>2025-08-31T12:56:55.000Z</time>
      </trkpt>
      <trkpt lat="44.13184" lon="2.99067">
        <ele>635.7</ele>
        <time>2025-08-31T12:56:59.000Z</time>
      </trkpt>
      <trkpt lat="44.13174" lon="2.99063">
        <ele>634.9</ele>
        <time>2025-08-31T12:57:03.000Z</time>
      </trkpt>
      <trkpt lat="44.13165" lon="2.99059">
        <ele>634.2</ele>
        <time>2025-08-31T12:57:06.000Z</time>
      </trkpt>
      <trkpt lat="44.13154" lon="2.99058">
        <ele>633.7</ele>
        <time>2025-08-31T12:57:09.000Z</time>
      </trkpt>
      <trkpt lat="44.13144" lon="2.99054">
        <ele>633.2</ele>
        <time>2025-08-31T12:57:12.000Z</time>
      </trkpt>
      <trkpt lat="44.13135" lon="2.99048">
        <ele>632.7</ele>
        <time>2025-08-31T12:57:16.000Z</time>
      </trkpt>
      <trkpt lat="44.13125" lon="2.99041">
        <ele>632.3</ele>
        <time>2025-08-31T12:57:20.000Z</time>
      </trkpt>
      <trkpt lat="44.13115" lon="2.99033">
        <ele>632.1</ele>
        <time>2025-08-31T12:57:24.000Z</time>
      </trkpt>
      <trkpt lat="44.13105" lon="2.99028">
        <ele>631.8</ele>
        <time>2025-08-31T12:57:28.000Z</time>
      </trkpt>
      <trkpt lat="44.13095" lon="2.99023">
        <ele>631.6</ele>
        <time>2025-08-31T12:57:31.000Z</time>
      </trkpt>
      <trkpt lat="44.13086" lon="2.99017">
        <ele>631.4</ele>
        <time>2025-08-31T12:57:34.000Z</time>
      </trkpt>
      <trkpt lat="44.13076" lon="2.99011">
        <ele>631.1</ele>
        <time>2025-08-31T12:57:37.000Z</time>
      </trkpt>
      <trkpt lat="44.13066" lon="2.99005">
        <ele>630.8</ele>
        <time>2025-08-31T12:57:40.000Z</time>
      </trkpt>
      <trkpt lat="44.13057" lon="2.98999">
        <ele>630.5</ele>
        <time>2025-08-31T12:57:43.000Z</time>
      </trkpt>
      <trkpt lat="44.13049" lon="2.98993">
        <ele>630.3</ele>
        <time>2025-08-31T12:57:46.000Z</time>
      </trkpt>
      <trkpt lat="44.13041" lon="2.98985">
        <ele>630.2</ele>
        <time>2025-08-31T12:57:49.000Z</time>
      </trkpt>
      <trkpt lat="44.13031" lon="2.9898">
        <ele>630</ele>
        <time>2025-08-31T12:57:53.000Z</time>
      </trkpt>
      <trkpt lat="44.13021" lon="2.98981">
        <ele>629.9</ele>
        <time>2025-08-31T12:57:56.000Z</time>
      </trkpt>
      <trkpt lat="44.1301" lon="2.98981">
        <ele>629.6</ele>
        <time>2025-08-31T12:57:59.000Z</time>
      </trkpt>
      <trkpt lat="44.12999" lon="2.98984">
        <ele>629.4</ele>
        <time>2025-08-31T12:58:02.000Z</time>
      </trkpt>
      <trkpt lat="44.12986" lon="2.98986">
        <ele>629.2</ele>
        <time>2025-08-31T12:58:05.000Z</time>
      </trkpt>
      <trkpt lat="44.12973" lon="2.98989">
        <ele>628.8</ele>
        <time>2025-08-31T12:58:08.000Z</time>
      </trkpt>
      <trkpt lat="44.12964" lon="2.98992">
        <ele>628.6</ele>
        <time>2025-08-31T12:58:10.000Z</time>
      </trkpt>
      <trkpt lat="44.12955" lon="2.98995">
        <ele>628.3</ele>
        <time>2025-08-31T12:58:12.000Z</time>
      </trkpt>
      <trkpt lat="44.12942" lon="2.98996">
        <ele>627.7</ele>
        <time>2025-08-31T12:58:15.000Z</time>
      </trkpt>
      <trkpt lat="44.12929" lon="2.98999">
        <ele>627.1</ele>
        <time>2025-08-31T12:58:18.000Z</time>
      </trkpt>
      <trkpt lat="44.12918" lon="2.99002">
        <ele>626.5</ele>
        <time>2025-08-31T12:58:21.000Z</time>
      </trkpt>
      <trkpt lat="44.12906" lon="2.99005">
        <ele>626</ele>
        <time>2025-08-31T12:58:24.000Z</time>
      </trkpt>
      <trkpt lat="44.12894" lon="2.99007">
        <ele>625.4</ele>
        <time>2025-08-31T12:58:27.000Z</time>
      </trkpt>
      <trkpt lat="44.12882" lon="2.99011">
        <ele>624.9</ele>
        <time>2025-08-31T12:58:30.000Z</time>
      </trkpt>
      <trkpt lat="44.12871" lon="2.99014">
        <ele>624.2</ele>
        <time>2025-08-31T12:58:33.000Z</time>
      </trkpt>
      <trkpt lat="44.12861" lon="2.99018">
        <ele>623.7</ele>
        <time>2025-08-31T12:58:36.000Z</time>
      </trkpt>
      <trkpt lat="44.12851" lon="2.99024">
        <ele>623.1</ele>
        <time>2025-08-31T12:58:39.000Z</time>
      </trkpt>
      <trkpt lat="44.12842" lon="2.9903">
        <ele>622.3</ele>
        <time>2025-08-31T12:58:42.000Z</time>
      </trkpt>
      <trkpt lat="44.12832" lon="2.99037">
        <ele>621.6</ele>
        <time>2025-08-31T12:58:45.000Z</time>
      </trkpt>
      <trkpt lat="44.12821" lon="2.99043">
        <ele>621</ele>
        <time>2025-08-31T12:58:48.000Z</time>
      </trkpt>
      <trkpt lat="44.1281" lon="2.99049">
        <ele>620.5</ele>
        <time>2025-08-31T12:58:51.000Z</time>
      </trkpt>
      <trkpt lat="44.128" lon="2.99056">
        <ele>619.6</ele>
        <time>2025-08-31T12:58:55.000Z</time>
      </trkpt>
      <trkpt lat="44.1279" lon="2.99063">
        <ele>618.6</ele>
        <time>2025-08-31T12:58:59.000Z</time>
      </trkpt>
      <trkpt lat="44.1278" lon="2.9907">
        <ele>617.5</ele>
        <time>2025-08-31T12:59:03.000Z</time>
      </trkpt>
      <trkpt lat="44.12772" lon="2.99074">
        <ele>616.5</ele>
        <time>2025-08-31T12:59:07.000Z</time>
      </trkpt>
      <trkpt lat="44.12762" lon="2.99076">
        <ele>615.6</ele>
        <time>2025-08-31T12:59:11.000Z</time>
      </trkpt>
      <trkpt lat="44.12752" lon="2.99079">
        <ele>614.8</ele>
        <time>2025-08-31T12:59:15.000Z</time>
      </trkpt>
      <trkpt lat="44.12742" lon="2.99082">
        <ele>613.8</ele>
        <time>2025-08-31T12:59:20.000Z</time>
      </trkpt>
      <trkpt lat="44.12733" lon="2.99082">
        <ele>613.2</ele>
        <time>2025-08-31T12:59:23.000Z</time>
      </trkpt>
      <trkpt lat="44.12722" lon="2.99083">
        <ele>612.2</ele>
        <time>2025-08-31T12:59:27.000Z</time>
      </trkpt>
      <trkpt lat="44.12711" lon="2.99086">
        <ele>611</ele>
        <time>2025-08-31T12:59:31.000Z</time>
      </trkpt>
      <trkpt lat="44.12701" lon="2.99087">
        <ele>609.7</ele>
        <time>2025-08-31T12:59:36.000Z</time>
      </trkpt>
      <trkpt lat="44.1269" lon="2.99087">
        <ele>608.5</ele>
        <time>2025-08-31T12:59:41.000Z</time>
      </trkpt>
      <trkpt lat="44.1268" lon="2.9909">
        <ele>607.3</ele>
        <time>2025-08-31T12:59:45.000Z</time>
      </trkpt>
      <trkpt lat="44.1267" lon="2.99092">
        <ele>606</ele>
        <time>2025-08-31T12:59:49.000Z</time>
      </trkpt>
      <trkpt lat="44.12659" lon="2.99093">
        <ele>604.7</ele>
        <time>2025-08-31T12:59:54.000Z</time>
      </trkpt>
      <trkpt lat="44.12647" lon="2.9909">
        <ele>603.6</ele>
        <time>2025-08-31T12:59:59.000Z</time>
      </trkpt>
      <trkpt lat="44.12638" lon="2.99091">
        <ele>603.1</ele>
        <time>2025-08-31T13:00:02.000Z</time>
      </trkpt>
      <trkpt lat="44.12629" lon="2.99092">
        <ele>602.1</ele>
        <time>2025-08-31T13:00:06.000Z</time>
      </trkpt>
      <trkpt lat="44.12616" lon="2.99091">
        <ele>601.1</ele>
        <time>2025-08-31T13:00:10.000Z</time>
      </trkpt>
      <trkpt lat="44.12606" lon="2.99088">
        <ele>600.4</ele>
        <time>2025-08-31T13:00:13.000Z</time>
      </trkpt>
      <trkpt lat="44.12595" lon="2.99086">
        <ele>599.8</ele>
        <time>2025-08-31T13:00:16.000Z</time>
      </trkpt>
      <trkpt lat="44.12586" lon="2.99084">
        <ele>599.3</ele>
        <time>2025-08-31T13:00:19.000Z</time>
      </trkpt>
      <trkpt lat="44.12576" lon="2.99082">
        <ele>598.8</ele>
        <time>2025-08-31T13:00:22.000Z</time>
      </trkpt>
      <trkpt lat="44.12567" lon="2.9908">
        <ele>598.3</ele>
        <time>2025-08-31T13:00:25.000Z</time>
      </trkpt>
      <trkpt lat="44.12558" lon="2.99079">
        <ele>597.8</ele>
        <time>2025-08-31T13:00:28.000Z</time>
      </trkpt>
      <trkpt lat="44.12548" lon="2.99077">
        <ele>596.8</ele>
        <time>2025-08-31T13:00:32.000Z</time>
      </trkpt>
      <trkpt lat="44.12539" lon="2.99077">
        <ele>596.2</ele>
        <time>2025-08-31T13:00:35.000Z</time>
      </trkpt>
      <trkpt lat="44.12528" lon="2.99075">
        <ele>595.7</ele>
        <time>2025-08-31T13:00:38.000Z</time>
      </trkpt>
      <trkpt lat="44.12517" lon="2.99074">
        <ele>595.3</ele>
        <time>2025-08-31T13:00:41.000Z</time>
      </trkpt>
      <trkpt lat="44.12506" lon="2.99072">
        <ele>594.9</ele>
        <time>2025-08-31T13:00:44.000Z</time>
      </trkpt>
      <trkpt lat="44.12496" lon="2.9907">
        <ele>594.4</ele>
        <time>2025-08-31T13:00:47.000Z</time>
      </trkpt>
      <trkpt lat="44.12484" lon="2.99067">
        <ele>593.8</ele>
        <time>2025-08-31T13:00:51.000Z</time>
      </trkpt>
      <trkpt lat="44.12474" lon="2.99066">
        <ele>593.4</ele>
        <time>2025-08-31T13:00:54.000Z</time>
      </trkpt>
      <trkpt lat="44.12465" lon="2.99063">
        <ele>593</ele>
        <time>2025-08-31T13:00:57.000Z</time>
      </trkpt>
      <trkpt lat="44.12456" lon="2.99061">
        <ele>592.5</ele>
        <time>2025-08-31T13:01:00.000Z</time>
      </trkpt>
      <trkpt lat="44.12446" lon="2.9906">
        <ele>592</ele>
        <time>2025-08-31T13:01:03.000Z</time>
      </trkpt>
      <trkpt lat="44.12436" lon="2.99058">
        <ele>591.6</ele>
        <time>2025-08-31T13:01:06.000Z</time>
      </trkpt>
      <trkpt lat="44.12425" lon="2.99055">
        <ele>591</ele>
        <time>2025-08-31T13:01:10.000Z</time>
      </trkpt>
      <trkpt lat="44.12413" lon="2.99053">
        <ele>590.1</ele>
        <time>2025-08-31T13:01:15.000Z</time>
      </trkpt>
      <trkpt lat="44.12404" lon="2.9905">
        <ele>589.4</ele>
        <time>2025-08-31T13:01:20.000Z</time>
      </trkpt>
      <trkpt lat="44.12392" lon="2.9905">
        <ele>588.3</ele>
        <time>2025-08-31T13:01:26.000Z</time>
      </trkpt>
      <trkpt lat="44.12382" lon="2.9905">
        <ele>587.4</ele>
        <time>2025-08-31T13:01:31.000Z</time>
      </trkpt>
      <trkpt lat="44.12372" lon="2.99049">
        <ele>586.4</ele>
        <time>2025-08-31T13:01:36.000Z</time>
      </trkpt>
      <trkpt lat="44.12362" lon="2.99044">
        <ele>585.4</ele>
        <time>2025-08-31T13:01:42.000Z</time>
      </trkpt>
      <trkpt lat="44.12352" lon="2.9904">
        <ele>584.4</ele>
        <time>2025-08-31T13:01:48.000Z</time>
      </trkpt>
      <trkpt lat="44.12343" lon="2.99035">
        <ele>583.6</ele>
        <time>2025-08-31T13:01:54.000Z</time>
      </trkpt>
      <trkpt lat="44.12334" lon="2.99036">
        <ele>583.2</ele>
        <time>2025-08-31T13:01:58.000Z</time>
      </trkpt>
      <trkpt lat="44.12322" lon="2.99036">
        <ele>582.8</ele>
        <time>2025-08-31T13:02:02.000Z</time>
      </trkpt>
      <trkpt lat="44.12312" lon="2.99035">
        <ele>582.5</ele>
        <time>2025-08-31T13:02:05.000Z</time>
      </trkpt>
      <trkpt lat="44.12299" lon="2.99036">
        <ele>582.2</ele>
        <time>2025-08-31T13:02:08.000Z</time>
      </trkpt>
      <trkpt lat="44.12289" lon="2.99036">
        <ele>582</ele>
        <time>2025-08-31T13:02:10.000Z</time>
      </trkpt>
      <trkpt lat="44.1228" lon="2.99034">
        <ele>581.8</ele>
        <time>2025-08-31T13:02:12.000Z</time>
      </trkpt>
      <trkpt lat="44.1227" lon="2.99032">
        <ele>581.6</ele>
        <time>2025-08-31T13:02:14.000Z</time>
      </trkpt>
      <trkpt lat="44.12261" lon="2.99029">
        <ele>581.3</ele>
        <time>2025-08-31T13:02:16.000Z</time>
      </trkpt>
      <trkpt lat="44.1225" lon="2.99025">
        <ele>581</ele>
        <time>2025-08-31T13:02:18.000Z</time>
      </trkpt>
      <trkpt lat="44.1224" lon="2.99023">
        <ele>580.7</ele>
        <time>2025-08-31T13:02:20.000Z</time>
      </trkpt>
      <trkpt lat="44.12231" lon="2.9902">
        <ele>580.4</ele>
        <time>2025-08-31T13:02:22.000Z</time>
      </trkpt>
      <trkpt lat="44.12222" lon="2.99017">
        <ele>580.2</ele>
        <time>2025-08-31T13:02:24.000Z</time>
      </trkpt>
      <trkpt lat="44.12209" lon="2.99012">
        <ele>579.8</ele>
        <time>2025-08-31T13:02:27.000Z</time>
      </trkpt>
      <trkpt lat="44.12199" lon="2.99008">
        <ele>579.4</ele>
        <time>2025-08-31T13:02:30.000Z</time>
      </trkpt>
      <trkpt lat="44.12188" lon="2.99005">
        <ele>579.1</ele>
        <time>2025-08-31T13:02:33.000Z</time>
      </trkpt>
      <trkpt lat="44.12179" lon="2.99009">
        <ele>574.1</ele>
        <time>2025-08-31T13:03:34.000Z</time>
      </trkpt>
      <trkpt lat="44.12174" lon="2.99023">
        <ele>573.6</ele>
        <time>2025-08-31T13:03:39.000Z</time>
      </trkpt>
      <trkpt lat="44.12169" lon="2.99034">
        <ele>573.1</ele>
        <time>2025-08-31T13:03:43.000Z</time>
      </trkpt>
      <trkpt lat="44.12161" lon="2.99043">
        <ele>572.7</ele>
        <time>2025-08-31T13:03:47.000Z</time>
      </trkpt>
      <trkpt lat="44.12157" lon="2.99054">
        <ele>572.3</ele>
        <time>2025-08-31T13:03:50.000Z</time>
      </trkpt>
      <trkpt lat="44.12151" lon="2.99064">
        <ele>571.9</ele>
        <time>2025-08-31T13:03:54.000Z</time>
      </trkpt>
      <trkpt lat="44.12142" lon="2.99072">
        <ele>571.5</ele>
        <time>2025-08-31T13:03:58.000Z</time>
      </trkpt>
      <trkpt lat="44.12133" lon="2.99075">
        <ele>571.2</ele>
        <time>2025-08-31T13:04:02.000Z</time>
      </trkpt>
      <trkpt lat="44.12123" lon="2.99079">
        <ele>570.9</ele>
        <time>2025-08-31T13:04:06.000Z</time>
      </trkpt>
      <trkpt lat="44.12112" lon="2.99081">
        <ele>570.6</ele>
        <time>2025-08-31T13:04:10.000Z</time>
      </trkpt>
      <trkpt lat="44.121" lon="2.99077">
        <ele>570.4</ele>
        <time>2025-08-31T13:04:14.000Z</time>
      </trkpt>
      <trkpt lat="44.12089" lon="2.99077">
        <ele>570.3</ele>
        <time>2025-08-31T13:04:18.000Z</time>
      </trkpt>
      <trkpt lat="44.12078" lon="2.99077">
        <ele>570.3</ele>
        <time>2025-08-31T13:04:21.000Z</time>
      </trkpt>
      <trkpt lat="44.12068" lon="2.99076">
        <ele>570.2</ele>
        <time>2025-08-31T13:04:24.000Z</time>
      </trkpt>
      <trkpt lat="44.12059" lon="2.99075">
        <ele>569.9</ele>
        <time>2025-08-31T13:04:27.000Z</time>
      </trkpt>
      <trkpt lat="44.12048" lon="2.99075">
        <ele>569.7</ele>
        <time>2025-08-31T13:04:31.000Z</time>
      </trkpt>
      <trkpt lat="44.12037" lon="2.99076">
        <ele>569.5</ele>
        <time>2025-08-31T13:04:35.000Z</time>
      </trkpt>
      <trkpt lat="44.12025" lon="2.99072">
        <ele>569.3</ele>
        <time>2025-08-31T13:04:38.000Z</time>
      </trkpt>
      <trkpt lat="44.12012" lon="2.99069">
        <ele>569.1</ele>
        <time>2025-08-31T13:04:41.000Z</time>
      </trkpt>
      <trkpt lat="44.11999" lon="2.99072">
        <ele>568.8</ele>
        <time>2025-08-31T13:04:44.000Z</time>
      </trkpt>
      <trkpt lat="44.11989" lon="2.99076">
        <ele>568.6</ele>
        <time>2025-08-31T13:04:46.000Z</time>
      </trkpt>
      <trkpt lat="44.11978" lon="2.9908">
        <ele>568.3</ele>
        <time>2025-08-31T13:04:48.000Z</time>
      </trkpt>
      <trkpt lat="44.11967" lon="2.99083">
        <ele>567.9</ele>
        <time>2025-08-31T13:04:50.000Z</time>
      </trkpt>
      <trkpt lat="44.11955" lon="2.99086">
        <ele>567.6</ele>
        <time>2025-08-31T13:04:52.000Z</time>
      </trkpt>
      <trkpt lat="44.11943" lon="2.99088">
        <ele>567.3</ele>
        <time>2025-08-31T13:04:54.000Z</time>
      </trkpt>
      <trkpt lat="44.11932" lon="2.9909">
        <ele>567</ele>
        <time>2025-08-31T13:04:56.000Z</time>
      </trkpt>
      <trkpt lat="44.1192" lon="2.99093">
        <ele>566.6</ele>
        <time>2025-08-31T13:04:58.000Z</time>
      </trkpt>
      <trkpt lat="44.11909" lon="2.99096">
        <ele>566.2</ele>
        <time>2025-08-31T13:05:00.000Z</time>
      </trkpt>
      <trkpt lat="44.11898" lon="2.991">
        <ele>565.8</ele>
        <time>2025-08-31T13:05:02.000Z</time>
      </trkpt>
      <trkpt lat="44.11887" lon="2.99103">
        <ele>565.4</ele>
        <time>2025-08-31T13:05:04.000Z</time>
      </trkpt>
      <trkpt lat="44.11877" lon="2.99106">
        <ele>565</ele>
        <time>2025-08-31T13:05:06.000Z</time>
      </trkpt>
      <trkpt lat="44.11866" lon="2.9911">
        <ele>564.6</ele>
        <time>2025-08-31T13:05:08.000Z</time>
      </trkpt>
      <trkpt lat="44.11854" lon="2.99113">
        <ele>564.2</ele>
        <time>2025-08-31T13:05:10.000Z</time>
      </trkpt>
      <trkpt lat="44.11843" lon="2.99117">
        <ele>563.8</ele>
        <time>2025-08-31T13:05:12.000Z</time>
      </trkpt>
      <trkpt lat="44.11832" lon="2.99122">
        <ele>563.4</ele>
        <time>2025-08-31T13:05:14.000Z</time>
      </trkpt>
      <trkpt lat="44.11821" lon="2.99126">
        <ele>563</ele>
        <time>2025-08-31T13:05:16.000Z</time>
      </trkpt>
      <trkpt lat="44.1181" lon="2.9913">
        <ele>562.7</ele>
        <time>2025-08-31T13:05:18.000Z</time>
      </trkpt>
      <trkpt lat="44.11799" lon="2.99135">
        <ele>562.3</ele>
        <time>2025-08-31T13:05:20.000Z</time>
      </trkpt>
      <trkpt lat="44.11789" lon="2.99138">
        <ele>561.9</ele>
        <time>2025-08-31T13:05:22.000Z</time>
      </trkpt>
      <trkpt lat="44.11779" lon="2.99141">
        <ele>561.5</ele>
        <time>2025-08-31T13:05:24.000Z</time>
      </trkpt>
      <trkpt lat="44.11769" lon="2.99144">
        <ele>561.1</ele>
        <time>2025-08-31T13:05:26.000Z</time>
      </trkpt>
      <trkpt lat="44.11759" lon="2.99148">
        <ele>560.8</ele>
        <time>2025-08-31T13:05:28.000Z</time>
      </trkpt>
      <trkpt lat="44.11749" lon="2.99153">
        <ele>560.5</ele>
        <time>2025-08-31T13:05:30.000Z</time>
      </trkpt>
      <trkpt lat="44.1174" lon="2.99158">
        <ele>560.1</ele>
        <time>2025-08-31T13:05:32.000Z</time>
      </trkpt>
      <trkpt lat="44.11731" lon="2.99163">
        <ele>559.8</ele>
        <time>2025-08-31T13:05:34.000Z</time>
      </trkpt>
      <trkpt lat="44.11722" lon="2.99167">
        <ele>559.5</ele>
        <time>2025-08-31T13:05:36.000Z</time>
      </trkpt>
      <trkpt lat="44.1171" lon="2.99173">
        <ele>559.1</ele>
        <time>2025-08-31T13:05:39.000Z</time>
      </trkpt>
      <trkpt lat="44.11699" lon="2.99179">
        <ele>558.8</ele>
        <time>2025-08-31T13:05:42.000Z</time>
      </trkpt>
      <trkpt lat="44.11688" lon="2.99185">
        <ele>558.3</ele>
        <time>2025-08-31T13:05:45.000Z</time>
      </trkpt>
      <trkpt lat="44.11677" lon="2.99192">
        <ele>557.9</ele>
        <time>2025-08-31T13:05:48.000Z</time>
      </trkpt>
      <trkpt lat="44.11665" lon="2.99199">
        <ele>557.5</ele>
        <time>2025-08-31T13:05:51.000Z</time>
      </trkpt>
      <trkpt lat="44.11653" lon="2.99208">
        <ele>557.2</ele>
        <time>2025-08-31T13:05:54.000Z</time>
      </trkpt>
      <trkpt lat="44.11642" lon="2.99216">
        <ele>556.9</ele>
        <time>2025-08-31T13:05:57.000Z</time>
      </trkpt>
      <trkpt lat="44.11633" lon="2.99226">
        <ele>556.6</ele>
        <time>2025-08-31T13:06:00.000Z</time>
      </trkpt>
      <trkpt lat="44.11625" lon="2.99237">
        <ele>556.3</ele>
        <time>2025-08-31T13:06:03.000Z</time>
      </trkpt>
      <trkpt lat="44.11615" lon="2.99244">
        <ele>556</ele>
        <time>2025-08-31T13:06:07.000Z</time>
      </trkpt>
      <trkpt lat="44.11606" lon="2.99253">
        <ele>555.8</ele>
        <time>2025-08-31T13:06:10.000Z</time>
      </trkpt>
      <trkpt lat="44.11595" lon="2.99261">
        <ele>555.6</ele>
        <time>2025-08-31T13:06:13.000Z</time>
      </trkpt>
      <trkpt lat="44.11587" lon="2.99267">
        <ele>555.4</ele>
        <time>2025-08-31T13:06:15.000Z</time>
      </trkpt>
      <trkpt lat="44.11579" lon="2.99272">
        <ele>555.3</ele>
        <time>2025-08-31T13:06:17.000Z</time>
      </trkpt>
      <trkpt lat="44.11569" lon="2.99279">
        <ele>555.1</ele>
        <time>2025-08-31T13:06:19.000Z</time>
      </trkpt>
      <trkpt lat="44.11558" lon="2.99286">
        <ele>554.7</ele>
        <time>2025-08-31T13:06:21.000Z</time>
      </trkpt>
      <trkpt lat="44.11546" lon="2.99292">
        <ele>554.3</ele>
        <time>2025-08-31T13:06:23.000Z</time>
      </trkpt>
      <trkpt lat="44.11534" lon="2.99298">
        <ele>553.9</ele>
        <time>2025-08-31T13:06:25.000Z</time>
      </trkpt>
      <trkpt lat="44.11522" lon="2.99303">
        <ele>553.5</ele>
        <time>2025-08-31T13:06:27.000Z</time>
      </trkpt>
      <trkpt lat="44.11511" lon="2.99305">
        <ele>553.2</ele>
        <time>2025-08-31T13:06:29.000Z</time>
      </trkpt>
      <trkpt lat="44.11502" lon="2.99306">
        <ele>552.8</ele>
        <time>2025-08-31T13:06:31.000Z</time>
      </trkpt>
      <trkpt lat="44.1149" lon="2.9931">
        <ele>552.3</ele>
        <time>2025-08-31T13:06:34.000Z</time>
      </trkpt>
      <trkpt lat="44.11477" lon="2.99315">
        <ele>551.8</ele>
        <time>2025-08-31T13:06:37.000Z</time>
      </trkpt>
      <trkpt lat="44.11468" lon="2.99319">
        <ele>551.5</ele>
        <time>2025-08-31T13:06:39.000Z</time>
      </trkpt>
      <trkpt lat="44.11458" lon="2.99323">
        <ele>551.2</ele>
        <time>2025-08-31T13:06:41.000Z</time>
      </trkpt>
      <trkpt lat="44.11447" lon="2.99329">
        <ele>550.8</ele>
        <time>2025-08-31T13:06:43.000Z</time>
      </trkpt>
      <trkpt lat="44.11437" lon="2.99336">
        <ele>550.4</ele>
        <time>2025-08-31T13:06:45.000Z</time>
      </trkpt>
      <trkpt lat="44.11427" lon="2.99342">
        <ele>550.1</ele>
        <time>2025-08-31T13:06:47.000Z</time>
      </trkpt>
      <trkpt lat="44.11417" lon="2.99346">
        <ele>549.7</ele>
        <time>2025-08-31T13:06:49.000Z</time>
      </trkpt>
      <trkpt lat="44.11407" lon="2.99351">
        <ele>549.3</ele>
        <time>2025-08-31T13:06:51.000Z</time>
      </trkpt>
      <trkpt lat="44.11397" lon="2.99355">
        <ele>548.9</ele>
        <time>2025-08-31T13:06:53.000Z</time>
      </trkpt>
      <trkpt lat="44.11388" lon="2.9936">
        <ele>548.4</ele>
        <time>2025-08-31T13:06:55.000Z</time>
      </trkpt>
      <trkpt lat="44.11376" lon="2.99366">
        <ele>547.8</ele>
        <time>2025-08-31T13:06:58.000Z</time>
      </trkpt>
      <trkpt lat="44.11365" lon="2.99371">
        <ele>547.3</ele>
        <time>2025-08-31T13:07:01.000Z</time>
      </trkpt>
      <trkpt lat="44.11355" lon="2.99379">
        <ele>546.8</ele>
        <time>2025-08-31T13:07:04.000Z</time>
      </trkpt>
      <trkpt lat="44.11346" lon="2.99384">
        <ele>546.6</ele>
        <time>2025-08-31T13:07:06.000Z</time>
      </trkpt>
      <trkpt lat="44.11336" lon="2.99393">
        <ele>546.2</ele>
        <time>2025-08-31T13:07:09.000Z</time>
      </trkpt>
      <trkpt lat="44.11326" lon="2.99401">
        <ele>546</ele>
        <time>2025-08-31T13:07:12.000Z</time>
      </trkpt>
      <trkpt lat="44.11319" lon="2.99408">
        <ele>545.4</ele>
        <time>2025-08-31T13:07:17.000Z</time>
      </trkpt>
      <trkpt lat="44.1131" lon="2.99415">
        <ele>543.9</ele>
        <time>2025-08-31T13:07:37.000Z</time>
      </trkpt>
      <trkpt lat="44.11301" lon="2.99421">
        <ele>543.7</ele>
        <time>2025-08-31T13:07:40.000Z</time>
      </trkpt>
      <trkpt lat="44.11293" lon="2.99431">
        <ele>543.5</ele>
        <time>2025-08-31T13:07:43.000Z</time>
      </trkpt>
      <trkpt lat="44.11284" lon="2.99441">
        <ele>543.2</ele>
        <time>2025-08-31T13:07:46.000Z</time>
      </trkpt>
      <trkpt lat="44.11277" lon="2.99453">
        <ele>542.9</ele>
        <time>2025-08-31T13:07:49.000Z</time>
      </trkpt>
      <trkpt lat="44.11271" lon="2.99467">
        <ele>542.7</ele>
        <time>2025-08-31T13:07:52.000Z</time>
      </trkpt>
      <trkpt lat="44.11268" lon="2.99482">
        <ele>542.4</ele>
        <time>2025-08-31T13:07:55.000Z</time>
      </trkpt>
      <trkpt lat="44.11265" lon="2.99499">
        <ele>542.1</ele>
        <time>2025-08-31T13:07:58.000Z</time>
      </trkpt>
      <trkpt lat="44.11264" lon="2.99515">
        <ele>541.9</ele>
        <time>2025-08-31T13:08:01.000Z</time>
      </trkpt>
      <trkpt lat="44.11262" lon="2.99532">
        <ele>541.6</ele>
        <time>2025-08-31T13:08:04.000Z</time>
      </trkpt>
      <trkpt lat="44.11258" lon="2.99545">
        <ele>541.5</ele>
        <time>2025-08-31T13:08:06.000Z</time>
      </trkpt>
      <trkpt lat="44.11251" lon="2.99558">
        <ele>541.2</ele>
        <time>2025-08-31T13:08:08.000Z</time>
      </trkpt>
      <trkpt lat="44.11242" lon="2.99567">
        <ele>541</ele>
        <time>2025-08-31T13:08:10.000Z</time>
      </trkpt>
      <trkpt lat="44.11232" lon="2.99576">
        <ele>540.9</ele>
        <time>2025-08-31T13:08:12.000Z</time>
      </trkpt>
      <trkpt lat="44.11222" lon="2.99584">
        <ele>540.7</ele>
        <time>2025-08-31T13:08:14.000Z</time>
      </trkpt>
      <trkpt lat="44.11212" lon="2.99591">
        <ele>540.4</ele>
        <time>2025-08-31T13:08:16.000Z</time>
      </trkpt>
      <trkpt lat="44.11203" lon="2.99598">
        <ele>540.2</ele>
        <time>2025-08-31T13:08:18.000Z</time>
      </trkpt>
      <trkpt lat="44.11193" lon="2.99608">
        <ele>539.8</ele>
        <time>2025-08-31T13:08:21.000Z</time>
      </trkpt>
      <trkpt lat="44.11184" lon="2.99616">
        <ele>539.4</ele>
        <time>2025-08-31T13:08:24.000Z</time>
      </trkpt>
      <trkpt lat="44.11175" lon="2.99623">
        <ele>539</ele>
        <time>2025-08-31T13:08:27.000Z</time>
      </trkpt>
      <trkpt lat="44.11166" lon="2.99622">
        <ele>538.6</ele>
        <time>2025-08-31T13:08:32.000Z</time>
      </trkpt>
      <trkpt lat="44.11157" lon="2.99612">
        <ele>538.4</ele>
        <time>2025-08-31T13:08:37.000Z</time>
      </trkpt>
      <trkpt lat="44.1115" lon="2.99602">
        <ele>538.4</ele>
        <time>2025-08-31T13:08:40.000Z</time>
      </trkpt>
      <trkpt lat="44.11144" lon="2.99591">
        <ele>538.3</ele>
        <time>2025-08-31T13:08:43.000Z</time>
      </trkpt>
      <trkpt lat="44.11137" lon="2.99579">
        <ele>538.2</ele>
        <time>2025-08-31T13:08:46.000Z</time>
      </trkpt>
      <trkpt lat="44.11129" lon="2.99567">
        <ele>538.2</ele>
        <time>2025-08-31T13:08:49.000Z</time>
      </trkpt>
      <trkpt lat="44.11121" lon="2.99553">
        <ele>538.1</ele>
        <time>2025-08-31T13:08:52.000Z</time>
      </trkpt>
      <trkpt lat="44.11114" lon="2.99544">
        <ele>537.9</ele>
        <time>2025-08-31T13:08:54.000Z</time>
      </trkpt>
      <trkpt lat="44.11107" lon="2.99536">
        <ele>537.8</ele>
        <time>2025-08-31T13:08:56.000Z</time>
      </trkpt>
      <trkpt lat="44.111" lon="2.99527">
        <ele>537.6</ele>
        <time>2025-08-31T13:08:58.000Z</time>
      </trkpt>
      <trkpt lat="44.11092" lon="2.9952">
        <ele>537.4</ele>
        <time>2025-08-31T13:09:00.000Z</time>
      </trkpt>
      <trkpt lat="44.11083" lon="2.99509">
        <ele>537.2</ele>
        <time>2025-08-31T13:09:03.000Z</time>
      </trkpt>
      <trkpt lat="44.11075" lon="2.995">
        <ele>537.1</ele>
        <time>2025-08-31T13:09:06.000Z</time>
      </trkpt>
      <trkpt lat="44.11066" lon="2.9949">
        <ele>536.9</ele>
        <time>2025-08-31T13:09:09.000Z</time>
      </trkpt>
      <trkpt lat="44.1106" lon="2.99481">
        <ele>536.7</ele>
        <time>2025-08-31T13:09:11.000Z</time>
      </trkpt>
      <trkpt lat="44.11052" lon="2.99471">
        <ele>536.6</ele>
        <time>2025-08-31T13:09:13.000Z</time>
      </trkpt>
      <trkpt lat="44.11044" lon="2.99461">
        <ele>536.3</ele>
        <time>2025-08-31T13:09:15.000Z</time>
      </trkpt>
      <trkpt lat="44.11035" lon="2.9945">
        <ele>536</ele>
        <time>2025-08-31T13:09:17.000Z</time>
      </trkpt>
      <trkpt lat="44.11026" lon="2.9944">
        <ele>535.7</ele>
        <time>2025-08-31T13:09:19.000Z</time>
      </trkpt>
      <trkpt lat="44.11016" lon="2.99433">
        <ele>535.5</ele>
        <time>2025-08-31T13:09:21.000Z</time>
      </trkpt>
      <trkpt lat="44.11004" lon="2.9943">
        <ele>535.2</ele>
        <time>2025-08-31T13:09:23.000Z</time>
      </trkpt>
      <trkpt lat="44.10993" lon="2.99427">
        <ele>534.9</ele>
        <time>2025-08-31T13:09:25.000Z</time>
      </trkpt>
      <trkpt lat="44.10982" lon="2.99426">
        <ele>534.6</ele>
        <time>2025-08-31T13:09:27.000Z</time>
      </trkpt>
      <trkpt lat="44.10971" lon="2.99426">
        <ele>534.4</ele>
        <time>2025-08-31T13:09:29.000Z</time>
      </trkpt>
      <trkpt lat="44.1096" lon="2.99425">
        <ele>534.1</ele>
        <time>2025-08-31T13:09:31.000Z</time>
      </trkpt>
      <trkpt lat="44.1095" lon="2.99424">
        <ele>533.9</ele>
        <time>2025-08-31T13:09:33.000Z</time>
      </trkpt>
      <trkpt lat="44.10939" lon="2.99421">
        <ele>533.7</ele>
        <time>2025-08-31T13:09:35.000Z</time>
      </trkpt>
      <trkpt lat="44.10928" lon="2.99418">
        <ele>533.4</ele>
        <time>2025-08-31T13:09:37.000Z</time>
      </trkpt>
      <trkpt lat="44.10917" lon="2.99415">
        <ele>533.2</ele>
        <time>2025-08-31T13:09:39.000Z</time>
      </trkpt>
      <trkpt lat="44.10907" lon="2.99413">
        <ele>533</ele>
        <time>2025-08-31T13:09:41.000Z</time>
      </trkpt>
      <trkpt lat="44.10897" lon="2.9941">
        <ele>532.9</ele>
        <time>2025-08-31T13:09:43.000Z</time>
      </trkpt>
      <trkpt lat="44.10886" lon="2.99407">
        <ele>532.6</ele>
        <time>2025-08-31T13:09:45.000Z</time>
      </trkpt>
      <trkpt lat="44.10876" lon="2.99404">
        <ele>532.4</ele>
        <time>2025-08-31T13:09:47.000Z</time>
      </trkpt>
      <trkpt lat="44.10865" lon="2.99403">
        <ele>532.2</ele>
        <time>2025-08-31T13:09:49.000Z</time>
      </trkpt>
      <trkpt lat="44.10853" lon="2.99401">
        <ele>531.9</ele>
        <time>2025-08-31T13:09:51.000Z</time>
      </trkpt>
      <trkpt lat="44.10842" lon="2.994">
        <ele>531.6</ele>
        <time>2025-08-31T13:09:53.000Z</time>
      </trkpt>
      <trkpt lat="44.1083" lon="2.99398">
        <ele>531.3</ele>
        <time>2025-08-31T13:09:55.000Z</time>
      </trkpt>
      <trkpt lat="44.10819" lon="2.99397">
        <ele>531</ele>
        <time>2025-08-31T13:09:57.000Z</time>
      </trkpt>
      <trkpt lat="44.10807" lon="2.99396">
        <ele>530.7</ele>
        <time>2025-08-31T13:09:59.000Z</time>
      </trkpt>
      <trkpt lat="44.10795" lon="2.99395">
        <ele>530.5</ele>
        <time>2025-08-31T13:10:01.000Z</time>
      </trkpt>
      <trkpt lat="44.10783" lon="2.99394">
        <ele>530.3</ele>
        <time>2025-08-31T13:10:03.000Z</time>
      </trkpt>
      <trkpt lat="44.10771" lon="2.99393">
        <ele>530.1</ele>
        <time>2025-08-31T13:10:05.000Z</time>
      </trkpt>
      <trkpt lat="44.1076" lon="2.99392">
        <ele>529.8</ele>
        <time>2025-08-31T13:10:07.000Z</time>
      </trkpt>
      <trkpt lat="44.10748" lon="2.99391">
        <ele>529.5</ele>
        <time>2025-08-31T13:10:09.000Z</time>
      </trkpt>
      <trkpt lat="44.10736" lon="2.9939">
        <ele>529.1</ele>
        <time>2025-08-31T13:10:11.000Z</time>
      </trkpt>
      <trkpt lat="44.10726" lon="2.99389">
        <ele>528.8</ele>
        <time>2025-08-31T13:10:13.000Z</time>
      </trkpt>
      <trkpt lat="44.10715" lon="2.99389">
        <ele>528.5</ele>
        <time>2025-08-31T13:10:15.000Z</time>
      </trkpt>
      <trkpt lat="44.10704" lon="2.99388">
        <ele>528.1</ele>
        <time>2025-08-31T13:10:17.000Z</time>
      </trkpt>
      <trkpt lat="44.10694" lon="2.99388">
        <ele>527.7</ele>
        <time>2025-08-31T13:10:19.000Z</time>
      </trkpt>
      <trkpt lat="44.10683" lon="2.99386">
        <ele>527.4</ele>
        <time>2025-08-31T13:10:21.000Z</time>
      </trkpt>
      <trkpt lat="44.10673" lon="2.99385">
        <ele>527.1</ele>
        <time>2025-08-31T13:10:23.000Z</time>
      </trkpt>
      <trkpt lat="44.10662" lon="2.99384">
        <ele>526.9</ele>
        <time>2025-08-31T13:10:25.000Z</time>
      </trkpt>
      <trkpt lat="44.10652" lon="2.99385">
        <ele>526.6</ele>
        <time>2025-08-31T13:10:27.000Z</time>
      </trkpt>
      <trkpt lat="44.10643" lon="2.99385">
        <ele>526.4</ele>
        <time>2025-08-31T13:10:29.000Z</time>
      </trkpt>
      <trkpt lat="44.10633" lon="2.99385">
        <ele>526.3</ele>
        <time>2025-08-31T13:10:31.000Z</time>
      </trkpt>
      <trkpt lat="44.10623" lon="2.99384">
        <ele>526</ele>
        <time>2025-08-31T13:10:33.000Z</time>
      </trkpt>
      <trkpt lat="44.10612" lon="2.99383">
        <ele>525.6</ele>
        <time>2025-08-31T13:10:35.000Z</time>
      </trkpt>
      <trkpt lat="44.10601" lon="2.99382">
        <ele>525.3</ele>
        <time>2025-08-31T13:10:37.000Z</time>
      </trkpt>
      <trkpt lat="44.1059" lon="2.99382">
        <ele>525.1</ele>
        <time>2025-08-31T13:10:39.000Z</time>
      </trkpt>
      <trkpt lat="44.10578" lon="2.99382">
        <ele>524.8</ele>
        <time>2025-08-31T13:10:41.000Z</time>
      </trkpt>
      <trkpt lat="44.10567" lon="2.99381">
        <ele>524.6</ele>
        <time>2025-08-31T13:10:43.000Z</time>
      </trkpt>
      <trkpt lat="44.10555" lon="2.9938">
        <ele>524.4</ele>
        <time>2025-08-31T13:10:45.000Z</time>
      </trkpt>
      <trkpt lat="44.10544" lon="2.99378">
        <ele>524.3</ele>
        <time>2025-08-31T13:10:47.000Z</time>
      </trkpt>
      <trkpt lat="44.10532" lon="2.99378">
        <ele>524.1</ele>
        <time>2025-08-31T13:10:49.000Z</time>
      </trkpt>
      <trkpt lat="44.10521" lon="2.99378">
        <ele>523.9</ele>
        <time>2025-08-31T13:10:51.000Z</time>
      </trkpt>
      <trkpt lat="44.10508" lon="2.99378">
        <ele>523.6</ele>
        <time>2025-08-31T13:10:53.000Z</time>
      </trkpt>
      <trkpt lat="44.10496" lon="2.9938">
        <ele>523.3</ele>
        <time>2025-08-31T13:10:55.000Z</time>
      </trkpt>
      <trkpt lat="44.10485" lon="2.99383">
        <ele>523</ele>
        <time>2025-08-31T13:10:57.000Z</time>
      </trkpt>
      <trkpt lat="44.10475" lon="2.99385">
        <ele>522.7</ele>
        <time>2025-08-31T13:10:59.000Z</time>
      </trkpt>
      <trkpt lat="44.10463" lon="2.99386">
        <ele>522.5</ele>
        <time>2025-08-31T13:11:01.000Z</time>
      </trkpt>
      <trkpt lat="44.10452" lon="2.99388">
        <ele>522.2</ele>
        <time>2025-08-31T13:11:03.000Z</time>
      </trkpt>
      <trkpt lat="44.10442" lon="2.99391">
        <ele>522</ele>
        <time>2025-08-31T13:11:05.000Z</time>
      </trkpt>
      <trkpt lat="44.10431" lon="2.99393">
        <ele>521.8</ele>
        <time>2025-08-31T13:11:07.000Z</time>
      </trkpt>
      <trkpt lat="44.1042" lon="2.99395">
        <ele>521.7</ele>
        <time>2025-08-31T13:11:09.000Z</time>
      </trkpt>
      <trkpt lat="44.10409" lon="2.99397">
        <ele>521.5</ele>
        <time>2025-08-31T13:11:11.000Z</time>
      </trkpt>
      <trkpt lat="44.10399" lon="2.99399">
        <ele>521.4</ele>
        <time>2025-08-31T13:11:13.000Z</time>
      </trkpt>
      <trkpt lat="44.10388" lon="2.994">
        <ele>521.2</ele>
        <time>2025-08-31T13:11:15.000Z</time>
      </trkpt>
      <trkpt lat="44.10379" lon="2.99404">
        <ele>521</ele>
        <time>2025-08-31T13:11:17.000Z</time>
      </trkpt>
      <trkpt lat="44.10369" lon="2.99406">
        <ele>520.8</ele>
        <time>2025-08-31T13:11:19.000Z</time>
      </trkpt>
      <trkpt lat="44.10359" lon="2.99408">
        <ele>520.6</ele>
        <time>2025-08-31T13:11:21.000Z</time>
      </trkpt>
      <trkpt lat="44.10349" lon="2.9941">
        <ele>520.4</ele>
        <time>2025-08-31T13:11:23.000Z</time>
      </trkpt>
      <trkpt lat="44.1034" lon="2.99413">
        <ele>520.3</ele>
        <time>2025-08-31T13:11:25.000Z</time>
      </trkpt>
      <trkpt lat="44.1033" lon="2.99416">
        <ele>520.3</ele>
        <time>2025-08-31T13:11:27.000Z</time>
      </trkpt>
      <trkpt lat="44.10321" lon="2.99418">
        <ele>520.3</ele>
        <time>2025-08-31T13:11:29.000Z</time>
      </trkpt>
      <trkpt lat="44.10311" lon="2.99421">
        <ele>520.2</ele>
        <time>2025-08-31T13:11:31.000Z</time>
      </trkpt>
      <trkpt lat="44.10302" lon="2.99422">
        <ele>520.2</ele>
        <time>2025-08-31T13:11:33.000Z</time>
      </trkpt>
      <trkpt lat="44.10293" lon="2.99424">
        <ele>520.1</ele>
        <time>2025-08-31T13:11:35.000Z</time>
      </trkpt>
      <trkpt lat="44.10283" lon="2.99426">
        <ele>520</ele>
        <time>2025-08-31T13:11:37.000Z</time>
      </trkpt>
      <trkpt lat="44.10273" lon="2.99428">
        <ele>519.9</ele>
        <time>2025-08-31T13:11:39.000Z</time>
      </trkpt>
      <trkpt lat="44.10264" lon="2.9943">
        <ele>519.9</ele>
        <time>2025-08-31T13:11:41.000Z</time>
      </trkpt>
      <trkpt lat="44.10254" lon="2.99432">
        <ele>519.9</ele>
        <time>2025-08-31T13:11:43.000Z</time>
      </trkpt>
      <trkpt lat="44.10245" lon="2.99434">
        <ele>519.8</ele>
        <time>2025-08-31T13:11:45.000Z</time>
      </trkpt>
      <trkpt lat="44.10236" lon="2.99436">
        <ele>519.7</ele>
        <time>2025-08-31T13:11:47.000Z</time>
      </trkpt>
      <trkpt lat="44.10226" lon="2.99438">
        <ele>519.6</ele>
        <time>2025-08-31T13:11:49.000Z</time>
      </trkpt>
      <trkpt lat="44.10217" lon="2.99441">
        <ele>519.5</ele>
        <time>2025-08-31T13:11:51.000Z</time>
      </trkpt>
      <trkpt lat="44.10208" lon="2.99445">
        <ele>519.3</ele>
        <time>2025-08-31T13:11:53.000Z</time>
      </trkpt>
      <trkpt lat="44.10198" lon="2.99449">
        <ele>519.1</ele>
        <time>2025-08-31T13:11:55.000Z</time>
      </trkpt>
      <trkpt lat="44.10189" lon="2.99453">
        <ele>518.9</ele>
        <time>2025-08-31T13:11:57.000Z</time>
      </trkpt>
      <trkpt lat="44.10179" lon="2.99458">
        <ele>518.8</ele>
        <time>2025-08-31T13:11:59.000Z</time>
      </trkpt>
      <trkpt lat="44.1017" lon="2.99462">
        <ele>518.6</ele>
        <time>2025-08-31T13:12:01.000Z</time>
      </trkpt>
      <trkpt lat="44.10161" lon="2.99467">
        <ele>518.3</ele>
        <time>2025-08-31T13:12:03.000Z</time>
      </trkpt>
      <trkpt lat="44.10152" lon="2.99472">
        <ele>518.1</ele>
        <time>2025-08-31T13:12:05.000Z</time>
      </trkpt>
      <trkpt lat="44.10144" lon="2.99478">
        <ele>517.9</ele>
        <time>2025-08-31T13:12:07.000Z</time>
      </trkpt>
      <trkpt lat="44.10136" lon="2.99485">
        <ele>517.7</ele>
        <time>2025-08-31T13:12:09.000Z</time>
      </trkpt>
      <trkpt lat="44.10125" lon="2.99495">
        <ele>517.5</ele>
        <time>2025-08-31T13:12:12.000Z</time>
      </trkpt>
      <trkpt lat="44.10117" lon="2.99501">
        <ele>517.4</ele>
        <time>2025-08-31T13:12:14.000Z</time>
      </trkpt>
      <trkpt lat="44.10109" lon="2.99509">
        <ele>517.3</ele>
        <time>2025-08-31T13:12:16.000Z</time>
      </trkpt>
      <trkpt lat="44.10101" lon="2.99516">
        <ele>517.3</ele>
        <time>2025-08-31T13:12:18.000Z</time>
      </trkpt>
      <trkpt lat="44.10091" lon="2.99529">
        <ele>517.2</ele>
        <time>2025-08-31T13:12:21.000Z</time>
      </trkpt>
      <trkpt lat="44.10083" lon="2.99542">
        <ele>517.2</ele>
        <time>2025-08-31T13:12:24.000Z</time>
      </trkpt>
      <trkpt lat="44.10075" lon="2.99557">
        <ele>517.1</ele>
        <time>2025-08-31T13:12:27.000Z</time>
      </trkpt>
      <trkpt lat="44.10069" lon="2.99569">
        <ele>517</ele>
        <time>2025-08-31T13:12:30.000Z</time>
      </trkpt>
      <trkpt lat="44.10063" lon="2.99579">
        <ele>517</ele>
        <time>2025-08-31T13:12:33.000Z</time>
      </trkpt>
      <trkpt lat="44.10055" lon="2.99588">
        <ele>517</ele>
        <time>2025-08-31T13:12:36.000Z</time>
      </trkpt>
      <trkpt lat="44.10045" lon="2.99595">
        <ele>517</ele>
        <time>2025-08-31T13:12:39.000Z</time>
      </trkpt>
      <trkpt lat="44.10034" lon="2.996">
        <ele>517</ele>
        <time>2025-08-31T13:12:42.000Z</time>
      </trkpt>
      <trkpt lat="44.10023" lon="2.99604">
        <ele>516.9</ele>
        <time>2025-08-31T13:12:45.000Z</time>
      </trkpt>
      <trkpt lat="44.10011" lon="2.9961">
        <ele>516.9</ele>
        <time>2025-08-31T13:12:48.000Z</time>
      </trkpt>
      <trkpt lat="44.09999" lon="2.99615">
        <ele>516.9</ele>
        <time>2025-08-31T13:12:51.000Z</time>
      </trkpt>
      <trkpt lat="44.09986" lon="2.99621">
        <ele>516.7</ele>
        <time>2025-08-31T13:12:54.000Z</time>
      </trkpt>
      <trkpt lat="44.09974" lon="2.99625">
        <ele>516.6</ele>
        <time>2025-08-31T13:12:57.000Z</time>
      </trkpt>
      <trkpt lat="44.09964" lon="2.99626">
        <ele>516.5</ele>
        <time>2025-08-31T13:12:59.000Z</time>
      </trkpt>
      <trkpt lat="44.09954" lon="2.99628">
        <ele>516.4</ele>
        <time>2025-08-31T13:13:01.000Z</time>
      </trkpt>
      <trkpt lat="44.09943" lon="2.9963">
        <ele>516.3</ele>
        <time>2025-08-31T13:13:03.000Z</time>
      </trkpt>
      <trkpt lat="44.09933" lon="2.99632">
        <ele>516.1</ele>
        <time>2025-08-31T13:13:05.000Z</time>
      </trkpt>
      <trkpt lat="44.09921" lon="2.99634">
        <ele>515.9</ele>
        <time>2025-08-31T13:13:07.000Z</time>
      </trkpt>
      <trkpt lat="44.0991" lon="2.99637">
        <ele>515.7</ele>
        <time>2025-08-31T13:13:09.000Z</time>
      </trkpt>
      <trkpt lat="44.09898" lon="2.99641">
        <ele>515.4</ele>
        <time>2025-08-31T13:13:11.000Z</time>
      </trkpt>
      <trkpt lat="44.09887" lon="2.99647">
        <ele>515.1</ele>
        <time>2025-08-31T13:13:13.000Z</time>
      </trkpt>
      <trkpt lat="44.09876" lon="2.99654">
        <ele>514.8</ele>
        <time>2025-08-31T13:13:15.000Z</time>
      </trkpt>
      <trkpt lat="44.09865" lon="2.99661">
        <ele>514.5</ele>
        <time>2025-08-31T13:13:17.000Z</time>
      </trkpt>
      <trkpt lat="44.09854" lon="2.99667">
        <ele>514.2</ele>
        <time>2025-08-31T13:13:19.000Z</time>
      </trkpt>
      <trkpt lat="44.09843" lon="2.99671">
        <ele>513.7</ele>
        <time>2025-08-31T13:13:21.000Z</time>
      </trkpt>
      <trkpt lat="44.0983" lon="2.99672">
        <ele>513.2</ele>
        <time>2025-08-31T13:13:23.000Z</time>
      </trkpt>
      <trkpt lat="44.09814" lon="2.99671">
        <ele>512.8</ele>
        <time>2025-08-31T13:13:25.000Z</time>
      </trkpt>
      <trkpt lat="44.09797" lon="2.99669">
        <ele>512.2</ele>
        <time>2025-08-31T13:13:27.000Z</time>
      </trkpt>
      <trkpt lat="44.09787" lon="2.99668">
        <ele>511.7</ele>
        <time>2025-08-31T13:13:28.000Z</time>
      </trkpt>
      <trkpt lat="44.09777" lon="2.99666">
        <ele>511.2</ele>
        <time>2025-08-31T13:13:29.000Z</time>
      </trkpt>
      <trkpt lat="44.09767" lon="2.99665">
        <ele>510.8</ele>
        <time>2025-08-31T13:13:30.000Z</time>
      </trkpt>
      <trkpt lat="44.09757" lon="2.99663">
        <ele>510.3</ele>
        <time>2025-08-31T13:13:31.000Z</time>
      </trkpt>
      <trkpt lat="44.09746" lon="2.99662">
        <ele>509.8</ele>
        <time>2025-08-31T13:13:32.000Z</time>
      </trkpt>
      <trkpt lat="44.09735" lon="2.9966">
        <ele>509.2</ele>
        <time>2025-08-31T13:13:33.000Z</time>
      </trkpt>
      <trkpt lat="44.09725" lon="2.99659">
        <ele>508.5</ele>
        <time>2025-08-31T13:13:34.000Z</time>
      </trkpt>
      <trkpt lat="44.09714" lon="2.99657">
        <ele>507.9</ele>
        <time>2025-08-31T13:13:35.000Z</time>
      </trkpt>
      <trkpt lat="44.09703" lon="2.99656">
        <ele>507.2</ele>
        <time>2025-08-31T13:13:36.000Z</time>
      </trkpt>
      <trkpt lat="44.09693" lon="2.99655">
        <ele>506.5</ele>
        <time>2025-08-31T13:13:37.000Z</time>
      </trkpt>
      <trkpt lat="44.09682" lon="2.99654">
        <ele>505.8</ele>
        <time>2025-08-31T13:13:38.000Z</time>
      </trkpt>
      <trkpt lat="44.09672" lon="2.99653">
        <ele>505.2</ele>
        <time>2025-08-31T13:13:39.000Z</time>
      </trkpt>
      <trkpt lat="44.09662" lon="2.99652">
        <ele>504.5</ele>
        <time>2025-08-31T13:13:40.000Z</time>
      </trkpt>
      <trkpt lat="44.09653" lon="2.99651">
        <ele>503.8</ele>
        <time>2025-08-31T13:13:41.000Z</time>
      </trkpt>
      <trkpt lat="44.09636" lon="2.9965">
        <ele>502.6</ele>
        <time>2025-08-31T13:13:43.000Z</time>
      </trkpt>
      <trkpt lat="44.0962" lon="2.99648">
        <ele>501.6</ele>
        <time>2025-08-31T13:13:45.000Z</time>
      </trkpt>
      <trkpt lat="44.09606" lon="2.99642">
        <ele>500.6</ele>
        <time>2025-08-31T13:13:47.000Z</time>
      </trkpt>
      <trkpt lat="44.09594" lon="2.99634">
        <ele>499.6</ele>
        <time>2025-08-31T13:13:49.000Z</time>
      </trkpt>
      <trkpt lat="44.09583" lon="2.99627">
        <ele>498.7</ele>
        <time>2025-08-31T13:13:51.000Z</time>
      </trkpt>
      <trkpt lat="44.09572" lon="2.9962">
        <ele>497.9</ele>
        <time>2025-08-31T13:13:53.000Z</time>
      </trkpt>
      <trkpt lat="44.0956" lon="2.99615">
        <ele>497.2</ele>
        <time>2025-08-31T13:13:55.000Z</time>
      </trkpt>
      <trkpt lat="44.09546" lon="2.99615">
        <ele>496.5</ele>
        <time>2025-08-31T13:13:57.000Z</time>
      </trkpt>
      <trkpt lat="44.09531" lon="2.99617">
        <ele>495.6</ele>
        <time>2025-08-31T13:13:59.000Z</time>
      </trkpt>
      <trkpt lat="44.09514" lon="2.9962">
        <ele>494.7</ele>
        <time>2025-08-31T13:14:01.000Z</time>
      </trkpt>
      <trkpt lat="44.09499" lon="2.99624">
        <ele>493.8</ele>
        <time>2025-08-31T13:14:03.000Z</time>
      </trkpt>
      <trkpt lat="44.09488" lon="2.99627">
        <ele>492.8</ele>
        <time>2025-08-31T13:14:05.000Z</time>
      </trkpt>
      <trkpt lat="44.09478" lon="2.99631">
        <ele>491.2</ele>
        <time>2025-08-31T13:14:08.000Z</time>
      </trkpt>
      <trkpt lat="44.09478" lon="2.99634">
        <ele>482.7</ele>
        <time>2025-08-31T13:14:40.000Z</time>
      </trkpt>
      <trkpt lat="44.09471" lon="2.99647">
        <ele>480.2</ele>
        <time>2025-08-31T13:15:09.000Z</time>
      </trkpt>
      <trkpt lat="44.09465" lon="2.99659">
        <ele>479.4</ele>
        <time>2025-08-31T13:15:12.000Z</time>
      </trkpt>
      <trkpt lat="44.09459" lon="2.99671">
        <ele>478.3</ele>
        <time>2025-08-31T13:15:15.000Z</time>
      </trkpt>
      <trkpt lat="44.09452" lon="2.99681">
        <ele>477.3</ele>
        <time>2025-08-31T13:15:18.000Z</time>
      </trkpt>
      <trkpt lat="44.09446" lon="2.99694">
        <ele>476.2</ele>
        <time>2025-08-31T13:15:21.000Z</time>
      </trkpt>
      <trkpt lat="44.09441" lon="2.99711">
        <ele>475.1</ele>
        <time>2025-08-31T13:15:24.000Z</time>
      </trkpt>
      <trkpt lat="44.09437" lon="2.99724">
        <ele>474.4</ele>
        <time>2025-08-31T13:15:26.000Z</time>
      </trkpt>
      <trkpt lat="44.09434" lon="2.99738">
        <ele>473.6</ele>
        <time>2025-08-31T13:15:28.000Z</time>
      </trkpt>
      <trkpt lat="44.09432" lon="2.99753">
        <ele>472.9</ele>
        <time>2025-08-31T13:15:30.000Z</time>
      </trkpt>
      <trkpt lat="44.09424" lon="2.99763">
        <ele>472</ele>
        <time>2025-08-31T13:15:33.000Z</time>
      </trkpt>
      <trkpt lat="44.09416" lon="2.99769">
        <ele>471.2</ele>
        <time>2025-08-31T13:15:36.000Z</time>
      </trkpt>
      <trkpt lat="44.09406" lon="2.99775">
        <ele>470.5</ele>
        <time>2025-08-31T13:15:39.000Z</time>
      </trkpt>
      <trkpt lat="44.09394" lon="2.99781">
        <ele>470</ele>
        <time>2025-08-31T13:15:42.000Z</time>
      </trkpt>
      <trkpt lat="44.09383" lon="2.99785">
        <ele>469.7</ele>
        <time>2025-08-31T13:15:45.000Z</time>
      </trkpt>
      <trkpt lat="44.09372" lon="2.99786">
        <ele>469.5</ele>
        <time>2025-08-31T13:15:48.000Z</time>
      </trkpt>
      <trkpt lat="44.09362" lon="2.99786">
        <ele>469.4</ele>
        <time>2025-08-31T13:15:51.000Z</time>
      </trkpt>
      <trkpt lat="44.09351" lon="2.99785">
        <ele>469.3</ele>
        <time>2025-08-31T13:15:54.000Z</time>
      </trkpt>
      <trkpt lat="44.09341" lon="2.99781">
        <ele>469</ele>
        <time>2025-08-31T13:15:57.000Z</time>
      </trkpt>
      <trkpt lat="44.09331" lon="2.9978">
        <ele>468.7</ele>
        <time>2025-08-31T13:16:01.000Z</time>
      </trkpt>
      <trkpt lat="44.09321" lon="2.99778">
        <ele>468.2</ele>
        <time>2025-08-31T13:16:08.000Z</time>
      </trkpt>
      <trkpt lat="44.09311" lon="2.99782">
        <ele>467.9</ele>
        <time>2025-08-31T13:16:13.000Z</time>
      </trkpt>
      <trkpt lat="44.09302" lon="2.99787">
        <ele>467.5</ele>
        <time>2025-08-31T13:16:16.000Z</time>
      </trkpt>
      <trkpt lat="44.09293" lon="2.99796">
        <ele>467.1</ele>
        <time>2025-08-31T13:16:19.000Z</time>
      </trkpt>
      <trkpt lat="44.09286" lon="2.99805">
        <ele>466.8</ele>
        <time>2025-08-31T13:16:22.000Z</time>
      </trkpt>
      <trkpt lat="44.09283" lon="2.99818">
        <ele>466.5</ele>
        <time>2025-08-31T13:16:25.000Z</time>
      </trkpt>
      <trkpt lat="44.09281" lon="2.99832">
        <ele>466.2</ele>
        <time>2025-08-31T13:16:28.000Z</time>
      </trkpt>
      <trkpt lat="44.09279" lon="2.99844">
        <ele>465.8</ele>
        <time>2025-08-31T13:16:31.000Z</time>
      </trkpt>
      <trkpt lat="44.09276" lon="2.99857">
        <ele>465.2</ele>
        <time>2025-08-31T13:16:35.000Z</time>
      </trkpt>
      <trkpt lat="44.09267" lon="2.99854">
        <ele>464.5</ele>
        <time>2025-08-31T13:16:39.000Z</time>
      </trkpt>
      <trkpt lat="44.09259" lon="2.99842">
        <ele>464</ele>
        <time>2025-08-31T13:16:43.000Z</time>
      </trkpt>
      <trkpt lat="44.09253" lon="2.99833">
        <ele>463.7</ele>
        <time>2025-08-31T13:16:46.000Z</time>
      </trkpt>
      <trkpt lat="44.09248" lon="2.99822">
        <ele>463.4</ele>
        <time>2025-08-31T13:16:49.000Z</time>
      </trkpt>
      <trkpt lat="44.09242" lon="2.99811">
        <ele>463.2</ele>
        <time>2025-08-31T13:16:52.000Z</time>
      </trkpt>
      <trkpt lat="44.09237" lon="2.99799">
        <ele>463</ele>
        <time>2025-08-31T13:16:55.000Z</time>
      </trkpt>
      <trkpt lat="44.0923" lon="2.99787">
        <ele>462.8</ele>
        <time>2025-08-31T13:16:58.000Z</time>
      </trkpt>
      <trkpt lat="44.09224" lon="2.99774">
        <ele>462.6</ele>
        <time>2025-08-31T13:17:01.000Z</time>
      </trkpt>
      <trkpt lat="44.09218" lon="2.9976">
        <ele>462.5</ele>
        <time>2025-08-31T13:17:04.000Z</time>
      </trkpt>
      <trkpt lat="44.09212" lon="2.99744">
        <ele>462.4</ele>
        <time>2025-08-31T13:17:07.000Z</time>
      </trkpt>
      <trkpt lat="44.09207" lon="2.99728">
        <ele>462.2</ele>
        <time>2025-08-31T13:17:10.000Z</time>
      </trkpt>
      <trkpt lat="44.09205" lon="2.99711">
        <ele>462.1</ele>
        <time>2025-08-31T13:17:13.000Z</time>
      </trkpt>
      <trkpt lat="44.09206" lon="2.99698">
        <ele>462.1</ele>
        <time>2025-08-31T13:17:15.000Z</time>
      </trkpt>
      <trkpt lat="44.09207" lon="2.99685">
        <ele>462</ele>
        <time>2025-08-31T13:17:17.000Z</time>
      </trkpt>
      <trkpt lat="44.09208" lon="2.99673">
        <ele>461.9</ele>
        <time>2025-08-31T13:17:19.000Z</time>
      </trkpt>
      <trkpt lat="44.09209" lon="2.99655">
        <ele>461.9</ele>
        <time>2025-08-31T13:17:22.000Z</time>
      </trkpt>
      <trkpt lat="44.0921" lon="2.9964">
        <ele>461.9</ele>
        <time>2025-08-31T13:17:25.000Z</time>
      </trkpt>
      <trkpt lat="44.09213" lon="2.99625">
        <ele>462.2</ele>
        <time>2025-08-31T13:17:29.000Z</time>
      </trkpt>
      <trkpt lat="44.09205" lon="2.99616">
        <ele>462.7</ele>
        <time>2025-08-31T13:17:34.000Z</time>
      </trkpt>
      <trkpt lat="44.09197" lon="2.99605">
        <ele>463.1</ele>
        <time>2025-08-31T13:17:38.000Z</time>
      </trkpt>
      <trkpt lat="44.09189" lon="2.99598">
        <ele>463.2</ele>
        <time>2025-08-31T13:17:41.000Z</time>
      </trkpt>
      <trkpt lat="44.0918" lon="2.99591">
        <ele>463.4</ele>
        <time>2025-08-31T13:17:44.000Z</time>
      </trkpt>
      <trkpt lat="44.09171" lon="2.99582">
        <ele>463.5</ele>
        <time>2025-08-31T13:17:47.000Z</time>
      </trkpt>
      <trkpt lat="44.09161" lon="2.99571">
        <ele>463.5</ele>
        <time>2025-08-31T13:17:50.000Z</time>
      </trkpt>
      <trkpt lat="44.0915" lon="2.99561">
        <ele>463.6</ele>
        <time>2025-08-31T13:17:53.000Z</time>
      </trkpt>
      <trkpt lat="44.09141" lon="2.99553">
        <ele>463.5</ele>
        <time>2025-08-31T13:17:55.000Z</time>
      </trkpt>
      <trkpt lat="44.09131" lon="2.99546">
        <ele>463.5</ele>
        <time>2025-08-31T13:17:57.000Z</time>
      </trkpt>
      <trkpt lat="44.09121" lon="2.99539">
        <ele>463.3</ele>
        <time>2025-08-31T13:17:59.000Z</time>
      </trkpt>
      <trkpt lat="44.0911" lon="2.99531">
        <ele>463.2</ele>
        <time>2025-08-31T13:18:01.000Z</time>
      </trkpt>
      <trkpt lat="44.09098" lon="2.99523">
        <ele>462.9</ele>
        <time>2025-08-31T13:18:03.000Z</time>
      </trkpt>
      <trkpt lat="44.09086" lon="2.99514">
        <ele>462.7</ele>
        <time>2025-08-31T13:18:05.000Z</time>
      </trkpt>
      <trkpt lat="44.09075" lon="2.99503">
        <ele>462.4</ele>
        <time>2025-08-31T13:18:07.000Z</time>
      </trkpt>
      <trkpt lat="44.09063" lon="2.99493">
        <ele>462.1</ele>
        <time>2025-08-31T13:18:09.000Z</time>
      </trkpt>
      <trkpt lat="44.09051" lon="2.99483">
        <ele>461.8</ele>
        <time>2025-08-31T13:18:11.000Z</time>
      </trkpt>
      <trkpt lat="44.0904" lon="2.99474">
        <ele>461.4</ele>
        <time>2025-08-31T13:18:13.000Z</time>
      </trkpt>
      <trkpt lat="44.09028" lon="2.99464">
        <ele>461</ele>
        <time>2025-08-31T13:18:15.000Z</time>
      </trkpt>
      <trkpt lat="44.09019" lon="2.99453">
        <ele>460.6</ele>
        <time>2025-08-31T13:18:17.000Z</time>
      </trkpt>
      <trkpt lat="44.09012" lon="2.99438">
        <ele>460.2</ele>
        <time>2025-08-31T13:18:19.000Z</time>
      </trkpt>
      <trkpt lat="44.09006" lon="2.99422">
        <ele>459.8</ele>
        <time>2025-08-31T13:18:21.000Z</time>
      </trkpt>
      <trkpt lat="44.09004" lon="2.99404">
        <ele>459.3</ele>
        <time>2025-08-31T13:18:23.000Z</time>
      </trkpt>
      <trkpt lat="44.09004" lon="2.99387">
        <ele>458.8</ele>
        <time>2025-08-31T13:18:25.000Z</time>
      </trkpt>
      <trkpt lat="44.09003" lon="2.99369">
        <ele>458.3</ele>
        <time>2025-08-31T13:18:27.000Z</time>
      </trkpt>
      <trkpt lat="44.09" lon="2.99352">
        <ele>457.8</ele>
        <time>2025-08-31T13:18:29.000Z</time>
      </trkpt>
      <trkpt lat="44.08995" lon="2.99336">
        <ele>457.2</ele>
        <time>2025-08-31T13:18:31.000Z</time>
      </trkpt>
      <trkpt lat="44.08989" lon="2.99319">
        <ele>456.6</ele>
        <time>2025-08-31T13:18:33.000Z</time>
      </trkpt>
      <trkpt lat="44.08983" lon="2.993">
        <ele>456</ele>
        <time>2025-08-31T13:18:35.000Z</time>
      </trkpt>
      <trkpt lat="44.08976" lon="2.99281">
        <ele>455.4</ele>
        <time>2025-08-31T13:18:37.000Z</time>
      </trkpt>
      <trkpt lat="44.08968" lon="2.99263">
        <ele>454.6</ele>
        <time>2025-08-31T13:18:39.000Z</time>
      </trkpt>
      <trkpt lat="44.08959" lon="2.99248">
        <ele>454</ele>
        <time>2025-08-31T13:18:41.000Z</time>
      </trkpt>
      <trkpt lat="44.08947" lon="2.99242">
        <ele>453.3</ele>
        <time>2025-08-31T13:18:43.000Z</time>
      </trkpt>
      <trkpt lat="44.08933" lon="2.9924">
        <ele>452.6</ele>
        <time>2025-08-31T13:18:45.000Z</time>
      </trkpt>
      <trkpt lat="44.08918" lon="2.99239">
        <ele>451.8</ele>
        <time>2025-08-31T13:18:47.000Z</time>
      </trkpt>
      <trkpt lat="44.08903" lon="2.99234">
        <ele>450.9</ele>
        <time>2025-08-31T13:18:49.000Z</time>
      </trkpt>
      <trkpt lat="44.08888" lon="2.99225">
        <ele>450</ele>
        <time>2025-08-31T13:18:51.000Z</time>
      </trkpt>
      <trkpt lat="44.08873" lon="2.99217">
        <ele>449</ele>
        <time>2025-08-31T13:18:53.000Z</time>
      </trkpt>
      <trkpt lat="44.0886" lon="2.99209">
        <ele>447.9</ele>
        <time>2025-08-31T13:18:55.000Z</time>
      </trkpt>
      <trkpt lat="44.08846" lon="2.99201">
        <ele>446.7</ele>
        <time>2025-08-31T13:18:57.000Z</time>
      </trkpt>
      <trkpt lat="44.08833" lon="2.99189">
        <ele>445.3</ele>
        <time>2025-08-31T13:18:59.000Z</time>
      </trkpt>
      <trkpt lat="44.08823" lon="2.99176">
        <ele>444</ele>
        <time>2025-08-31T13:19:01.000Z</time>
      </trkpt>
      <trkpt lat="44.08813" lon="2.99171">
        <ele>442.7</ele>
        <time>2025-08-31T13:19:03.000Z</time>
      </trkpt>
      <trkpt lat="44.08804" lon="2.9918">
        <ele>441.4</ele>
        <time>2025-08-31T13:19:05.000Z</time>
      </trkpt>
      <trkpt lat="44.08804" lon="2.99196">
        <ele>440.2</ele>
        <time>2025-08-31T13:19:07.000Z</time>
      </trkpt>
      <trkpt lat="44.08812" lon="2.99211">
        <ele>439</ele>
        <time>2025-08-31T13:19:09.000Z</time>
      </trkpt>
      <trkpt lat="44.08821" lon="2.99228">
        <ele>437.9</ele>
        <time>2025-08-31T13:19:11.000Z</time>
      </trkpt>
      <trkpt lat="44.08831" lon="2.99246">
        <ele>436.8</ele>
        <time>2025-08-31T13:19:13.000Z</time>
      </trkpt>
      <trkpt lat="44.0884" lon="2.99264">
        <ele>435.6</ele>
        <time>2025-08-31T13:19:15.000Z</time>
      </trkpt>
      <trkpt lat="44.0885" lon="2.99281">
        <ele>434.4</ele>
        <time>2025-08-31T13:19:17.000Z</time>
      </trkpt>
      <trkpt lat="44.08855" lon="2.99295">
        <ele>433.1</ele>
        <time>2025-08-31T13:19:19.000Z</time>
      </trkpt>
      <trkpt lat="44.0885" lon="2.9931">
        <ele>431.4</ele>
        <time>2025-08-31T13:19:22.000Z</time>
      </trkpt>
      <trkpt lat="44.0884" lon="2.99313">
        <ele>430.3</ele>
        <time>2025-08-31T13:19:24.000Z</time>
      </trkpt>
      <trkpt lat="44.08828" lon="2.99307">
        <ele>429.3</ele>
        <time>2025-08-31T13:19:26.000Z</time>
      </trkpt>
      <trkpt lat="44.08817" lon="2.99296">
        <ele>428.3</ele>
        <time>2025-08-31T13:19:28.000Z</time>
      </trkpt>
      <trkpt lat="44.08806" lon="2.99282">
        <ele>427.4</ele>
        <time>2025-08-31T13:19:30.000Z</time>
      </trkpt>
      <trkpt lat="44.08794" lon="2.99268">
        <ele>426.4</ele>
        <time>2025-08-31T13:19:32.000Z</time>
      </trkpt>
      <trkpt lat="44.08782" lon="2.99253">
        <ele>425.3</ele>
        <time>2025-08-31T13:19:34.000Z</time>
      </trkpt>
      <trkpt lat="44.08771" lon="2.99237">
        <ele>424.2</ele>
        <time>2025-08-31T13:19:36.000Z</time>
      </trkpt>
      <trkpt lat="44.0876" lon="2.99222">
        <ele>423</ele>
        <time>2025-08-31T13:19:38.000Z</time>
      </trkpt>
      <trkpt lat="44.08748" lon="2.99205">
        <ele>421.7</ele>
        <time>2025-08-31T13:19:40.000Z</time>
      </trkpt>
      <trkpt lat="44.08737" lon="2.99188">
        <ele>420.4</ele>
        <time>2025-08-31T13:19:42.000Z</time>
      </trkpt>
      <trkpt lat="44.08726" lon="2.99172">
        <ele>419.2</ele>
        <time>2025-08-31T13:19:44.000Z</time>
      </trkpt>
      <trkpt lat="44.08715" lon="2.99156">
        <ele>418.1</ele>
        <time>2025-08-31T13:19:46.000Z</time>
      </trkpt>
      <trkpt lat="44.08704" lon="2.9914">
        <ele>416.8</ele>
        <time>2025-08-31T13:19:48.000Z</time>
      </trkpt>
      <trkpt lat="44.08693" lon="2.99125">
        <ele>415.5</ele>
        <time>2025-08-31T13:19:50.000Z</time>
      </trkpt>
      <trkpt lat="44.08684" lon="2.99111">
        <ele>414.2</ele>
        <time>2025-08-31T13:19:52.000Z</time>
      </trkpt>
      <trkpt lat="44.08674" lon="2.99098">
        <ele>413</ele>
        <time>2025-08-31T13:19:54.000Z</time>
      </trkpt>
      <trkpt lat="44.08665" lon="2.99086">
        <ele>411.8</ele>
        <time>2025-08-31T13:19:56.000Z</time>
      </trkpt>
      <trkpt lat="44.08656" lon="2.99074">
        <ele>410.6</ele>
        <time>2025-08-31T13:19:58.000Z</time>
      </trkpt>
      <trkpt lat="44.08647" lon="2.99061">
        <ele>409.5</ele>
        <time>2025-08-31T13:20:00.000Z</time>
      </trkpt>
      <trkpt lat="44.08638" lon="2.9905">
        <ele>408.2</ele>
        <time>2025-08-31T13:20:02.000Z</time>
      </trkpt>
      <trkpt lat="44.08627" lon="2.99047">
        <ele>407.1</ele>
        <time>2025-08-31T13:20:04.000Z</time>
      </trkpt>
      <trkpt lat="44.08621" lon="2.99059">
        <ele>405</ele>
        <time>2025-08-31T13:20:08.000Z</time>
      </trkpt>
      <trkpt lat="44.08629" lon="2.99069">
        <ele>403.7</ele>
        <time>2025-08-31T13:20:11.000Z</time>
      </trkpt>
      <trkpt lat="44.08639" lon="2.99081">
        <ele>402.5</ele>
        <time>2025-08-31T13:20:14.000Z</time>
      </trkpt>
      <trkpt lat="44.08647" lon="2.99089">
        <ele>401.8</ele>
        <time>2025-08-31T13:20:16.000Z</time>
      </trkpt>
      <trkpt lat="44.08655" lon="2.99098">
        <ele>401.1</ele>
        <time>2025-08-31T13:20:18.000Z</time>
      </trkpt>
      <trkpt lat="44.08665" lon="2.9911">
        <ele>400.5</ele>
        <time>2025-08-31T13:20:20.000Z</time>
      </trkpt>
      <trkpt lat="44.08673" lon="2.99122">
        <ele>399.9</ele>
        <time>2025-08-31T13:20:22.000Z</time>
      </trkpt>
      <trkpt lat="44.08681" lon="2.99133">
        <ele>399.4</ele>
        <time>2025-08-31T13:20:24.000Z</time>
      </trkpt>
      <trkpt lat="44.08689" lon="2.99145">
        <ele>398.9</ele>
        <time>2025-08-31T13:20:26.000Z</time>
      </trkpt>
      <trkpt lat="44.08697" lon="2.99158">
        <ele>398.4</ele>
        <time>2025-08-31T13:20:28.000Z</time>
      </trkpt>
      <trkpt lat="44.08705" lon="2.99171">
        <ele>398</ele>
        <time>2025-08-31T13:20:30.000Z</time>
      </trkpt>
      <trkpt lat="44.08712" lon="2.99185">
        <ele>397.6</ele>
        <time>2025-08-31T13:20:32.000Z</time>
      </trkpt>
      <trkpt lat="44.0872" lon="2.99199">
        <ele>397.3</ele>
        <time>2025-08-31T13:20:34.000Z</time>
      </trkpt>
      <trkpt lat="44.08728" lon="2.99215">
        <ele>397</ele>
        <time>2025-08-31T13:20:36.000Z</time>
      </trkpt>
      <trkpt lat="44.08736" lon="2.99231">
        <ele>396.7</ele>
        <time>2025-08-31T13:20:38.000Z</time>
      </trkpt>
      <trkpt lat="44.08743" lon="2.99247">
        <ele>396.4</ele>
        <time>2025-08-31T13:20:40.000Z</time>
      </trkpt>
      <trkpt lat="44.08751" lon="2.99264">
        <ele>396.2</ele>
        <time>2025-08-31T13:20:42.000Z</time>
      </trkpt>
      <trkpt lat="44.08758" lon="2.9928">
        <ele>396</ele>
        <time>2025-08-31T13:20:44.000Z</time>
      </trkpt>
      <trkpt lat="44.08765" lon="2.99298">
        <ele>395.8</ele>
        <time>2025-08-31T13:20:46.000Z</time>
      </trkpt>
      <trkpt lat="44.08771" lon="2.99316">
        <ele>395.6</ele>
        <time>2025-08-31T13:20:48.000Z</time>
      </trkpt>
      <trkpt lat="44.08776" lon="2.99334">
        <ele>395.4</ele>
        <time>2025-08-31T13:20:50.000Z</time>
      </trkpt>
      <trkpt lat="44.08781" lon="2.99352">
        <ele>395.3</ele>
        <time>2025-08-31T13:20:52.000Z</time>
      </trkpt>
      <trkpt lat="44.08786" lon="2.99371">
        <ele>395.1</ele>
        <time>2025-08-31T13:20:54.000Z</time>
      </trkpt>
      <trkpt lat="44.08791" lon="2.99389">
        <ele>395</ele>
        <time>2025-08-31T13:20:56.000Z</time>
      </trkpt>
      <trkpt lat="44.08796" lon="2.99408">
        <ele>394.9</ele>
        <time>2025-08-31T13:20:58.000Z</time>
      </trkpt>
      <trkpt lat="44.08801" lon="2.99425">
        <ele>394.8</ele>
        <time>2025-08-31T13:21:00.000Z</time>
      </trkpt>
      <trkpt lat="44.08807" lon="2.99442">
        <ele>394.6</ele>
        <time>2025-08-31T13:21:02.000Z</time>
      </trkpt>
      <trkpt lat="44.08813" lon="2.99459">
        <ele>394.4</ele>
        <time>2025-08-31T13:21:04.000Z</time>
      </trkpt>
      <trkpt lat="44.08818" lon="2.99476">
        <ele>394.1</ele>
        <time>2025-08-31T13:21:06.000Z</time>
      </trkpt>
      <trkpt lat="44.08823" lon="2.99494">
        <ele>393.9</ele>
        <time>2025-08-31T13:21:08.000Z</time>
      </trkpt>
      <trkpt lat="44.08827" lon="2.99513">
        <ele>393.6</ele>
        <time>2025-08-31T13:21:10.000Z</time>
      </trkpt>
      <trkpt lat="44.08831" lon="2.99532">
        <ele>393.3</ele>
        <time>2025-08-31T13:21:12.000Z</time>
      </trkpt>
      <trkpt lat="44.08835" lon="2.99552">
        <ele>393</ele>
        <time>2025-08-31T13:21:14.000Z</time>
      </trkpt>
      <trkpt lat="44.0884" lon="2.99572">
        <ele>392.7</ele>
        <time>2025-08-31T13:21:16.000Z</time>
      </trkpt>
      <trkpt lat="44.08847" lon="2.99591">
        <ele>392.4</ele>
        <time>2025-08-31T13:21:18.000Z</time>
      </trkpt>
      <trkpt lat="44.08854" lon="2.99609">
        <ele>392.2</ele>
        <time>2025-08-31T13:21:20.000Z</time>
      </trkpt>
      <trkpt lat="44.08863" lon="2.99626">
        <ele>391.9</ele>
        <time>2025-08-31T13:21:22.000Z</time>
      </trkpt>
      <trkpt lat="44.08872" lon="2.99639">
        <ele>391.7</ele>
        <time>2025-08-31T13:21:24.000Z</time>
      </trkpt>
      <trkpt lat="44.08881" lon="2.9965">
        <ele>391.5</ele>
        <time>2025-08-31T13:21:26.000Z</time>
      </trkpt>
      <trkpt lat="44.0889" lon="2.9966">
        <ele>391.3</ele>
        <time>2025-08-31T13:21:28.000Z</time>
      </trkpt>
      <trkpt lat="44.08898" lon="2.99668">
        <ele>391.2</ele>
        <time>2025-08-31T13:21:30.000Z</time>
      </trkpt>
      <trkpt lat="44.08906" lon="2.99675">
        <ele>391.2</ele>
        <time>2025-08-31T13:21:32.000Z</time>
      </trkpt>
      <trkpt lat="44.08914" lon="2.99682">
        <ele>391.2</ele>
        <time>2025-08-31T13:21:34.000Z</time>
      </trkpt>
      <trkpt lat="44.08922" lon="2.99689">
        <ele>391.2</ele>
        <time>2025-08-31T13:21:36.000Z</time>
      </trkpt>
      <trkpt lat="44.0893" lon="2.99696">
        <ele>391.4</ele>
        <time>2025-08-31T13:21:38.000Z</time>
      </trkpt>
      <trkpt lat="44.08937" lon="2.99702">
        <ele>391.5</ele>
        <time>2025-08-31T13:21:40.000Z</time>
      </trkpt>
      <trkpt lat="44.08946" lon="2.99709">
        <ele>391.6</ele>
        <time>2025-08-31T13:21:42.000Z</time>
      </trkpt>
      <trkpt lat="44.08954" lon="2.99716">
        <ele>391.7</ele>
        <time>2025-08-31T13:21:44.000Z</time>
      </trkpt>
      <trkpt lat="44.08963" lon="2.99723">
        <ele>391.8</ele>
        <time>2025-08-31T13:21:46.000Z</time>
      </trkpt>
      <trkpt lat="44.08971" lon="2.99729">
        <ele>391.8</ele>
        <time>2025-08-31T13:21:48.000Z</time>
      </trkpt>
      <trkpt lat="44.08979" lon="2.99736">
        <ele>391.9</ele>
        <time>2025-08-31T13:21:50.000Z</time>
      </trkpt>
      <trkpt lat="44.08987" lon="2.99743">
        <ele>391.9</ele>
        <time>2025-08-31T13:21:52.000Z</time>
      </trkpt>
      <trkpt lat="44.08995" lon="2.9975">
        <ele>392</ele>
        <time>2025-08-31T13:21:54.000Z</time>
      </trkpt>
      <trkpt lat="44.09003" lon="2.99757">
        <ele>392.1</ele>
        <time>2025-08-31T13:21:56.000Z</time>
      </trkpt>
      <trkpt lat="44.09011" lon="2.99765">
        <ele>392.2</ele>
        <time>2025-08-31T13:21:58.000Z</time>
      </trkpt>
      <trkpt lat="44.09018" lon="2.99773">
        <ele>392.3</ele>
        <time>2025-08-31T13:22:00.000Z</time>
      </trkpt>
      <trkpt lat="44.09026" lon="2.9978">
        <ele>392.4</ele>
        <time>2025-08-31T13:22:02.000Z</time>
      </trkpt>
      <trkpt lat="44.09034" lon="2.99789">
        <ele>392.5</ele>
        <time>2025-08-31T13:22:04.000Z</time>
      </trkpt>
      <trkpt lat="44.09041" lon="2.99797">
        <ele>392.6</ele>
        <time>2025-08-31T13:22:06.000Z</time>
      </trkpt>
      <trkpt lat="44.09049" lon="2.99805">
        <ele>392.4</ele>
        <time>2025-08-31T13:22:08.000Z</time>
      </trkpt>
      <trkpt lat="44.09056" lon="2.99814">
        <ele>392.3</ele>
        <time>2025-08-31T13:22:10.000Z</time>
      </trkpt>
      <trkpt lat="44.09063" lon="2.99823">
        <ele>392.2</ele>
        <time>2025-08-31T13:22:12.000Z</time>
      </trkpt>
      <trkpt lat="44.0907" lon="2.99832">
        <ele>392.1</ele>
        <time>2025-08-31T13:22:14.000Z</time>
      </trkpt>
      <trkpt lat="44.09078" lon="2.99842">
        <ele>392.1</ele>
        <time>2025-08-31T13:22:16.000Z</time>
      </trkpt>
      <trkpt lat="44.09084" lon="2.99852">
        <ele>392</ele>
        <time>2025-08-31T13:22:18.000Z</time>
      </trkpt>
      <trkpt lat="44.0909" lon="2.99863">
        <ele>391.9</ele>
        <time>2025-08-31T13:22:20.000Z</time>
      </trkpt>
      <trkpt lat="44.09096" lon="2.99874">
        <ele>391.8</ele>
        <time>2025-08-31T13:22:22.000Z</time>
      </trkpt>
      <trkpt lat="44.09103" lon="2.99885">
        <ele>391.8</ele>
        <time>2025-08-31T13:22:24.000Z</time>
      </trkpt>
      <trkpt lat="44.09109" lon="2.99895">
        <ele>391.7</ele>
        <time>2025-08-31T13:22:26.000Z</time>
      </trkpt>
      <trkpt lat="44.09115" lon="2.99906">
        <ele>391.6</ele>
        <time>2025-08-31T13:22:28.000Z</time>
      </trkpt>
      <trkpt lat="44.09121" lon="2.99917">
        <ele>391.6</ele>
        <time>2025-08-31T13:22:30.000Z</time>
      </trkpt>
      <trkpt lat="44.09127" lon="2.99928">
        <ele>391.5</ele>
        <time>2025-08-31T13:22:32.000Z</time>
      </trkpt>
      <trkpt lat="44.09133" lon="2.9994">
        <ele>391.5</ele>
        <time>2025-08-31T13:22:34.000Z</time>
      </trkpt>
      <trkpt lat="44.09139" lon="2.99951">
        <ele>391.4</ele>
        <time>2025-08-31T13:22:36.000Z</time>
      </trkpt>
      <trkpt lat="44.09145" lon="2.99963">
        <ele>391.4</ele>
        <time>2025-08-31T13:22:38.000Z</time>
      </trkpt>
      <trkpt lat="44.0915" lon="2.99976">
        <ele>391.3</ele>
        <time>2025-08-31T13:22:40.000Z</time>
      </trkpt>
      <trkpt lat="44.09154" lon="2.9999">
        <ele>391.3</ele>
        <time>2025-08-31T13:22:42.000Z</time>
      </trkpt>
      <trkpt lat="44.09155" lon="3.00004">
        <ele>391.2</ele>
        <time>2025-08-31T13:22:44.000Z</time>
      </trkpt>
      <trkpt lat="44.09155" lon="3.00019">
        <ele>391.2</ele>
        <time>2025-08-31T13:22:46.000Z</time>
      </trkpt>
      <trkpt lat="44.09153" lon="3.00033">
        <ele>391.2</ele>
        <time>2025-08-31T13:22:48.000Z</time>
      </trkpt>
      <trkpt lat="44.09151" lon="3.00047">
        <ele>391.2</ele>
        <time>2025-08-31T13:22:50.000Z</time>
      </trkpt>
      <trkpt lat="44.0915" lon="3.0006">
        <ele>391.2</ele>
        <time>2025-08-31T13:22:52.000Z</time>
      </trkpt>
      <trkpt lat="44.09148" lon="3.00074">
        <ele>391.3</ele>
        <time>2025-08-31T13:22:54.000Z</time>
      </trkpt>
      <trkpt lat="44.09147" lon="3.00087">
        <ele>391.3</ele>
        <time>2025-08-31T13:22:56.000Z</time>
      </trkpt>
      <trkpt lat="44.09143" lon="3.00106">
        <ele>391.3</ele>
        <time>2025-08-31T13:22:59.000Z</time>
      </trkpt>
      <trkpt lat="44.09139" lon="3.00119">
        <ele>391.3</ele>
        <time>2025-08-31T13:23:01.000Z</time>
      </trkpt>
      <trkpt lat="44.09134" lon="3.00131">
        <ele>391.3</ele>
        <time>2025-08-31T13:23:03.000Z</time>
      </trkpt>
      <trkpt lat="44.09129" lon="3.00144">
        <ele>391.4</ele>
        <time>2025-08-31T13:23:05.000Z</time>
      </trkpt>
      <trkpt lat="44.09125" lon="3.00157">
        <ele>391.4</ele>
        <time>2025-08-31T13:23:07.000Z</time>
      </trkpt>
      <trkpt lat="44.0912" lon="3.00171">
        <ele>391.4</ele>
        <time>2025-08-31T13:23:09.000Z</time>
      </trkpt>
      <trkpt lat="44.09115" lon="3.00185">
        <ele>391.5</ele>
        <time>2025-08-31T13:23:11.000Z</time>
      </trkpt>
      <trkpt lat="44.09109" lon="3.00198">
        <ele>391.5</ele>
        <time>2025-08-31T13:23:13.000Z</time>
      </trkpt>
      <trkpt lat="44.09102" lon="3.00212">
        <ele>391.5</ele>
        <time>2025-08-31T13:23:15.000Z</time>
      </trkpt>
      <trkpt lat="44.09096" lon="3.00226">
        <ele>391.5</ele>
        <time>2025-08-31T13:23:17.000Z</time>
      </trkpt>
      <trkpt lat="44.0909" lon="3.00243">
        <ele>391.5</ele>
        <time>2025-08-31T13:23:19.000Z</time>
      </trkpt>
      <trkpt lat="44.09084" lon="3.00261">
        <ele>391.4</ele>
        <time>2025-08-31T13:23:21.000Z</time>
      </trkpt>
      <trkpt lat="44.09077" lon="3.00278">
        <ele>391.2</ele>
        <time>2025-08-31T13:23:23.000Z</time>
      </trkpt>
      <trkpt lat="44.09069" lon="3.00294">
        <ele>391.1</ele>
        <time>2025-08-31T13:23:25.000Z</time>
      </trkpt>
      <trkpt lat="44.09061" lon="3.0031">
        <ele>390.9</ele>
        <time>2025-08-31T13:23:27.000Z</time>
      </trkpt>
      <trkpt lat="44.09053" lon="3.00325">
        <ele>390.8</ele>
        <time>2025-08-31T13:23:29.000Z</time>
      </trkpt>
      <trkpt lat="44.09047" lon="3.00338">
        <ele>390.7</ele>
        <time>2025-08-31T13:23:31.000Z</time>
      </trkpt>
      <trkpt lat="44.09041" lon="3.00351">
        <ele>390.5</ele>
        <time>2025-08-31T13:23:33.000Z</time>
      </trkpt>
      <trkpt lat="44.09035" lon="3.00363">
        <ele>390.4</ele>
        <time>2025-08-31T13:23:35.000Z</time>
      </trkpt>
      <trkpt lat="44.09029" lon="3.00376">
        <ele>390.4</ele>
        <time>2025-08-31T13:23:37.000Z</time>
      </trkpt>
      <trkpt lat="44.09024" lon="3.00388">
        <ele>390.3</ele>
        <time>2025-08-31T13:23:39.000Z</time>
      </trkpt>
      <trkpt lat="44.09019" lon="3.004">
        <ele>390.2</ele>
        <time>2025-08-31T13:23:41.000Z</time>
      </trkpt>
      <trkpt lat="44.09014" lon="3.00411">
        <ele>390.2</ele>
        <time>2025-08-31T13:23:43.000Z</time>
      </trkpt>
      <trkpt lat="44.09008" lon="3.00422">
        <ele>390.2</ele>
        <time>2025-08-31T13:23:45.000Z</time>
      </trkpt>
      <trkpt lat="44.09003" lon="3.00433">
        <ele>390.3</ele>
        <time>2025-08-31T13:23:47.000Z</time>
      </trkpt>
      <trkpt lat="44.08997" lon="3.00444">
        <ele>390.2</ele>
        <time>2025-08-31T13:23:49.000Z</time>
      </trkpt>
      <trkpt lat="44.08991" lon="3.00454">
        <ele>390.2</ele>
        <time>2025-08-31T13:23:51.000Z</time>
      </trkpt>
      <trkpt lat="44.08985" lon="3.00463">
        <ele>390.2</ele>
        <time>2025-08-31T13:23:53.000Z</time>
      </trkpt>
      <trkpt lat="44.08975" lon="3.00476">
        <ele>390.2</ele>
        <time>2025-08-31T13:23:56.000Z</time>
      </trkpt>
      <trkpt lat="44.08967" lon="3.00485">
        <ele>390.3</ele>
        <time>2025-08-31T13:23:58.000Z</time>
      </trkpt>
      <trkpt lat="44.0896" lon="3.00493">
        <ele>390.4</ele>
        <time>2025-08-31T13:24:00.000Z</time>
      </trkpt>
      <trkpt lat="44.08952" lon="3.00501">
        <ele>390.4</ele>
        <time>2025-08-31T13:24:02.000Z</time>
      </trkpt>
      <trkpt lat="44.08944" lon="3.0051">
        <ele>390.5</ele>
        <time>2025-08-31T13:24:04.000Z</time>
      </trkpt>
      <trkpt lat="44.08937" lon="3.00518">
        <ele>390.5</ele>
        <time>2025-08-31T13:24:06.000Z</time>
      </trkpt>
      <trkpt lat="44.08929" lon="3.00526">
        <ele>390.5</ele>
        <time>2025-08-31T13:24:08.000Z</time>
      </trkpt>
      <trkpt lat="44.08921" lon="3.00534">
        <ele>390.6</ele>
        <time>2025-08-31T13:24:10.000Z</time>
      </trkpt>
      <trkpt lat="44.08912" lon="3.00543">
        <ele>390.6</ele>
        <time>2025-08-31T13:24:12.000Z</time>
      </trkpt>
      <trkpt lat="44.08904" lon="3.0055">
        <ele>390.6</ele>
        <time>2025-08-31T13:24:14.000Z</time>
      </trkpt>
      <trkpt lat="44.08896" lon="3.00558">
        <ele>390.6</ele>
        <time>2025-08-31T13:24:16.000Z</time>
      </trkpt>
      <trkpt lat="44.08887" lon="3.00566">
        <ele>390.6</ele>
        <time>2025-08-31T13:24:18.000Z</time>
      </trkpt>
      <trkpt lat="44.08879" lon="3.00574">
        <ele>390.6</ele>
        <time>2025-08-31T13:24:20.000Z</time>
      </trkpt>
      <trkpt lat="44.08869" lon="3.00582">
        <ele>390.7</ele>
        <time>2025-08-31T13:24:22.000Z</time>
      </trkpt>
      <trkpt lat="44.0886" lon="3.0059">
        <ele>390.7</ele>
        <time>2025-08-31T13:24:24.000Z</time>
      </trkpt>
      <trkpt lat="44.08852" lon="3.00597">
        <ele>390.7</ele>
        <time>2025-08-31T13:24:26.000Z</time>
      </trkpt>
      <trkpt lat="44.08843" lon="3.00604">
        <ele>390.6</ele>
        <time>2025-08-31T13:24:28.000Z</time>
      </trkpt>
      <trkpt lat="44.08834" lon="3.00611">
        <ele>390.6</ele>
        <time>2025-08-31T13:24:30.000Z</time>
      </trkpt>
      <trkpt lat="44.08825" lon="3.00619">
        <ele>390.6</ele>
        <time>2025-08-31T13:24:32.000Z</time>
      </trkpt>
      <trkpt lat="44.08815" lon="3.00626">
        <ele>390.6</ele>
        <time>2025-08-31T13:24:34.000Z</time>
      </trkpt>
      <trkpt lat="44.08805" lon="3.00634">
        <ele>390.5</ele>
        <time>2025-08-31T13:24:36.000Z</time>
      </trkpt>
      <trkpt lat="44.08795" lon="3.00642">
        <ele>390.4</ele>
        <time>2025-08-31T13:24:38.000Z</time>
      </trkpt>
      <trkpt lat="44.08785" lon="3.00651">
        <ele>390.3</ele>
        <time>2025-08-31T13:24:40.000Z</time>
      </trkpt>
      <trkpt lat="44.08775" lon="3.00659">
        <ele>390.3</ele>
        <time>2025-08-31T13:24:42.000Z</time>
      </trkpt>
      <trkpt lat="44.08765" lon="3.00666">
        <ele>390.2</ele>
        <time>2025-08-31T13:24:44.000Z</time>
      </trkpt>
      <trkpt lat="44.08756" lon="3.00674">
        <ele>390.1</ele>
        <time>2025-08-31T13:24:46.000Z</time>
      </trkpt>
      <trkpt lat="44.08746" lon="3.00682">
        <ele>390</ele>
        <time>2025-08-31T13:24:48.000Z</time>
      </trkpt>
      <trkpt lat="44.08737" lon="3.0069">
        <ele>390</ele>
        <time>2025-08-31T13:24:50.000Z</time>
      </trkpt>
      <trkpt lat="44.08729" lon="3.00699">
        <ele>389.9</ele>
        <time>2025-08-31T13:24:52.000Z</time>
      </trkpt>
      <trkpt lat="44.08721" lon="3.00707">
        <ele>389.8</ele>
        <time>2025-08-31T13:24:54.000Z</time>
      </trkpt>
      <trkpt lat="44.08714" lon="3.00715">
        <ele>389.7</ele>
        <time>2025-08-31T13:24:56.000Z</time>
      </trkpt>
      <trkpt lat="44.08704" lon="3.00729">
        <ele>389.6</ele>
        <time>2025-08-31T13:24:59.000Z</time>
      </trkpt>
      <trkpt lat="44.08696" lon="3.00742">
        <ele>389.6</ele>
        <time>2025-08-31T13:25:02.000Z</time>
      </trkpt>
      <trkpt lat="44.08687" lon="3.00756">
        <ele>389.7</ele>
        <time>2025-08-31T13:25:05.000Z</time>
      </trkpt>
      <trkpt lat="44.08679" lon="3.0077">
        <ele>389.9</ele>
        <time>2025-08-31T13:25:08.000Z</time>
      </trkpt>
      <trkpt lat="44.0867" lon="3.00785">
        <ele>390.1</ele>
        <time>2025-08-31T13:25:11.000Z</time>
      </trkpt>
      <trkpt lat="44.08665" lon="3.00795">
        <ele>390.2</ele>
        <time>2025-08-31T13:25:13.000Z</time>
      </trkpt>
      <trkpt lat="44.08659" lon="3.00805">
        <ele>390.4</ele>
        <time>2025-08-31T13:25:15.000Z</time>
      </trkpt>
      <trkpt lat="44.08653" lon="3.00816">
        <ele>390.5</ele>
        <time>2025-08-31T13:25:17.000Z</time>
      </trkpt>
      <trkpt lat="44.08648" lon="3.00826">
        <ele>390.6</ele>
        <time>2025-08-31T13:25:19.000Z</time>
      </trkpt>
      <trkpt lat="44.08642" lon="3.00837">
        <ele>390.7</ele>
        <time>2025-08-31T13:25:21.000Z</time>
      </trkpt>
      <trkpt lat="44.08635" lon="3.00848">
        <ele>390.7</ele>
        <time>2025-08-31T13:25:23.000Z</time>
      </trkpt>
      <trkpt lat="44.08629" lon="3.00859">
        <ele>390.8</ele>
        <time>2025-08-31T13:25:25.000Z</time>
      </trkpt>
      <trkpt lat="44.08622" lon="3.00871">
        <ele>390.8</ele>
        <time>2025-08-31T13:25:27.000Z</time>
      </trkpt>
      <trkpt lat="44.08615" lon="3.00883">
        <ele>390.9</ele>
        <time>2025-08-31T13:25:29.000Z</time>
      </trkpt>
      <trkpt lat="44.08608" lon="3.00895">
        <ele>390.9</ele>
        <time>2025-08-31T13:25:31.000Z</time>
      </trkpt>
      <trkpt lat="44.08601" lon="3.00908">
        <ele>390.9</ele>
        <time>2025-08-31T13:25:33.000Z</time>
      </trkpt>
      <trkpt lat="44.08594" lon="3.00922">
        <ele>390.9</ele>
        <time>2025-08-31T13:25:35.000Z</time>
      </trkpt>
      <trkpt lat="44.08587" lon="3.00935">
        <ele>390.8</ele>
        <time>2025-08-31T13:25:37.000Z</time>
      </trkpt>
      <trkpt lat="44.08581" lon="3.00949">
        <ele>390.7</ele>
        <time>2025-08-31T13:25:39.000Z</time>
      </trkpt>
      <trkpt lat="44.08574" lon="3.00963">
        <ele>390.6</ele>
        <time>2025-08-31T13:25:41.000Z</time>
      </trkpt>
      <trkpt lat="44.08568" lon="3.00977">
        <ele>390.5</ele>
        <time>2025-08-31T13:25:43.000Z</time>
      </trkpt>
      <trkpt lat="44.08562" lon="3.00991">
        <ele>390.4</ele>
        <time>2025-08-31T13:25:45.000Z</time>
      </trkpt>
      <trkpt lat="44.08556" lon="3.01006">
        <ele>390.2</ele>
        <time>2025-08-31T13:25:47.000Z</time>
      </trkpt>
      <trkpt lat="44.0855" lon="3.01021">
        <ele>390.1</ele>
        <time>2025-08-31T13:25:49.000Z</time>
      </trkpt>
      <trkpt lat="44.08546" lon="3.01035">
        <ele>390</ele>
        <time>2025-08-31T13:25:51.000Z</time>
      </trkpt>
      <trkpt lat="44.08541" lon="3.0105">
        <ele>389.8</ele>
        <time>2025-08-31T13:25:53.000Z</time>
      </trkpt>
      <trkpt lat="44.08536" lon="3.01064">
        <ele>389.7</ele>
        <time>2025-08-31T13:25:55.000Z</time>
      </trkpt>
      <trkpt lat="44.08533" lon="3.01078">
        <ele>389.5</ele>
        <time>2025-08-31T13:25:57.000Z</time>
      </trkpt>
      <trkpt lat="44.08529" lon="3.01092">
        <ele>389.4</ele>
        <time>2025-08-31T13:25:59.000Z</time>
      </trkpt>
      <trkpt lat="44.08527" lon="3.01106">
        <ele>389.2</ele>
        <time>2025-08-31T13:26:01.000Z</time>
      </trkpt>
      <trkpt lat="44.08524" lon="3.01119">
        <ele>389.1</ele>
        <time>2025-08-31T13:26:03.000Z</time>
      </trkpt>
      <trkpt lat="44.08521" lon="3.01133">
        <ele>389</ele>
        <time>2025-08-31T13:26:05.000Z</time>
      </trkpt>
      <trkpt lat="44.08518" lon="3.01147">
        <ele>388.8</ele>
        <time>2025-08-31T13:26:07.000Z</time>
      </trkpt>
      <trkpt lat="44.08515" lon="3.01161">
        <ele>388.7</ele>
        <time>2025-08-31T13:26:09.000Z</time>
      </trkpt>
      <trkpt lat="44.08511" lon="3.01175">
        <ele>388.6</ele>
        <time>2025-08-31T13:26:11.000Z</time>
      </trkpt>
      <trkpt lat="44.08508" lon="3.01189">
        <ele>388.5</ele>
        <time>2025-08-31T13:26:13.000Z</time>
      </trkpt>
      <trkpt lat="44.08505" lon="3.01203">
        <ele>388.5</ele>
        <time>2025-08-31T13:26:15.000Z</time>
      </trkpt>
      <trkpt lat="44.08502" lon="3.01217">
        <ele>388.4</ele>
        <time>2025-08-31T13:26:17.000Z</time>
      </trkpt>
      <trkpt lat="44.08499" lon="3.0123">
        <ele>388.3</ele>
        <time>2025-08-31T13:26:19.000Z</time>
      </trkpt>
      <trkpt lat="44.08497" lon="3.01244">
        <ele>388.2</ele>
        <time>2025-08-31T13:26:21.000Z</time>
      </trkpt>
      <trkpt lat="44.08493" lon="3.01257">
        <ele>388.2</ele>
        <time>2025-08-31T13:26:23.000Z</time>
      </trkpt>
      <trkpt lat="44.0849" lon="3.01271">
        <ele>388.1</ele>
        <time>2025-08-31T13:26:25.000Z</time>
      </trkpt>
      <trkpt lat="44.08487" lon="3.01285">
        <ele>388</ele>
        <time>2025-08-31T13:26:27.000Z</time>
      </trkpt>
      <trkpt lat="44.08484" lon="3.01298">
        <ele>388</ele>
        <time>2025-08-31T13:26:29.000Z</time>
      </trkpt>
      <trkpt lat="44.08481" lon="3.01312">
        <ele>387.9</ele>
        <time>2025-08-31T13:26:31.000Z</time>
      </trkpt>
      <trkpt lat="44.08477" lon="3.01326">
        <ele>387.9</ele>
        <time>2025-08-31T13:26:33.000Z</time>
      </trkpt>
      <trkpt lat="44.08475" lon="3.0134">
        <ele>387.8</ele>
        <time>2025-08-31T13:26:35.000Z</time>
      </trkpt>
      <trkpt lat="44.08471" lon="3.01354">
        <ele>387.7</ele>
        <time>2025-08-31T13:26:37.000Z</time>
      </trkpt>
      <trkpt lat="44.08468" lon="3.01367">
        <ele>387.6</ele>
        <time>2025-08-31T13:26:39.000Z</time>
      </trkpt>
      <trkpt lat="44.08466" lon="3.01381">
        <ele>387.5</ele>
        <time>2025-08-31T13:26:41.000Z</time>
      </trkpt>
      <trkpt lat="44.08463" lon="3.01393">
        <ele>387.4</ele>
        <time>2025-08-31T13:26:43.000Z</time>
      </trkpt>
      <trkpt lat="44.0846" lon="3.01406">
        <ele>387.3</ele>
        <time>2025-08-31T13:26:45.000Z</time>
      </trkpt>
      <trkpt lat="44.08458" lon="3.01419">
        <ele>387.2</ele>
        <time>2025-08-31T13:26:47.000Z</time>
      </trkpt>
      <trkpt lat="44.08456" lon="3.01432">
        <ele>387.1</ele>
        <time>2025-08-31T13:26:49.000Z</time>
      </trkpt>
      <trkpt lat="44.08454" lon="3.01446">
        <ele>387</ele>
        <time>2025-08-31T13:26:51.000Z</time>
      </trkpt>
      <trkpt lat="44.08452" lon="3.0146">
        <ele>387</ele>
        <time>2025-08-31T13:26:53.000Z</time>
      </trkpt>
      <trkpt lat="44.08451" lon="3.01474">
        <ele>386.9</ele>
        <time>2025-08-31T13:26:55.000Z</time>
      </trkpt>
      <trkpt lat="44.0845" lon="3.01488">
        <ele>386.9</ele>
        <time>2025-08-31T13:26:57.000Z</time>
      </trkpt>
      <trkpt lat="44.08449" lon="3.01501">
        <ele>387</ele>
        <time>2025-08-31T13:26:59.000Z</time>
      </trkpt>
      <trkpt lat="44.08449" lon="3.01515">
        <ele>387</ele>
        <time>2025-08-31T13:27:01.000Z</time>
      </trkpt>
      <trkpt lat="44.0845" lon="3.0153">
        <ele>387</ele>
        <time>2025-08-31T13:27:03.000Z</time>
      </trkpt>
      <trkpt lat="44.08451" lon="3.01545">
        <ele>386.9</ele>
        <time>2025-08-31T13:27:05.000Z</time>
      </trkpt>
      <trkpt lat="44.08452" lon="3.01559">
        <ele>386.9</ele>
        <time>2025-08-31T13:27:07.000Z</time>
      </trkpt>
      <trkpt lat="44.08453" lon="3.01572">
        <ele>386.9</ele>
        <time>2025-08-31T13:27:09.000Z</time>
      </trkpt>
      <trkpt lat="44.08455" lon="3.01585">
        <ele>386.9</ele>
        <time>2025-08-31T13:27:11.000Z</time>
      </trkpt>
      <trkpt lat="44.08456" lon="3.01599">
        <ele>386.9</ele>
        <time>2025-08-31T13:27:13.000Z</time>
      </trkpt>
      <trkpt lat="44.08459" lon="3.01614">
        <ele>386.9</ele>
        <time>2025-08-31T13:27:15.000Z</time>
      </trkpt>
      <trkpt lat="44.08461" lon="3.01628">
        <ele>386.8</ele>
        <time>2025-08-31T13:27:17.000Z</time>
      </trkpt>
      <trkpt lat="44.08464" lon="3.01643">
        <ele>386.8</ele>
        <time>2025-08-31T13:27:19.000Z</time>
      </trkpt>
      <trkpt lat="44.08467" lon="3.01658">
        <ele>386.8</ele>
        <time>2025-08-31T13:27:21.000Z</time>
      </trkpt>
      <trkpt lat="44.08471" lon="3.01673">
        <ele>386.7</ele>
        <time>2025-08-31T13:27:23.000Z</time>
      </trkpt>
      <trkpt lat="44.08474" lon="3.01688">
        <ele>386.7</ele>
        <time>2025-08-31T13:27:25.000Z</time>
      </trkpt>
      <trkpt lat="44.08477" lon="3.01701">
        <ele>386.7</ele>
        <time>2025-08-31T13:27:27.000Z</time>
      </trkpt>
      <trkpt lat="44.0848" lon="3.01715">
        <ele>386.7</ele>
        <time>2025-08-31T13:27:29.000Z</time>
      </trkpt>
      <trkpt lat="44.08483" lon="3.01729">
        <ele>386.7</ele>
        <time>2025-08-31T13:27:31.000Z</time>
      </trkpt>
      <trkpt lat="44.08486" lon="3.01743">
        <ele>386.6</ele>
        <time>2025-08-31T13:27:33.000Z</time>
      </trkpt>
      <trkpt lat="44.08489" lon="3.01758">
        <ele>386.6</ele>
        <time>2025-08-31T13:27:35.000Z</time>
      </trkpt>
      <trkpt lat="44.08493" lon="3.01774">
        <ele>386.6</ele>
        <time>2025-08-31T13:27:37.000Z</time>
      </trkpt>
      <trkpt lat="44.08496" lon="3.0179">
        <ele>386.6</ele>
        <time>2025-08-31T13:27:39.000Z</time>
      </trkpt>
      <trkpt lat="44.085" lon="3.01806">
        <ele>386.6</ele>
        <time>2025-08-31T13:27:41.000Z</time>
      </trkpt>
      <trkpt lat="44.08504" lon="3.01823">
        <ele>386.7</ele>
        <time>2025-08-31T13:27:43.000Z</time>
      </trkpt>
      <trkpt lat="44.08507" lon="3.0184">
        <ele>386.7</ele>
        <time>2025-08-31T13:27:45.000Z</time>
      </trkpt>
      <trkpt lat="44.08511" lon="3.01857">
        <ele>386.8</ele>
        <time>2025-08-31T13:27:47.000Z</time>
      </trkpt>
      <trkpt lat="44.08514" lon="3.01873">
        <ele>386.9</ele>
        <time>2025-08-31T13:27:49.000Z</time>
      </trkpt>
      <trkpt lat="44.08518" lon="3.01889">
        <ele>387</ele>
        <time>2025-08-31T13:27:51.000Z</time>
      </trkpt>
      <trkpt lat="44.08521" lon="3.01905">
        <ele>387.2</ele>
        <time>2025-08-31T13:27:53.000Z</time>
      </trkpt>
      <trkpt lat="44.08525" lon="3.0192">
        <ele>387.3</ele>
        <time>2025-08-31T13:27:55.000Z</time>
      </trkpt>
      <trkpt lat="44.08528" lon="3.01936">
        <ele>387.4</ele>
        <time>2025-08-31T13:27:57.000Z</time>
      </trkpt>
      <trkpt lat="44.08531" lon="3.0195">
        <ele>387.6</ele>
        <time>2025-08-31T13:27:59.000Z</time>
      </trkpt>
      <trkpt lat="44.08534" lon="3.01965">
        <ele>387.8</ele>
        <time>2025-08-31T13:28:01.000Z</time>
      </trkpt>
      <trkpt lat="44.08537" lon="3.01979">
        <ele>387.9</ele>
        <time>2025-08-31T13:28:03.000Z</time>
      </trkpt>
      <trkpt lat="44.08541" lon="3.01993">
        <ele>388</ele>
        <time>2025-08-31T13:28:05.000Z</time>
      </trkpt>
      <trkpt lat="44.08544" lon="3.02009">
        <ele>388.1</ele>
        <time>2025-08-31T13:28:07.000Z</time>
      </trkpt>
      <trkpt lat="44.08548" lon="3.02024">
        <ele>388.1</ele>
        <time>2025-08-31T13:28:09.000Z</time>
      </trkpt>
      <trkpt lat="44.08551" lon="3.0204">
        <ele>388.2</ele>
        <time>2025-08-31T13:28:11.000Z</time>
      </trkpt>
      <trkpt lat="44.08554" lon="3.02056">
        <ele>388.3</ele>
        <time>2025-08-31T13:28:13.000Z</time>
      </trkpt>
      <trkpt lat="44.08558" lon="3.02072">
        <ele>388.3</ele>
        <time>2025-08-31T13:28:15.000Z</time>
      </trkpt>
      <trkpt lat="44.08562" lon="3.0209">
        <ele>388.3</ele>
        <time>2025-08-31T13:28:17.000Z</time>
      </trkpt>
      <trkpt lat="44.08566" lon="3.02108">
        <ele>388.3</ele>
        <time>2025-08-31T13:28:19.000Z</time>
      </trkpt>
      <trkpt lat="44.08571" lon="3.02126">
        <ele>388.2</ele>
        <time>2025-08-31T13:28:21.000Z</time>
      </trkpt>
      <trkpt lat="44.08577" lon="3.02146">
        <ele>388.2</ele>
        <time>2025-08-31T13:28:23.000Z</time>
      </trkpt>
      <trkpt lat="44.08582" lon="3.02164">
        <ele>388.2</ele>
        <time>2025-08-31T13:28:25.000Z</time>
      </trkpt>
      <trkpt lat="44.08588" lon="3.02182">
        <ele>388.1</ele>
        <time>2025-08-31T13:28:27.000Z</time>
      </trkpt>
      <trkpt lat="44.08594" lon="3.02198">
        <ele>388.1</ele>
        <time>2025-08-31T13:28:29.000Z</time>
      </trkpt>
      <trkpt lat="44.08599" lon="3.02215">
        <ele>388</ele>
        <time>2025-08-31T13:28:31.000Z</time>
      </trkpt>
      <trkpt lat="44.08604" lon="3.02231">
        <ele>388</ele>
        <time>2025-08-31T13:28:33.000Z</time>
      </trkpt>
      <trkpt lat="44.0861" lon="3.02247">
        <ele>388</ele>
        <time>2025-08-31T13:28:35.000Z</time>
      </trkpt>
      <trkpt lat="44.08614" lon="3.02262">
        <ele>388</ele>
        <time>2025-08-31T13:28:37.000Z</time>
      </trkpt>
      <trkpt lat="44.0862" lon="3.02277">
        <ele>388.1</ele>
        <time>2025-08-31T13:28:39.000Z</time>
      </trkpt>
      <trkpt lat="44.08625" lon="3.02292">
        <ele>388.2</ele>
        <time>2025-08-31T13:28:41.000Z</time>
      </trkpt>
      <trkpt lat="44.0863" lon="3.02308">
        <ele>388.3</ele>
        <time>2025-08-31T13:28:43.000Z</time>
      </trkpt>
      <trkpt lat="44.08636" lon="3.02324">
        <ele>388.4</ele>
        <time>2025-08-31T13:28:45.000Z</time>
      </trkpt>
      <trkpt lat="44.08642" lon="3.0234">
        <ele>388.4</ele>
        <time>2025-08-31T13:28:47.000Z</time>
      </trkpt>
      <trkpt lat="44.08647" lon="3.02357">
        <ele>388.5</ele>
        <time>2025-08-31T13:28:49.000Z</time>
      </trkpt>
      <trkpt lat="44.08653" lon="3.02374">
        <ele>388.5</ele>
        <time>2025-08-31T13:28:51.000Z</time>
      </trkpt>
      <trkpt lat="44.08659" lon="3.02391">
        <ele>388.4</ele>
        <time>2025-08-31T13:28:53.000Z</time>
      </trkpt>
      <trkpt lat="44.08665" lon="3.02408">
        <ele>388.4</ele>
        <time>2025-08-31T13:28:55.000Z</time>
      </trkpt>
      <trkpt lat="44.08671" lon="3.02424">
        <ele>388.3</ele>
        <time>2025-08-31T13:28:57.000Z</time>
      </trkpt>
      <trkpt lat="44.08676" lon="3.0244">
        <ele>388.4</ele>
        <time>2025-08-31T13:28:59.000Z</time>
      </trkpt>
      <trkpt lat="44.08682" lon="3.02455">
        <ele>388.4</ele>
        <time>2025-08-31T13:29:01.000Z</time>
      </trkpt>
      <trkpt lat="44.08688" lon="3.02471">
        <ele>388.4</ele>
        <time>2025-08-31T13:29:03.000Z</time>
      </trkpt>
      <trkpt lat="44.08693" lon="3.02486">
        <ele>388.5</ele>
        <time>2025-08-31T13:29:05.000Z</time>
      </trkpt>
      <trkpt lat="44.08699" lon="3.02501">
        <ele>388.5</ele>
        <time>2025-08-31T13:29:07.000Z</time>
      </trkpt>
      <trkpt lat="44.08705" lon="3.02517">
        <ele>388.5</ele>
        <time>2025-08-31T13:29:09.000Z</time>
      </trkpt>
      <trkpt lat="44.08711" lon="3.02532">
        <ele>388.5</ele>
        <time>2025-08-31T13:29:11.000Z</time>
      </trkpt>
      <trkpt lat="44.08718" lon="3.02546">
        <ele>388.5</ele>
        <time>2025-08-31T13:29:13.000Z</time>
      </trkpt>
      <trkpt lat="44.08725" lon="3.0256">
        <ele>388.6</ele>
        <time>2025-08-31T13:29:15.000Z</time>
      </trkpt>
      <trkpt lat="44.08732" lon="3.02574">
        <ele>388.6</ele>
        <time>2025-08-31T13:29:17.000Z</time>
      </trkpt>
      <trkpt lat="44.08739" lon="3.02587">
        <ele>388.6</ele>
        <time>2025-08-31T13:29:19.000Z</time>
      </trkpt>
      <trkpt lat="44.08746" lon="3.02601">
        <ele>388.6</ele>
        <time>2025-08-31T13:29:21.000Z</time>
      </trkpt>
      <trkpt lat="44.08754" lon="3.02614">
        <ele>388.6</ele>
        <time>2025-08-31T13:29:23.000Z</time>
      </trkpt>
      <trkpt lat="44.08762" lon="3.02626">
        <ele>388.7</ele>
        <time>2025-08-31T13:29:25.000Z</time>
      </trkpt>
      <trkpt lat="44.0877" lon="3.02638">
        <ele>388.7</ele>
        <time>2025-08-31T13:29:27.000Z</time>
      </trkpt>
      <trkpt lat="44.08778" lon="3.0265">
        <ele>388.7</ele>
        <time>2025-08-31T13:29:29.000Z</time>
      </trkpt>
      <trkpt lat="44.08785" lon="3.0266">
        <ele>388.8</ele>
        <time>2025-08-31T13:29:31.000Z</time>
      </trkpt>
      <trkpt lat="44.08793" lon="3.02671">
        <ele>388.8</ele>
        <time>2025-08-31T13:29:33.000Z</time>
      </trkpt>
      <trkpt lat="44.08802" lon="3.02681">
        <ele>388.8</ele>
        <time>2025-08-31T13:29:35.000Z</time>
      </trkpt>
      <trkpt lat="44.08809" lon="3.02691">
        <ele>388.9</ele>
        <time>2025-08-31T13:29:37.000Z</time>
      </trkpt>
      <trkpt lat="44.08817" lon="3.027">
        <ele>388.9</ele>
        <time>2025-08-31T13:29:39.000Z</time>
      </trkpt>
      <trkpt lat="44.08826" lon="3.02709">
        <ele>388.9</ele>
        <time>2025-08-31T13:29:41.000Z</time>
      </trkpt>
      <trkpt lat="44.08835" lon="3.02718">
        <ele>388.9</ele>
        <time>2025-08-31T13:29:43.000Z</time>
      </trkpt>
      <trkpt lat="44.08845" lon="3.02726">
        <ele>389</ele>
        <time>2025-08-31T13:29:45.000Z</time>
      </trkpt>
      <trkpt lat="44.08854" lon="3.02735">
        <ele>389</ele>
        <time>2025-08-31T13:29:47.000Z</time>
      </trkpt>
      <trkpt lat="44.08864" lon="3.02743">
        <ele>389.1</ele>
        <time>2025-08-31T13:29:49.000Z</time>
      </trkpt>
      <trkpt lat="44.08873" lon="3.02752">
        <ele>389.1</ele>
        <time>2025-08-31T13:29:51.000Z</time>
      </trkpt>
      <trkpt lat="44.08882" lon="3.0276">
        <ele>389.1</ele>
        <time>2025-08-31T13:29:53.000Z</time>
      </trkpt>
      <trkpt lat="44.08892" lon="3.02768">
        <ele>389.2</ele>
        <time>2025-08-31T13:29:55.000Z</time>
      </trkpt>
      <trkpt lat="44.08901" lon="3.02776">
        <ele>389.3</ele>
        <time>2025-08-31T13:29:57.000Z</time>
      </trkpt>
      <trkpt lat="44.0891" lon="3.02784">
        <ele>389.3</ele>
        <time>2025-08-31T13:29:59.000Z</time>
      </trkpt>
      <trkpt lat="44.0892" lon="3.02791">
        <ele>389.4</ele>
        <time>2025-08-31T13:30:01.000Z</time>
      </trkpt>
      <trkpt lat="44.08929" lon="3.02798">
        <ele>389.5</ele>
        <time>2025-08-31T13:30:03.000Z</time>
      </trkpt>
      <trkpt lat="44.08938" lon="3.02805">
        <ele>389.5</ele>
        <time>2025-08-31T13:30:05.000Z</time>
      </trkpt>
      <trkpt lat="44.08949" lon="3.02812">
        <ele>389.6</ele>
        <time>2025-08-31T13:30:08.000Z</time>
      </trkpt>
      <trkpt lat="44.08961" lon="3.02818">
        <ele>389.7</ele>
        <time>2025-08-31T13:30:11.000Z</time>
      </trkpt>
      <trkpt lat="44.08974" lon="3.02824">
        <ele>389.7</ele>
        <time>2025-08-31T13:30:14.000Z</time>
      </trkpt>
      <trkpt lat="44.08982" lon="3.02828">
        <ele>389.6</ele>
        <time>2025-08-31T13:30:16.000Z</time>
      </trkpt>
      <trkpt lat="44.08991" lon="3.02832">
        <ele>389.4</ele>
        <time>2025-08-31T13:30:18.000Z</time>
      </trkpt>
      <trkpt lat="44.09" lon="3.02837">
        <ele>389.3</ele>
        <time>2025-08-31T13:30:20.000Z</time>
      </trkpt>
      <trkpt lat="44.09009" lon="3.02841">
        <ele>389.2</ele>
        <time>2025-08-31T13:30:22.000Z</time>
      </trkpt>
      <trkpt lat="44.09019" lon="3.02846">
        <ele>389.1</ele>
        <time>2025-08-31T13:30:24.000Z</time>
      </trkpt>
      <trkpt lat="44.09028" lon="3.0285">
        <ele>389.1</ele>
        <time>2025-08-31T13:30:26.000Z</time>
      </trkpt>
      <trkpt lat="44.09038" lon="3.02854">
        <ele>389.1</ele>
        <time>2025-08-31T13:30:28.000Z</time>
      </trkpt>
      <trkpt lat="44.09047" lon="3.02858">
        <ele>389.3</ele>
        <time>2025-08-31T13:30:30.000Z</time>
      </trkpt>
      <trkpt lat="44.09056" lon="3.02861">
        <ele>389.5</ele>
        <time>2025-08-31T13:30:32.000Z</time>
      </trkpt>
      <trkpt lat="44.09065" lon="3.02866">
        <ele>389.5</ele>
        <time>2025-08-31T13:30:34.000Z</time>
      </trkpt>
      <trkpt lat="44.09073" lon="3.02871">
        <ele>389.5</ele>
        <time>2025-08-31T13:30:36.000Z</time>
      </trkpt>
      <trkpt lat="44.09082" lon="3.02877">
        <ele>389.5</ele>
        <time>2025-08-31T13:30:38.000Z</time>
      </trkpt>
      <trkpt lat="44.09093" lon="3.02886">
        <ele>389.6</ele>
        <time>2025-08-31T13:30:41.000Z</time>
      </trkpt>
      <trkpt lat="44.09101" lon="3.02894">
        <ele>389.6</ele>
        <time>2025-08-31T13:30:43.000Z</time>
      </trkpt>
      <trkpt lat="44.0911" lon="3.02901">
        <ele>389.6</ele>
        <time>2025-08-31T13:30:45.000Z</time>
      </trkpt>
      <trkpt lat="44.09119" lon="3.02909">
        <ele>389.5</ele>
        <time>2025-08-31T13:30:47.000Z</time>
      </trkpt>
      <trkpt lat="44.09128" lon="3.02916">
        <ele>389.4</ele>
        <time>2025-08-31T13:30:49.000Z</time>
      </trkpt>
      <trkpt lat="44.09137" lon="3.02924">
        <ele>389.5</ele>
        <time>2025-08-31T13:30:51.000Z</time>
      </trkpt>
      <trkpt lat="44.09146" lon="3.02932">
        <ele>389.6</ele>
        <time>2025-08-31T13:30:53.000Z</time>
      </trkpt>
      <trkpt lat="44.09155" lon="3.0294">
        <ele>389.7</ele>
        <time>2025-08-31T13:30:55.000Z</time>
      </trkpt>
      <trkpt lat="44.09164" lon="3.02948">
        <ele>389.7</ele>
        <time>2025-08-31T13:30:57.000Z</time>
      </trkpt>
      <trkpt lat="44.09174" lon="3.02956">
        <ele>389.8</ele>
        <time>2025-08-31T13:30:59.000Z</time>
      </trkpt>
      <trkpt lat="44.09183" lon="3.02964">
        <ele>389.8</ele>
        <time>2025-08-31T13:31:01.000Z</time>
      </trkpt>
      <trkpt lat="44.09192" lon="3.02972">
        <ele>389.9</ele>
        <time>2025-08-31T13:31:03.000Z</time>
      </trkpt>
      <trkpt lat="44.09201" lon="3.0298">
        <ele>389.9</ele>
        <time>2025-08-31T13:31:05.000Z</time>
      </trkpt>
      <trkpt lat="44.0921" lon="3.02988">
        <ele>389.9</ele>
        <time>2025-08-31T13:31:07.000Z</time>
      </trkpt>
      <trkpt lat="44.0922" lon="3.02996">
        <ele>389.9</ele>
        <time>2025-08-31T13:31:09.000Z</time>
      </trkpt>
      <trkpt lat="44.09229" lon="3.03003">
        <ele>390</ele>
        <time>2025-08-31T13:31:11.000Z</time>
      </trkpt>
      <trkpt lat="44.09238" lon="3.03011">
        <ele>390</ele>
        <time>2025-08-31T13:31:13.000Z</time>
      </trkpt>
      <trkpt lat="44.09247" lon="3.03019">
        <ele>390</ele>
        <time>2025-08-31T13:31:15.000Z</time>
      </trkpt>
      <trkpt lat="44.09256" lon="3.03028">
        <ele>390</ele>
        <time>2025-08-31T13:31:17.000Z</time>
      </trkpt>
      <trkpt lat="44.09266" lon="3.03036">
        <ele>390.1</ele>
        <time>2025-08-31T13:31:19.000Z</time>
      </trkpt>
      <trkpt lat="44.09275" lon="3.03045">
        <ele>390.1</ele>
        <time>2025-08-31T13:31:21.000Z</time>
      </trkpt>
      <trkpt lat="44.09284" lon="3.03054">
        <ele>390.1</ele>
        <time>2025-08-31T13:31:23.000Z</time>
      </trkpt>
      <trkpt lat="44.09292" lon="3.03063">
        <ele>390.1</ele>
        <time>2025-08-31T13:31:25.000Z</time>
      </trkpt>
      <trkpt lat="44.09301" lon="3.03073">
        <ele>390.1</ele>
        <time>2025-08-31T13:31:27.000Z</time>
      </trkpt>
      <trkpt lat="44.0931" lon="3.03084">
        <ele>390.1</ele>
        <time>2025-08-31T13:31:29.000Z</time>
      </trkpt>
      <trkpt lat="44.09318" lon="3.03095">
        <ele>390.1</ele>
        <time>2025-08-31T13:31:31.000Z</time>
      </trkpt>
      <trkpt lat="44.09326" lon="3.03105">
        <ele>390.1</ele>
        <time>2025-08-31T13:31:33.000Z</time>
      </trkpt>
      <trkpt lat="44.09334" lon="3.03116">
        <ele>390.2</ele>
        <time>2025-08-31T13:31:35.000Z</time>
      </trkpt>
      <trkpt lat="44.09342" lon="3.03127">
        <ele>390.2</ele>
        <time>2025-08-31T13:31:37.000Z</time>
      </trkpt>
      <trkpt lat="44.0935" lon="3.03139">
        <ele>390.2</ele>
        <time>2025-08-31T13:31:39.000Z</time>
      </trkpt>
      <trkpt lat="44.09358" lon="3.03152">
        <ele>390.2</ele>
        <time>2025-08-31T13:31:41.000Z</time>
      </trkpt>
      <trkpt lat="44.09365" lon="3.03166">
        <ele>390.2</ele>
        <time>2025-08-31T13:31:43.000Z</time>
      </trkpt>
      <trkpt lat="44.09372" lon="3.03179">
        <ele>390.2</ele>
        <time>2025-08-31T13:31:45.000Z</time>
      </trkpt>
      <trkpt lat="44.09378" lon="3.03194">
        <ele>390.2</ele>
        <time>2025-08-31T13:31:47.000Z</time>
      </trkpt>
      <trkpt lat="44.09385" lon="3.03209">
        <ele>390.2</ele>
        <time>2025-08-31T13:31:49.000Z</time>
      </trkpt>
      <trkpt lat="44.09392" lon="3.03224">
        <ele>390.2</ele>
        <time>2025-08-31T13:31:51.000Z</time>
      </trkpt>
      <trkpt lat="44.09398" lon="3.03239">
        <ele>390.4</ele>
        <time>2025-08-31T13:31:53.000Z</time>
      </trkpt>
      <trkpt lat="44.09404" lon="3.03254">
        <ele>390.4</ele>
        <time>2025-08-31T13:31:55.000Z</time>
      </trkpt>
      <trkpt lat="44.09409" lon="3.0327">
        <ele>390.5</ele>
        <time>2025-08-31T13:31:57.000Z</time>
      </trkpt>
      <trkpt lat="44.09414" lon="3.03286">
        <ele>390.6</ele>
        <time>2025-08-31T13:31:59.000Z</time>
      </trkpt>
      <trkpt lat="44.09418" lon="3.03302">
        <ele>390.7</ele>
        <time>2025-08-31T13:32:01.000Z</time>
      </trkpt>
      <trkpt lat="44.09422" lon="3.03318">
        <ele>390.7</ele>
        <time>2025-08-31T13:32:03.000Z</time>
      </trkpt>
      <trkpt lat="44.09426" lon="3.03335">
        <ele>390.8</ele>
        <time>2025-08-31T13:32:05.000Z</time>
      </trkpt>
      <trkpt lat="44.0943" lon="3.03352">
        <ele>390.8</ele>
        <time>2025-08-31T13:32:07.000Z</time>
      </trkpt>
      <trkpt lat="44.09433" lon="3.03368">
        <ele>390.9</ele>
        <time>2025-08-31T13:32:09.000Z</time>
      </trkpt>
      <trkpt lat="44.09435" lon="3.03385">
        <ele>390.9</ele>
        <time>2025-08-31T13:32:11.000Z</time>
      </trkpt>
      <trkpt lat="44.09437" lon="3.034">
        <ele>390.9</ele>
        <time>2025-08-31T13:32:13.000Z</time>
      </trkpt>
      <trkpt lat="44.09438" lon="3.03415">
        <ele>391</ele>
        <time>2025-08-31T13:32:15.000Z</time>
      </trkpt>
      <trkpt lat="44.09438" lon="3.03432">
        <ele>391</ele>
        <time>2025-08-31T13:32:17.000Z</time>
      </trkpt>
      <trkpt lat="44.09436" lon="3.03449">
        <ele>391.1</ele>
        <time>2025-08-31T13:32:19.000Z</time>
      </trkpt>
      <trkpt lat="44.09434" lon="3.03465">
        <ele>391.2</ele>
        <time>2025-08-31T13:32:21.000Z</time>
      </trkpt>
      <trkpt lat="44.09432" lon="3.03481">
        <ele>391.4</ele>
        <time>2025-08-31T13:32:23.000Z</time>
      </trkpt>
      <trkpt lat="44.0943" lon="3.03496">
        <ele>391.5</ele>
        <time>2025-08-31T13:32:25.000Z</time>
      </trkpt>
      <trkpt lat="44.09428" lon="3.0351">
        <ele>391.6</ele>
        <time>2025-08-31T13:32:27.000Z</time>
      </trkpt>
      <trkpt lat="44.09426" lon="3.03525">
        <ele>391.7</ele>
        <time>2025-08-31T13:32:29.000Z</time>
      </trkpt>
      <trkpt lat="44.09425" lon="3.03539">
        <ele>391.8</ele>
        <time>2025-08-31T13:32:31.000Z</time>
      </trkpt>
      <trkpt lat="44.09423" lon="3.03553">
        <ele>391.8</ele>
        <time>2025-08-31T13:32:33.000Z</time>
      </trkpt>
      <trkpt lat="44.09422" lon="3.03567">
        <ele>391.9</ele>
        <time>2025-08-31T13:32:35.000Z</time>
      </trkpt>
      <trkpt lat="44.09421" lon="3.0358">
        <ele>391.9</ele>
        <time>2025-08-31T13:32:37.000Z</time>
      </trkpt>
      <trkpt lat="44.09419" lon="3.03594">
        <ele>392</ele>
        <time>2025-08-31T13:32:39.000Z</time>
      </trkpt>
      <trkpt lat="44.09418" lon="3.03608">
        <ele>392</ele>
        <time>2025-08-31T13:32:41.000Z</time>
      </trkpt>
      <trkpt lat="44.09417" lon="3.03623">
        <ele>392</ele>
        <time>2025-08-31T13:32:43.000Z</time>
      </trkpt>
      <trkpt lat="44.09415" lon="3.03638">
        <ele>392.1</ele>
        <time>2025-08-31T13:32:45.000Z</time>
      </trkpt>
      <trkpt lat="44.09412" lon="3.03652">
        <ele>392.1</ele>
        <time>2025-08-31T13:32:47.000Z</time>
      </trkpt>
      <trkpt lat="44.0941" lon="3.03667">
        <ele>392</ele>
        <time>2025-08-31T13:32:49.000Z</time>
      </trkpt>
      <trkpt lat="44.09407" lon="3.03682">
        <ele>392</ele>
        <time>2025-08-31T13:32:51.000Z</time>
      </trkpt>
      <trkpt lat="44.09404" lon="3.03697">
        <ele>392</ele>
        <time>2025-08-31T13:32:53.000Z</time>
      </trkpt>
      <trkpt lat="44.09401" lon="3.03712">
        <ele>392</ele>
        <time>2025-08-31T13:32:55.000Z</time>
      </trkpt>
      <trkpt lat="44.09397" lon="3.03727">
        <ele>392</ele>
        <time>2025-08-31T13:32:57.000Z</time>
      </trkpt>
      <trkpt lat="44.09393" lon="3.03743">
        <ele>391.9</ele>
        <time>2025-08-31T13:32:59.000Z</time>
      </trkpt>
      <trkpt lat="44.09389" lon="3.03758">
        <ele>391.9</ele>
        <time>2025-08-31T13:33:01.000Z</time>
      </trkpt>
      <trkpt lat="44.09384" lon="3.03774">
        <ele>391.9</ele>
        <time>2025-08-31T13:33:03.000Z</time>
      </trkpt>
      <trkpt lat="44.09379" lon="3.03789">
        <ele>391.9</ele>
        <time>2025-08-31T13:33:05.000Z</time>
      </trkpt>
      <trkpt lat="44.09373" lon="3.03804">
        <ele>391.9</ele>
        <time>2025-08-31T13:33:07.000Z</time>
      </trkpt>
      <trkpt lat="44.09367" lon="3.03819">
        <ele>391.9</ele>
        <time>2025-08-31T13:33:09.000Z</time>
      </trkpt>
      <trkpt lat="44.09361" lon="3.03834">
        <ele>391.9</ele>
        <time>2025-08-31T13:33:11.000Z</time>
      </trkpt>
      <trkpt lat="44.09354" lon="3.03848">
        <ele>392</ele>
        <time>2025-08-31T13:33:13.000Z</time>
      </trkpt>
      <trkpt lat="44.09346" lon="3.03862">
        <ele>392</ele>
        <time>2025-08-31T13:33:15.000Z</time>
      </trkpt>
      <trkpt lat="44.09338" lon="3.03875">
        <ele>392</ele>
        <time>2025-08-31T13:33:17.000Z</time>
      </trkpt>
      <trkpt lat="44.09331" lon="3.03888">
        <ele>392</ele>
        <time>2025-08-31T13:33:19.000Z</time>
      </trkpt>
      <trkpt lat="44.09323" lon="3.03901">
        <ele>392</ele>
        <time>2025-08-31T13:33:21.000Z</time>
      </trkpt>
      <trkpt lat="44.09316" lon="3.03913">
        <ele>392.1</ele>
        <time>2025-08-31T13:33:23.000Z</time>
      </trkpt>
      <trkpt lat="44.09308" lon="3.03925">
        <ele>392.2</ele>
        <time>2025-08-31T13:33:25.000Z</time>
      </trkpt>
      <trkpt lat="44.093" lon="3.03937">
        <ele>392.3</ele>
        <time>2025-08-31T13:33:27.000Z</time>
      </trkpt>
      <trkpt lat="44.09293" lon="3.03948">
        <ele>392.4</ele>
        <time>2025-08-31T13:33:29.000Z</time>
      </trkpt>
      <trkpt lat="44.09286" lon="3.03959">
        <ele>392.5</ele>
        <time>2025-08-31T13:33:31.000Z</time>
      </trkpt>
      <trkpt lat="44.09279" lon="3.03969">
        <ele>392.6</ele>
        <time>2025-08-31T13:33:33.000Z</time>
      </trkpt>
      <trkpt lat="44.09272" lon="3.0398">
        <ele>392.7</ele>
        <time>2025-08-31T13:33:35.000Z</time>
      </trkpt>
      <trkpt lat="44.09264" lon="3.03991">
        <ele>392.7</ele>
        <time>2025-08-31T13:33:37.000Z</time>
      </trkpt>
      <trkpt lat="44.09256" lon="3.04003">
        <ele>392.8</ele>
        <time>2025-08-31T13:33:39.000Z</time>
      </trkpt>
      <trkpt lat="44.09248" lon="3.04015">
        <ele>392.9</ele>
        <time>2025-08-31T13:33:41.000Z</time>
      </trkpt>
      <trkpt lat="44.09241" lon="3.04027">
        <ele>393</ele>
        <time>2025-08-31T13:33:43.000Z</time>
      </trkpt>
      <trkpt lat="44.09233" lon="3.04038">
        <ele>393.2</ele>
        <time>2025-08-31T13:33:45.000Z</time>
      </trkpt>
      <trkpt lat="44.09225" lon="3.04048">
        <ele>393.5</ele>
        <time>2025-08-31T13:33:47.000Z</time>
      </trkpt>
      <trkpt lat="44.09217" lon="3.0406">
        <ele>393.6</ele>
        <time>2025-08-31T13:33:49.000Z</time>
      </trkpt>
      <trkpt lat="44.09209" lon="3.04072">
        <ele>393.8</ele>
        <time>2025-08-31T13:33:51.000Z</time>
      </trkpt>
      <trkpt lat="44.092" lon="3.04083">
        <ele>394</ele>
        <time>2025-08-31T13:33:53.000Z</time>
      </trkpt>
      <trkpt lat="44.09192" lon="3.04094">
        <ele>394.1</ele>
        <time>2025-08-31T13:33:55.000Z</time>
      </trkpt>
      <trkpt lat="44.09184" lon="3.04105">
        <ele>394.2</ele>
        <time>2025-08-31T13:33:57.000Z</time>
      </trkpt>
      <trkpt lat="44.09178" lon="3.04118">
        <ele>394.3</ele>
        <time>2025-08-31T13:33:59.000Z</time>
      </trkpt>
      <trkpt lat="44.09171" lon="3.0413">
        <ele>394.4</ele>
        <time>2025-08-31T13:34:01.000Z</time>
      </trkpt>
      <trkpt lat="44.09166" lon="3.04142">
        <ele>394.6</ele>
        <time>2025-08-31T13:34:03.000Z</time>
      </trkpt>
      <trkpt lat="44.0916" lon="3.04154">
        <ele>394.7</ele>
        <time>2025-08-31T13:34:05.000Z</time>
      </trkpt>
      <trkpt lat="44.09156" lon="3.04167">
        <ele>394.9</ele>
        <time>2025-08-31T13:34:07.000Z</time>
      </trkpt>
      <trkpt lat="44.09152" lon="3.04179">
        <ele>395</ele>
        <time>2025-08-31T13:34:09.000Z</time>
      </trkpt>
      <trkpt lat="44.09149" lon="3.04193">
        <ele>395.2</ele>
        <time>2025-08-31T13:34:11.000Z</time>
      </trkpt>
      <trkpt lat="44.09146" lon="3.04207">
        <ele>395.3</ele>
        <time>2025-08-31T13:34:13.000Z</time>
      </trkpt>
      <trkpt lat="44.09144" lon="3.0422">
        <ele>395.4</ele>
        <time>2025-08-31T13:34:15.000Z</time>
      </trkpt>
      <trkpt lat="44.09142" lon="3.04234">
        <ele>395.5</ele>
        <time>2025-08-31T13:34:17.000Z</time>
      </trkpt>
      <trkpt lat="44.09141" lon="3.04248">
        <ele>395.5</ele>
        <time>2025-08-31T13:34:19.000Z</time>
      </trkpt>
      <trkpt lat="44.0914" lon="3.04262">
        <ele>395.6</ele>
        <time>2025-08-31T13:34:21.000Z</time>
      </trkpt>
      <trkpt lat="44.0914" lon="3.04276">
        <ele>395.6</ele>
        <time>2025-08-31T13:34:23.000Z</time>
      </trkpt>
      <trkpt lat="44.0914" lon="3.0429">
        <ele>395.6</ele>
        <time>2025-08-31T13:34:25.000Z</time>
      </trkpt>
      <trkpt lat="44.0914" lon="3.04303">
        <ele>395.7</ele>
        <time>2025-08-31T13:34:27.000Z</time>
      </trkpt>
      <trkpt lat="44.09142" lon="3.04318">
        <ele>395.7</ele>
        <time>2025-08-31T13:34:29.000Z</time>
      </trkpt>
      <trkpt lat="44.09143" lon="3.04332">
        <ele>395.7</ele>
        <time>2025-08-31T13:34:31.000Z</time>
      </trkpt>
      <trkpt lat="44.09146" lon="3.04347">
        <ele>395.6</ele>
        <time>2025-08-31T13:34:33.000Z</time>
      </trkpt>
      <trkpt lat="44.09149" lon="3.04362">
        <ele>395.6</ele>
        <time>2025-08-31T13:34:35.000Z</time>
      </trkpt>
      <trkpt lat="44.09151" lon="3.04377">
        <ele>395.6</ele>
        <time>2025-08-31T13:34:37.000Z</time>
      </trkpt>
      <trkpt lat="44.09154" lon="3.04392">
        <ele>395.6</ele>
        <time>2025-08-31T13:34:39.000Z</time>
      </trkpt>
      <trkpt lat="44.09157" lon="3.04407">
        <ele>395.6</ele>
        <time>2025-08-31T13:34:41.000Z</time>
      </trkpt>
      <trkpt lat="44.0916" lon="3.04422">
        <ele>395.6</ele>
        <time>2025-08-31T13:34:43.000Z</time>
      </trkpt>
      <trkpt lat="44.09163" lon="3.04437">
        <ele>395.6</ele>
        <time>2025-08-31T13:34:45.000Z</time>
      </trkpt>
      <trkpt lat="44.09166" lon="3.04452">
        <ele>395.6</ele>
        <time>2025-08-31T13:34:47.000Z</time>
      </trkpt>
      <trkpt lat="44.0917" lon="3.04467">
        <ele>395.7</ele>
        <time>2025-08-31T13:34:49.000Z</time>
      </trkpt>
      <trkpt lat="44.09173" lon="3.04482">
        <ele>395.9</ele>
        <time>2025-08-31T13:34:51.000Z</time>
      </trkpt>
      <trkpt lat="44.09177" lon="3.04496">
        <ele>395.9</ele>
        <time>2025-08-31T13:34:53.000Z</time>
      </trkpt>
      <trkpt lat="44.0918" lon="3.0451">
        <ele>395.8</ele>
        <time>2025-08-31T13:34:55.000Z</time>
      </trkpt>
      <trkpt lat="44.09184" lon="3.04525">
        <ele>395.7</ele>
        <time>2025-08-31T13:34:57.000Z</time>
      </trkpt>
      <trkpt lat="44.09188" lon="3.0454">
        <ele>395.7</ele>
        <time>2025-08-31T13:34:59.000Z</time>
      </trkpt>
      <trkpt lat="44.09191" lon="3.04554">
        <ele>395.6</ele>
        <time>2025-08-31T13:35:01.000Z</time>
      </trkpt>
      <trkpt lat="44.09195" lon="3.0457">
        <ele>395.5</ele>
        <time>2025-08-31T13:35:03.000Z</time>
      </trkpt>
      <trkpt lat="44.09198" lon="3.04585">
        <ele>395.5</ele>
        <time>2025-08-31T13:35:05.000Z</time>
      </trkpt>
      <trkpt lat="44.09202" lon="3.04601">
        <ele>395.6</ele>
        <time>2025-08-31T13:35:07.000Z</time>
      </trkpt>
      <trkpt lat="44.09205" lon="3.04618">
        <ele>395.7</ele>
        <time>2025-08-31T13:35:09.000Z</time>
      </trkpt>
      <trkpt lat="44.09208" lon="3.04635">
        <ele>395.8</ele>
        <time>2025-08-31T13:35:11.000Z</time>
      </trkpt>
      <trkpt lat="44.09211" lon="3.04653">
        <ele>395.8</ele>
        <time>2025-08-31T13:35:13.000Z</time>
      </trkpt>
      <trkpt lat="44.09214" lon="3.0467">
        <ele>395.9</ele>
        <time>2025-08-31T13:35:15.000Z</time>
      </trkpt>
      <trkpt lat="44.09216" lon="3.04687">
        <ele>395.9</ele>
        <time>2025-08-31T13:35:17.000Z</time>
      </trkpt>
      <trkpt lat="44.09219" lon="3.04704">
        <ele>396</ele>
        <time>2025-08-31T13:35:19.000Z</time>
      </trkpt>
      <trkpt lat="44.0922" lon="3.0472">
        <ele>396.1</ele>
        <time>2025-08-31T13:35:21.000Z</time>
      </trkpt>
      <trkpt lat="44.09222" lon="3.04734">
        <ele>396.3</ele>
        <time>2025-08-31T13:35:23.000Z</time>
      </trkpt>
      <trkpt lat="44.09223" lon="3.04749">
        <ele>396.4</ele>
        <time>2025-08-31T13:35:25.000Z</time>
      </trkpt>
      <trkpt lat="44.09223" lon="3.04763">
        <ele>396.5</ele>
        <time>2025-08-31T13:35:27.000Z</time>
      </trkpt>
      <trkpt lat="44.09224" lon="3.04777">
        <ele>396.6</ele>
        <time>2025-08-31T13:35:29.000Z</time>
      </trkpt>
      <trkpt lat="44.09224" lon="3.04791">
        <ele>396.7</ele>
        <time>2025-08-31T13:35:31.000Z</time>
      </trkpt>
      <trkpt lat="44.09224" lon="3.04804">
        <ele>396.7</ele>
        <time>2025-08-31T13:35:33.000Z</time>
      </trkpt>
      <trkpt lat="44.09223" lon="3.04817">
        <ele>396.8</ele>
        <time>2025-08-31T13:35:35.000Z</time>
      </trkpt>
      <trkpt lat="44.09222" lon="3.0483">
        <ele>396.8</ele>
        <time>2025-08-31T13:35:37.000Z</time>
      </trkpt>
      <trkpt lat="44.0922" lon="3.04844">
        <ele>396.7</ele>
        <time>2025-08-31T13:35:39.000Z</time>
      </trkpt>
      <trkpt lat="44.09218" lon="3.04856">
        <ele>396.7</ele>
        <time>2025-08-31T13:35:41.000Z</time>
      </trkpt>
      <trkpt lat="44.09216" lon="3.04869">
        <ele>396.5</ele>
        <time>2025-08-31T13:35:43.000Z</time>
      </trkpt>
      <trkpt lat="44.09214" lon="3.04881">
        <ele>396.3</ele>
        <time>2025-08-31T13:35:45.000Z</time>
      </trkpt>
      <trkpt lat="44.09212" lon="3.04894">
        <ele>396.1</ele>
        <time>2025-08-31T13:35:47.000Z</time>
      </trkpt>
      <trkpt lat="44.09209" lon="3.04906">
        <ele>395.9</ele>
        <time>2025-08-31T13:35:49.000Z</time>
      </trkpt>
      <trkpt lat="44.09206" lon="3.04919">
        <ele>395.7</ele>
        <time>2025-08-31T13:35:51.000Z</time>
      </trkpt>
      <trkpt lat="44.09203" lon="3.04933">
        <ele>395.6</ele>
        <time>2025-08-31T13:35:53.000Z</time>
      </trkpt>
      <trkpt lat="44.09201" lon="3.04946">
        <ele>395.4</ele>
        <time>2025-08-31T13:35:55.000Z</time>
      </trkpt>
      <trkpt lat="44.09198" lon="3.04959">
        <ele>395.3</ele>
        <time>2025-08-31T13:35:57.000Z</time>
      </trkpt>
      <trkpt lat="44.09195" lon="3.04973">
        <ele>395.2</ele>
        <time>2025-08-31T13:35:59.000Z</time>
      </trkpt>
      <trkpt lat="44.09191" lon="3.04987">
        <ele>395.1</ele>
        <time>2025-08-31T13:36:01.000Z</time>
      </trkpt>
      <trkpt lat="44.09186" lon="3.05001">
        <ele>395.1</ele>
        <time>2025-08-31T13:36:03.000Z</time>
      </trkpt>
      <trkpt lat="44.09181" lon="3.05016">
        <ele>395.2</ele>
        <time>2025-08-31T13:36:05.000Z</time>
      </trkpt>
      <trkpt lat="44.09176" lon="3.0503">
        <ele>395.3</ele>
        <time>2025-08-31T13:36:07.000Z</time>
      </trkpt>
      <trkpt lat="44.09171" lon="3.05043">
        <ele>395.4</ele>
        <time>2025-08-31T13:36:09.000Z</time>
      </trkpt>
      <trkpt lat="44.09165" lon="3.05057">
        <ele>395.4</ele>
        <time>2025-08-31T13:36:11.000Z</time>
      </trkpt>
      <trkpt lat="44.09159" lon="3.0507">
        <ele>395.5</ele>
        <time>2025-08-31T13:36:13.000Z</time>
      </trkpt>
      <trkpt lat="44.09152" lon="3.05083">
        <ele>395.6</ele>
        <time>2025-08-31T13:36:15.000Z</time>
      </trkpt>
      <trkpt lat="44.09145" lon="3.05096">
        <ele>395.6</ele>
        <time>2025-08-31T13:36:17.000Z</time>
      </trkpt>
      <trkpt lat="44.09137" lon="3.05108">
        <ele>395.7</ele>
        <time>2025-08-31T13:36:19.000Z</time>
      </trkpt>
      <trkpt lat="44.0913" lon="3.05121">
        <ele>395.7</ele>
        <time>2025-08-31T13:36:21.000Z</time>
      </trkpt>
      <trkpt lat="44.09122" lon="3.05133">
        <ele>395.8</ele>
        <time>2025-08-31T13:36:23.000Z</time>
      </trkpt>
      <trkpt lat="44.09115" lon="3.05146">
        <ele>395.9</ele>
        <time>2025-08-31T13:36:25.000Z</time>
      </trkpt>
      <trkpt lat="44.09108" lon="3.05158">
        <ele>396</ele>
        <time>2025-08-31T13:36:27.000Z</time>
      </trkpt>
      <trkpt lat="44.091" lon="3.0517">
        <ele>396.1</ele>
        <time>2025-08-31T13:36:29.000Z</time>
      </trkpt>
      <trkpt lat="44.09093" lon="3.05182">
        <ele>396.2</ele>
        <time>2025-08-31T13:36:31.000Z</time>
      </trkpt>
      <trkpt lat="44.09086" lon="3.05194">
        <ele>396.3</ele>
        <time>2025-08-31T13:36:33.000Z</time>
      </trkpt>
      <trkpt lat="44.0908" lon="3.05206">
        <ele>396.5</ele>
        <time>2025-08-31T13:36:35.000Z</time>
      </trkpt>
      <trkpt lat="44.09073" lon="3.05218">
        <ele>396.7</ele>
        <time>2025-08-31T13:36:37.000Z</time>
      </trkpt>
      <trkpt lat="44.09067" lon="3.05231">
        <ele>396.8</ele>
        <time>2025-08-31T13:36:39.000Z</time>
      </trkpt>
      <trkpt lat="44.09061" lon="3.05243">
        <ele>397</ele>
        <time>2025-08-31T13:36:41.000Z</time>
      </trkpt>
      <trkpt lat="44.09056" lon="3.05255">
        <ele>397.1</ele>
        <time>2025-08-31T13:36:43.000Z</time>
      </trkpt>
      <trkpt lat="44.0905" lon="3.05267">
        <ele>397.3</ele>
        <time>2025-08-31T13:36:45.000Z</time>
      </trkpt>
      <trkpt lat="44.09044" lon="3.0528">
        <ele>397.5</ele>
        <time>2025-08-31T13:36:47.000Z</time>
      </trkpt>
      <trkpt lat="44.09038" lon="3.05293">
        <ele>397.7</ele>
        <time>2025-08-31T13:36:49.000Z</time>
      </trkpt>
      <trkpt lat="44.09031" lon="3.05307">
        <ele>397.9</ele>
        <time>2025-08-31T13:36:51.000Z</time>
      </trkpt>
      <trkpt lat="44.09025" lon="3.05319">
        <ele>398.1</ele>
        <time>2025-08-31T13:36:53.000Z</time>
      </trkpt>
      <trkpt lat="44.09019" lon="3.05331">
        <ele>398.4</ele>
        <time>2025-08-31T13:36:55.000Z</time>
      </trkpt>
      <trkpt lat="44.09014" lon="3.05343">
        <ele>398.6</ele>
        <time>2025-08-31T13:36:57.000Z</time>
      </trkpt>
      <trkpt lat="44.09009" lon="3.05354">
        <ele>398.9</ele>
        <time>2025-08-31T13:36:59.000Z</time>
      </trkpt>
      <trkpt lat="44.09003" lon="3.05366">
        <ele>399.2</ele>
        <time>2025-08-31T13:37:01.000Z</time>
      </trkpt>
      <trkpt lat="44.08998" lon="3.05377">
        <ele>399.6</ele>
        <time>2025-08-31T13:37:03.000Z</time>
      </trkpt>
      <trkpt lat="44.08993" lon="3.05388">
        <ele>399.9</ele>
        <time>2025-08-31T13:37:05.000Z</time>
      </trkpt>
      <trkpt lat="44.08988" lon="3.054">
        <ele>400.2</ele>
        <time>2025-08-31T13:37:07.000Z</time>
      </trkpt>
      <trkpt lat="44.08983" lon="3.05411">
        <ele>400.5</ele>
        <time>2025-08-31T13:37:09.000Z</time>
      </trkpt>
      <trkpt lat="44.08977" lon="3.05427">
        <ele>401.1</ele>
        <time>2025-08-31T13:37:12.000Z</time>
      </trkpt>
      <trkpt lat="44.08973" lon="3.05439">
        <ele>401.4</ele>
        <time>2025-08-31T13:37:14.000Z</time>
      </trkpt>
      <trkpt lat="44.08969" lon="3.05451">
        <ele>401.7</ele>
        <time>2025-08-31T13:37:16.000Z</time>
      </trkpt>
      <trkpt lat="44.08966" lon="3.05464">
        <ele>402</ele>
        <time>2025-08-31T13:37:18.000Z</time>
      </trkpt>
      <trkpt lat="44.08963" lon="3.05476">
        <ele>402.2</ele>
        <time>2025-08-31T13:37:20.000Z</time>
      </trkpt>
      <trkpt lat="44.08961" lon="3.05488">
        <ele>402.5</ele>
        <time>2025-08-31T13:37:22.000Z</time>
      </trkpt>
      <trkpt lat="44.08958" lon="3.05501">
        <ele>402.7</ele>
        <time>2025-08-31T13:37:24.000Z</time>
      </trkpt>
      <trkpt lat="44.08955" lon="3.05514">
        <ele>402.9</ele>
        <time>2025-08-31T13:37:26.000Z</time>
      </trkpt>
      <trkpt lat="44.08952" lon="3.05527">
        <ele>403.1</ele>
        <time>2025-08-31T13:37:28.000Z</time>
      </trkpt>
      <trkpt lat="44.0895" lon="3.0554">
        <ele>403.3</ele>
        <time>2025-08-31T13:37:30.000Z</time>
      </trkpt>
      <trkpt lat="44.08947" lon="3.05553">
        <ele>403.6</ele>
        <time>2025-08-31T13:37:32.000Z</time>
      </trkpt>
      <trkpt lat="44.08944" lon="3.05567">
        <ele>403.8</ele>
        <time>2025-08-31T13:37:34.000Z</time>
      </trkpt>
      <trkpt lat="44.08941" lon="3.0558">
        <ele>404</ele>
        <time>2025-08-31T13:37:36.000Z</time>
      </trkpt>
      <trkpt lat="44.08939" lon="3.05594">
        <ele>404.1</ele>
        <time>2025-08-31T13:37:38.000Z</time>
      </trkpt>
      <trkpt lat="44.08936" lon="3.05607">
        <ele>404.4</ele>
        <time>2025-08-31T13:37:40.000Z</time>
      </trkpt>
      <trkpt lat="44.08933" lon="3.05622">
        <ele>404.6</ele>
        <time>2025-08-31T13:37:42.000Z</time>
      </trkpt>
      <trkpt lat="44.0893" lon="3.05635">
        <ele>404.8</ele>
        <time>2025-08-31T13:37:44.000Z</time>
      </trkpt>
      <trkpt lat="44.08928" lon="3.05649">
        <ele>405</ele>
        <time>2025-08-31T13:37:46.000Z</time>
      </trkpt>
      <trkpt lat="44.08925" lon="3.05663">
        <ele>405.3</ele>
        <time>2025-08-31T13:37:48.000Z</time>
      </trkpt>
      <trkpt lat="44.08922" lon="3.05677">
        <ele>405.5</ele>
        <time>2025-08-31T13:37:50.000Z</time>
      </trkpt>
      <trkpt lat="44.0892" lon="3.05691">
        <ele>405.9</ele>
        <time>2025-08-31T13:37:52.000Z</time>
      </trkpt>
      <trkpt lat="44.08917" lon="3.05705">
        <ele>406.2</ele>
        <time>2025-08-31T13:37:54.000Z</time>
      </trkpt>
      <trkpt lat="44.08914" lon="3.05718">
        <ele>406.5</ele>
        <time>2025-08-31T13:37:56.000Z</time>
      </trkpt>
      <trkpt lat="44.08911" lon="3.05732">
        <ele>406.8</ele>
        <time>2025-08-31T13:37:58.000Z</time>
      </trkpt>
      <trkpt lat="44.08909" lon="3.05746">
        <ele>407.1</ele>
        <time>2025-08-31T13:38:00.000Z</time>
      </trkpt>
      <trkpt lat="44.08906" lon="3.0576">
        <ele>407.3</ele>
        <time>2025-08-31T13:38:02.000Z</time>
      </trkpt>
      <trkpt lat="44.08904" lon="3.05774">
        <ele>407.5</ele>
        <time>2025-08-31T13:38:04.000Z</time>
      </trkpt>
      <trkpt lat="44.08901" lon="3.05789">
        <ele>407.7</ele>
        <time>2025-08-31T13:38:06.000Z</time>
      </trkpt>
      <trkpt lat="44.08899" lon="3.05803">
        <ele>407.9</ele>
        <time>2025-08-31T13:38:08.000Z</time>
      </trkpt>
      <trkpt lat="44.08896" lon="3.05819">
        <ele>408</ele>
        <time>2025-08-31T13:38:10.000Z</time>
      </trkpt>
      <trkpt lat="44.08894" lon="3.05835">
        <ele>408.2</ele>
        <time>2025-08-31T13:38:12.000Z</time>
      </trkpt>
      <trkpt lat="44.08891" lon="3.05851">
        <ele>408.3</ele>
        <time>2025-08-31T13:38:14.000Z</time>
      </trkpt>
      <trkpt lat="44.08888" lon="3.05868">
        <ele>408.4</ele>
        <time>2025-08-31T13:38:16.000Z</time>
      </trkpt>
      <trkpt lat="44.08885" lon="3.05885">
        <ele>408.5</ele>
        <time>2025-08-31T13:38:18.000Z</time>
      </trkpt>
      <trkpt lat="44.08883" lon="3.05903">
        <ele>408.6</ele>
        <time>2025-08-31T13:38:20.000Z</time>
      </trkpt>
      <trkpt lat="44.08882" lon="3.05922">
        <ele>408.7</ele>
        <time>2025-08-31T13:38:22.000Z</time>
      </trkpt>
      <trkpt lat="44.08881" lon="3.0594">
        <ele>408.8</ele>
        <time>2025-08-31T13:38:24.000Z</time>
      </trkpt>
      <trkpt lat="44.08881" lon="3.05959">
        <ele>409</ele>
        <time>2025-08-31T13:38:26.000Z</time>
      </trkpt>
      <trkpt lat="44.08881" lon="3.05976">
        <ele>409</ele>
        <time>2025-08-31T13:38:28.000Z</time>
      </trkpt>
      <trkpt lat="44.0888" lon="3.05993">
        <ele>409.1</ele>
        <time>2025-08-31T13:38:30.000Z</time>
      </trkpt>
      <trkpt lat="44.08878" lon="3.06008">
        <ele>409.2</ele>
        <time>2025-08-31T13:38:32.000Z</time>
      </trkpt>
      <trkpt lat="44.08877" lon="3.06024">
        <ele>409.3</ele>
        <time>2025-08-31T13:38:34.000Z</time>
      </trkpt>
      <trkpt lat="44.08879" lon="3.06041">
        <ele>409.4</ele>
        <time>2025-08-31T13:38:36.000Z</time>
      </trkpt>
      <trkpt lat="44.08882" lon="3.06058">
        <ele>409.5</ele>
        <time>2025-08-31T13:38:38.000Z</time>
      </trkpt>
      <trkpt lat="44.08887" lon="3.06074">
        <ele>409.5</ele>
        <time>2025-08-31T13:38:40.000Z</time>
      </trkpt>
      <trkpt lat="44.08893" lon="3.06089">
        <ele>409.5</ele>
        <time>2025-08-31T13:38:42.000Z</time>
      </trkpt>
      <trkpt lat="44.089" lon="3.06103">
        <ele>409.5</ele>
        <time>2025-08-31T13:38:44.000Z</time>
      </trkpt>
      <trkpt lat="44.08908" lon="3.06115">
        <ele>409.6</ele>
        <time>2025-08-31T13:38:46.000Z</time>
      </trkpt>
      <trkpt lat="44.08916" lon="3.06125">
        <ele>409.5</ele>
        <time>2025-08-31T13:38:48.000Z</time>
      </trkpt>
      <trkpt lat="44.08925" lon="3.06134">
        <ele>409.4</ele>
        <time>2025-08-31T13:38:50.000Z</time>
      </trkpt>
      <trkpt lat="44.08935" lon="3.06141">
        <ele>409.3</ele>
        <time>2025-08-31T13:38:52.000Z</time>
      </trkpt>
      <trkpt lat="44.08946" lon="3.06149">
        <ele>409.2</ele>
        <time>2025-08-31T13:38:54.000Z</time>
      </trkpt>
      <trkpt lat="44.08957" lon="3.06154">
        <ele>409.1</ele>
        <time>2025-08-31T13:38:56.000Z</time>
      </trkpt>
      <trkpt lat="44.08968" lon="3.06158">
        <ele>409</ele>
        <time>2025-08-31T13:38:58.000Z</time>
      </trkpt>
      <trkpt lat="44.08979" lon="3.06162">
        <ele>408.9</ele>
        <time>2025-08-31T13:39:00.000Z</time>
      </trkpt>
      <trkpt lat="44.08989" lon="3.06164">
        <ele>408.7</ele>
        <time>2025-08-31T13:39:02.000Z</time>
      </trkpt>
      <trkpt lat="44.09001" lon="3.06166">
        <ele>408.6</ele>
        <time>2025-08-31T13:39:04.000Z</time>
      </trkpt>
      <trkpt lat="44.09011" lon="3.06167">
        <ele>408.5</ele>
        <time>2025-08-31T13:39:06.000Z</time>
      </trkpt>
      <trkpt lat="44.09022" lon="3.06168">
        <ele>408.3</ele>
        <time>2025-08-31T13:39:08.000Z</time>
      </trkpt>
      <trkpt lat="44.09033" lon="3.06169">
        <ele>408.1</ele>
        <time>2025-08-31T13:39:10.000Z</time>
      </trkpt>
      <trkpt lat="44.09043" lon="3.06169">
        <ele>407.8</ele>
        <time>2025-08-31T13:39:12.000Z</time>
      </trkpt>
      <trkpt lat="44.09054" lon="3.06171">
        <ele>407.6</ele>
        <time>2025-08-31T13:39:14.000Z</time>
      </trkpt>
      <trkpt lat="44.09064" lon="3.06175">
        <ele>407.2</ele>
        <time>2025-08-31T13:39:16.000Z</time>
      </trkpt>
      <trkpt lat="44.09074" lon="3.0618">
        <ele>406.9</ele>
        <time>2025-08-31T13:39:18.000Z</time>
      </trkpt>
      <trkpt lat="44.09084" lon="3.06186">
        <ele>406.7</ele>
        <time>2025-08-31T13:39:20.000Z</time>
      </trkpt>
      <trkpt lat="44.09095" lon="3.06192">
        <ele>406.5</ele>
        <time>2025-08-31T13:39:22.000Z</time>
      </trkpt>
      <trkpt lat="44.09105" lon="3.06199">
        <ele>406.3</ele>
        <time>2025-08-31T13:39:24.000Z</time>
      </trkpt>
      <trkpt lat="44.09115" lon="3.06206">
        <ele>406.1</ele>
        <time>2025-08-31T13:39:26.000Z</time>
      </trkpt>
      <trkpt lat="44.09125" lon="3.06214">
        <ele>406</ele>
        <time>2025-08-31T13:39:28.000Z</time>
      </trkpt>
      <trkpt lat="44.09134" lon="3.06223">
        <ele>405.8</ele>
        <time>2025-08-31T13:39:30.000Z</time>
      </trkpt>
      <trkpt lat="44.09142" lon="3.06231">
        <ele>405.7</ele>
        <time>2025-08-31T13:39:32.000Z</time>
      </trkpt>
      <trkpt lat="44.0915" lon="3.06239">
        <ele>405.6</ele>
        <time>2025-08-31T13:39:34.000Z</time>
      </trkpt>
      <trkpt lat="44.09159" lon="3.06249">
        <ele>405.4</ele>
        <time>2025-08-31T13:39:36.000Z</time>
      </trkpt>
      <trkpt lat="44.09166" lon="3.06259">
        <ele>405.2</ele>
        <time>2025-08-31T13:39:38.000Z</time>
      </trkpt>
      <trkpt lat="44.09174" lon="3.06268">
        <ele>405.1</ele>
        <time>2025-08-31T13:39:40.000Z</time>
      </trkpt>
      <trkpt lat="44.09182" lon="3.06278">
        <ele>404.9</ele>
        <time>2025-08-31T13:39:42.000Z</time>
      </trkpt>
      <trkpt lat="44.0919" lon="3.06287">
        <ele>404.7</ele>
        <time>2025-08-31T13:39:44.000Z</time>
      </trkpt>
      <trkpt lat="44.09197" lon="3.06297">
        <ele>404.5</ele>
        <time>2025-08-31T13:39:46.000Z</time>
      </trkpt>
      <trkpt lat="44.09203" lon="3.06307">
        <ele>404.3</ele>
        <time>2025-08-31T13:39:48.000Z</time>
      </trkpt>
      <trkpt lat="44.09209" lon="3.06316">
        <ele>404.1</ele>
        <time>2025-08-31T13:39:50.000Z</time>
      </trkpt>
      <trkpt lat="44.09216" lon="3.0633">
        <ele>403.9</ele>
        <time>2025-08-31T13:39:53.000Z</time>
      </trkpt>
      <trkpt lat="44.09223" lon="3.06344">
        <ele>403.6</ele>
        <time>2025-08-31T13:39:56.000Z</time>
      </trkpt>
      <trkpt lat="44.0923" lon="3.06359">
        <ele>403.3</ele>
        <time>2025-08-31T13:39:59.000Z</time>
      </trkpt>
      <trkpt lat="44.09235" lon="3.06371">
        <ele>403.2</ele>
        <time>2025-08-31T13:40:01.000Z</time>
      </trkpt>
      <trkpt lat="44.0924" lon="3.06382">
        <ele>403</ele>
        <time>2025-08-31T13:40:03.000Z</time>
      </trkpt>
      <trkpt lat="44.09244" lon="3.06394">
        <ele>402.9</ele>
        <time>2025-08-31T13:40:05.000Z</time>
      </trkpt>
      <trkpt lat="44.09246" lon="3.06406">
        <ele>402.8</ele>
        <time>2025-08-31T13:40:07.000Z</time>
      </trkpt>
      <trkpt lat="44.09243" lon="3.06422">
        <ele>402.6</ele>
        <time>2025-08-31T13:40:10.000Z</time>
      </trkpt>
      <trkpt lat="44.09251" lon="3.06431">
        <ele>402.2</ele>
        <time>2025-08-31T13:40:13.000Z</time>
      </trkpt>
      <trkpt lat="44.09259" lon="3.06446">
        <ele>402</ele>
        <time>2025-08-31T13:40:16.000Z</time>
      </trkpt>
      <trkpt lat="44.09264" lon="3.06457">
        <ele>401.8</ele>
        <time>2025-08-31T13:40:18.000Z</time>
      </trkpt>
      <trkpt lat="44.09268" lon="3.06469">
        <ele>401.7</ele>
        <time>2025-08-31T13:40:20.000Z</time>
      </trkpt>
      <trkpt lat="44.09272" lon="3.06481">
        <ele>401.6</ele>
        <time>2025-08-31T13:40:22.000Z</time>
      </trkpt>
      <trkpt lat="44.09277" lon="3.06494">
        <ele>401.5</ele>
        <time>2025-08-31T13:40:24.000Z</time>
      </trkpt>
      <trkpt lat="44.0928" lon="3.06508">
        <ele>401.4</ele>
        <time>2025-08-31T13:40:26.000Z</time>
      </trkpt>
      <trkpt lat="44.09285" lon="3.06521">
        <ele>401.3</ele>
        <time>2025-08-31T13:40:28.000Z</time>
      </trkpt>
      <trkpt lat="44.09289" lon="3.06535">
        <ele>401.2</ele>
        <time>2025-08-31T13:40:30.000Z</time>
      </trkpt>
      <trkpt lat="44.09293" lon="3.06549">
        <ele>401.2</ele>
        <time>2025-08-31T13:40:32.000Z</time>
      </trkpt>
      <trkpt lat="44.09297" lon="3.06563">
        <ele>401.1</ele>
        <time>2025-08-31T13:40:34.000Z</time>
      </trkpt>
      <trkpt lat="44.09302" lon="3.06576">
        <ele>401.1</ele>
        <time>2025-08-31T13:40:36.000Z</time>
      </trkpt>
      <trkpt lat="44.09307" lon="3.0659">
        <ele>401</ele>
        <time>2025-08-31T13:40:38.000Z</time>
      </trkpt>
      <trkpt lat="44.09309" lon="3.06603">
        <ele>401</ele>
        <time>2025-08-31T13:40:40.000Z</time>
      </trkpt>
      <trkpt lat="44.09314" lon="3.06619">
        <ele>401</ele>
        <time>2025-08-31T13:40:43.000Z</time>
      </trkpt>
      <trkpt lat="44.09317" lon="3.06633">
        <ele>401.1</ele>
        <time>2025-08-31T13:40:46.000Z</time>
      </trkpt>
      <trkpt lat="44.0932" lon="3.06646">
        <ele>401.2</ele>
        <time>2025-08-31T13:40:49.000Z</time>
      </trkpt>
      <trkpt lat="44.09323" lon="3.06659">
        <ele>401</ele>
        <time>2025-08-31T13:40:52.000Z</time>
      </trkpt>
      <trkpt lat="44.09326" lon="3.06671">
        <ele>400.9</ele>
        <time>2025-08-31T13:40:57.000Z</time>
      </trkpt>
      <trkpt lat="44.09334" lon="3.06676">
        <ele>400.7</ele>
        <time>2025-08-31T13:41:01.000Z</time>
      </trkpt>
      <trkpt lat="44.09343" lon="3.06668">
        <ele>400.5</ele>
        <time>2025-08-31T13:41:04.000Z</time>
      </trkpt>
      <trkpt lat="44.09353" lon="3.06662">
        <ele>400.3</ele>
        <time>2025-08-31T13:41:07.000Z</time>
      </trkpt>
      <trkpt lat="44.09362" lon="3.06672">
        <ele>400.2</ele>
        <time>2025-08-31T13:41:11.000Z</time>
      </trkpt>
      <trkpt lat="44.09369" lon="3.06685">
        <ele>400.6</ele>
        <time>2025-08-31T13:41:15.000Z</time>
      </trkpt>
      <trkpt lat="44.09379" lon="3.06693">
        <ele>401.2</ele>
        <time>2025-08-31T13:41:19.000Z</time>
      </trkpt>
      <trkpt lat="44.09389" lon="3.06702">
        <ele>402</ele>
        <time>2025-08-31T13:41:23.000Z</time>
      </trkpt>
      <trkpt lat="44.09397" lon="3.06709">
        <ele>402.4</ele>
        <time>2025-08-31T13:41:26.000Z</time>
      </trkpt>
      <trkpt lat="44.09406" lon="3.06717">
        <ele>402.9</ele>
        <time>2025-08-31T13:41:29.000Z</time>
      </trkpt>
      <trkpt lat="44.09414" lon="3.06725">
        <ele>403.5</ele>
        <time>2025-08-31T13:41:32.000Z</time>
      </trkpt>
      <trkpt lat="44.09422" lon="3.06734">
        <ele>404.1</ele>
        <time>2025-08-31T13:41:35.000Z</time>
      </trkpt>
      <trkpt lat="44.0943" lon="3.06742">
        <ele>404.8</ele>
        <time>2025-08-31T13:41:38.000Z</time>
      </trkpt>
      <trkpt lat="44.09438" lon="3.06751">
        <ele>405.4</ele>
        <time>2025-08-31T13:41:41.000Z</time>
      </trkpt>
      <trkpt lat="44.09447" lon="3.0676">
        <ele>406.1</ele>
        <time>2025-08-31T13:41:44.000Z</time>
      </trkpt>
      <trkpt lat="44.09455" lon="3.06769">
        <ele>406.9</ele>
        <time>2025-08-31T13:41:47.000Z</time>
      </trkpt>
      <trkpt lat="44.09464" lon="3.06778">
        <ele>407.6</ele>
        <time>2025-08-31T13:41:50.000Z</time>
      </trkpt>
      <trkpt lat="44.09472" lon="3.06786">
        <ele>408.3</ele>
        <time>2025-08-31T13:41:53.000Z</time>
      </trkpt>
      <trkpt lat="44.09479" lon="3.06796">
        <ele>409</ele>
        <time>2025-08-31T13:41:57.000Z</time>
      </trkpt>
      <trkpt lat="44.09485" lon="3.06807">
        <ele>409.7</ele>
        <time>2025-08-31T13:42:01.000Z</time>
      </trkpt>
      <trkpt lat="44.09492" lon="3.06818">
        <ele>410.2</ele>
        <time>2025-08-31T13:42:05.000Z</time>
      </trkpt>
      <trkpt lat="44.09499" lon="3.06828">
        <ele>410.6</ele>
        <time>2025-08-31T13:42:08.000Z</time>
      </trkpt>
      <trkpt lat="44.09507" lon="3.06841">
        <ele>410.8</ele>
        <time>2025-08-31T13:42:11.000Z</time>
      </trkpt>
      <trkpt lat="44.09514" lon="3.06851">
        <ele>411</ele>
        <time>2025-08-31T13:42:13.000Z</time>
      </trkpt>
      <trkpt lat="44.0952" lon="3.0686">
        <ele>411.1</ele>
        <time>2025-08-31T13:42:15.000Z</time>
      </trkpt>
      <trkpt lat="44.09527" lon="3.0687">
        <ele>411.2</ele>
        <time>2025-08-31T13:42:17.000Z</time>
      </trkpt>
      <trkpt lat="44.09533" lon="3.06878">
        <ele>411.2</ele>
        <time>2025-08-31T13:42:19.000Z</time>
      </trkpt>
      <trkpt lat="44.09541" lon="3.06887">
        <ele>411</ele>
        <time>2025-08-31T13:42:21.000Z</time>
      </trkpt>
      <trkpt lat="44.09547" lon="3.06896">
        <ele>410.9</ele>
        <time>2025-08-31T13:42:23.000Z</time>
      </trkpt>
      <trkpt lat="44.09554" lon="3.06905">
        <ele>410.7</ele>
        <time>2025-08-31T13:42:25.000Z</time>
      </trkpt>
      <trkpt lat="44.09561" lon="3.06913">
        <ele>410.5</ele>
        <time>2025-08-31T13:42:27.000Z</time>
      </trkpt>
      <trkpt lat="44.09569" lon="3.06923">
        <ele>410.3</ele>
        <time>2025-08-31T13:42:29.000Z</time>
      </trkpt>
      <trkpt lat="44.09577" lon="3.06932">
        <ele>410.1</ele>
        <time>2025-08-31T13:42:31.000Z</time>
      </trkpt>
      <trkpt lat="44.09586" lon="3.06938">
        <ele>410</ele>
        <time>2025-08-31T13:42:33.000Z</time>
      </trkpt>
      <trkpt lat="44.09594" lon="3.06942">
        <ele>409.9</ele>
        <time>2025-08-31T13:42:35.000Z</time>
      </trkpt>
      <trkpt lat="44.09604" lon="3.06949">
        <ele>409.7</ele>
        <time>2025-08-31T13:42:38.000Z</time>
      </trkpt>
      <trkpt lat="44.09615" lon="3.06973">
        <ele>375.7</ele>
        <time>2025-08-31T09:13:14.000Z</time>
      </trkpt>
      <trkpt lat="44.09615" lon="3.06973">
        <ele>375.7</ele>
        <time>2025-08-31T09:13:14.000Z</time>
      </trkpt>
      <trkpt lat="44.09618" lon="3.06986">
        <ele>101.5</ele>
        <time>2025-08-31T09:13:17.000Z</time>
      </trkpt>
      <trkpt lat="44.09623" lon="3.06996">
        <ele>101.6</ele>
        <time>2025-08-31T09:13:21.000Z</time>
      </trkpt>
      <trkpt lat="44.0963" lon="3.07008">
        <ele>101.6</ele>
        <time>2025-08-31T09:13:26.000Z</time>
      </trkpt>
      <trkpt lat="44.09638" lon="3.07016">
        <ele>101.7</ele>
        <time>2025-08-31T09:13:29.000Z</time>
      </trkpt>
      <trkpt lat="44.09646" lon="3.07027">
        <ele>101.9</ele>
        <time>2025-08-31T09:13:33.000Z</time>
      </trkpt>
      <trkpt lat="44.09657" lon="3.07037">
        <ele>102.3</ele>
        <time>2025-08-31T09:13:37.000Z</time>
      </trkpt>
      <trkpt lat="44.09661" lon="3.0705">
        <ele>103.1</ele>
        <time>2025-08-31T09:13:43.000Z</time>
      </trkpt>
      <trkpt lat="44.0967" lon="3.07061">
        <ele>103.7</ele>
        <time>2025-08-31T09:13:47.000Z</time>
      </trkpt>
      <trkpt lat="44.09679" lon="3.07068">
        <ele>104.2</ele>
        <time>2025-08-31T09:13:50.000Z</time>
      </trkpt>
      <trkpt lat="44.0969" lon="3.07075">
        <ele>104.5</ele>
        <time>2025-08-31T09:13:53.000Z</time>
      </trkpt>
      <trkpt lat="44.097" lon="3.07083">
        <ele>104.8</ele>
        <time>2025-08-31T09:13:56.000Z</time>
      </trkpt>
      <trkpt lat="44.09711" lon="3.07092">
        <ele>105.1</ele>
        <time>2025-08-31T09:13:59.000Z</time>
      </trkpt>
      <trkpt lat="44.0972" lon="3.07099">
        <ele>105.2</ele>
        <time>2025-08-31T09:14:01.000Z</time>
      </trkpt>
    </trkseg>
  </trk>
</gpx>